Wetterdaten: Montag, 28.11.2016
Datum Zeit Temp. A. Temp. A. max Feuchte A. Luftdruck Regen Wind Richtung Richtung Sonnenschein ET UV Solar Taupunkt Windböen
28.11.2016 00:00 0,9 °C 0,9 °C 95 % 1018,4 hPa 0,0 mm 2,7 km/h (1 Bft) O-NO 67 ° 0 min 0,000 mm 0,0 UV-I 0 W/m² 0,2 °C 4,8 km/h (1 Bft)
28.11.2016 00:01 0,9 °C 0,9 °C 95 % 1018,3 hPa 0,0 mm 2,0 km/h (1 Bft) O-NO 67 ° 0 min 0,000 mm 0,0 UV-I 0 W/m² 0,2 °C 3,2 km/h (1 Bft)
28.11.2016 00:02 0,9 °C 0,9 °C 95 % 1018,4 hPa 0,0 mm 1,0 km/h (0 Bft) O-NO 67 ° 0 min 0,000 mm 0,0 UV-I 0 W/m² 0,2 °C 1,6 km/h (1 Bft)
28.11.2016 00:03 0,9 °C 0,9 °C 95 % 1018,4 hPa 0,0 mm 0,9 km/h (0 Bft) O-NO 67 ° 0 min 0,000 mm 0,0 UV-I 0 W/m² 0,2 °C 4,8 km/h (1 Bft)
28.11.2016 00:04 0,9 °C 0,9 °C 94 % 1018,4 hPa 0,0 mm 2,7 km/h (1 Bft) O-NO 67 ° 0 min 0,000 mm 0,0 UV-I 0 W/m² 0,0 °C 4,8 km/h (1 Bft)
28.11.2016 00:05 0,9 °C 0,9 °C 94 % 1018,4 hPa 0,0 mm 1,9 km/h (1 Bft) O-NO 67 ° 0 min 0,000 mm 0,0 UV-I 0 W/m² 0,0 °C 3,2 km/h (1 Bft)
28.11.2016 00:06 0,9 °C 0,9 °C 94 % 1018,5 hPa 0,0 mm 3,0 km/h (1 Bft) O-NO 60 ° 0 min 0,000 mm 0,0 UV-I 0 W/m² 0,0 °C 4,8 km/h (1 Bft)
28.11.2016 00:07 0,9 °C 0,9 °C 94 % 1018,5 hPa 0,0 mm 2,7 km/h (1 Bft) O-NO 63 ° 0 min 0,000 mm 0,0 UV-I 0 W/m² 0,0 °C 4,8 km/h (1 Bft)
28.11.2016 00:08 0,9 °C 0,9 °C 94 % 1018,5 hPa 0,0 mm 2,5 km/h (1 Bft) O-NO 63 ° 0 min 0,000 mm 0,0 UV-I 0 W/m² 0,0 °C 4,8 km/h (1 Bft)
28.11.2016 00:09 0,9 °C 0,9 °C 94 % 1018,5 hPa 0,0 mm 2,4 km/h (1 Bft) O-NO 63 ° 0 min 0,000 mm 0,0 UV-I 0 W/m² 0,0 °C 4,8 km/h (1 Bft)
28.11.2016 00:10 0,9 °C 0,9 °C 94 % 1018,5 hPa 0,0 mm 1,3 km/h (1 Bft) O-NO 63 ° 0 min 0,000 mm 0,0 UV-I 0 W/m² 0,0 °C 3,2 km/h (1 Bft)
28.11.2016 00:11 0,9 °C 0,9 °C 95 % 1018,5 hPa 0,0 mm 0,6 km/h (0 Bft) O-NO 63 ° 0 min 0,000 mm 0,0 UV-I 0 W/m² 0,2 °C 1,6 km/h (1 Bft)
28.11.2016 00:12 0,9 °C 0,9 °C 94 % 1018,5 hPa 0,0 mm 0,3 km/h (0 Bft) O-NO 63 ° 0 min 0,000 mm 0,0 UV-I 0 W/m² 0,0 °C 1,6 km/h (1 Bft)
28.11.2016 00:13 0,9 °C 0,9 °C 95 % 1018,5 hPa 0,0 mm 0,0 km/h (0 Bft) O-NO 63 ° 0 min 0,000 mm 0,0 UV-I 0 W/m² 0,2 °C 0,0 km/h (0 Bft)
28.11.2016 00:14 0,9 °C 0,9 °C 95 % 1018,5 hPa 0,0 mm 1,6 km/h (1 Bft) O-NO 63 ° 0 min 0,000 mm 0,0 UV-I 0 W/m² 0,2 °C 3,2 km/h (1 Bft)
28.11.2016 00:15 0,9 °C 0,9 °C 94 % 1018,4 hPa 0,0 mm 0,2 km/h (0 Bft) O-NO 63 ° 0 min 0,000 mm 0,0 UV-I 0 W/m² 0,0 °C 1,6 km/h (1 Bft)
28.11.2016 00:16 0,9 °C 0,9 °C 95 % 1018,5 hPa 0,0 mm 1,7 km/h (1 Bft) O-NO 63 ° 0 min 0,000 mm 0,0 UV-I 0 W/m² 0,2 °C 3,2 km/h (1 Bft)
28.11.2016 00:17 0,9 °C 0,9 °C 94 % 1018,5 hPa 0,0 mm 1,3 km/h (1 Bft) O-NO 63 ° 0 min 0,000 mm 0,0 UV-I 0 W/m² 0,0 °C 3,2 km/h (1 Bft)
28.11.2016 00:18 0,9 °C 0,9 °C 94 % 1018,4 hPa 0,0 mm 2,3 km/h (1 Bft) O-NO 63 ° 0 min 0,000 mm 0,0 UV-I 0 W/m² 0,0 °C 4,8 km/h (1 Bft)
28.11.2016 00:19 0,9 °C 0,9 °C 94 % 1018,5 hPa 0,0 mm 1,1 km/h (1 Bft) O-NO 63 ° 0 min 0,000 mm 0,0 UV-I 0 W/m² 0,0 °C 3,2 km/h (1 Bft)
28.11.2016 00:20 0,9 °C 0,9 °C 94 % 1018,5 hPa 0,0 mm 2,7 km/h (1 Bft) O-NO 61 ° 0 min 0,000 mm 0,0 UV-I 0 W/m² 0,0 °C 4,8 km/h (1 Bft)
28.11.2016 00:21 0,9 °C 0,9 °C 94 % 1018,5 hPa 0,0 mm 0,5 km/h (0 Bft) O-NO 61 ° 0 min 0,000 mm 0,0 UV-I 0 W/m² 0,0 °C 1,6 km/h (1 Bft)
28.11.2016 00:22 0,9 °C 0,9 °C 95 % 1018,5 hPa 0,0 mm 2,3 km/h (1 Bft) O-NO 62 ° 0 min 0,000 mm 0,0 UV-I 0 W/m² 0,2 °C 3,2 km/h (1 Bft)
28.11.2016 00:23 0,9 °C 0,9 °C 95 % 1018,5 hPa 0,0 mm 3,2 km/h (1 Bft) O-NO 62 ° 0 min 0,000 mm 0,0 UV-I 0 W/m² 0,2 °C 4,8 km/h (1 Bft)
28.11.2016 00:24 0,9 °C 0,9 °C 95 % 1018,5 hPa 0,0 mm 3,4 km/h (1 Bft) O-NO 62 ° 0 min 0,000 mm 0,0 UV-I 0 W/m² 0,2 °C 4,8 km/h (1 Bft)
28.11.2016 00:25 0,9 °C 0,9 °C 95 % 1018,4 hPa 0,0 mm 4,1 km/h (1 Bft) O-NO 63 ° 0 min 0,000 mm 0,0 UV-I 0 W/m² 0,2 °C 4,8 km/h (1 Bft)
28.11.2016 00:26 0,9 °C 0,9 °C 95 % 1018,4 hPa 0,0 mm 2,9 km/h (1 Bft) O-NO 63 ° 0 min 0,000 mm 0,0 UV-I 0 W/m² 0,2 °C 4,8 km/h (1 Bft)
28.11.2016 00:27 0,9 °C 0,9 °C 95 % 1018,4 hPa 0,0 mm 3,8 km/h (1 Bft) O 84 ° 0 min 0,000 mm 0,0 UV-I 0 W/m² 0,2 °C 4,8 km/h (1 Bft)
28.11.2016 00:28 0,9 °C 0,9 °C 95 % 1018,4 hPa 0,0 mm 2,9 km/h (1 Bft) O 83 ° 0 min 0,000 mm 0,0 UV-I 0 W/m² 0,2 °C 4,8 km/h (1 Bft)
28.11.2016 00:29 0,9 °C 0,9 °C 95 % 1018,4 hPa 0,0 mm 1,9 km/h (1 Bft) O-NO 76 ° 0 min 0,000 mm 0,0 UV-I 0 W/m² 0,2 °C 4,8 km/h (1 Bft)
28.11.2016 00:30 0,9 °C 0,9 °C 95 % 1018,5 hPa 0,0 mm 5,1 km/h (1 Bft) O-NO 59 ° 0 min 0,000 mm 0,0 UV-I 0 W/m² 0,2 °C 6,4 km/h (2 Bft)
28.11.2016 00:31 0,9 °C 0,9 °C 95 % 1018,5 hPa 0,0 mm 3,1 km/h (1 Bft) O-NO 59 ° 0 min 0,000 mm 0,0 UV-I 0 W/m² 0,2 °C 6,4 km/h (2 Bft)
28.11.2016 00:32 0,9 °C 0,9 °C 94 % 1018,5 hPa 0,0 mm 3,0 km/h (1 Bft) O-NO 67 ° 0 min 0,000 mm 0,0 UV-I 0 W/m² 0,0 °C 8,0 km/h (2 Bft)
28.11.2016 00:33 0,9 °C 0,9 °C 94 % 1018,5 hPa 0,0 mm 6,6 km/h (2 Bft) O-NO 65 ° 0 min 0,000 mm 0,0 UV-I 0 W/m² 0,0 °C 11,3 km/h (2 Bft)
28.11.2016 00:34 0,9 °C 0,9 °C 95 % 1018,5 hPa 0,0 mm 5,6 km/h (1 Bft) O-NO 76 ° 0 min 0,000 mm 0,0 UV-I 0 W/m² 0,2 °C 6,4 km/h (2 Bft)
28.11.2016 00:35 0,9 °C 0,9 °C 95 % 1018,5 hPa 0,0 mm 6,1 km/h (2 Bft) O-NO 60 ° 0 min 0,000 mm 0,0 UV-I 0 W/m² 0,2 °C 8,0 km/h (2 Bft)
28.11.2016 00:36 0,9 °C 0,9 °C 95 % 1018,4 hPa 0,0 mm 6,4 km/h (2 Bft) O-NO 59 ° 0 min 0,000 mm 0,0 UV-I 0 W/m² 0,2 °C 8,0 km/h (2 Bft)
28.11.2016 00:37 0,9 °C 0,9 °C 95 % 1018,4 hPa 0,0 mm 4,6 km/h (1 Bft) NO 46 ° 0 min 0,000 mm 0,0 UV-I 0 W/m² 0,2 °C 6,4 km/h (2 Bft)
28.11.2016 00:38 0,9 °C 0,9 °C 95 % 1018,5 hPa 0,0 mm 4,8 km/h (1 Bft) O-NO 73 ° 0 min 0,000 mm 0,0 UV-I 0 W/m² 0,2 °C 6,4 km/h (2 Bft)
28.11.2016 00:39 0,9 °C 0,9 °C 95 % 1018,5 hPa 0,0 mm 5,2 km/h (1 Bft) NO 54 ° 0 min 0,000 mm 0,0 UV-I 0 W/m² 0,2 °C 9,7 km/h (2 Bft)
28.11.2016 00:40 0,9 °C 0,9 °C 95 % 1018,5 hPa 0,0 mm 1,6 km/h (1 Bft) NO 54 ° 0 min 0,000 mm 0,0 UV-I 0 W/m² 0,2 °C 4,8 km/h (1 Bft)
28.11.2016 00:41 0,9 °C 0,9 °C 95 % 1018,5 hPa 0,0 mm 5,3 km/h (1 Bft) O-NO 75 ° 0 min 0,000 mm 0,0 UV-I 0 W/m² 0,2 °C 11,3 km/h (2 Bft)
28.11.2016 00:42 0,9 °C 0,9 °C 95 % 1018,5 hPa 0,0 mm 6,6 km/h (2 Bft) O-NO 78 ° 0 min 0,000 mm 0,0 UV-I 0 W/m² 0,2 °C 11,3 km/h (2 Bft)
28.11.2016 00:43 0,9 °C 0,9 °C 95 % 1018,4 hPa 0,0 mm 4,6 km/h (1 Bft) N-NO 29 ° 0 min 0,000 mm 0,0 UV-I 0 W/m² 0,2 °C 6,4 km/h (2 Bft)
28.11.2016 00:44 0,9 °C 0,9 °C 95 % 1018,5 hPa 0,0 mm 4,0 km/h (1 Bft) NO 54 ° 0 min 0,000 mm 0,0 UV-I 0 W/m² 0,2 °C 6,4 km/h (2 Bft)
28.11.2016 00:45 0,9 °C 0,9 °C 95 % 1018,5 hPa 0,0 mm 6,0 km/h (2 Bft) O-NO 63 ° 0 min 0,000 mm 0,0 UV-I 0 W/m² 0,2 °C 8,0 km/h (2 Bft)
28.11.2016 00:46 0,9 °C 0,9 °C 95 % 1018,5 hPa 0,0 mm 4,2 km/h (1 Bft) O-NO 63 ° 0 min 0,000 mm 0,0 UV-I 0 W/m² 0,2 °C 4,8 km/h (1 Bft)
28.11.2016 00:47 0,9 °C 0,9 °C 95 % 1018,5 hPa 0,0 mm 4,9 km/h (1 Bft) O-NO 71 ° 0 min 0,000 mm 0,0 UV-I 0 W/m² 0,2 °C 8,0 km/h (2 Bft)
28.11.2016 00:48 0,9 °C 0,9 °C 95 % 1018,5 hPa 0,0 mm 5,4 km/h (1 Bft) O-NO 66 ° 0 min 0,000 mm 0,0 UV-I 0 W/m² 0,2 °C 8,0 km/h (2 Bft)
28.11.2016 00:49 0,9 °C 0,9 °C 95 % 1018,5 hPa 0,0 mm 7,2 km/h (2 Bft) O-NO 67 ° 0 min 0,000 mm 0,0 UV-I 0 W/m² 0,2 °C 9,7 km/h (2 Bft)
28.11.2016 00:50 0,9 °C 0,9 °C 95 % 1018,5 hPa 0,0 mm 5,4 km/h (1 Bft) NO 42 ° 0 min 0,000 mm 0,0 UV-I 0 W/m² 0,2 °C 6,4 km/h (2 Bft)
28.11.2016 00:51 0,9 °C 0,9 °C 95 % 1018,5 hPa 0,0 mm 5,6 km/h (1 Bft) O 80 ° 0 min 0,000 mm 0,0 UV-I 0 W/m² 0,2 °C 11,3 km/h (2 Bft)
28.11.2016 00:52 0,9 °C 0,9 °C 95 % 1018,5 hPa 0,0 mm 8,0 km/h (2 Bft) O-NO 66 ° 0 min 0,000 mm 0,0 UV-I 0 W/m² 0,2 °C 11,3 km/h (2 Bft)
28.11.2016 00:53 0,9 °C 0,9 °C 95 % 1018,5 hPa 0,0 mm 5,5 km/h (1 Bft) O-NO 59 ° 0 min 0,000 mm 0,0 UV-I 0 W/m² 0,2 °C 11,3 km/h (2 Bft)
28.11.2016 00:54 0,9 °C 0,9 °C 95 % 1018,5 hPa 0,0 mm 3,5 km/h (1 Bft) O-NO 61 ° 0 min 0,000 mm 0,0 UV-I 0 W/m² 0,2 °C 4,8 km/h (1 Bft)
28.11.2016 00:55 0,9 °C 0,9 °C 95 % 1018,5 hPa 0,0 mm 7,4 km/h (2 Bft) O-NO 65 ° 0 min 0,000 mm 0,0 UV-I 0 W/m² 0,2 °C 14,5 km/h (3 Bft)
28.11.2016 00:56 0,9 °C 0,9 °C 95 % 1018,5 hPa 0,0 mm 10,5 km/h (2 Bft) NO 40 ° 0 min 0,000 mm 0,0 UV-I 0 W/m² 0,2 °C 14,5 km/h (3 Bft)
28.11.2016 00:57 0,9 °C 0,9 °C 95 % 1018,5 hPa 0,0 mm 6,7 km/h (2 Bft) N 5 ° 0 min 0,000 mm 0,0 UV-I 0 W/m² 0,2 °C 11,3 km/h (2 Bft)
28.11.2016 00:58 0,9 °C 0,9 °C 95 % 1018,5 hPa 0,0 mm 6,5 km/h (2 Bft) NO 38 ° 0 min 0,000 mm 0,0 UV-I 0 W/m² 0,2 °C 11,3 km/h (2 Bft)
28.11.2016 00:59 0,9 °C 0,9 °C 95 % 1018,5 hPa 0,0 mm 9,1 km/h (2 Bft) NO 53 ° 0 min 0,000 mm 0,0 UV-I 0 W/m² 0,2 °C 14,5 km/h (3 Bft)
28.11.2016 01:00 0,9 °C 0,9 °C 94 % 1018,5 hPa 0,0 mm 8,4 km/h (2 Bft) NO 55 ° 0 min 0,000 mm 0,0 UV-I 0 W/m² 0,0 °C 14,5 km/h (3 Bft)
28.11.2016 01:01 0,9 °C 0,9 °C 94 % 1018,5 hPa 0,0 mm 10,5 km/h (2 Bft) O-NO 75 ° 0 min 0,000 mm 0,0 UV-I 0 W/m² 0,0 °C 14,5 km/h (3 Bft)
28.11.2016 01:02 0,9 °C 0,9 °C 95 % 1018,5 hPa 0,0 mm 7,8 km/h (2 Bft) N-NO 33 ° 0 min 0,000 mm 0,0 UV-I 0 W/m² 0,2 °C 11,3 km/h (2 Bft)
28.11.2016 01:03 0,9 °C 0,9 °C 95 % 1018,5 hPa 0,0 mm 6,1 km/h (2 Bft) N-NO 15 ° 0 min 0,000 mm 0,0 UV-I 0 W/m² 0,2 °C 9,7 km/h (2 Bft)
28.11.2016 01:04 0,8 °C 0,9 °C 95 % 1018,5 hPa 0,0 mm 6,5 km/h (2 Bft) NO 51 ° 0 min 0,000 mm 0,0 UV-I 0 W/m² 0,1 °C 12,9 km/h (3 Bft)
28.11.2016 01:05 0,9 °C 0,9 °C 95 % 1018,5 hPa 0,0 mm 9,7 km/h (2 Bft) O-NO 60 ° 0 min 0,000 mm 0,0 UV-I 0 W/m² 0,2 °C 14,5 km/h (3 Bft)
28.11.2016 01:06 0,8 °C 0,9 °C 95 % 1018,5 hPa 0,0 mm 6,7 km/h (2 Bft) O-NO 65 ° 0 min 0,000 mm 0,0 UV-I 0 W/m² 0,1 °C 11,3 km/h (2 Bft)
28.11.2016 01:07 0,8 °C 0,9 °C 95 % 1018,5 hPa 0,0 mm 7,7 km/h (2 Bft) NO 51 ° 0 min 0,000 mm 0,0 UV-I 0 W/m² 0,1 °C 9,7 km/h (2 Bft)
28.11.2016 01:08 0,8 °C 0,9 °C 95 % 1018,5 hPa 0,0 mm 4,9 km/h (1 Bft) NO 44 ° 0 min 0,000 mm 0,0 UV-I 0 W/m² 0,1 °C 9,7 km/h (2 Bft)
28.11.2016 01:09 0,8 °C 0,8 °C 95 % 1018,5 hPa 0,0 mm 5,4 km/h (1 Bft) O-NO 63 ° 0 min 0,000 mm 0,0 UV-I 0 W/m² 0,1 °C 8,0 km/h (2 Bft)
28.11.2016 01:10 0,8 °C 0,9 °C 95 % 1018,5 hPa 0,0 mm 5,9 km/h (2 Bft) O-NO 67 ° 0 min 0,000 mm 0,0 UV-I 0 W/m² 0,1 °C 8,0 km/h (2 Bft)
28.11.2016 01:11 0,8 °C 0,8 °C 95 % 1018,5 hPa 0,0 mm 4,1 km/h (1 Bft) NO 54 ° 0 min 0,000 mm 0,0 UV-I 0 W/m² 0,1 °C 4,8 km/h (1 Bft)
28.11.2016 01:12 0,8 °C 0,8 °C 95 % 1018,6 hPa 0,0 mm 6,8 km/h (2 Bft) N-NO 22 ° 0 min 0,000 mm 0,0 UV-I 0 W/m² 0,1 °C 14,5 km/h (3 Bft)
28.11.2016 01:13 0,8 °C 0,8 °C 94 % 1018,5 hPa 0,0 mm 5,5 km/h (1 Bft) NO 49 ° 0 min 0,000 mm 0,0 UV-I 0 W/m² -0,1 °C 8,0 km/h (2 Bft)
28.11.2016 01:14 0,8 °C 0,8 °C 94 % 1018,6 hPa 0,0 mm 7,0 km/h (2 Bft) N 11 ° 0 min 0,000 mm 0,0 UV-I 0 W/m² -0,1 °C 9,7 km/h (2 Bft)
28.11.2016 01:15 0,8 °C 0,8 °C 94 % 1018,6 hPa 0,0 mm 4,3 km/h (1 Bft) NO 41 ° 0 min 0,000 mm 0,0 UV-I 0 W/m² -0,1 °C 4,8 km/h (1 Bft)
28.11.2016 01:16 0,8 °C 0,8 °C 94 % 1018,5 hPa 0,0 mm 4,7 km/h (1 Bft) NO 49 ° 0 min 0,000 mm 0,0 UV-I 0 W/m² -0,1 °C 8,0 km/h (2 Bft)
28.11.2016 01:17 0,8 °C 0,8 °C 95 % 1018,5 hPa 0,0 mm 6,6 km/h (2 Bft) N-NO 24 ° 0 min 0,000 mm 0,0 UV-I 0 W/m² 0,1 °C 9,7 km/h (2 Bft)
28.11.2016 01:18 0,8 °C 0,8 °C 94 % 1018,6 hPa 0,0 mm 5,1 km/h (1 Bft) N 5 ° 0 min 0,000 mm 0,0 UV-I 0 W/m² -0,1 °C 8,0 km/h (2 Bft)
28.11.2016 01:19 0,8 °C 0,8 °C 94 % 1018,6 hPa 0,0 mm 3,7 km/h (1 Bft) O-NO 67 ° 0 min 0,000 mm 0,0 UV-I 0 W/m² -0,1 °C 6,4 km/h (2 Bft)
28.11.2016 01:20 0,8 °C 0,8 °C 94 % 1018,6 hPa 0,0 mm 8,3 km/h (2 Bft) NO 35 ° 0 min 0,000 mm 0,0 UV-I 0 W/m² -0,1 °C 14,5 km/h (3 Bft)
28.11.2016 01:21 0,8 °C 0,8 °C 94 % 1018,5 hPa 0,0 mm 6,6 km/h (2 Bft) NO 55 ° 0 min 0,000 mm 0,0 UV-I 0 W/m² -0,1 °C 9,7 km/h (2 Bft)
28.11.2016 01:22 0,8 °C 0,8 °C 94 % 1018,6 hPa 0,0 mm 8,3 km/h (2 Bft) NO 53 ° 0 min 0,000 mm 0,0 UV-I 0 W/m² -0,1 °C 19,3 km/h (3 Bft)
28.11.2016 01:23 0,8 °C 0,8 °C 94 % 1018,6 hPa 0,0 mm 12,0 km/h (2 Bft) O 82 ° 0 min 0,000 mm 0,0 UV-I 0 W/m² -0,1 °C 17,7 km/h (3 Bft)
28.11.2016 01:24 0,8 °C 0,8 °C 94 % 1018,6 hPa 0,0 mm 9,2 km/h (2 Bft) O-NO 69 ° 0 min 0,000 mm 0,0 UV-I 0 W/m² -0,1 °C 12,9 km/h (3 Bft)
28.11.2016 01:25 0,7 °C 0,8 °C 94 % 1018,7 hPa 0,0 mm 8,4 km/h (2 Bft) O-NO 77 ° 0 min 0,000 mm 0,0 UV-I 0 W/m² -0,2 °C 14,5 km/h (3 Bft)
28.11.2016 01:26 0,7 °C 0,7 °C 94 % 1018,7 hPa 0,0 mm 8,8 km/h (2 Bft) NO 44 ° 0 min 0,000 mm 0,0 UV-I 0 W/m² -0,2 °C 14,5 km/h (3 Bft)
28.11.2016 01:27 0,7 °C 0,8 °C 94 % 1018,7 hPa 0,0 mm 9,1 km/h (2 Bft) O-NO 78 ° 0 min 0,000 mm 0,0 UV-I 0 W/m² -0,2 °C 16,1 km/h (3 Bft)
28.11.2016 01:28 0,7 °C 0,7 °C 94 % 1018,7 hPa 0,0 mm 6,6 km/h (2 Bft) O-NO 61 ° 0 min 0,000 mm 0,0 UV-I 0 W/m² -0,2 °C 9,7 km/h (2 Bft)
28.11.2016 01:29 0,7 °C 0,7 °C 94 % 1018,7 hPa 0,0 mm 5,0 km/h (1 Bft) O-NO 67 ° 0 min 0,000 mm 0,0 UV-I 0 W/m² -0,2 °C 8,0 km/h (2 Bft)
28.11.2016 01:30 0,7 °C 0,7 °C 94 % 1018,7 hPa 0,0 mm 7,9 km/h (2 Bft) O 84 ° 0 min 0,000 mm 0,0 UV-I 0 W/m² -0,2 °C 11,3 km/h (2 Bft)
28.11.2016 01:31 0,7 °C 0,7 °C 94 % 1018,7 hPa 0,0 mm 8,7 km/h (2 Bft) NO 55 ° 0 min 0,000 mm 0,0 UV-I 0 W/m² -0,2 °C 12,9 km/h (3 Bft)
28.11.2016 01:32 0,7 °C 0,7 °C 94 % 1018,7 hPa 0,0 mm 6,2 km/h (2 Bft) N-NO 15 ° 0 min 0,000 mm 0,0 UV-I 0 W/m² -0,2 °C 8,0 km/h (2 Bft)
28.11.2016 01:33 0,7 °C 0,7 °C 94 % 1018,7 hPa 0,0 mm 7,4 km/h (2 Bft) O 85 ° 0 min 0,000 mm 0,0 UV-I 0 W/m² -0,2 °C 14,5 km/h (3 Bft)
28.11.2016 01:34 0,7 °C 0,7 °C 94 % 1018,7 hPa 0,0 mm 7,6 km/h (2 Bft) O-NO 61 ° 0 min 0,000 mm 0,0 UV-I 0 W/m² -0,2 °C 11,3 km/h (2 Bft)
28.11.2016 01:35 0,7 °C 0,7 °C 94 % 1018,8 hPa 0,0 mm 9,7 km/h (2 Bft) NO 40 ° 0 min 0,000 mm 0,0 UV-I 0 W/m² -0,2 °C 14,5 km/h (3 Bft)
28.11.2016 01:36 0,7 °C 0,7 °C 94 % 1018,7 hPa 0,0 mm 7,1 km/h (2 Bft) NO 34 ° 0 min 0,000 mm 0,0 UV-I 0 W/m² -0,2 °C 16,1 km/h (3 Bft)
28.11.2016 01:37 0,7 °C 0,7 °C 94 % 1018,7 hPa 0,0 mm 10,2 km/h (2 Bft) N-NO 28 ° 0 min 0,000 mm 0,0 UV-I 0 W/m² -0,2 °C 16,1 km/h (3 Bft)
28.11.2016 01:38 0,7 °C 0,7 °C 94 % 1018,8 hPa 0,0 mm 8,3 km/h (2 Bft) O-NO 63 ° 0 min 0,000 mm 0,0 UV-I 0 W/m² -0,2 °C 12,9 km/h (3 Bft)
28.11.2016 01:39 0,6 °C 0,7 °C 94 % 1018,8 hPa 0,0 mm 7,4 km/h (2 Bft) NO 35 ° 0 min 0,000 mm 0,0 UV-I 0 W/m² -0,3 °C 9,7 km/h (2 Bft)
28.11.2016 01:40 0,7 °C 0,7 °C 94 % 1018,8 hPa 0,0 mm 8,5 km/h (2 Bft) NO 54 ° 0 min 0,000 mm 0,0 UV-I 0 W/m² -0,2 °C 14,5 km/h (3 Bft)
28.11.2016 01:41 0,6 °C 0,7 °C 94 % 1018,8 hPa 0,0 mm 9,2 km/h (2 Bft) NO 35 ° 0 min 0,000 mm 0,0 UV-I 0 W/m² -0,3 °C 14,5 km/h (3 Bft)
28.11.2016 01:42 0,6 °C 0,6 °C 94 % 1018,8 hPa 0,0 mm 9,3 km/h (2 Bft) NO 54 ° 0 min 0,000 mm 0,0 UV-I 0 W/m² -0,3 °C 16,1 km/h (3 Bft)
28.11.2016 01:43 0,6 °C 0,6 °C 94 % 1018,8 hPa 0,0 mm 9,7 km/h (2 Bft) NO 34 ° 0 min 0,000 mm 0,0 UV-I 0 W/m² -0,3 °C 14,5 km/h (3 Bft)
28.11.2016 01:44 0,6 °C 0,6 °C 94 % 1018,8 hPa 0,0 mm 6,6 km/h (2 Bft) N-NO 19 ° 0 min 0,000 mm 0,0 UV-I 0 W/m² -0,3 °C 12,9 km/h (3 Bft)
28.11.2016 01:45 0,6 °C 0,6 °C 94 % 1018,8 hPa 0,0 mm 7,1 km/h (2 Bft) NO 41 ° 0 min 0,000 mm 0,0 UV-I 0 W/m² -0,3 °C 14,5 km/h (3 Bft)
28.11.2016 01:46 0,6 °C 0,6 °C 94 % 1018,9 hPa 0,0 mm 9,4 km/h (2 Bft) O 96 ° 0 min 0,000 mm 0,0 UV-I 0 W/m² -0,3 °C 14,5 km/h (3 Bft)
28.11.2016 01:47 0,6 °C 0,6 °C 94 % 1018,8 hPa 0,0 mm 9,1 km/h (2 Bft) NO 45 ° 0 min 0,000 mm 0,0 UV-I 0 W/m² -0,3 °C 14,5 km/h (3 Bft)
28.11.2016 01:48 0,6 °C 0,6 °C 94 % 1018,8 hPa 0,0 mm 7,4 km/h (2 Bft) O-NO 73 ° 0 min 0,000 mm 0,0 UV-I 0 W/m² -0,3 °C 12,9 km/h (3 Bft)
28.11.2016 01:49 0,6 °C 0,6 °C 94 % 1018,8 hPa 0,0 mm 6,5 km/h (2 Bft) O-NO 65 ° 0 min 0,000 mm 0,0 UV-I 0 W/m² -0,3 °C 9,7 km/h (2 Bft)
28.11.2016 01:50 0,6 °C 0,6 °C 94 % 1018,8 hPa 0,0 mm 6,6 km/h (2 Bft) NO 44 ° 0 min 0,000 mm 0,0 UV-I 0 W/m² -0,3 °C 16,1 km/h (3 Bft)
28.11.2016 01:51 0,6 °C 0,6 °C 94 % 1018,8 hPa 0,0 mm 5,7 km/h (1 Bft) NO 55 ° 0 min 0,000 mm 0,0 UV-I 0 W/m² -0,3 °C 14,5 km/h (3 Bft)
28.11.2016 01:52 0,5 °C 0,6 °C 94 % 1018,9 hPa 0,0 mm 10,1 km/h (2 Bft) NO 56 ° 0 min 0,000 mm 0,0 UV-I 0 W/m² -0,4 °C 16,1 km/h (3 Bft)
28.11.2016 01:53 0,5 °C 0,6 °C 94 % 1018,9 hPa 0,0 mm 10,0 km/h (2 Bft) O 87 ° 0 min 0,000 mm 0,0 UV-I 0 W/m² -0,4 °C 16,1 km/h (3 Bft)
28.11.2016 01:54 0,5 °C 0,6 °C 94 % 1018,9 hPa 0,0 mm 7,1 km/h (2 Bft) NO 49 ° 0 min 0,000 mm 0,0 UV-I 0 W/m² -0,4 °C 11,3 km/h (2 Bft)
28.11.2016 01:55 0,5 °C 0,5 °C 94 % 1018,9 hPa 0,0 mm 17,3 km/h (3 Bft) NO 42 ° 0 min 0,000 mm 0,0 UV-I 0 W/m² -0,4 °C 20,9 km/h (4 Bft)
28.11.2016 01:56 0,4 °C 0,5 °C 94 % 1018,9 hPa 0,0 mm 7,6 km/h (2 Bft) O-NO 59 ° 0 min 0,000 mm 0,0 UV-I 0 W/m² -0,5 °C 11,3 km/h (2 Bft)
28.11.2016 01:57 0,4 °C 0,4 °C 94 % 1018,9 hPa 0,0 mm 10,4 km/h (2 Bft) O-NO 61 ° 0 min 0,000 mm 0,0 UV-I 0 W/m² -0,5 °C 14,5 km/h (3 Bft)
28.11.2016 01:58 0,4 °C 0,4 °C 94 % 1018,9 hPa 0,0 mm 9,4 km/h (2 Bft) N-NO 17 ° 0 min 0,000 mm 0,0 UV-I 0 W/m² -0,5 °C 14,5 km/h (3 Bft)
28.11.2016 01:59 0,4 °C 0,4 °C 94 % 1018,9 hPa 0,0 mm 10,0 km/h (2 Bft) NO 49 ° 0 min 0,000 mm 0,0 UV-I 0 W/m² -0,5 °C 17,7 km/h (3 Bft)
28.11.2016 02:00 0,4 °C 0,4 °C 94 % 1019,0 hPa 0,0 mm 10,2 km/h (2 Bft) O-NO 57 ° 0 min 0,000 mm 0,0 UV-I 0 W/m² -0,5 °C 16,1 km/h (3 Bft)
28.11.2016 02:01 0,4 °C 0,4 °C 94 % 1019,0 hPa 0,0 mm 11,7 km/h (2 Bft) O 82 ° 0 min 0,000 mm 0,0 UV-I 0 W/m² -0,5 °C 16,1 km/h (3 Bft)
28.11.2016 02:02 0,4 °C 0,4 °C 94 % 1019,0 hPa 0,0 mm 8,3 km/h (2 Bft) NO 53 ° 0 min 0,000 mm 0,0 UV-I 0 W/m² -0,5 °C 11,3 km/h (2 Bft)
28.11.2016 02:03 0,4 °C 0,4 °C 94 % 1019,0 hPa 0,0 mm 7,5 km/h (2 Bft) NO 37 ° 0 min 0,000 mm 0,0 UV-I 0 W/m² -0,5 °C 14,5 km/h (3 Bft)
28.11.2016 02:04 0,4 °C 0,4 °C 94 % 1019,0 hPa 0,0 mm 10,8 km/h (2 Bft) N-NO 19 ° 0 min 0,000 mm 0,0 UV-I 0 W/m² -0,5 °C 16,1 km/h (3 Bft)
28.11.2016 02:05 0,4 °C 0,4 °C 94 % 1019,0 hPa 0,0 mm 9,3 km/h (2 Bft) O-SO 110 ° 0 min 0,000 mm 0,0 UV-I 0 W/m² -0,5 °C 14,5 km/h (3 Bft)
28.11.2016 02:06 0,3 °C 0,4 °C 94 % 1019,0 hPa 0,0 mm 8,5 km/h (2 Bft) N-NO 23 ° 0 min 0,000 mm 0,0 UV-I 0 W/m² -0,5 °C 14,5 km/h (3 Bft)
28.11.2016 02:07 0,3 °C 0,4 °C 94 % 1019,0 hPa 0,0 mm 7,6 km/h (2 Bft) O 80 ° 0 min 0,000 mm 0,0 UV-I 0 W/m² -0,5 °C 12,9 km/h (3 Bft)
28.11.2016 02:08 0,3 °C 0,3 °C 94 % 1019,1 hPa 0,0 mm 6,0 km/h (2 Bft) NO 47 ° 0 min 0,000 mm 0,0 UV-I 0 W/m² -0,5 °C 11,3 km/h (2 Bft)
28.11.2016 02:09 0,4 °C 0,4 °C 94 % 1019,1 hPa 0,0 mm 6,9 km/h (2 Bft) N-NO 32 ° 0 min 0,000 mm 0,0 UV-I 0 W/m² -0,5 °C 11,3 km/h (2 Bft)
28.11.2016 02:10 0,3 °C 0,4 °C 94 % 1019,1 hPa 0,0 mm 8,2 km/h (2 Bft) N-NO 32 ° 0 min 0,000 mm 0,0 UV-I 0 W/m² -0,5 °C 11,3 km/h (2 Bft)
28.11.2016 02:11 0,3 °C 0,3 °C 94 % 1019,1 hPa 0,0 mm 9,7 km/h (2 Bft) O 83 ° 0 min 0,000 mm 0,0 UV-I 0 W/m² -0,5 °C 14,5 km/h (3 Bft)
28.11.2016 02:12 0,3 °C 0,3 °C 94 % 1019,1 hPa 0,0 mm 13,7 km/h (3 Bft) NO 55 ° 0 min 0,000 mm 0,0 UV-I 0 W/m² -0,5 °C 17,7 km/h (3 Bft)
28.11.2016 02:13 0,3 °C 0,3 °C 94 % 1019,1 hPa 0,0 mm 12,1 km/h (2 Bft) O-NO 61 ° 0 min 0,000 mm 0,0 UV-I 0 W/m² -0,5 °C 16,1 km/h (3 Bft)
28.11.2016 02:14 0,3 °C 0,3 °C 94 % 1019,1 hPa 0,0 mm 7,9 km/h (2 Bft) N-NO 29 ° 0 min 0,000 mm 0,0 UV-I 0 W/m² -0,5 °C 12,9 km/h (3 Bft)
28.11.2016 02:15 0,3 °C 0,3 °C 94 % 1019,1 hPa 0,0 mm 11,4 km/h (2 Bft) O 89 ° 0 min 0,000 mm 0,0 UV-I 0 W/m² -0,5 °C 16,1 km/h (3 Bft)
28.11.2016 02:16 0,3 °C 0,3 °C 94 % 1019,2 hPa 0,0 mm 13,0 km/h (3 Bft) NO 44 ° 0 min 0,000 mm 0,0 UV-I 0 W/m² -0,5 °C 16,1 km/h (3 Bft)
28.11.2016 02:17 0,2 °C 0,3 °C 93 % 1019,2 hPa 0,0 mm 7,7 km/h (2 Bft) NO 49 ° 0 min 0,000 mm 0,0 UV-I 0 W/m² -0,8 °C 11,3 km/h (2 Bft)
28.11.2016 02:18 0,3 °C 0,3 °C 93 % 1019,2 hPa 0,0 mm 9,1 km/h (2 Bft) NO 44 ° 0 min 0,000 mm 0,0 UV-I 0 W/m² -0,7 °C 14,5 km/h (3 Bft)
28.11.2016 02:19 0,3 °C 0,3 °C 94 % 1019,2 hPa 0,0 mm 5,9 km/h (2 Bft) NO 48 ° 0 min 0,000 mm 0,0 UV-I 0 W/m² -0,5 °C 11,3 km/h (2 Bft)
28.11.2016 02:20 0,2 °C 0,3 °C 93 % 1019,2 hPa 0,0 mm 8,2 km/h (2 Bft) O-NO 57 ° 0 min 0,000 mm 0,0 UV-I 0 W/m² -0,8 °C 12,9 km/h (3 Bft)
28.11.2016 02:21 0,3 °C 0,3 °C 94 % 1019,2 hPa 0,0 mm 6,2 km/h (2 Bft) NO 44 ° 0 min 0,000 mm 0,0 UV-I 0 W/m² -0,5 °C 12,9 km/h (3 Bft)
28.11.2016 02:22 0,2 °C 0,3 °C 93 % 1019,2 hPa 0,0 mm 6,9 km/h (2 Bft) N-NO 26 ° 0 min 0,000 mm 0,0 UV-I 0 W/m² -0,8 °C 9,7 km/h (2 Bft)
28.11.2016 02:23 0,2 °C 0,3 °C 94 % 1019,2 hPa 0,0 mm 10,0 km/h (2 Bft) O-NO 74 ° 0 min 0,000 mm 0,0 UV-I 0 W/m² -0,6 °C 16,1 km/h (3 Bft)
28.11.2016 02:24 0,2 °C 0,3 °C 94 % 1019,2 hPa 0,0 mm 6,6 km/h (2 Bft) O-NO 61 ° 0 min 0,000 mm 0,0 UV-I 0 W/m² -0,6 °C 8,0 km/h (2 Bft)
28.11.2016 02:25 0,2 °C 0,3 °C 94 % 1019,3 hPa 0,0 mm 7,1 km/h (2 Bft) N-NO 32 ° 0 min 0,000 mm 0,0 UV-I 0 W/m² -0,6 °C 9,7 km/h (2 Bft)
28.11.2016 02:26 0,2 °C 0,2 °C 94 % 1019,3 hPa 0,0 mm 8,9 km/h (2 Bft) O-NO 72 ° 0 min 0,000 mm 0,0 UV-I 0 W/m² -0,6 °C 14,5 km/h (3 Bft)
28.11.2016 02:27 0,2 °C 0,2 °C 93 % 1019,3 hPa 0,0 mm 10,8 km/h (2 Bft) NO 56 ° 0 min 0,000 mm 0,0 UV-I 0 W/m² -0,8 °C 16,1 km/h (3 Bft)
28.11.2016 02:28 0,2 °C 0,2 °C 93 % 1019,3 hPa 0,0 mm 6,9 km/h (2 Bft) N-NO 30 ° 0 min 0,000 mm 0,0 UV-I 0 W/m² -0,8 °C 9,7 km/h (2 Bft)
28.11.2016 02:29 0,2 °C 0,2 °C 94 % 1019,3 hPa 0,0 mm 9,7 km/h (2 Bft) NO 37 ° 0 min 0,000 mm 0,0 UV-I 0 W/m² -0,6 °C 16,1 km/h (3 Bft)
28.11.2016 02:30 0,2 °C 0,2 °C 93 % 1019,3 hPa 0,0 mm 9,3 km/h (2 Bft) O 85 ° 0 min 0,000 mm 0,0 UV-I 0 W/m² -0,8 °C 14,5 km/h (3 Bft)
28.11.2016 02:31 0,2 °C 0,2 °C 93 % 1019,3 hPa 0,0 mm 9,3 km/h (2 Bft) NO 56 ° 0 min 0,000 mm 0,0 UV-I 0 W/m² -0,8 °C 12,9 km/h (3 Bft)
28.11.2016 02:32 0,2 °C 0,2 °C 93 % 1019,3 hPa 0,0 mm 6,6 km/h (2 Bft) O 86 ° 0 min 0,000 mm 0,0 UV-I 0 W/m² -0,8 °C 9,7 km/h (2 Bft)
28.11.2016 02:33 0,1 °C 0,2 °C 93 % 1019,4 hPa 0,0 mm 7,4 km/h (2 Bft) NO 45 ° 0 min 0,000 mm 0,0 UV-I 0 W/m² -0,9 °C 11,3 km/h (2 Bft)
28.11.2016 02:34 0,2 °C 0,2 °C 93 % 1019,4 hPa 0,0 mm 6,4 km/h (2 Bft) N-NO 29 ° 0 min 0,000 mm 0,0 UV-I 0 W/m² -0,8 °C 12,9 km/h (3 Bft)
28.11.2016 02:35 0,2 °C 0,2 °C 93 % 1019,3 hPa 0,0 mm 7,1 km/h (2 Bft) O-NO 66 ° 0 min 0,000 mm 0,0 UV-I 0 W/m² -0,8 °C 14,5 km/h (3 Bft)
28.11.2016 02:36 0,1 °C 0,2 °C 93 % 1019,3 hPa 0,0 mm 6,1 km/h (2 Bft) NO 53 ° 0 min 0,000 mm 0,0 UV-I 0 W/m² -0,9 °C 9,7 km/h (2 Bft)
28.11.2016 02:37 0,1 °C 0,2 °C 93 % 1019,4 hPa 0,0 mm 4,1 km/h (1 Bft) NO 46 ° 0 min 0,000 mm 0,0 UV-I 0 W/m² -0,9 °C 6,4 km/h (2 Bft)
28.11.2016 02:38 0,2 °C 0,2 °C 93 % 1019,3 hPa 0,0 mm 3,3 km/h (1 Bft) O-NO 63 ° 0 min 0,000 mm 0,0 UV-I 0 W/m² -0,8 °C 4,8 km/h (1 Bft)
28.11.2016 02:39 0,2 °C 0,2 °C 93 % 1019,3 hPa 0,0 mm 4,0 km/h (1 Bft) O 86 ° 0 min 0,000 mm 0,0 UV-I 0 W/m² -0,8 °C 8,0 km/h (2 Bft)
28.11.2016 02:40 0,1 °C 0,2 °C 93 % 1019,3 hPa 0,0 mm 3,3 km/h (1 Bft) O 96 ° 0 min 0,000 mm 0,0 UV-I 0 W/m² -0,9 °C 4,8 km/h (1 Bft)
28.11.2016 02:41 0,1 °C 0,2 °C 93 % 1019,3 hPa 0,0 mm 5,5 km/h (1 Bft) O-NO 64 ° 0 min 0,000 mm 0,0 UV-I 0 W/m² -0,9 °C 11,3 km/h (2 Bft)
28.11.2016 02:42 0,1 °C 0,1 °C 93 % 1019,3 hPa 0,0 mm 5,5 km/h (1 Bft) NO 46 ° 0 min 0,000 mm 0,0 UV-I 0 W/m² -0,9 °C 8,0 km/h (2 Bft)
28.11.2016 02:43 0,1 °C 0,1 °C 93 % 1019,3 hPa 0,0 mm 5,8 km/h (2 Bft) O-NO 74 ° 0 min 0,000 mm 0,0 UV-I 0 W/m² -0,9 °C 8,0 km/h (2 Bft)
28.11.2016 02:44 0,1 °C 0,1 °C 93 % 1019,3 hPa 0,0 mm 5,9 km/h (2 Bft) O-NO 64 ° 0 min 0,000 mm 0,0 UV-I 0 W/m² -0,9 °C 11,3 km/h (2 Bft)
28.11.2016 02:45 0,1 °C 0,1 °C 93 % 1019,4 hPa 0,0 mm 7,3 km/h (2 Bft) O-NO 74 ° 0 min 0,000 mm 0,0 UV-I 0 W/m² -0,9 °C 12,9 km/h (3 Bft)
28.11.2016 02:46 0,1 °C 0,1 °C 93 % 1019,4 hPa 0,0 mm 5,2 km/h (1 Bft) O-NO 57 ° 0 min 0,000 mm 0,0 UV-I 0 W/m² -0,9 °C 11,3 km/h (2 Bft)
28.11.2016 02:47 0,1 °C 0,1 °C 93 % 1019,4 hPa 0,0 mm 3,4 km/h (1 Bft) O-NO 59 ° 0 min 0,000 mm 0,0 UV-I 0 W/m² -0,9 °C 4,8 km/h (1 Bft)
28.11.2016 02:48 0,1 °C 0,1 °C 93 % 1019,4 hPa 0,0 mm 7,8 km/h (2 Bft) NO 40 ° 0 min 0,000 mm 0,0 UV-I 0 W/m² -0,9 °C 12,9 km/h (3 Bft)
28.11.2016 02:49 0,1 °C 0,1 °C 93 % 1019,4 hPa 0,0 mm 5,2 km/h (1 Bft) NO 36 ° 0 min 0,000 mm 0,0 UV-I 0 W/m² -0,9 °C 8,0 km/h (2 Bft)
28.11.2016 02:50 0,1 °C 0,1 °C 93 % 1019,4 hPa 0,0 mm 5,4 km/h (1 Bft) O-NO 59 ° 0 min 0,000 mm 0,0 UV-I 0 W/m² -0,9 °C 8,0 km/h (2 Bft)
28.11.2016 02:51 0,1 °C 0,1 °C 93 % 1019,4 hPa 0,0 mm 6,7 km/h (2 Bft) NO 50 ° 0 min 0,000 mm 0,0 UV-I 0 W/m² -0,9 °C 9,7 km/h (2 Bft)
28.11.2016 02:52 0,1 °C 0,1 °C 93 % 1019,4 hPa 0,0 mm 5,7 km/h (1 Bft) NO 41 ° 0 min 0,000 mm 0,0 UV-I 0 W/m² -0,9 °C 8,0 km/h (2 Bft)
28.11.2016 02:53 0,1 °C 0,1 °C 93 % 1019,5 hPa 0,0 mm 5,0 km/h (1 Bft) O-NO 65 ° 0 min 0,000 mm 0,0 UV-I 0 W/m² -0,9 °C 8,0 km/h (2 Bft)
28.11.2016 02:54 0,1 °C 0,1 °C 94 % 1019,4 hPa 0,0 mm 3,9 km/h (1 Bft) O-NO 61 ° 0 min 0,000 mm 0,0 UV-I 0 W/m² -0,7 °C 6,4 km/h (2 Bft)
28.11.2016 02:55 0,1 °C 0,1 °C 94 % 1019,4 hPa 0,0 mm 5,6 km/h (1 Bft) NO 51 ° 0 min 0,000 mm 0,0 UV-I 0 W/m² -0,7 °C 6,4 km/h (2 Bft)
28.11.2016 02:56 0,1 °C 0,1 °C 94 % 1019,4 hPa 0,0 mm 6,1 km/h (2 Bft) N 11 ° 0 min 0,000 mm 0,0 UV-I 0 W/m² -0,7 °C 9,7 km/h (2 Bft)
28.11.2016 02:57 0,1 °C 0,1 °C 94 % 1019,4 hPa 0,0 mm 7,6 km/h (2 Bft) NO 54 ° 0 min 0,000 mm 0,0 UV-I 0 W/m² -0,7 °C 9,7 km/h (2 Bft)
28.11.2016 02:58 0,1 °C 0,1 °C 94 % 1019,4 hPa 0,0 mm 7,6 km/h (2 Bft) N-NO 29 ° 0 min 0,000 mm 0,0 UV-I 0 W/m² -0,7 °C 9,7 km/h (2 Bft)
28.11.2016 02:59 0,1 °C 0,1 °C 94 % 1019,5 hPa 0,0 mm 7,3 km/h (2 Bft) N-NO 27 ° 0 min 0,000 mm 0,0 UV-I 0 W/m² -0,7 °C 11,3 km/h (2 Bft)
28.11.2016 03:00 0,1 °C 0,1 °C 94 % 1019,5 hPa 0,0 mm 8,7 km/h (2 Bft) O-NO 71 ° 0 min 0,000 mm 0,0 UV-I 0 W/m² -0,7 °C 14,5 km/h (3 Bft)
28.11.2016 03:01 0,1 °C 0,1 °C 94 % 1019,5 hPa 0,0 mm 10,9 km/h (2 Bft) O 82 ° 0 min 0,000 mm 0,0 UV-I 0 W/m² -0,7 °C 16,1 km/h (3 Bft)
28.11.2016 03:02 0,1 °C 0,1 °C 94 % 1019,5 hPa 0,0 mm 6,5 km/h (2 Bft) O-NO 68 ° 0 min 0,000 mm 0,0 UV-I 0 W/m² -0,7 °C 11,3 km/h (2 Bft)
28.11.2016 03:03 0,1 °C 0,1 °C 93 % 1019,5 hPa 0,0 mm 7,8 km/h (2 Bft) NO 40 ° 0 min 0,000 mm 0,0 UV-I 0 W/m² -0,9 °C 12,9 km/h (3 Bft)
28.11.2016 03:04 0,1 °C 0,1 °C 93 % 1019,5 hPa 0,0 mm 6,2 km/h (2 Bft) O-NO 58 ° 0 min 0,000 mm 0,0 UV-I 0 W/m² -0,9 °C 9,7 km/h (2 Bft)
28.11.2016 03:05 0,1 °C 0,1 °C 93 % 1019,5 hPa 0,0 mm 12,9 km/h (3 Bft) O-NO 69 ° 0 min 0,000 mm 0,0 UV-I 0 W/m² -0,9 °C 17,7 km/h (3 Bft)
28.11.2016 03:06 0,1 °C 0,1 °C 93 % 1019,5 hPa 0,0 mm 10,0 km/h (2 Bft) N 355 ° 0 min 0,000 mm 0,0 UV-I 0 W/m² -0,9 °C 12,9 km/h (3 Bft)
28.11.2016 03:07 0,0 °C 0,1 °C 93 % 1019,5 hPa 0,0 mm 7,7 km/h (2 Bft) N-NO 23 ° 0 min 0,000 mm 0,0 UV-I 0 W/m² -1,0 °C 12,9 km/h (3 Bft)
28.11.2016 03:08 0,0 °C 0,0 °C 93 % 1019,6 hPa 0,0 mm 8,0 km/h (2 Bft) N-NO 32 ° 0 min 0,000 mm 0,0 UV-I 0 W/m² -1,0 °C 14,5 km/h (3 Bft)
28.11.2016 03:09 0,0 °C 0,0 °C 93 % 1019,5 hPa 0,0 mm 6,8 km/h (2 Bft) O-NO 59 ° 0 min 0,000 mm 0,0 UV-I 0 W/m² -1,0 °C 12,9 km/h (3 Bft)
28.11.2016 03:10 0,0 °C 0,0 °C 93 % 1019,5 hPa 0,0 mm 11,0 km/h (2 Bft) O-NO 74 ° 0 min 0,000 mm 0,0 UV-I 0 W/m² -1,0 °C 14,5 km/h (3 Bft)
28.11.2016 03:11 -0,1 °C 0,0 °C 93 % 1019,5 hPa 0,0 mm 9,1 km/h (2 Bft) O-NO 69 ° 0 min 0,000 mm 0,0 UV-I 0 W/m² -1,1 °C 12,9 km/h (3 Bft)
28.11.2016 03:12 0,0 °C 0,0 °C 93 % 1019,5 hPa 0,0 mm 7,0 km/h (2 Bft) NO 51 ° 0 min 0,000 mm 0,0 UV-I 0 W/m² -1,0 °C 11,3 km/h (2 Bft)
28.11.2016 03:13 0,0 °C 0,0 °C 93 % 1019,5 hPa 0,0 mm 4,8 km/h (1 Bft) N-NO 31 ° 0 min 0,000 mm 0,0 UV-I 0 W/m² -1,0 °C 12,9 km/h (3 Bft)
28.11.2016 03:14 0,0 °C 0,0 °C 93 % 1019,5 hPa 0,0 mm 8,6 km/h (2 Bft) O 80 ° 0 min 0,000 mm 0,0 UV-I 0 W/m² -1,0 °C 12,9 km/h (3 Bft)
28.11.2016 03:15 -0,1 °C 0,0 °C 93 % 1019,6 hPa 0,0 mm 4,5 km/h (1 Bft) NO 49 ° 0 min 0,000 mm 0,0 UV-I 0 W/m² -1,1 °C 8,0 km/h (2 Bft)
28.11.2016 03:16 -0,1 °C -0,1 °C 93 % 1019,6 hPa 0,0 mm 5,8 km/h (2 Bft) O-NO 75 ° 0 min 0,000 mm 0,0 UV-I 0 W/m² -1,1 °C 12,9 km/h (3 Bft)
28.11.2016 03:17 -0,1 °C -0,1 °C 93 % 1019,5 hPa 0,0 mm 6,7 km/h (2 Bft) N-NO 33 ° 0 min 0,000 mm 0,0 UV-I 0 W/m² -1,1 °C 9,7 km/h (2 Bft)
28.11.2016 03:18 -0,1 °C -0,1 °C 93 % 1019,5 hPa 0,0 mm 8,8 km/h (2 Bft) NO 34 ° 0 min 0,000 mm 0,0 UV-I 0 W/m² -1,1 °C 14,5 km/h (3 Bft)
28.11.2016 03:19 -0,1 °C -0,1 °C 93 % 1019,5 hPa 0,0 mm 8,5 km/h (2 Bft) NO 34 ° 0 min 0,000 mm 0,0 UV-I 0 W/m² -1,1 °C 14,5 km/h (3 Bft)
28.11.2016 03:20 -0,1 °C -0,1 °C 93 % 1019,5 hPa 0,0 mm 12,3 km/h (3 Bft) NO 50 ° 0 min 0,000 mm 0,0 UV-I 0 W/m² -1,1 °C 16,1 km/h (3 Bft)
28.11.2016 03:21 -0,1 °C -0,1 °C 93 % 1019,5 hPa 0,0 mm 11,5 km/h (2 Bft) O-NO 57 ° 0 min 0,000 mm 0,0 UV-I 0 W/m² -1,1 °C 16,1 km/h (3 Bft)
28.11.2016 03:22 -0,1 °C -0,1 °C 93 % 1019,5 hPa 0,0 mm 10,0 km/h (2 Bft) NO 40 ° 0 min 0,000 mm 0,0 UV-I 0 W/m² -1,1 °C 16,1 km/h (3 Bft)
28.11.2016 03:23 -0,2 °C -0,1 °C 93 % 1019,6 hPa 0,0 mm 5,4 km/h (1 Bft) O-NO 68 ° 0 min 0,000 mm 0,0 UV-I 0 W/m² -1,2 °C 12,9 km/h (3 Bft)
28.11.2016 03:24 -0,2 °C -0,1 °C 93 % 1019,5 hPa 0,0 mm 9,0 km/h (2 Bft) NO 38 ° 0 min 0,000 mm 0,0 UV-I 0 W/m² -1,2 °C 14,5 km/h (3 Bft)
28.11.2016 03:25 -0,2 °C -0,2 °C 93 % 1019,5 hPa 0,0 mm 7,8 km/h (2 Bft) N-NO 26 ° 0 min 0,000 mm 0,0 UV-I 0 W/m² -1,2 °C 16,1 km/h (3 Bft)
28.11.2016 03:26 -0,2 °C -0,2 °C 93 % 1019,5 hPa 0,0 mm 8,5 km/h (2 Bft) NO 55 ° 0 min 0,000 mm 0,0 UV-I 0 W/m² -1,2 °C 14,5 km/h (3 Bft)
28.11.2016 03:27 -0,2 °C -0,2 °C 93 % 1019,5 hPa 0,0 mm 9,7 km/h (2 Bft) O-NO 70 ° 0 min 0,000 mm 0,0 UV-I 0 W/m² -1,2 °C 16,1 km/h (3 Bft)
28.11.2016 03:28 -0,2 °C -0,2 °C 93 % 1019,6 hPa 0,0 mm 9,5 km/h (2 Bft) O 83 ° 0 min 0,000 mm 0,0 UV-I 0 W/m² -1,2 °C 16,1 km/h (3 Bft)
28.11.2016 03:29 -0,2 °C -0,2 °C 93 % 1019,5 hPa 0,0 mm 5,8 km/h (2 Bft) NO 45 ° 0 min 0,000 mm 0,0 UV-I 0 W/m² -1,2 °C 14,5 km/h (3 Bft)
28.11.2016 03:30 -0,3 °C -0,2 °C 93 % 1019,5 hPa 0,0 mm 5,2 km/h (1 Bft) O-NO 62 ° 0 min 0,000 mm 0,0 UV-I 0 W/m² -1,3 °C 8,0 km/h (2 Bft)
28.11.2016 03:31 -0,3 °C -0,2 °C 93 % 1019,5 hPa 0,0 mm 5,6 km/h (1 Bft) O 80 ° 0 min 0,000 mm 0,0 UV-I 0 W/m² -1,3 °C 9,7 km/h (2 Bft)
28.11.2016 03:32 -0,3 °C -0,3 °C 93 % 1019,5 hPa 0,0 mm 9,0 km/h (2 Bft) N-NO 33 ° 0 min 0,000 mm 0,0 UV-I 0 W/m² -1,3 °C 12,9 km/h (3 Bft)
28.11.2016 03:33 -0,3 °C -0,3 °C 93 % 1019,5 hPa 0,0 mm 10,1 km/h (2 Bft) O 96 ° 0 min 0,000 mm 0,0 UV-I 0 W/m² -1,3 °C 12,9 km/h (3 Bft)
28.11.2016 03:34 -0,3 °C -0,3 °C 93 % 1019,5 hPa 0,0 mm 8,3 km/h (2 Bft) O-NO 74 ° 0 min 0,000 mm 0,0 UV-I 0 W/m² -1,3 °C 12,9 km/h (3 Bft)
28.11.2016 03:35 -0,3 °C -0,3 °C 93 % 1019,6 hPa 0,0 mm 10,8 km/h (2 Bft) O-NO 57 ° 0 min 0,000 mm 0,0 UV-I 0 W/m² -1,3 °C 14,5 km/h (3 Bft)
28.11.2016 03:36 -0,3 °C -0,3 °C 93 % 1019,6 hPa 0,0 mm 11,4 km/h (2 Bft) O-NO 77 ° 0 min 0,000 mm 0,0 UV-I 0 W/m² -1,3 °C 16,1 km/h (3 Bft)
28.11.2016 03:37 -0,3 °C -0,3 °C 93 % 1019,6 hPa 0,0 mm 10,4 km/h (2 Bft) NO 38 ° 0 min 0,000 mm 0,0 UV-I 0 W/m² -1,3 °C 17,7 km/h (3 Bft)
28.11.2016 03:38 -0,3 °C -0,3 °C 93 % 1019,6 hPa 0,0 mm 7,0 km/h (2 Bft) O-NO 70 ° 0 min 0,000 mm 0,0 UV-I 0 W/m² -1,3 °C 9,7 km/h (2 Bft)
28.11.2016 03:39 -0,3 °C -0,3 °C 93 % 1019,6 hPa 0,0 mm 4,6 km/h (1 Bft) N-NO 24 ° 0 min 0,000 mm 0,0 UV-I 0 W/m² -1,3 °C 6,4 km/h (2 Bft)
28.11.2016 03:40 -0,3 °C -0,3 °C 93 % 1019,6 hPa 0,0 mm 4,1 km/h (1 Bft) NO 51 ° 0 min 0,000 mm 0,0 UV-I 0 W/m² -1,3 °C 6,4 km/h (2 Bft)
28.11.2016 03:41 -0,3 °C -0,3 °C 93 % 1019,7 hPa 0,0 mm 3,1 km/h (1 Bft) O-NO 59 ° 0 min 0,000 mm 0,0 UV-I 0 W/m² -1,3 °C 4,8 km/h (1 Bft)
28.11.2016 03:42 -0,3 °C -0,3 °C 93 % 1019,6 hPa 0,0 mm 4,1 km/h (1 Bft) NO 47 ° 0 min 0,000 mm 0,0 UV-I 0 W/m² -1,3 °C 6,4 km/h (2 Bft)
28.11.2016 03:43 -0,3 °C -0,3 °C 93 % 1019,6 hPa 0,0 mm 6,1 km/h (2 Bft) O-NO 72 ° 0 min 0,000 mm 0,0 UV-I 0 W/m² -1,3 °C 12,9 km/h (3 Bft)
28.11.2016 03:44 -0,3 °C -0,3 °C 93 % 1019,6 hPa 0,0 mm 3,5 km/h (1 Bft) O 92 ° 0 min 0,000 mm 0,0 UV-I 0 W/m² -1,3 °C 4,8 km/h (1 Bft)
28.11.2016 03:45 -0,3 °C -0,3 °C 93 % 1019,6 hPa 0,0 mm 4,3 km/h (1 Bft) N-NO 33 ° 0 min 0,000 mm 0,0 UV-I 0 W/m² -1,3 °C 6,4 km/h (2 Bft)
28.11.2016 03:46 -0,3 °C -0,3 °C 93 % 1019,6 hPa 0,0 mm 5,7 km/h (1 Bft) N-NO 18 ° 0 min 0,000 mm 0,0 UV-I 0 W/m² -1,3 °C 8,0 km/h (2 Bft)
28.11.2016 03:47 -0,3 °C -0,3 °C 93 % 1019,6 hPa 0,0 mm 6,2 km/h (2 Bft) N-NO 20 ° 0 min 0,000 mm 0,0 UV-I 0 W/m² -1,3 °C 9,7 km/h (2 Bft)
28.11.2016 03:48 -0,3 °C -0,3 °C 93 % 1019,6 hPa 0,0 mm 5,8 km/h (2 Bft) NO 51 ° 0 min 0,000 mm 0,0 UV-I 0 W/m² -1,3 °C 8,0 km/h (2 Bft)
28.11.2016 03:49 -0,3 °C -0,3 °C 93 % 1019,7 hPa 0,0 mm 4,8 km/h (1 Bft) NO 36 ° 0 min 0,000 mm 0,0 UV-I 0 W/m² -1,3 °C 6,4 km/h (2 Bft)
28.11.2016 03:50 -0,4 °C -0,3 °C 93 % 1019,7 hPa 0,0 mm 4,4 km/h (1 Bft) NO 44 ° 0 min 0,000 mm 0,0 UV-I 0 W/m² -1,4 °C 6,4 km/h (2 Bft)
28.11.2016 03:51 -0,4 °C -0,3 °C 93 % 1019,7 hPa 0,0 mm 4,8 km/h (1 Bft) NO 51 ° 0 min 0,000 mm 0,0 UV-I 0 W/m² -1,4 °C 6,4 km/h (2 Bft)
28.11.2016 03:52 -0,4 °C -0,3 °C 93 % 1019,7 hPa 0,0 mm 4,7 km/h (1 Bft) NO 44 ° 0 min 0,000 mm 0,0 UV-I 0 W/m² -1,4 °C 6,4 km/h (2 Bft)
28.11.2016 03:53 -0,4 °C -0,4 °C 93 % 1019,7 hPa 0,0 mm 6,9 km/h (2 Bft) N 5 ° 0 min 0,000 mm 0,0 UV-I 0 W/m² -1,4 °C 14,5 km/h (3 Bft)
28.11.2016 03:54 -0,4 °C -0,3 °C 93 % 1019,7 hPa 0,0 mm 7,2 km/h (2 Bft) O-NO 67 ° 0 min 0,000 mm 0,0 UV-I 0 W/m² -1,4 °C 12,9 km/h (3 Bft)
28.11.2016 03:55 -0,4 °C -0,4 °C 93 % 1019,7 hPa 0,0 mm 6,2 km/h (2 Bft) NO 39 ° 0 min 0,000 mm 0,0 UV-I 0 W/m² -1,4 °C 14,5 km/h (3 Bft)
28.11.2016 03:56 -0,4 °C -0,4 °C 93 % 1019,7 hPa 0,0 mm 8,6 km/h (2 Bft) O-NO 57 ° 0 min 0,000 mm 0,0 UV-I 0 W/m² -1,4 °C 12,9 km/h (3 Bft)
28.11.2016 03:57 -0,4 °C -0,4 °C 93 % 1019,7 hPa 0,0 mm 8,6 km/h (2 Bft) O-NO 61 ° 0 min 0,000 mm 0,0 UV-I 0 W/m² -1,4 °C 12,9 km/h (3 Bft)
28.11.2016 03:58 -0,5 °C -0,4 °C 93 % 1019,7 hPa 0,0 mm 10,1 km/h (2 Bft) O-NO 72 ° 0 min 0,000 mm 0,0 UV-I 0 W/m² -1,5 °C 14,5 km/h (3 Bft)
28.11.2016 03:59 -0,4 °C -0,4 °C 93 % 1019,7 hPa 0,0 mm 8,0 km/h (2 Bft) O-NO 68 ° 0 min 0,000 mm 0,0 UV-I 0 W/m² -1,4 °C 12,9 km/h (3 Bft)
28.11.2016 04:00 -0,4 °C -0,4 °C 93 % 1019,7 hPa 0,0 mm 6,1 km/h (2 Bft) NO 55 ° 0 min 0,000 mm 0,0 UV-I 0 W/m² -1,4 °C 11,3 km/h (2 Bft)
28.11.2016 04:02 -0,5 °C -0,4 °C 93 % 1019,7 hPa 0,0 mm 8,5 km/h (2 Bft) O 80 ° 0 min 0,000 mm 0,0 UV-I 0 W/m² -1,5 °C 19,3 km/h (3 Bft)
28.11.2016 04:03 -0,5 °C -0,5 °C 93 % 1019,7 hPa 0,0 mm 8,4 km/h (2 Bft) N-NO 30 ° 0 min 0,000 mm 0,0 UV-I 0 W/m² -1,5 °C 16,1 km/h (3 Bft)
28.11.2016 04:04 -0,5 °C -0,5 °C 93 % 1019,7 hPa 0,0 mm 4,8 km/h (1 Bft) NO 42 ° 0 min 0,000 mm 0,0 UV-I 0 W/m² -1,5 °C 8,0 km/h (2 Bft)
28.11.2016 04:05 -0,5 °C -0,5 °C 93 % 1019,8 hPa 0,0 mm 7,8 km/h (2 Bft) O-NO 67 ° 0 min 0,000 mm 0,0 UV-I 0 W/m² -1,5 °C 12,9 km/h (3 Bft)
28.11.2016 04:06 -0,6 °C -0,5 °C 93 % 1019,8 hPa 0,0 mm 6,9 km/h (2 Bft) O 88 ° 0 min 0,000 mm 0,0 UV-I 0 W/m² -1,6 °C 11,3 km/h (2 Bft)
28.11.2016 04:07 -0,5 °C -0,5 °C 93 % 1019,8 hPa 0,0 mm 7,1 km/h (2 Bft) O-NO 71 ° 0 min 0,000 mm 0,0 UV-I 0 W/m² -1,5 °C 11,3 km/h (2 Bft)
28.11.2016 04:08 -0,6 °C -0,5 °C 93 % 1019,8 hPa 0,0 mm 9,3 km/h (2 Bft) O-NO 62 ° 0 min 0,000 mm 0,0 UV-I 0 W/m² -1,6 °C 14,5 km/h (3 Bft)
28.11.2016 04:09 -0,5 °C -0,5 °C 93 % 1019,8 hPa 0,0 mm 6,2 km/h (2 Bft) N-NO 30 ° 0 min 0,000 mm 0,0 UV-I 0 W/m² -1,5 °C 8,0 km/h (2 Bft)
28.11.2016 04:10 -0,6 °C -0,5 °C 93 % 1019,8 hPa 0,0 mm 8,0 km/h (2 Bft) NO 39 ° 0 min 0,000 mm 0,0 UV-I 0 W/m² -1,6 °C 12,9 km/h (3 Bft)
28.11.2016 04:11 -0,6 °C -0,6 °C 93 % 1019,8 hPa 0,0 mm 10,0 km/h (2 Bft) N-NO 32 ° 0 min 0,000 mm 0,0 UV-I 0 W/m² -1,6 °C 14,5 km/h (3 Bft)
28.11.2016 04:12 -0,6 °C -0,6 °C 93 % 1019,9 hPa 0,0 mm 7,2 km/h (2 Bft) NO 37 ° 0 min 0,000 mm 0,0 UV-I 0 W/m² -1,6 °C 9,7 km/h (2 Bft)
28.11.2016 04:13 -0,6 °C -0,6 °C 93 % 1019,9 hPa 0,0 mm 9,2 km/h (2 Bft) NO 37 ° 0 min 0,000 mm 0,0 UV-I 0 W/m² -1,6 °C 14,5 km/h (3 Bft)
28.11.2016 04:14 -0,6 °C -0,6 °C 93 % 1019,8 hPa 0,0 mm 6,6 km/h (2 Bft) O-NO 62 ° 0 min 0,000 mm 0,0 UV-I 0 W/m² -1,6 °C 9,7 km/h (2 Bft)
28.11.2016 04:15 -0,6 °C -0,6 °C 93 % 1019,9 hPa 0,0 mm 8,5 km/h (2 Bft) NO 39 ° 0 min 0,000 mm 0,0 UV-I 0 W/m² -1,6 °C 11,3 km/h (2 Bft)
28.11.2016 04:16 -0,6 °C -0,6 °C 92 % 1019,9 hPa 0,0 mm 9,2 km/h (2 Bft) O 83 ° 0 min 0,000 mm 0,0 UV-I 0 W/m² -1,7 °C 16,1 km/h (3 Bft)
28.11.2016 04:17 -0,6 °C -0,6 °C 92 % 1019,9 hPa 0,0 mm 5,0 km/h (1 Bft) O-NO 69 ° 0 min 0,000 mm 0,0 UV-I 0 W/m² -1,7 °C 11,3 km/h (2 Bft)
28.11.2016 04:18 -0,6 °C -0,6 °C 92 % 1019,9 hPa 0,0 mm 5,3 km/h (1 Bft) O-NO 58 ° 0 min 0,000 mm 0,0 UV-I 0 W/m² -1,7 °C 6,4 km/h (2 Bft)
28.11.2016 04:19 -0,6 °C -0,6 °C 93 % 1019,9 hPa 0,0 mm 6,4 km/h (2 Bft) O-NO 57 ° 0 min 0,000 mm 0,0 UV-I 0 W/m² -1,6 °C 12,9 km/h (3 Bft)
28.11.2016 04:20 -0,6 °C -0,6 °C 93 % 1019,9 hPa 0,0 mm 6,3 km/h (2 Bft) O-NO 58 ° 0 min 0,000 mm 0,0 UV-I 0 W/m² -1,6 °C 9,7 km/h (2 Bft)
28.11.2016 04:21 -0,6 °C -0,6 °C 93 % 1019,9 hPa 0,0 mm 8,7 km/h (2 Bft) O-NO 64 ° 0 min 0,000 mm 0,0 UV-I 0 W/m² -1,6 °C 12,9 km/h (3 Bft)
28.11.2016 04:22 -0,6 °C -0,6 °C 93 % 1019,9 hPa 0,0 mm 5,3 km/h (1 Bft) NO 55 ° 0 min 0,000 mm 0,0 UV-I 0 W/m² -1,6 °C 9,7 km/h (2 Bft)
28.11.2016 04:23 -0,6 °C -0,6 °C 93 % 1020,0 hPa 0,0 mm 5,7 km/h (1 Bft) NO 55 ° 0 min 0,000 mm 0,0 UV-I 0 W/m² -1,6 °C 8,0 km/h (2 Bft)
28.11.2016 04:24 -0,6 °C -0,6 °C 93 % 1020,0 hPa 0,0 mm 5,8 km/h (2 Bft) O-NO 61 ° 0 min 0,000 mm 0,0 UV-I 0 W/m² -1,6 °C 12,9 km/h (3 Bft)
28.11.2016 04:25 -0,6 °C -0,6 °C 93 % 1019,9 hPa 0,0 mm 5,4 km/h (1 Bft) O-NO 65 ° 0 min 0,000 mm 0,0 UV-I 0 W/m² -1,6 °C 9,7 km/h (2 Bft)
28.11.2016 04:26 -0,6 °C -0,6 °C 93 % 1020,0 hPa 0,0 mm 10,1 km/h (2 Bft) O-NO 75 ° 0 min 0,000 mm 0,0 UV-I 0 W/m² -1,6 °C 14,5 km/h (3 Bft)
28.11.2016 04:27 -0,7 °C -0,6 °C 93 % 1020,0 hPa 0,0 mm 10,7 km/h (2 Bft) NO 49 ° 0 min 0,000 mm 0,0 UV-I 0 W/m² -1,7 °C 16,1 km/h (3 Bft)
28.11.2016 04:28 -0,7 °C -0,7 °C 93 % 1020,0 hPa 0,0 mm 3,5 km/h (1 Bft) O 88 ° 0 min 0,000 mm 0,0 UV-I 0 W/m² -1,7 °C 6,4 km/h (2 Bft)
28.11.2016 04:29 -0,7 °C -0,7 °C 93 % 1020,0 hPa 0,0 mm 8,5 km/h (2 Bft) O 86 ° 0 min 0,000 mm 0,0 UV-I 0 W/m² -1,7 °C 12,9 km/h (3 Bft)
28.11.2016 04:30 -0,7 °C -0,7 °C 93 % 1020,0 hPa 0,0 mm 3,4 km/h (1 Bft) NO 38 ° 0 min 0,000 mm 0,0 UV-I 0 W/m² -1,7 °C 8,0 km/h (2 Bft)
28.11.2016 04:31 -0,7 °C -0,7 °C 93 % 1020,0 hPa 0,0 mm 6,1 km/h (2 Bft) O-NO 65 ° 0 min 0,000 mm 0,0 UV-I 0 W/m² -1,7 °C 8,0 km/h (2 Bft)
28.11.2016 04:32 -0,7 °C -0,7 °C 93 % 1020,0 hPa 0,0 mm 8,1 km/h (2 Bft) O-NO 73 ° 0 min 0,000 mm 0,0 UV-I 0 W/m² -1,7 °C 11,3 km/h (2 Bft)
28.11.2016 04:33 -0,7 °C -0,7 °C 93 % 1020,0 hPa 0,0 mm 7,1 km/h (2 Bft) O-NO 67 ° 0 min 0,000 mm 0,0 UV-I 0 W/m² -1,7 °C 12,9 km/h (3 Bft)
28.11.2016 04:34 -0,7 °C -0,7 °C 93 % 1020,1 hPa 0,0 mm 5,4 km/h (1 Bft) NO 54 ° 0 min 0,000 mm 0,0 UV-I 0 W/m² -1,7 °C 11,3 km/h (2 Bft)
28.11.2016 04:35 -0,7 °C -0,7 °C 93 % 1020,0 hPa 0,0 mm 11,4 km/h (2 Bft) O 86 ° 0 min 0,000 mm 0,0 UV-I 0 W/m² -1,7 °C 17,7 km/h (3 Bft)
28.11.2016 04:36 -0,7 °C -0,7 °C 93 % 1020,1 hPa 0,0 mm 8,5 km/h (2 Bft) N-NO 30 ° 0 min 0,000 mm 0,0 UV-I 0 W/m² -1,7 °C 14,5 km/h (3 Bft)
28.11.2016 04:37 -0,7 °C -0,7 °C 93 % 1020,1 hPa 0,0 mm 6,9 km/h (2 Bft) O-NO 69 ° 0 min 0,000 mm 0,0 UV-I 0 W/m² -1,7 °C 9,7 km/h (2 Bft)
28.11.2016 04:38 -0,7 °C -0,7 °C 93 % 1020,1 hPa 0,0 mm 6,4 km/h (2 Bft) N-NO 32 ° 0 min 0,000 mm 0,0 UV-I 0 W/m² -1,7 °C 9,7 km/h (2 Bft)
28.11.2016 04:39 -0,7 °C -0,7 °C 93 % 1020,1 hPa 0,0 mm 8,7 km/h (2 Bft) N-NO 18 ° 0 min 0,000 mm 0,0 UV-I 0 W/m² -1,7 °C 14,5 km/h (3 Bft)
28.11.2016 04:40 -0,7 °C -0,7 °C 93 % 1020,1 hPa 0,0 mm 9,7 km/h (2 Bft) NO 40 ° 0 min 0,000 mm 0,0 UV-I 0 W/m² -1,7 °C 20,9 km/h (4 Bft)
28.11.2016 04:41 -0,7 °C -0,7 °C 93 % 1020,1 hPa 0,0 mm 12,5 km/h (3 Bft) N-NO 26 ° 0 min 0,000 mm 0,0 UV-I 0 W/m² -1,7 °C 16,1 km/h (3 Bft)
28.11.2016 04:42 -0,7 °C -0,7 °C 93 % 1020,1 hPa 0,0 mm 10,9 km/h (2 Bft) N-NO 19 ° 0 min 0,000 mm 0,0 UV-I 0 W/m² -1,7 °C 14,5 km/h (3 Bft)
28.11.2016 04:43 -0,7 °C -0,7 °C 93 % 1020,1 hPa 0,0 mm 7,0 km/h (2 Bft) O-NO 74 ° 0 min 0,000 mm 0,0 UV-I 0 W/m² -1,7 °C 11,3 km/h (2 Bft)
28.11.2016 04:44 -0,8 °C -0,7 °C 93 % 1020,1 hPa 0,0 mm 5,9 km/h (2 Bft) O-NO 74 ° 0 min 0,000 mm 0,0 UV-I 0 W/m² -1,8 °C 11,3 km/h (2 Bft)
28.11.2016 04:45 -0,8 °C -0,7 °C 92 % 1020,1 hPa 0,0 mm 8,4 km/h (2 Bft) N-NO 30 ° 0 min 0,000 mm 0,0 UV-I 0 W/m² -1,9 °C 12,9 km/h (3 Bft)
28.11.2016 04:46 -0,8 °C -0,7 °C 92 % 1020,1 hPa 0,0 mm 7,7 km/h (2 Bft) NO 45 ° 0 min 0,000 mm 0,0 UV-I 0 W/m² -1,9 °C 16,1 km/h (3 Bft)
28.11.2016 04:47 -0,8 °C -0,8 °C 93 % 1020,1 hPa 0,0 mm 14,5 km/h (3 Bft) NO 44 ° 0 min 0,000 mm 0,0 UV-I 0 W/m² -1,8 °C 19,3 km/h (3 Bft)
28.11.2016 04:48 -0,8 °C -0,8 °C 93 % 1020,1 hPa 0,0 mm 10,5 km/h (2 Bft) NO 54 ° 0 min 0,000 mm 0,0 UV-I 0 W/m² -1,8 °C 14,5 km/h (3 Bft)
28.11.2016 04:49 -0,8 °C -0,8 °C 93 % 1020,2 hPa 0,0 mm 6,1 km/h (2 Bft) NO 51 ° 0 min 0,000 mm 0,0 UV-I 0 W/m² -1,8 °C 11,3 km/h (2 Bft)
28.11.2016 04:50 -0,8 °C -0,8 °C 93 % 1020,2 hPa 0,0 mm 8,7 km/h (2 Bft) O 91 ° 0 min 0,000 mm 0,0 UV-I 0 W/m² -1,8 °C 14,5 km/h (3 Bft)
28.11.2016 04:51 -0,8 °C -0,8 °C 93 % 1020,2 hPa 0,0 mm 6,4 km/h (2 Bft) NO 38 ° 0 min 0,000 mm 0,0 UV-I 0 W/m² -1,8 °C 8,0 km/h (2 Bft)
28.11.2016 04:52 -0,8 °C -0,8 °C 92 % 1020,2 hPa 0,0 mm 5,6 km/h (1 Bft) NO 54 ° 0 min 0,000 mm 0,0 UV-I 0 W/m² -1,9 °C 8,0 km/h (2 Bft)
28.11.2016 04:53 -0,8 °C -0,8 °C 93 % 1020,2 hPa 0,0 mm 7,0 km/h (2 Bft) NO 44 ° 0 min 0,000 mm 0,0 UV-I 0 W/m² -1,8 °C 11,3 km/h (2 Bft)
28.11.2016 04:54 -0,8 °C -0,8 °C 93 % 1020,2 hPa 0,0 mm 9,6 km/h (2 Bft) O-NO 63 ° 0 min 0,000 mm 0,0 UV-I 0 W/m² -1,8 °C 16,1 km/h (3 Bft)
28.11.2016 04:55 -0,8 °C -0,8 °C 93 % 1020,3 hPa 0,0 mm 8,3 km/h (2 Bft) O-NO 59 ° 0 min 0,000 mm 0,0 UV-I 0 W/m² -1,8 °C 12,9 km/h (3 Bft)
28.11.2016 04:56 -0,8 °C -0,8 °C 93 % 1020,3 hPa 0,0 mm 7,3 km/h (2 Bft) O-NO 67 ° 0 min 0,000 mm 0,0 UV-I 0 W/m² -1,8 °C 12,9 km/h (3 Bft)
28.11.2016 04:57 -0,9 °C -0,8 °C 92 % 1020,3 hPa 0,0 mm 9,4 km/h (2 Bft) NO 55 ° 0 min 0,000 mm 0,0 UV-I 0 W/m² -2,0 °C 17,7 km/h (3 Bft)
28.11.2016 04:58 -0,8 °C -0,8 °C 92 % 1020,3 hPa 0,0 mm 8,9 km/h (2 Bft) O-NO 76 ° 0 min 0,000 mm 0,0 UV-I 0 W/m² -1,9 °C 12,9 km/h (3 Bft)
28.11.2016 04:59 -0,9 °C -0,8 °C 92 % 1020,3 hPa 0,0 mm 11,3 km/h (2 Bft) O 88 ° 0 min 0,000 mm 0,0 UV-I 0 W/m² -2,0 °C 17,7 km/h (3 Bft)
28.11.2016 05:00 -0,9 °C -0,9 °C 92 % 1020,2 hPa 0,0 mm 6,8 km/h (2 Bft) NO 47 ° 0 min 0,000 mm 0,0 UV-I 0 W/m² -2,0 °C 19,3 km/h (3 Bft)
28.11.2016 05:01 -0,9 °C -0,9 °C 92 % 1020,4 hPa 0,0 mm 5,2 km/h (1 Bft) O-NO 64 ° 0 min 0,000 mm 0,0 UV-I 0 W/m² -2,0 °C 8,0 km/h (2 Bft)
28.11.2016 05:02 -0,9 °C -0,9 °C 92 % 1020,3 hPa 0,0 mm 9,9 km/h (2 Bft) O-NO 61 ° 0 min 0,000 mm 0,0 UV-I 0 W/m² -2,0 °C 12,9 km/h (3 Bft)
28.11.2016 05:03 -0,9 °C -0,9 °C 92 % 1020,3 hPa 0,0 mm 7,4 km/h (2 Bft) O-NO 75 ° 0 min 0,000 mm 0,0 UV-I 0 W/m² -2,0 °C 14,5 km/h (3 Bft)
28.11.2016 05:04 -0,9 °C -0,9 °C 92 % 1020,4 hPa 0,0 mm 8,5 km/h (2 Bft) O-NO 71 ° 0 min 0,000 mm 0,0 UV-I 0 W/m² -2,0 °C 12,9 km/h (3 Bft)
28.11.2016 05:05 -0,9 °C -0,9 °C 92 % 1020,3 hPa 0,0 mm 8,7 km/h (2 Bft) O 80 ° 0 min 0,000 mm 0,0 UV-I 0 W/m² -2,0 °C 14,5 km/h (3 Bft)
28.11.2016 05:06 -0,9 °C -0,9 °C 92 % 1020,3 hPa 0,0 mm 7,7 km/h (2 Bft) O-NO 71 ° 0 min 0,000 mm 0,0 UV-I 0 W/m² -2,0 °C 11,3 km/h (2 Bft)
28.11.2016 05:07 -1,0 °C -0,9 °C 92 % 1020,3 hPa 0,0 mm 6,6 km/h (2 Bft) O-NO 66 ° 0 min 0,000 mm 0,0 UV-I 0 W/m² -2,1 °C 11,3 km/h (2 Bft)
28.11.2016 05:08 -1,0 °C -0,9 °C 92 % 1020,4 hPa 0,0 mm 7,4 km/h (2 Bft) N-NO 31 ° 0 min 0,000 mm 0,0 UV-I 0 W/m² -2,1 °C 12,9 km/h (3 Bft)
28.11.2016 05:09 -1,0 °C -1,0 °C 92 % 1020,3 hPa 0,0 mm 13,1 km/h (3 Bft) O-NO 64 ° 0 min 0,000 mm 0,0 UV-I 0 W/m² -2,1 °C 17,7 km/h (3 Bft)
28.11.2016 05:10 -1,0 °C -1,0 °C 92 % 1020,3 hPa 0,0 mm 11,0 km/h (2 Bft) O-NO 63 ° 0 min 0,000 mm 0,0 UV-I 0 W/m² -2,1 °C 16,1 km/h (3 Bft)
28.11.2016 05:11 -1,1 °C -1,0 °C 92 % 1020,3 hPa 0,0 mm 8,5 km/h (2 Bft) N-NO 22 ° 0 min 0,000 mm 0,0 UV-I 0 W/m² -2,2 °C 14,5 km/h (3 Bft)
28.11.2016 05:12 -1,1 °C -1,1 °C 92 % 1020,4 hPa 0,0 mm 9,9 km/h (2 Bft) O-NO 69 ° 0 min 0,000 mm 0,0 UV-I 0 W/m² -2,2 °C 14,5 km/h (3 Bft)
28.11.2016 05:13 -1,1 °C -1,1 °C 92 % 1020,3 hPa 0,0 mm 14,2 km/h (3 Bft) O 84 ° 0 min 0,000 mm 0,0 UV-I 0 W/m² -2,2 °C 20,9 km/h (4 Bft)
28.11.2016 05:14 -1,1 °C -1,1 °C 92 % 1020,4 hPa 0,0 mm 8,9 km/h (2 Bft) O-NO 69 ° 0 min 0,000 mm 0,0 UV-I 0 W/m² -2,2 °C 14,5 km/h (3 Bft)
28.11.2016 05:15 -1,1 °C -1,1 °C 92 % 1020,4 hPa 0,0 mm 7,2 km/h (2 Bft) NO 46 ° 0 min 0,000 mm 0,0 UV-I 0 W/m² -2,2 °C 11,3 km/h (2 Bft)
28.11.2016 05:16 -1,1 °C -1,1 °C 92 % 1020,4 hPa 0,0 mm 4,0 km/h (1 Bft) NO 34 ° 0 min 0,000 mm 0,0 UV-I 0 W/m² -2,2 °C 6,4 km/h (2 Bft)
28.11.2016 05:17 -1,1 °C -1,1 °C 92 % 1020,4 hPa 0,0 mm 4,6 km/h (1 Bft) O-NO 71 ° 0 min 0,000 mm 0,0 UV-I 0 W/m² -2,2 °C 6,4 km/h (2 Bft)
28.11.2016 05:18 -1,1 °C -1,1 °C 92 % 1020,4 hPa 0,0 mm 4,8 km/h (1 Bft) O-NO 75 ° 0 min 0,000 mm 0,0 UV-I 0 W/m² -2,2 °C 8,0 km/h (2 Bft)
28.11.2016 05:19 -1,1 °C -1,1 °C 93 % 1020,4 hPa 0,0 mm 6,0 km/h (2 Bft) NO 39 ° 0 min 0,000 mm 0,0 UV-I 0 W/m² -2,1 °C 11,3 km/h (2 Bft)
28.11.2016 05:20 -1,1 °C -1,1 °C 92 % 1020,5 hPa 0,0 mm 4,6 km/h (1 Bft) NO 55 ° 0 min 0,000 mm 0,0 UV-I 0 W/m² -2,2 °C 8,0 km/h (2 Bft)
28.11.2016 05:21 -1,1 °C -1,1 °C 93 % 1020,4 hPa 0,0 mm 6,4 km/h (2 Bft) NO 38 ° 0 min 0,000 mm 0,0 UV-I 0 W/m² -2,1 °C 9,7 km/h (2 Bft)
28.11.2016 05:22 -1,1 °C -1,1 °C 93 % 1020,5 hPa 0,0 mm 5,0 km/h (1 Bft) NO 47 ° 0 min 0,000 mm 0,0 UV-I 0 W/m² -2,1 °C 9,7 km/h (2 Bft)
28.11.2016 05:23 -1,1 °C -1,1 °C 93 % 1020,4 hPa 0,0 mm 6,4 km/h (2 Bft) O-NO 65 ° 0 min 0,000 mm 0,0 UV-I 0 W/m² -2,1 °C 9,7 km/h (2 Bft)
28.11.2016 05:24 -1,1 °C -1,1 °C 93 % 1020,5 hPa 0,0 mm 6,5 km/h (2 Bft) O 84 ° 0 min 0,000 mm 0,0 UV-I 0 W/m² -2,1 °C 8,0 km/h (2 Bft)
28.11.2016 05:25 -1,1 °C -1,1 °C 93 % 1020,5 hPa 0,0 mm 8,9 km/h (2 Bft) O-NO 58 ° 0 min 0,000 mm 0,0 UV-I 0 W/m² -2,1 °C 16,1 km/h (3 Bft)
28.11.2016 05:26 -1,1 °C -1,1 °C 93 % 1020,5 hPa 0,0 mm 12,4 km/h (3 Bft) O-NO 70 ° 0 min 0,000 mm 0,0 UV-I 0 W/m² -2,1 °C 17,7 km/h (3 Bft)
28.11.2016 05:27 -1,2 °C -1,1 °C 92 % 1020,5 hPa 0,0 mm 10,1 km/h (2 Bft) O-NO 68 ° 0 min 0,000 mm 0,0 UV-I 0 W/m² -2,3 °C 14,5 km/h (3 Bft)
28.11.2016 05:28 -1,2 °C -1,2 °C 93 % 1020,5 hPa 0,0 mm 5,4 km/h (1 Bft) O 97 ° 0 min 0,000 mm 0,0 UV-I 0 W/m² -2,2 °C 8,0 km/h (2 Bft)
28.11.2016 05:29 -1,2 °C -1,2 °C 93 % 1020,5 hPa 0,0 mm 5,4 km/h (1 Bft) NO 54 ° 0 min 0,000 mm 0,0 UV-I 0 W/m² -2,2 °C 8,0 km/h (2 Bft)
28.11.2016 05:30 -1,2 °C -1,2 °C 92 % 1020,5 hPa 0,0 mm 7,6 km/h (2 Bft) O 83 ° 0 min 0,000 mm 0,0 UV-I 0 W/m² -2,3 °C 14,5 km/h (3 Bft)
28.11.2016 05:31 -1,2 °C -1,2 °C 92 % 1020,5 hPa 0,0 mm 8,3 km/h (2 Bft) NO 37 ° 0 min 0,000 mm 0,0 UV-I 0 W/m² -2,3 °C 14,5 km/h (3 Bft)
28.11.2016 05:32 -1,2 °C -1,2 °C 92 % 1020,5 hPa 0,0 mm 5,5 km/h (1 Bft) O-NO 69 ° 0 min 0,000 mm 0,0 UV-I 0 W/m² -2,3 °C 9,7 km/h (2 Bft)
28.11.2016 05:33 -1,2 °C -1,2 °C 92 % 1020,5 hPa 0,0 mm 7,3 km/h (2 Bft) N-NO 22 ° 0 min 0,000 mm 0,0 UV-I 0 W/m² -2,3 °C 12,9 km/h (3 Bft)
28.11.2016 05:34 -1,2 °C -1,2 °C 92 % 1020,5 hPa 0,0 mm 5,3 km/h (1 Bft) NO 49 ° 0 min 0,000 mm 0,0 UV-I 0 W/m² -2,3 °C 8,0 km/h (2 Bft)
28.11.2016 05:35 -1,2 °C -1,2 °C 92 % 1020,5 hPa 0,0 mm 8,0 km/h (2 Bft) O-NO 73 ° 0 min 0,000 mm 0,0 UV-I 0 W/m² -2,3 °C 14,5 km/h (3 Bft)
28.11.2016 05:36 -1,2 °C -1,2 °C 92 % 1020,6 hPa 0,0 mm 8,4 km/h (2 Bft) O 80 ° 0 min 0,000 mm 0,0 UV-I 0 W/m² -2,3 °C 14,5 km/h (3 Bft)
28.11.2016 05:37 -1,2 °C -1,2 °C 92 % 1020,6 hPa 0,0 mm 6,5 km/h (2 Bft) O-NO 58 ° 0 min 0,000 mm 0,0 UV-I 0 W/m² -2,3 °C 9,7 km/h (2 Bft)
28.11.2016 05:38 -1,3 °C -1,2 °C 92 % 1020,6 hPa 0,0 mm 6,4 km/h (2 Bft) NO 50 ° 0 min 0,000 mm 0,0 UV-I 0 W/m² -2,4 °C 11,3 km/h (2 Bft)
28.11.2016 05:39 -1,3 °C -1,2 °C 92 % 1020,6 hPa 0,0 mm 10,2 km/h (2 Bft) O-NO 63 ° 0 min 0,000 mm 0,0 UV-I 0 W/m² -2,4 °C 14,5 km/h (3 Bft)
28.11.2016 05:40 -1,3 °C -1,2 °C 92 % 1020,6 hPa 0,0 mm 8,4 km/h (2 Bft) O 85 ° 0 min 0,000 mm 0,0 UV-I 0 W/m² -2,4 °C 14,5 km/h (3 Bft)
28.11.2016 05:41 -1,3 °C -1,2 °C 92 % 1020,6 hPa 0,0 mm 10,3 km/h (2 Bft) O 79 ° 0 min 0,000 mm 0,0 UV-I 0 W/m² -2,4 °C 19,3 km/h (3 Bft)
28.11.2016 05:42 -1,3 °C -1,2 °C 92 % 1020,6 hPa 0,0 mm 9,1 km/h (2 Bft) O-NO 58 ° 0 min 0,000 mm 0,0 UV-I 0 W/m² -2,4 °C 14,5 km/h (3 Bft)
28.11.2016 05:43 -1,3 °C -1,3 °C 92 % 1020,6 hPa 0,0 mm 6,4 km/h (2 Bft) N-NO 22 ° 0 min 0,000 mm 0,0 UV-I 0 W/m² -2,4 °C 11,3 km/h (2 Bft)
28.11.2016 05:44 -1,3 °C -1,3 °C 92 % 1020,6 hPa 0,0 mm 6,1 km/h (2 Bft) NO 49 ° 0 min 0,000 mm 0,0 UV-I 0 W/m² -2,4 °C 9,7 km/h (2 Bft)
28.11.2016 05:45 -1,3 °C -1,3 °C 92 % 1020,6 hPa 0,0 mm 4,9 km/h (1 Bft) NO 37 ° 0 min 0,000 mm 0,0 UV-I 0 W/m² -2,4 °C 8,0 km/h (2 Bft)
28.11.2016 05:46 -1,3 °C -1,3 °C 93 % 1020,6 hPa 0,0 mm 6,4 km/h (2 Bft) O 80 ° 0 min 0,000 mm 0,0 UV-I 0 W/m² -2,3 °C 16,1 km/h (3 Bft)
28.11.2016 05:47 -1,3 °C -1,3 °C 93 % 1020,6 hPa 0,0 mm 10,4 km/h (2 Bft) N-NO 28 ° 0 min 0,000 mm 0,0 UV-I 0 W/m² -2,3 °C 17,7 km/h (3 Bft)
28.11.2016 05:48 -1,3 °C -1,3 °C 93 % 1020,6 hPa 0,0 mm 4,0 km/h (1 Bft) O-NO 62 ° 0 min 0,000 mm 0,0 UV-I 0 W/m² -2,3 °C 6,4 km/h (2 Bft)
28.11.2016 05:49 -1,3 °C -1,3 °C 93 % 1020,6 hPa 0,0 mm 10,3 km/h (2 Bft) O 86 ° 0 min 0,000 mm 0,0 UV-I 0 W/m² -2,3 °C 14,5 km/h (3 Bft)
28.11.2016 05:50 -1,3 °C -1,3 °C 92 % 1020,6 hPa 0,0 mm 11,2 km/h (2 Bft) O 84 ° 0 min 0,000 mm 0,0 UV-I 0 W/m² -2,4 °C 14,5 km/h (3 Bft)
28.11.2016 05:51 -1,3 °C -1,3 °C 92 % 1020,7 hPa 0,0 mm 8,0 km/h (2 Bft) O-NO 62 ° 0 min 0,000 mm 0,0 UV-I 0 W/m² -2,4 °C 14,5 km/h (3 Bft)
28.11.2016 05:52 -1,3 °C -1,3 °C 93 % 1020,7 hPa 0,0 mm 9,2 km/h (2 Bft) O-NO 67 ° 0 min 0,000 mm 0,0 UV-I 0 W/m² -2,3 °C 14,5 km/h (3 Bft)
28.11.2016 05:53 -1,3 °C -1,3 °C 93 % 1020,7 hPa 0,0 mm 5,1 km/h (1 Bft) O-NO 74 ° 0 min 0,000 mm 0,0 UV-I 0 W/m² -2,3 °C 8,0 km/h (2 Bft)
28.11.2016 05:54 -1,3 °C -1,3 °C 93 % 1020,7 hPa 0,0 mm 6,4 km/h (2 Bft) NO 45 ° 0 min 0,000 mm 0,0 UV-I 0 W/m² -2,3 °C 9,7 km/h (2 Bft)
28.11.2016 05:55 -1,3 °C -1,3 °C 93 % 1020,8 hPa 0,0 mm 6,8 km/h (2 Bft) NO 46 ° 0 min 0,000 mm 0,0 UV-I 0 W/m² -2,3 °C 12,9 km/h (3 Bft)
28.11.2016 05:56 -1,3 °C -1,3 °C 93 % 1020,8 hPa 0,0 mm 5,0 km/h (1 Bft) NO 51 ° 0 min 0,000 mm 0,0 UV-I 0 W/m² -2,3 °C 8,0 km/h (2 Bft)
28.11.2016 05:57 -1,3 °C -1,3 °C 93 % 1020,7 hPa 0,0 mm 7,8 km/h (2 Bft) NO 40 ° 0 min 0,000 mm 0,0 UV-I 0 W/m² -2,3 °C 12,9 km/h (3 Bft)
28.11.2016 05:58 -1,3 °C -1,3 °C 93 % 1020,8 hPa 0,0 mm 10,9 km/h (2 Bft) O-NO 72 ° 0 min 0,000 mm 0,0 UV-I 0 W/m² -2,3 °C 17,7 km/h (3 Bft)
28.11.2016 05:59 -1,4 °C -1,3 °C 93 % 1020,8 hPa 0,0 mm 8,6 km/h (2 Bft) O-NO 63 ° 0 min 0,000 mm 0,0 UV-I 0 W/m² -2,4 °C 17,7 km/h (3 Bft)
28.11.2016 06:00 -1,4 °C -1,4 °C 93 % 1020,8 hPa 0,0 mm 7,1 km/h (2 Bft) NO 52 ° 0 min 0,000 mm 0,0 UV-I 0 W/m² -2,4 °C 11,3 km/h (2 Bft)
28.11.2016 06:01 -1,4 °C -1,4 °C 93 % 1020,8 hPa 0,0 mm 7,2 km/h (2 Bft) O 89 ° 0 min 0,000 mm 0,0 UV-I 0 W/m² -2,4 °C 11,3 km/h (2 Bft)
28.11.2016 06:02 -1,4 °C -1,4 °C 93 % 1020,8 hPa 0,0 mm 9,7 km/h (2 Bft) O 79 ° 0 min 0,000 mm 0,0 UV-I 0 W/m² -2,4 °C 14,5 km/h (3 Bft)
28.11.2016 06:03 -1,4 °C -1,4 °C 93 % 1020,8 hPa 0,0 mm 6,8 km/h (2 Bft) O-NO 58 ° 0 min 0,000 mm 0,0 UV-I 0 W/m² -2,4 °C 11,3 km/h (2 Bft)
28.11.2016 06:04 -1,4 °C -1,4 °C 93 % 1020,8 hPa 0,0 mm 7,2 km/h (2 Bft) O-NO 74 ° 0 min 0,000 mm 0,0 UV-I 0 W/m² -2,4 °C 12,9 km/h (3 Bft)
28.11.2016 06:05 -1,4 °C -1,4 °C 93 % 1020,8 hPa 0,0 mm 9,3 km/h (2 Bft) NO 55 ° 0 min 0,000 mm 0,0 UV-I 0 W/m² -2,4 °C 14,5 km/h (3 Bft)
28.11.2016 06:06 -1,4 °C -1,4 °C 93 % 1020,9 hPa 0,0 mm 7,0 km/h (2 Bft) O 84 ° 0 min 0,000 mm 0,0 UV-I 0 W/m² -2,4 °C 11,3 km/h (2 Bft)
28.11.2016 06:07 -1,4 °C -1,4 °C 93 % 1020,9 hPa 0,0 mm 8,4 km/h (2 Bft) O-NO 70 ° 0 min 0,000 mm 0,0 UV-I 0 W/m² -2,4 °C 12,9 km/h (3 Bft)
28.11.2016 06:08 -1,4 °C -1,4 °C 93 % 1021,0 hPa 0,0 mm 9,3 km/h (2 Bft) O 80 ° 0 min 0,000 mm 0,0 UV-I 0 W/m² -2,4 °C 12,9 km/h (3 Bft)
28.11.2016 06:09 -1,4 °C -1,4 °C 92 % 1021,0 hPa 0,0 mm 7,4 km/h (2 Bft) N-NO 27 ° 0 min 0,000 mm 0,0 UV-I 0 W/m² -2,5 °C 12,9 km/h (3 Bft)
28.11.2016 06:10 -1,4 °C -1,4 °C 92 % 1021,0 hPa 0,0 mm 9,2 km/h (2 Bft) O-NO 59 ° 0 min 0,000 mm 0,0 UV-I 0 W/m² -2,5 °C 14,5 km/h (3 Bft)
28.11.2016 06:11 -1,5 °C -1,4 °C 92 % 1020,9 hPa 0,0 mm 4,8 km/h (1 Bft) O-NO 63 ° 0 min 0,000 mm 0,0 UV-I 0 W/m² -2,6 °C 6,4 km/h (2 Bft)
28.11.2016 06:12 -1,5 °C -1,5 °C 92 % 1021,0 hPa 0,0 mm 3,1 km/h (1 Bft) O-SO 107 ° 0 min 0,000 mm 0,0 UV-I 0 W/m² -2,6 °C 4,8 km/h (1 Bft)
28.11.2016 06:13 -1,5 °C -1,4 °C 92 % 1021,0 hPa 0,0 mm 6,2 km/h (2 Bft) O-NO 71 ° 0 min 0,000 mm 0,0 UV-I 0 W/m² -2,6 °C 11,3 km/h (2 Bft)
28.11.2016 06:14 -1,5 °C -1,5 °C 92 % 1021,0 hPa 0,0 mm 8,4 km/h (2 Bft) O 90 ° 0 min 0,000 mm 0,0 UV-I 0 W/m² -2,6 °C 16,1 km/h (3 Bft)
28.11.2016 06:15 -1,5 °C -1,5 °C 92 % 1021,0 hPa 0,0 mm 9,4 km/h (2 Bft) O 93 ° 0 min 0,000 mm 0,0 UV-I 0 W/m² -2,6 °C 16,1 km/h (3 Bft)
28.11.2016 06:16 -1,5 °C -1,5 °C 92 % 1021,1 hPa 0,0 mm 9,1 km/h (2 Bft) O-NO 67 ° 0 min 0,000 mm 0,0 UV-I 0 W/m² -2,6 °C 11,3 km/h (2 Bft)
28.11.2016 06:17 -1,5 °C -1,5 °C 92 % 1021,0 hPa 0,0 mm 10,0 km/h (2 Bft) O-NO 75 ° 0 min 0,000 mm 0,0 UV-I 0 W/m² -2,6 °C 14,5 km/h (3 Bft)
28.11.2016 06:18 -1,6 °C -1,5 °C 92 % 1021,1 hPa 0,0 mm 5,4 km/h (1 Bft) O-NO 74 ° 0 min 0,000 mm 0,0 UV-I 0 W/m² -2,7 °C 9,7 km/h (2 Bft)
28.11.2016 06:19 -1,6 °C -1,6 °C 92 % 1021,0 hPa 0,0 mm 7,5 km/h (2 Bft) O-NO 65 ° 0 min 0,000 mm 0,0 UV-I 0 W/m² -2,7 °C 16,1 km/h (3 Bft)
28.11.2016 06:20 -1,6 °C -1,6 °C 92 % 1021,1 hPa 0,0 mm 9,2 km/h (2 Bft) O 90 ° 0 min 0,000 mm 0,0 UV-I 0 W/m² -2,7 °C 14,5 km/h (3 Bft)
28.11.2016 06:21 -1,6 °C -1,6 °C 93 % 1021,1 hPa 0,0 mm 6,4 km/h (2 Bft) NO 56 ° 0 min 0,000 mm 0,0 UV-I 0 W/m² -2,6 °C 9,7 km/h (2 Bft)
28.11.2016 06:22 -1,6 °C -1,6 °C 92 % 1021,2 hPa 0,0 mm 7,4 km/h (2 Bft) O-NO 76 ° 0 min 0,000 mm 0,0 UV-I 0 W/m² -2,7 °C 12,9 km/h (3 Bft)
28.11.2016 06:23 -1,6 °C -1,6 °C 93 % 1021,1 hPa 0,0 mm 5,4 km/h (1 Bft) NO 34 ° 0 min 0,000 mm 0,0 UV-I 0 W/m² -2,6 °C 8,0 km/h (2 Bft)
28.11.2016 06:24 -1,6 °C -1,6 °C 93 % 1021,1 hPa 0,0 mm 5,5 km/h (1 Bft) NO 38 ° 0 min 0,000 mm 0,0 UV-I 0 W/m² -2,6 °C 8,0 km/h (2 Bft)
28.11.2016 06:25 -1,6 °C -1,6 °C 93 % 1021,1 hPa 0,0 mm 7,4 km/h (2 Bft) O-NO 61 ° 0 min 0,000 mm 0,0 UV-I 0 W/m² -2,6 °C 12,9 km/h (3 Bft)
28.11.2016 06:26 -1,7 °C -1,6 °C 93 % 1021,2 hPa 0,0 mm 5,7 km/h (1 Bft) O-NO 67 ° 0 min 0,000 mm 0,0 UV-I 0 W/m² -2,7 °C 8,0 km/h (2 Bft)
28.11.2016 06:27 -1,7 °C -1,7 °C 93 % 1021,1 hPa 0,0 mm 6,2 km/h (2 Bft) O 81 ° 0 min 0,000 mm 0,0 UV-I 0 W/m² -2,7 °C 9,7 km/h (2 Bft)
28.11.2016 06:28 -1,7 °C -1,7 °C 93 % 1021,1 hPa 0,0 mm 5,0 km/h (1 Bft) NO 44 ° 0 min 0,000 mm 0,0 UV-I 0 W/m² -2,7 °C 8,0 km/h (2 Bft)
28.11.2016 06:29 -1,7 °C -1,7 °C 93 % 1021,1 hPa 0,0 mm 6,8 km/h (2 Bft) O-NO 57 ° 0 min 0,000 mm 0,0 UV-I 0 W/m² -2,7 °C 11,3 km/h (2 Bft)
28.11.2016 06:30 -1,7 °C -1,7 °C 93 % 1021,1 hPa 0,0 mm 5,5 km/h (1 Bft) O-NO 65 ° 0 min 0,000 mm 0,0 UV-I 0 W/m² -2,7 °C 8,0 km/h (2 Bft)
28.11.2016 06:31 -1,7 °C -1,7 °C 93 % 1021,1 hPa 0,0 mm 4,8 km/h (1 Bft) NO 51 ° 0 min 0,000 mm 0,0 UV-I 0 W/m² -2,7 °C 6,4 km/h (2 Bft)
28.11.2016 06:32 -1,7 °C -1,7 °C 93 % 1021,1 hPa 0,0 mm 4,1 km/h (1 Bft) O-NO 65 ° 0 min 0,000 mm 0,0 UV-I 0 W/m² -2,7 °C 6,4 km/h (2 Bft)
28.11.2016 06:33 -1,7 °C -1,7 °C 93 % 1021,1 hPa 0,0 mm 6,0 km/h (2 Bft) O-NO 60 ° 0 min 0,000 mm 0,0 UV-I 0 W/m² -2,7 °C 11,3 km/h (2 Bft)
28.11.2016 06:34 -1,7 °C -1,7 °C 93 % 1021,2 hPa 0,0 mm 3,2 km/h (1 Bft) O 83 ° 0 min 0,000 mm 0,0 UV-I 0 W/m² -2,7 °C 4,8 km/h (1 Bft)
28.11.2016 06:35 -1,7 °C -1,7 °C 93 % 1021,2 hPa 0,0 mm 7,8 km/h (2 Bft) O-SO 115 ° 0 min 0,000 mm 0,0 UV-I 0 W/m² -2,7 °C 11,3 km/h (2 Bft)
28.11.2016 06:36 -1,7 °C -1,7 °C 93 % 1021,2 hPa 0,0 mm 5,1 km/h (1 Bft) O-NO 77 ° 0 min 0,000 mm 0,0 UV-I 0 W/m² -2,7 °C 9,7 km/h (2 Bft)
28.11.2016 06:37 -1,7 °C -1,7 °C 93 % 1021,2 hPa 0,0 mm 4,4 km/h (1 Bft) O-NO 61 ° 0 min 0,000 mm 0,0 UV-I 0 W/m² -2,7 °C 8,0 km/h (2 Bft)
28.11.2016 06:38 -1,7 °C -1,7 °C 93 % 1021,2 hPa 0,0 mm 5,4 km/h (1 Bft) O-NO 77 ° 0 min 0,000 mm 0,0 UV-I 0 W/m² -2,7 °C 8,0 km/h (2 Bft)
28.11.2016 06:39 -1,7 °C -1,7 °C 93 % 1021,2 hPa 0,0 mm 5,4 km/h (1 Bft) O-NO 69 ° 0 min 0,000 mm 0,0 UV-I 0 W/m² -2,7 °C 11,3 km/h (2 Bft)
28.11.2016 06:40 -1,7 °C -1,7 °C 93 % 1021,2 hPa 0,0 mm 3,2 km/h (1 Bft) O 84 ° 0 min 0,000 mm 0,0 UV-I 0 W/m² -2,7 °C 8,0 km/h (2 Bft)
28.11.2016 06:41 -1,7 °C -1,7 °C 93 % 1021,3 hPa 0,0 mm 5,8 km/h (2 Bft) O-NO 63 ° 0 min 0,000 mm 0,0 UV-I 0 W/m² -2,7 °C 6,4 km/h (2 Bft)
28.11.2016 06:42 -1,7 °C -1,7 °C 93 % 1021,2 hPa 0,0 mm 4,0 km/h (1 Bft) O-NO 65 ° 0 min 0,000 mm 0,0 UV-I 0 W/m² -2,7 °C 6,4 km/h (2 Bft)
28.11.2016 06:43 -1,7 °C -1,7 °C 93 % 1021,3 hPa 0,0 mm 4,0 km/h (1 Bft) O-NO 72 ° 0 min 0,000 mm 0,0 UV-I 0 W/m² -2,7 °C 4,8 km/h (1 Bft)
28.11.2016 06:44 -1,7 °C -1,7 °C 93 % 1021,2 hPa 0,0 mm 4,3 km/h (1 Bft) O-NO 60 ° 0 min 0,000 mm 0,0 UV-I 0 W/m² -2,7 °C 6,4 km/h (2 Bft)
28.11.2016 06:45 -1,7 °C -1,7 °C 93 % 1021,2 hPa 0,0 mm 5,2 km/h (1 Bft) O 82 ° 0 min 0,000 mm 0,0 UV-I 0 W/m² -2,7 °C 8,0 km/h (2 Bft)
28.11.2016 06:46 -1,7 °C -1,7 °C 93 % 1021,2 hPa 0,0 mm 6,6 km/h (2 Bft) O 79 ° 0 min 0,000 mm 0,0 UV-I 0 W/m² -2,7 °C 16,1 km/h (3 Bft)
28.11.2016 06:47 -1,7 °C -1,7 °C 93 % 1021,2 hPa 0,0 mm 7,3 km/h (2 Bft) O-NO 78 ° 0 min 0,000 mm 0,0 UV-I 0 W/m² -2,7 °C 12,9 km/h (3 Bft)
28.11.2016 06:48 -1,7 °C -1,7 °C 93 % 1021,2 hPa 0,0 mm 4,4 km/h (1 Bft) O-NO 73 ° 0 min 0,000 mm 0,0 UV-I 0 W/m² -2,7 °C 8,0 km/h (2 Bft)
28.11.2016 06:49 -1,7 °C -1,7 °C 93 % 1021,2 hPa 0,0 mm 4,8 km/h (1 Bft) O 81 ° 0 min 0,000 mm 0,0 UV-I 0 W/m² -2,7 °C 8,0 km/h (2 Bft)
28.11.2016 06:50 -1,7 °C -1,7 °C 93 % 1021,2 hPa 0,0 mm 6,0 km/h (2 Bft) O-NO 76 ° 0 min 0,000 mm 0,0 UV-I 0 W/m² -2,7 °C 12,9 km/h (3 Bft)
28.11.2016 06:51 -1,7 °C -1,7 °C 93 % 1021,2 hPa 0,0 mm 5,1 km/h (1 Bft) O-NO 74 ° 0 min 0,000 mm 0,0 UV-I 0 W/m² -2,7 °C 6,4 km/h (2 Bft)
28.11.2016 06:52 -1,7 °C -1,7 °C 93 % 1021,2 hPa 0,0 mm 6,5 km/h (2 Bft) O-NO 57 ° 0 min 0,000 mm 0,0 UV-I 0 W/m² -2,7 °C 9,7 km/h (2 Bft)
28.11.2016 06:53 -1,7 °C -1,7 °C 93 % 1021,2 hPa 0,0 mm 5,4 km/h (1 Bft) O-NO 78 ° 0 min 0,000 mm 0,0 UV-I 0 W/m² -2,7 °C 8,0 km/h (2 Bft)
28.11.2016 06:54 -1,7 °C -1,7 °C 93 % 1021,2 hPa 0,0 mm 6,6 km/h (2 Bft) NO 55 ° 0 min 0,000 mm 0,0 UV-I 0 W/m² -2,7 °C 9,7 km/h (2 Bft)
28.11.2016 06:55 -1,7 °C -1,7 °C 93 % 1021,2 hPa 0,0 mm 5,6 km/h (1 Bft) NO 56 ° 0 min 0,000 mm 0,0 UV-I 0 W/m² -2,7 °C 6,4 km/h (2 Bft)
28.11.2016 06:56 -1,7 °C -1,7 °C 93 % 1021,2 hPa 0,0 mm 4,4 km/h (1 Bft) NO 53 ° 0 min 0,000 mm 0,0 UV-I 0 W/m² -2,7 °C 6,4 km/h (2 Bft)
28.11.2016 06:57 -1,7 °C -1,7 °C 93 % 1021,2 hPa 0,0 mm 4,4 km/h (1 Bft) O-NO 67 ° 0 min 0,000 mm 0,0 UV-I 0 W/m² -2,7 °C 6,4 km/h (2 Bft)
28.11.2016 06:58 -1,7 °C -1,7 °C 93 % 1021,2 hPa 0,0 mm 5,2 km/h (1 Bft) O-NO 62 ° 0 min 0,000 mm 0,0 UV-I 0 W/m² -2,7 °C 8,0 km/h (2 Bft)
28.11.2016 06:59 -1,7 °C -1,7 °C 93 % 1021,2 hPa 0,0 mm 5,7 km/h (1 Bft) NO 50 ° 0 min 0,000 mm 0,0 UV-I 0 W/m² -2,7 °C 8,0 km/h (2 Bft)
28.11.2016 07:00 -1,7 °C -1,7 °C 93 % 1021,2 hPa 0,0 mm 4,1 km/h (1 Bft) O-SO 103 ° 0 min 0,000 mm 0,0 UV-I 0 W/m² -2,7 °C 6,4 km/h (2 Bft)
28.11.2016 07:01 -1,7 °C -1,7 °C 93 % 1021,2 hPa 0,0 mm 4,9 km/h (1 Bft) O-NO 68 ° 0 min 0,000 mm 0,0 UV-I 0 W/m² -2,7 °C 8,0 km/h (2 Bft)
28.11.2016 07:02 -1,7 °C -1,7 °C 93 % 1021,2 hPa 0,0 mm 5,3 km/h (1 Bft) NO 56 ° 0 min 0,000 mm 0,0 UV-I 0 W/m² -2,7 °C 8,0 km/h (2 Bft)
28.11.2016 07:03 -1,7 °C -1,7 °C 93 % 1021,2 hPa 0,0 mm 4,4 km/h (1 Bft) O 99 ° 0 min 0,000 mm 0,0 UV-I 0 W/m² -2,7 °C 6,4 km/h (2 Bft)
28.11.2016 07:04 -1,7 °C -1,7 °C 93 % 1021,2 hPa 0,0 mm 3,6 km/h (1 Bft) O 84 ° 0 min 0,000 mm 0,0 UV-I 0 W/m² -2,7 °C 4,8 km/h (1 Bft)
28.11.2016 07:05 -1,7 °C -1,7 °C 93 % 1021,2 hPa 0,0 mm 3,4 km/h (1 Bft) SO 137 ° 0 min 0,000 mm 0,0 UV-I 0 W/m² -2,7 °C 11,3 km/h (2 Bft)
28.11.2016 07:06 -1,7 °C -1,7 °C 93 % 1021,2 hPa 0,0 mm 7,2 km/h (2 Bft) O-NO 76 ° 0 min 0,000 mm 0,0 UV-I 0 W/m² -2,7 °C 12,9 km/h (3 Bft)
28.11.2016 07:07 -1,7 °C -1,7 °C 93 % 1021,2 hPa 0,0 mm 5,9 km/h (2 Bft) O-NO 73 ° 0 min 0,000 mm 0,0 UV-I 0 W/m² -2,7 °C 12,9 km/h (3 Bft)
28.11.2016 07:08 -1,7 °C -1,7 °C 93 % 1021,2 hPa 0,0 mm 6,6 km/h (2 Bft) NO 56 ° 0 min 0,000 mm 0,0 UV-I 0 W/m² -2,7 °C 11,3 km/h (2 Bft)
28.11.2016 07:09 -1,7 °C -1,7 °C 93 % 1021,2 hPa 0,0 mm 4,7 km/h (1 Bft) O 85 ° 0 min 0,000 mm 0,0 UV-I 0 W/m² -2,7 °C 8,0 km/h (2 Bft)
28.11.2016 07:10 -1,7 °C -1,7 °C 93 % 1021,3 hPa 0,0 mm 3,7 km/h (1 Bft) NO 50 ° 0 min 0,000 mm 0,0 UV-I 0 W/m² -2,7 °C 6,4 km/h (2 Bft)
28.11.2016 07:11 -1,7 °C -1,7 °C 93 % 1021,3 hPa 0,0 mm 5,4 km/h (1 Bft) O-NO 72 ° 0 min 0,000 mm 0,0 UV-I 0 W/m² -2,7 °C 6,4 km/h (2 Bft)
28.11.2016 07:12 -1,7 °C -1,7 °C 93 % 1021,3 hPa 0,0 mm 6,2 km/h (2 Bft) NO 43 ° 0 min 0,000 mm 0,0 UV-I 0 W/m² -2,7 °C 8,0 km/h (2 Bft)
28.11.2016 07:13 -1,7 °C -1,7 °C 93 % 1021,3 hPa 0,0 mm 4,9 km/h (1 Bft) O-NO 70 ° 0 min 0,000 mm 0,0 UV-I 0 W/m² -2,7 °C 8,0 km/h (2 Bft)
28.11.2016 07:14 -1,7 °C -1,7 °C 93 % 1021,3 hPa 0,0 mm 8,7 km/h (2 Bft) NO 44 ° 0 min 0,000 mm 0,0 UV-I 0 W/m² -2,7 °C 12,9 km/h (3 Bft)
28.11.2016 07:15 -1,7 °C -1,7 °C 93 % 1021,3 hPa 0,0 mm 4,9 km/h (1 Bft) O-NO 57 ° 0 min 0,000 mm 0,0 UV-I 0 W/m² -2,7 °C 6,4 km/h (2 Bft)
28.11.2016 07:16 -1,7 °C -1,7 °C 93 % 1021,3 hPa 0,0 mm 5,8 km/h (2 Bft) N-NO 17 ° 0 min 0,000 mm 0,0 UV-I 0 W/m² -2,7 °C 9,7 km/h (2 Bft)
28.11.2016 07:17 -1,7 °C -1,7 °C 93 % 1021,4 hPa 0,0 mm 3,2 km/h (1 Bft) NO 53 ° 0 min 0,000 mm 0,0 UV-I 0 W/m² -2,7 °C 6,4 km/h (2 Bft)
28.11.2016 07:18 -1,7 °C -1,7 °C 93 % 1021,3 hPa 0,0 mm 4,4 km/h (1 Bft) O-NO 57 ° 0 min 0,000 mm 0,0 UV-I 0 W/m² -2,7 °C 11,3 km/h (2 Bft)
28.11.2016 07:19 -1,7 °C -1,7 °C 93 % 1021,4 hPa 0,0 mm 4,8 km/h (1 Bft) N-NO 30 ° 0 min 0,000 mm 0,0 UV-I 0 W/m² -2,7 °C 6,4 km/h (2 Bft)
28.11.2016 07:20 -1,7 °C -1,7 °C 93 % 1021,4 hPa 0,0 mm 4,8 km/h (1 Bft) NO 50 ° 0 min 0,000 mm 0,0 UV-I 0 W/m² -2,7 °C 6,4 km/h (2 Bft)
28.11.2016 07:21 -1,7 °C -1,7 °C 93 % 1021,4 hPa 0,0 mm 4,3 km/h (1 Bft) N-NO 32 ° 0 min 0,000 mm 0,0 UV-I 0 W/m² -2,7 °C 4,8 km/h (1 Bft)
28.11.2016 07:22 -1,7 °C -1,7 °C 93 % 1021,4 hPa 0,0 mm 6,1 km/h (2 Bft) O 80 ° 0 min 0,000 mm 0,0 UV-I 0 W/m² -2,7 °C 11,3 km/h (2 Bft)
28.11.2016 07:23 -1,7 °C -1,7 °C 93 % 1021,4 hPa 0,0 mm 3,4 km/h (1 Bft) O 79 ° 0 min 0,000 mm 0,0 UV-I 0 W/m² -2,7 °C 6,4 km/h (2 Bft)
28.11.2016 07:24 -1,7 °C -1,7 °C 93 % 1021,4 hPa 0,0 mm 4,6 km/h (1 Bft) O-NO 63 ° 0 min 0,000 mm 0,0 UV-I 0 W/m² -2,7 °C 9,7 km/h (2 Bft)
28.11.2016 07:25 -1,7 °C -1,7 °C 93 % 1021,4 hPa 0,0 mm 8,0 km/h (2 Bft) O 93 ° 0 min 0,000 mm 0,0 UV-I 0 W/m² -2,7 °C 11,3 km/h (2 Bft)
28.11.2016 07:26 -1,7 °C -1,7 °C 93 % 1021,5 hPa 0,0 mm 5,9 km/h (2 Bft) O-NO 66 ° 0 min 0,000 mm 0,0 UV-I 0 W/m² -2,7 °C 8,0 km/h (2 Bft)
28.11.2016 07:27 -1,7 °C -1,7 °C 93 % 1021,4 hPa 0,0 mm 7,4 km/h (2 Bft) O-NO 64 ° 0 min 0,000 mm 0,0 UV-I 0 W/m² -2,7 °C 11,3 km/h (2 Bft)
28.11.2016 07:28 -1,7 °C -1,7 °C 93 % 1021,4 hPa 0,0 mm 9,1 km/h (2 Bft) O 86 ° 0 min 0,000 mm 0,0 UV-I 0 W/m² -2,7 °C 12,9 km/h (3 Bft)
28.11.2016 07:29 -1,7 °C -1,7 °C 93 % 1021,4 hPa 0,0 mm 4,2 km/h (1 Bft) O-NO 57 ° 0 min 0,000 mm 0,0 UV-I 0 W/m² -2,7 °C 6,4 km/h (2 Bft)
28.11.2016 07:30 -1,7 °C -1,7 °C 93 % 1021,4 hPa 0,0 mm 5,4 km/h (1 Bft) NO 51 ° 0 min 0,000 mm 0,0 UV-I 0 W/m² -2,7 °C 8,0 km/h (2 Bft)
28.11.2016 07:31 -1,7 °C -1,7 °C 93 % 1021,4 hPa 0,0 mm 3,4 km/h (1 Bft) O-NO 64 ° 0 min 0,000 mm 0,0 UV-I 0 W/m² -2,7 °C 6,4 km/h (2 Bft)
28.11.2016 07:32 -1,7 °C -1,7 °C 93 % 1021,4 hPa 0,0 mm 2,5 km/h (1 Bft) N-NO 30 ° 0 min 0,000 mm 0,0 UV-I 0 W/m² -2,7 °C 4,8 km/h (1 Bft)
28.11.2016 07:33 -1,7 °C -1,7 °C 93 % 1021,4 hPa 0,0 mm 4,9 km/h (1 Bft) O-NO 76 ° 0 min 0,000 mm 0,0 UV-I 0 W/m² -2,7 °C 8,0 km/h (2 Bft)
28.11.2016 07:34 -1,7 °C -1,7 °C 93 % 1021,4 hPa 0,0 mm 7,4 km/h (2 Bft) O-NO 61 ° 0 min 0,000 mm 0,0 UV-I 0 W/m² -2,7 °C 11,3 km/h (2 Bft)
28.11.2016 07:35 -1,7 °C -1,7 °C 93 % 1021,4 hPa 0,0 mm 7,1 km/h (2 Bft) N-NO 30 ° 0 min 0,000 mm 0,0 UV-I 0 W/m² -2,7 °C 9,7 km/h (2 Bft)
28.11.2016 07:36 -1,7 °C -1,7 °C 93 % 1021,5 hPa 0,0 mm 6,2 km/h (2 Bft) O-NO 68 ° 0 min 0,000 mm 0,0 UV-I 0 W/m² -2,7 °C 8,0 km/h (2 Bft)
28.11.2016 07:37 -1,7 °C -1,7 °C 93 % 1021,4 hPa 0,0 mm 6,3 km/h (2 Bft) N-NO 30 ° 0 min 0,000 mm 0,0 UV-I 0 W/m² -2,7 °C 9,7 km/h (2 Bft)
28.11.2016 07:38 -1,7 °C -1,7 °C 93 % 1021,5 hPa 0,0 mm 4,3 km/h (1 Bft) O-NO 61 ° 0 min 0,000 mm 0,0 UV-I 0 W/m² -2,7 °C 8,0 km/h (2 Bft)
28.11.2016 07:39 -1,7 °C -1,7 °C 93 % 1021,4 hPa 0,0 mm 2,7 km/h (1 Bft) O-NO 61 ° 0 min 0,000 mm 0,0 UV-I 0 W/m² -2,7 °C 4,8 km/h (1 Bft)
28.11.2016 07:40 -1,7 °C -1,7 °C 93 % 1021,5 hPa 0,0 mm 4,7 km/h (1 Bft) O 86 ° 0 min 0,000 mm 0,0 UV-I 0 W/m² -2,7 °C 8,0 km/h (2 Bft)
28.11.2016 07:41 -1,8 °C -1,7 °C 93 % 1021,5 hPa 0,0 mm 6,6 km/h (2 Bft) O-NO 75 ° 0 min 0,000 mm 0,0 UV-I 0 W/m² -2,8 °C 9,7 km/h (2 Bft)
28.11.2016 07:42 -1,8 °C -1,7 °C 93 % 1021,5 hPa 0,0 mm 6,4 km/h (2 Bft) NO 49 ° 0 min 0,000 mm 0,0 UV-I 0 W/m² -2,8 °C 12,9 km/h (3 Bft)
28.11.2016 07:43 -1,8 °C -1,7 °C 93 % 1021,5 hPa 0,0 mm 5,8 km/h (2 Bft) O-NO 63 ° 0 min 0,000 mm 0,0 UV-I 0 W/m² -2,8 °C 8,0 km/h (2 Bft)
28.11.2016 07:44 -1,8 °C -1,8 °C 93 % 1021,6 hPa 0,0 mm 7,4 km/h (2 Bft) NO 45 ° 0 min 0,000 mm 0,0 UV-I 0 W/m² -2,8 °C 12,9 km/h (3 Bft)
28.11.2016 07:45 -1,8 °C -1,8 °C 93 % 1021,6 hPa 0,0 mm 5,2 km/h (1 Bft) N-NO 26 ° 0 min 0,000 mm 0,0 UV-I 0 W/m² -2,8 °C 6,4 km/h (2 Bft)
28.11.2016 07:46 -1,8 °C -1,8 °C 94 % 1021,6 hPa 0,0 mm 6,3 km/h (2 Bft) NO 38 ° 0 min 0,000 mm 0,0 UV-I 0 W/m² -2,6 °C 8,0 km/h (2 Bft)
28.11.2016 07:47 -1,8 °C -1,8 °C 93 % 1021,6 hPa 0,0 mm 6,8 km/h (2 Bft) NO 55 ° 0 min 0,000 mm 0,0 UV-I 0 W/m² -2,8 °C 11,3 km/h (2 Bft)
28.11.2016 07:48 -1,8 °C -1,8 °C 93 % 1021,7 hPa 0,0 mm 7,1 km/h (2 Bft) O-NO 57 ° 0 min 0,000 mm 0,0 UV-I 0 W/m² -2,8 °C 11,3 km/h (2 Bft)
28.11.2016 07:49 -1,8 °C -1,8 °C 93 % 1021,6 hPa 0,0 mm 7,4 km/h (2 Bft) NO 56 ° 0 min 0,000 mm 0,0 UV-I 0 W/m² -2,8 °C 11,3 km/h (2 Bft)
28.11.2016 07:50 -1,8 °C -1,8 °C 93 % 1021,7 hPa 0,0 mm 6,0 km/h (2 Bft) NO 46 ° 0 min 0,000 mm 0,0 UV-I 0 W/m² -2,8 °C 9,7 km/h (2 Bft)
28.11.2016 07:51 -1,8 °C -1,8 °C 93 % 1021,7 hPa 0,0 mm 4,7 km/h (1 Bft) O-NO 74 ° 0 min 0,000 mm 0,0 UV-I 0 W/m² -2,8 °C 8,0 km/h (2 Bft)
28.11.2016 07:52 -1,8 °C -1,8 °C 94 % 1021,7 hPa 0,0 mm 5,7 km/h (1 Bft) O-NO 61 ° 0 min 0,000 mm 0,0 UV-I 0 W/m² -2,6 °C 9,7 km/h (2 Bft)
28.11.2016 07:53 -1,8 °C -1,8 °C 93 % 1021,8 hPa 0,0 mm 7,1 km/h (2 Bft) NO 47 ° 0 min 0,000 mm 0,0 UV-I 0 W/m² -2,8 °C 11,3 km/h (2 Bft)
28.11.2016 07:54 -1,9 °C -1,8 °C 94 % 1021,8 hPa 0,0 mm 6,1 km/h (2 Bft) O-NO 73 ° 0 min 0,000 mm 0,0 UV-I 0 W/m² -2,7 °C 11,3 km/h (2 Bft)
28.11.2016 07:55 -1,9 °C -1,9 °C 94 % 1021,8 hPa 0,0 mm 8,8 km/h (2 Bft) O-NO 78 ° 0 min 0,000 mm 0,0 UV-I 0 W/m² -2,7 °C 12,9 km/h (3 Bft)
28.11.2016 07:56 -1,9 °C -1,9 °C 94 % 1021,8 hPa 0,0 mm 7,1 km/h (2 Bft) O-NO 62 ° 0 min 0,000 mm 0,0 UV-I 0 W/m² -2,7 °C 12,9 km/h (3 Bft)
28.11.2016 07:57 -1,9 °C -1,9 °C 94 % 1021,8 hPa 0,0 mm 7,1 km/h (2 Bft) O-NO 71 ° 0 min 0,000 mm 0,0 UV-I 0 W/m² -2,7 °C 11,3 km/h (2 Bft)
28.11.2016 07:58 -1,9 °C -1,9 °C 94 % 1021,9 hPa 0,0 mm 7,4 km/h (2 Bft) N 5 ° 0 min 0,000 mm 0,0 UV-I 0 W/m² -2,7 °C 12,9 km/h (3 Bft)
28.11.2016 07:59 -1,9 °C -1,9 °C 94 % 1021,9 hPa 0,0 mm 9,3 km/h (2 Bft) NO 45 ° 0 min 0,000 mm 0,0 UV-I 0 W/m² -2,7 °C 12,9 km/h (3 Bft)
28.11.2016 08:00 -1,9 °C -1,9 °C 94 % 1021,9 hPa 0,0 mm 8,2 km/h (2 Bft) NO 44 ° 0 min 0,000 mm 0,0 UV-I 0 W/m² -2,7 °C 11,3 km/h (2 Bft)
28.11.2016 08:01 -2,0 °C -1,9 °C 94 % 1021,9 hPa 0,0 mm 5,4 km/h (1 Bft) NO 55 ° 0 min 0,000 mm 0,0 UV-I 0 W/m² -2,8 °C 6,4 km/h (2 Bft)
28.11.2016 08:02 -2,0 °C -1,9 °C 94 % 1022,0 hPa 0,0 mm 6,7 km/h (2 Bft) NO 47 ° 0 min 0,000 mm 0,0 UV-I 0 W/m² -2,8 °C 11,3 km/h (2 Bft)
28.11.2016 08:03 -2,0 °C -1,9 °C 94 % 1022,0 hPa 0,0 mm 9,5 km/h (2 Bft) O-SO 112 ° 0 min 0,000 mm 0,0 UV-I 0 W/m² -2,8 °C 12,9 km/h (3 Bft)
28.11.2016 08:04 -2,0 °C -1,9 °C 94 % 1022,0 hPa 0,0 mm 10,3 km/h (2 Bft) O 82 ° 0 min 0,000 mm 0,0 UV-I 0 W/m² -2,8 °C 16,1 km/h (3 Bft)
28.11.2016 08:05 -2,0 °C -2,0 °C 94 % 1022,0 hPa 0,0 mm 7,4 km/h (2 Bft) O-NO 77 ° 0 min 0,000 mm 0,0 UV-I 0 W/m² -2,8 °C 12,9 km/h (3 Bft)
28.11.2016 08:06 -2,1 °C -2,0 °C 94 % 1022,0 hPa 0,0 mm 6,4 km/h (2 Bft) N-NO 31 ° 0 min 0,000 mm 0,0 UV-I 5 W/m² -2,9 °C 11,3 km/h (2 Bft)
28.11.2016 08:07 -2,1 °C -2,0 °C 94 % 1022,0 hPa 0,0 mm 9,6 km/h (2 Bft) O-NO 74 ° 0 min 0,000 mm 0,0 UV-I 5 W/m² -2,9 °C 14,5 km/h (3 Bft)
28.11.2016 08:08 -2,1 °C -2,1 °C 94 % 1022,0 hPa 0,0 mm 11,7 km/h (2 Bft) O-NO 59 ° 0 min 0,000 mm 0,0 UV-I 5 W/m² -2,9 °C 16,1 km/h (3 Bft)
28.11.2016 08:09 -2,1 °C -2,1 °C 94 % 1022,1 hPa 0,0 mm 6,2 km/h (2 Bft) O-NO 76 ° 0 min 0,000 mm 0,0 UV-I 5 W/m² -2,9 °C 9,7 km/h (2 Bft)
28.11.2016 08:10 -2,1 °C -2,1 °C 94 % 1022,1 hPa 0,0 mm 7,6 km/h (2 Bft) NO 50 ° 0 min 0,000 mm 0,0 UV-I 5 W/m² -2,9 °C 11,3 km/h (2 Bft)
28.11.2016 08:11 -2,1 °C -2,1 °C 94 % 1022,1 hPa 0,0 mm 6,4 km/h (2 Bft) NO 54 ° 0 min 0,000 mm 0,0 UV-I 7 W/m² -2,9 °C 9,7 km/h (2 Bft)
28.11.2016 08:12 -2,1 °C -2,1 °C 94 % 1022,0 hPa 0,0 mm 6,5 km/h (2 Bft) NO 44 ° 0 min 0,000 mm 0,0 UV-I 7 W/m² -2,9 °C 9,7 km/h (2 Bft)
28.11.2016 08:13 -2,1 °C -2,1 °C 94 % 1022,1 hPa 0,0 mm 9,5 km/h (2 Bft) O-NO 57 ° 0 min 0,000 mm 0,0 UV-I 7 W/m² -2,9 °C 16,1 km/h (3 Bft)
28.11.2016 08:14 -2,1 °C -2,1 °C 94 % 1022,1 hPa 0,0 mm 7,2 km/h (2 Bft) O 83 ° 0 min 0,000 mm 0,0 UV-I 7 W/m² -2,9 °C 9,7 km/h (2 Bft)
28.11.2016 08:15 -2,2 °C -2,1 °C 94 % 1022,1 hPa 0,0 mm 6,4 km/h (2 Bft) O-SO 107 ° 0 min 0,000 mm 0,0 UV-I 7 W/m² -3,0 °C 11,3 km/h (2 Bft)
28.11.2016 08:16 -2,2 °C -2,1 °C 94 % 1022,1 hPa 0,0 mm 6,6 km/h (2 Bft) O 96 ° 0 min 0,000 mm 0,0 UV-I 7 W/m² -3,0 °C 9,7 km/h (2 Bft)
28.11.2016 08:17 -2,2 °C -2,2 °C 94 % 1022,1 hPa 0,0 mm 6,4 km/h (2 Bft) O-NO 61 ° 0 min 0,000 mm 0,0 UV-I 7 W/m² -3,0 °C 12,9 km/h (3 Bft)
28.11.2016 08:18 -2,2 °C -2,1 °C 94 % 1022,2 hPa 0,0 mm 5,0 km/h (1 Bft) O-NO 73 ° 0 min 0,000 mm 0,0 UV-I 7 W/m² -3,0 °C 8,0 km/h (2 Bft)
28.11.2016 08:19 -2,2 °C -2,2 °C 94 % 1022,2 hPa 0,0 mm 5,5 km/h (1 Bft) N-NO 19 ° 0 min 0,000 mm 0,0 UV-I 9 W/m² -3,0 °C 8,0 km/h (2 Bft)
28.11.2016 08:20 -2,2 °C -2,2 °C 94 % 1022,3 hPa 0,0 mm 5,2 km/h (1 Bft) NO 48 ° 0 min 0,000 mm 0,0 UV-I 9 W/m² -3,0 °C 6,4 km/h (2 Bft)
28.11.2016 08:21 -2,2 °C -2,2 °C 94 % 1022,2 hPa 0,0 mm 4,4 km/h (1 Bft) NO 45 ° 0 min 0,000 mm 0,0 UV-I 9 W/m² -3,0 °C 8,0 km/h (2 Bft)
28.11.2016 08:22 -2,2 °C -2,2 °C 94 % 1022,2 hPa 0,0 mm 6,8 km/h (2 Bft) NO 55 ° 0 min 0,000 mm 0,0 UV-I 9 W/m² -3,0 °C 9,7 km/h (2 Bft)
28.11.2016 08:23 -2,2 °C -2,2 °C 94 % 1022,3 hPa 0,0 mm 3,5 km/h (1 Bft) NO 54 ° 0 min 0,000 mm 0,0 UV-I 9 W/m² -3,0 °C 4,8 km/h (1 Bft)
28.11.2016 08:24 -2,2 °C -2,2 °C 94 % 1022,3 hPa 0,0 mm 7,4 km/h (2 Bft) NO 51 ° 0 min 0,000 mm 0,0 UV-I 9 W/m² -3,0 °C 12,9 km/h (3 Bft)
28.11.2016 08:25 -2,2 °C -2,2 °C 94 % 1022,3 hPa 0,0 mm 2,0 km/h (1 Bft) NO 51 ° 0 min 0,000 mm 0,0 UV-I 9 W/m² -3,0 °C 4,8 km/h (1 Bft)
28.11.2016 08:26 -2,2 °C -2,2 °C 94 % 1022,3 hPa 0,0 mm 5,7 km/h (1 Bft) O-NO 69 ° 0 min 0,000 mm 0,0 UV-I 9 W/m² -3,0 °C 8,0 km/h (2 Bft)
28.11.2016 08:27 -2,2 °C -2,2 °C 94 % 1022,3 hPa 0,0 mm 6,7 km/h (2 Bft) NO 49 ° 0 min 0,000 mm 0,0 UV-I 9 W/m² -3,0 °C 11,3 km/h (2 Bft)
28.11.2016 08:28 -2,2 °C -2,2 °C 94 % 1022,3 hPa 0,0 mm 5,6 km/h (1 Bft) O-NO 57 ° 0 min 0,000 mm 0,0 UV-I 9 W/m² -3,0 °C 9,7 km/h (2 Bft)
28.11.2016 08:29 -2,2 °C -2,2 °C 94 % 1022,3 hPa 0,0 mm 5,9 km/h (2 Bft) O-NO 61 ° 0 min 0,000 mm 0,0 UV-I 9 W/m² -3,0 °C 9,7 km/h (2 Bft)
28.11.2016 08:30 -2,2 °C -2,2 °C 94 % 1022,4 hPa 0,0 mm 6,4 km/h (2 Bft) NO 52 ° 0 min 0,000 mm 0,0 UV-I 11 W/m² -3,0 °C 12,9 km/h (3 Bft)
28.11.2016 08:31 -2,2 °C -2,2 °C 94 % 1022,3 hPa 0,0 mm 4,3 km/h (1 Bft) N-NO 33 ° 0 min 0,000 mm 0,0 UV-I 11 W/m² -3,0 °C 6,4 km/h (2 Bft)
28.11.2016 08:32 -2,2 °C -2,2 °C 94 % 1022,4 hPa 0,0 mm 5,5 km/h (1 Bft) NO 40 ° 0 min 0,000 mm 0,0 UV-I 12 W/m² -3,0 °C 8,0 km/h (2 Bft)
28.11.2016 08:33 -2,2 °C -2,2 °C 94 % 1022,4 hPa 0,0 mm 5,7 km/h (1 Bft) NO 46 ° 0 min 0,000 mm 0,0 UV-I 11 W/m² -3,0 °C 6,4 km/h (2 Bft)
28.11.2016 08:34 -2,2 °C -2,2 °C 94 % 1022,4 hPa 0,0 mm 5,6 km/h (1 Bft) NO 37 ° 0 min 0,000 mm 0,0 UV-I 11 W/m² -3,0 °C 8,0 km/h (2 Bft)
28.11.2016 08:35 -2,2 °C -2,2 °C 94 % 1022,4 hPa 0,0 mm 6,8 km/h (2 Bft) NO 49 ° 0 min 0,000 mm 0,0 UV-I 9 W/m² -3,0 °C 11,3 km/h (2 Bft)
28.11.2016 08:36 -2,3 °C -2,2 °C 94 % 1022,4 hPa 0,0 mm 3,4 km/h (1 Bft) O-NO 65 ° 0 min 0,000 mm 0,0 UV-I 11 W/m² -3,1 °C 8,0 km/h (2 Bft)
28.11.2016 08:37 -2,2 °C -2,2 °C 94 % 1022,5 hPa 0,0 mm 7,0 km/h (2 Bft) O-NO 64 ° 0 min 0,000 mm 0,0 UV-I 11 W/m² -3,0 °C 11,3 km/h (2 Bft)
28.11.2016 08:38 -2,2 °C -2,2 °C 94 % 1022,5 hPa 0,0 mm 6,1 km/h (2 Bft) NO 53 ° 0 min 0,000 mm 0,0 UV-I 11 W/m² -3,0 °C 8,0 km/h (2 Bft)
28.11.2016 08:39 -2,3 °C -2,2 °C 94 % 1022,4 hPa 0,0 mm 6,2 km/h (2 Bft) O-NO 65 ° 0 min 0,000 mm 0,0 UV-I 11 W/m² -3,1 °C 11,3 km/h (2 Bft)
28.11.2016 08:40 -2,3 °C -2,3 °C 94 % 1022,5 hPa 0,0 mm 9,2 km/h (2 Bft) O-NO 67 ° 0 min 0,000 mm 0,0 UV-I 9 W/m² -3,1 °C 14,5 km/h (3 Bft)
28.11.2016 08:41 -2,3 °C -2,3 °C 94 % 1022,5 hPa 0,0 mm 8,2 km/h (2 Bft) O-NO 76 ° 0 min 0,000 mm 0,0 UV-I 9 W/m² -3,1 °C 12,9 km/h (3 Bft)
28.11.2016 08:42 -2,3 °C -2,3 °C 94 % 1022,5 hPa 0,0 mm 7,8 km/h (2 Bft) NO 49 ° 0 min 0,000 mm 0,0 UV-I 9 W/m² -3,1 °C 12,9 km/h (3 Bft)
28.11.2016 08:43 -2,3 °C -2,3 °C 94 % 1022,5 hPa 0,0 mm 6,3 km/h (2 Bft) O 86 ° 0 min 0,000 mm 0,0 UV-I 9 W/m² -3,1 °C 8,0 km/h (2 Bft)
28.11.2016 08:44 -2,3 °C -2,3 °C 94 % 1022,5 hPa 0,0 mm 6,0 km/h (2 Bft) N-NO 29 ° 0 min 0,000 mm 0,0 UV-I 11 W/m² -3,1 °C 8,0 km/h (2 Bft)
28.11.2016 08:45 -2,3 °C -2,3 °C 94 % 1022,5 hPa 0,0 mm 5,7 km/h (1 Bft) O-NO 62 ° 0 min 0,000 mm 0,0 UV-I 11 W/m² -3,1 °C 6,4 km/h (2 Bft)
28.11.2016 08:46 -2,3 °C -2,3 °C 94 % 1022,5 hPa 0,0 mm 6,2 km/h (2 Bft) O-NO 59 ° 0 min 0,000 mm 0,0 UV-I 12 W/m² -3,1 °C 11,3 km/h (2 Bft)
28.11.2016 08:47 -2,3 °C -2,3 °C 94 % 1022,5 hPa 0,0 mm 6,9 km/h (2 Bft) O-NO 70 ° 0 min 0,000 mm 0,0 UV-I 12 W/m² -3,1 °C 12,9 km/h (3 Bft)
28.11.2016 08:48 -2,3 °C -2,3 °C 94 % 1022,5 hPa 0,0 mm 8,0 km/h (2 Bft) O-NO 63 ° 0 min 0,000 mm 0,0 UV-I 14 W/m² -3,1 °C 12,9 km/h (3 Bft)
28.11.2016 08:49 -2,3 °C -2,3 °C 94 % 1022,5 hPa 0,0 mm 8,2 km/h (2 Bft) NO 54 ° 0 min 0,000 mm 0,0 UV-I 12 W/m² -3,1 °C 14,5 km/h (3 Bft)
28.11.2016 08:50 -2,3 °C -2,3 °C 94 % 1022,5 hPa 0,0 mm 5,0 km/h (1 Bft) NO 38 ° 0 min 0,000 mm 0,0 UV-I 14 W/m² -3,1 °C 8,0 km/h (2 Bft)
28.11.2016 08:51 -2,3 °C -2,3 °C 94 % 1022,6 hPa 0,0 mm 9,1 km/h (2 Bft) O 79 ° 0 min 0,000 mm 0,0 UV-I 14 W/m² -3,1 °C 12,9 km/h (3 Bft)
28.11.2016 08:52 -2,3 °C -2,3 °C 94 % 1022,6 hPa 0,0 mm 5,8 km/h (2 Bft) NO 42 ° 0 min 0,000 mm 0,0 UV-I 16 W/m² -3,1 °C 8,0 km/h (2 Bft)
28.11.2016 08:53 -2,3 °C -2,3 °C 94 % 1022,5 hPa 0,0 mm 6,4 km/h (2 Bft) O-NO 74 ° 0 min 0,000 mm 0,0 UV-I 16 W/m² -3,1 °C 8,0 km/h (2 Bft)
28.11.2016 08:54 -2,3 °C -2,3 °C 94 % 1022,6 hPa 0,0 mm 4,5 km/h (1 Bft) NO 45 ° 0 min 0,000 mm 0,0 UV-I 16 W/m² -3,1 °C 6,4 km/h (2 Bft)
28.11.2016 08:55 -2,3 °C -2,3 °C 94 % 1022,6 hPa 0,0 mm 7,3 km/h (2 Bft) NO 42 ° 0 min 0,000 mm 0,0 UV-I 16 W/m² -3,1 °C 11,3 km/h (2 Bft)
28.11.2016 08:56 -2,3 °C -2,3 °C 94 % 1022,6 hPa 0,0 mm 8,5 km/h (2 Bft) O-NO 61 ° 0 min 0,000 mm 0,0 UV-I 14 W/m² -3,1 °C 11,3 km/h (2 Bft)
28.11.2016 08:57 -2,3 °C -2,3 °C 94 % 1022,6 hPa 0,0 mm 6,4 km/h (2 Bft) N-NO 19 ° 0 min 0,000 mm 0,0 UV-I 14 W/m² -3,1 °C 9,7 km/h (2 Bft)
28.11.2016 08:58 -2,3 °C -2,3 °C 94 % 1022,6 hPa 0,0 mm 3,0 km/h (1 Bft) O-NO 63 ° 0 min 0,000 mm 0,0 UV-I 14 W/m² -3,1 °C 4,8 km/h (1 Bft)
28.11.2016 08:59 -2,3 °C -2,3 °C 94 % 1022,6 hPa 0,0 mm 5,8 km/h (2 Bft) NO 44 ° 0 min 0,000 mm 0,0 UV-I 16 W/m² -3,1 °C 9,7 km/h (2 Bft)
28.11.2016 09:00 -2,3 °C -2,3 °C 94 % 1022,6 hPa 0,0 mm 5,7 km/h (1 Bft) NO 49 ° 0 min 0,000 mm 0,0 UV-I 18 W/m² -3,1 °C 9,7 km/h (2 Bft)
28.11.2016 09:01 -2,3 °C -2,3 °C 94 % 1022,6 hPa 0,0 mm 4,6 km/h (1 Bft) O-NO 61 ° 0 min 0,000 mm 0,0 UV-I 19 W/m² -3,1 °C 17,7 km/h (3 Bft)
28.11.2016 09:02 -2,4 °C -2,3 °C 94 % 1022,5 hPa 0,0 mm 8,5 km/h (2 Bft) N-NO 31 ° 0 min 0,000 mm 0,0 UV-I 19 W/m² -3,2 °C 16,1 km/h (3 Bft)
28.11.2016 09:03 -2,4 °C -2,4 °C 94 % 1022,6 hPa 0,0 mm 8,2 km/h (2 Bft) N-NO 15 ° 0 min 0,000 mm 0,0 UV-I 18 W/m² -3,2 °C 14,5 km/h (3 Bft)
28.11.2016 09:04 -2,4 °C -2,4 °C 94 % 1022,6 hPa 0,0 mm 7,2 km/h (2 Bft) O-NO 63 ° 0 min 0,000 mm 0,0 UV-I 18 W/m² -3,2 °C 11,3 km/h (2 Bft)
28.11.2016 09:05 -2,4 °C -2,4 °C 94 % 1022,6 hPa 0,0 mm 9,0 km/h (2 Bft) O-NO 63 ° 0 min 0,000 mm 0,0 UV-I 23 W/m² -3,2 °C 16,1 km/h (3 Bft)
28.11.2016 09:06 -2,4 °C -2,4 °C 94 % 1022,6 hPa 0,0 mm 8,2 km/h (2 Bft) NO 44 ° 0 min 0,000 mm 0,0 UV-I 23 W/m² -3,2 °C 12,9 km/h (3 Bft)
28.11.2016 09:07 -2,4 °C -2,4 °C 94 % 1022,6 hPa 0,0 mm 9,1 km/h (2 Bft) O-NO 74 ° 0 min 0,000 mm 0,0 UV-I 23 W/m² -3,2 °C 14,5 km/h (3 Bft)
28.11.2016 09:08 -2,4 °C -2,4 °C 94 % 1022,6 hPa 0,0 mm 8,0 km/h (2 Bft) NO 55 ° 0 min 0,000 mm 0,0 UV-I 19 W/m² -3,2 °C 14,5 km/h (3 Bft)
28.11.2016 09:09 -2,4 °C -2,4 °C 94 % 1022,6 hPa 0,0 mm 11,0 km/h (2 Bft) N 5 ° 0 min 0,000 mm 0,0 UV-I 21 W/m² -3,2 °C 16,1 km/h (3 Bft)
28.11.2016 09:10 -2,4 °C -2,4 °C 94 % 1022,6 hPa 0,0 mm 4,4 km/h (1 Bft) O-NO 58 ° 0 min 0,000 mm 0,0 UV-I 23 W/m² -3,2 °C 6,4 km/h (2 Bft)
28.11.2016 09:11 -2,4 °C -2,4 °C 94 % 1022,6 hPa 0,0 mm 5,2 km/h (1 Bft) NO 34 ° 0 min 0,000 mm 0,0 UV-I 25 W/m² -3,2 °C 8,0 km/h (2 Bft)
28.11.2016 09:12 -2,4 °C -2,4 °C 94 % 1022,6 hPa 0,0 mm 8,1 km/h (2 Bft) NO 53 ° 0 min 0,000 mm 0,0 UV-I 25 W/m² -3,2 °C 12,9 km/h (3 Bft)
28.11.2016 09:13 -2,4 °C -2,4 °C 94 % 1022,6 hPa 0,0 mm 7,7 km/h (2 Bft) O-NO 60 ° 0 min 0,000 mm 0,0 UV-I 28 W/m² -3,2 °C 11,3 km/h (2 Bft)
28.11.2016 09:14 -2,4 °C -2,4 °C 94 % 1022,6 hPa 0,0 mm 6,4 km/h (2 Bft) O-NO 65 ° 0 min 0,000 mm 0,0 UV-I 30 W/m² -3,2 °C 11,3 km/h (2 Bft)
28.11.2016 09:15 -2,4 °C -2,4 °C 94 % 1022,7 hPa 0,0 mm 6,0 km/h (2 Bft) NO 36 ° 0 min 0,000 mm 0,0 UV-I 28 W/m² -3,2 °C 9,7 km/h (2 Bft)
28.11.2016 09:16 -2,4 °C -2,4 °C 94 % 1022,6 hPa 0,0 mm 6,0 km/h (2 Bft) O-NO 74 ° 0 min 0,000 mm 0,0 UV-I 26 W/m² -3,2 °C 8,0 km/h (2 Bft)
28.11.2016 09:17 -2,4 °C -2,4 °C 94 % 1022,6 hPa 0,0 mm 7,3 km/h (2 Bft) O-NO 65 ° 0 min 0,000 mm 0,0 UV-I 26 W/m² -3,2 °C 11,3 km/h (2 Bft)
28.11.2016 09:18 -2,4 °C -2,4 °C 94 % 1022,7 hPa 0,0 mm 6,4 km/h (2 Bft) O-NO 71 ° 0 min 0,000 mm 0,0 UV-I 37 W/m² -3,2 °C 9,7 km/h (2 Bft)
28.11.2016 09:19 -2,4 °C -2,4 °C 94 % 1022,7 hPa 0,0 mm 5,5 km/h (1 Bft) NO 44 ° 0 min 0,000 mm 0,0 UV-I 39 W/m² -3,2 °C 8,0 km/h (2 Bft)
28.11.2016 09:20 -2,4 °C -2,3 °C 94 % 1022,7 hPa 0,0 mm 6,6 km/h (2 Bft) O 98 ° 0 min 0,000 mm 0,0 UV-I 39 W/m² -3,2 °C 9,7 km/h (2 Bft)
28.11.2016 09:21 -2,4 °C -2,4 °C 94 % 1022,6 hPa 0,0 mm 7,1 km/h (2 Bft) O-NO 69 ° 0 min 0,000 mm 0,0 UV-I 40 W/m² -3,2 °C 12,9 km/h (3 Bft)
28.11.2016 09:22 -2,4 °C -2,3 °C 94 % 1022,7 hPa 0,0 mm 8,1 km/h (2 Bft) NO 40 ° 0 min 0,000 mm 0,0 UV-I 40 W/m² -3,2 °C 14,5 km/h (3 Bft)
28.11.2016 09:23 -2,4 °C -2,3 °C 94 % 1022,7 hPa 0,0 mm 5,1 km/h (1 Bft) O-NO 74 ° 0 min 0,000 mm 0,0 UV-I 44 W/m² -3,2 °C 6,4 km/h (2 Bft)
28.11.2016 09:24 -2,3 °C -2,3 °C 94 % 1022,7 hPa 0,0 mm 6,6 km/h (2 Bft) O-NO 78 ° 0 min 0,000 mm 0,0 UV-I 46 W/m² -3,1 °C 9,7 km/h (2 Bft)
28.11.2016 09:25 -2,3 °C -2,3 °C 94 % 1022,8 hPa 0,0 mm 5,8 km/h (2 Bft) O-NO 66 ° 0 min 0,000 mm 0,0 UV-I 40 W/m² -3,1 °C 9,7 km/h (2 Bft)
28.11.2016 09:26 -2,3 °C -2,3 °C 94 % 1022,8 hPa 0,0 mm 8,2 km/h (2 Bft) O-NO 59 ° 0 min 0,000 mm 0,0 UV-I 37 W/m² -3,1 °C 12,9 km/h (3 Bft)
28.11.2016 09:27 -2,3 °C -2,3 °C 94 % 1022,7 hPa 0,0 mm 6,5 km/h (2 Bft) O-NO 69 ° 0 min 0,000 mm 0,0 UV-I 35 W/m² -3,1 °C 9,7 km/h (2 Bft)
28.11.2016 09:28 -2,4 °C -2,3 °C 94 % 1022,7 hPa 0,0 mm 4,5 km/h (1 Bft) O-NO 65 ° 0 min 0,000 mm 0,0 UV-I 39 W/m² -3,2 °C 6,4 km/h (2 Bft)
28.11.2016 09:29 -2,4 °C -2,3 °C 94 % 1022,7 hPa 0,0 mm 4,4 km/h (1 Bft) NO 35 ° 0 min 0,000 mm 0,0 UV-I 47 W/m² -3,2 °C 6,4 km/h (2 Bft)
28.11.2016 09:30 -2,3 °C -2,3 °C 94 % 1022,8 hPa 0,0 mm 8,7 km/h (2 Bft) NO 50 ° 0 min 0,000 mm 0,0 UV-I 51 W/m² -3,1 °C 14,5 km/h (3 Bft)
28.11.2016 09:31 -2,4 °C -2,3 °C 94 % 1022,8 hPa 0,0 mm 7,4 km/h (2 Bft) NO 56 ° 0 min 0,000 mm 0,0 UV-I 53 W/m² -3,2 °C 11,3 km/h (2 Bft)
28.11.2016 09:32 -2,4 °C -2,3 °C 94 % 1022,8 hPa 0,0 mm 7,8 km/h (2 Bft) O-NO 78 ° 0 min 0,000 mm 0,0 UV-I 54 W/m² -3,2 °C 12,9 km/h (3 Bft)
28.11.2016 09:33 -2,3 °C -2,3 °C 94 % 1022,8 hPa 0,0 mm 7,8 km/h (2 Bft) NO 42 ° 0 min 0,000 mm 0,0 UV-I 53 W/m² -3,1 °C 12,9 km/h (3 Bft)
28.11.2016 09:34 -2,3 °C -2,3 °C 93 % 1022,8 hPa 0,0 mm 4,6 km/h (1 Bft) N-NO 24 ° 0 min 0,000 mm 0,0 UV-I 47 W/m² -3,3 °C 6,4 km/h (2 Bft)
28.11.2016 09:35 -2,3 °C -2,3 °C 93 % 1022,8 hPa 0,0 mm 5,0 km/h (1 Bft) O 86 ° 0 min 0,000 mm 0,0 UV-I 42 W/m² -3,3 °C 8,0 km/h (2 Bft)
28.11.2016 09:36 -2,3 °C -2,3 °C 93 % 1022,8 hPa 0,0 mm 4,0 km/h (1 Bft) O 87 ° 0 min 0,000 mm 0,0 UV-I 42 W/m² -3,3 °C 11,3 km/h (2 Bft)
28.11.2016 09:37 -2,3 °C -2,3 °C 93 % 1022,8 hPa 0,0 mm 7,9 km/h (2 Bft) O-SO 103 ° 0 min 0,000 mm 0,0 UV-I 46 W/m² -3,3 °C 12,9 km/h (3 Bft)
28.11.2016 09:38 -2,3 °C -2,3 °C 93 % 1022,8 hPa 0,0 mm 3,8 km/h (1 Bft) O 83 ° 0 min 0,000 mm 0,0 UV-I 49 W/m² -3,3 °C 9,7 km/h (2 Bft)
28.11.2016 09:39 -2,3 °C -2,3 °C 93 % 1022,8 hPa 0,0 mm 6,7 km/h (2 Bft) N-NO 30 ° 0 min 0,000 mm 0,0 UV-I 54 W/m² -3,3 °C 11,3 km/h (2 Bft)
28.11.2016 09:40 -2,3 °C -2,3 °C 93 % 1022,8 hPa 0,0 mm 12,7 km/h (3 Bft) O-NO 71 ° 0 min 0,000 mm 0,0 UV-I 60 W/m² -3,3 °C 16,1 km/h (3 Bft)
28.11.2016 09:41 -2,3 °C -2,3 °C 93 % 1022,8 hPa 0,0 mm 8,9 km/h (2 Bft) O 94 ° 0 min 0,000 mm 0,0 UV-I 62 W/m² -3,3 °C 14,5 km/h (3 Bft)
28.11.2016 09:42 -2,3 °C -2,3 °C 93 % 1022,8 hPa 0,0 mm 5,1 km/h (1 Bft) NO 51 ° 0 min 0,000 mm 0,0 UV-I 63 W/m² -3,3 °C 9,7 km/h (2 Bft)
28.11.2016 09:43 -2,3 °C -2,3 °C 93 % 1022,9 hPa 0,0 mm 8,9 km/h (2 Bft) O 80 ° 0 min 0,000 mm 0,0 UV-I 63 W/m² -3,3 °C 14,5 km/h (3 Bft)
28.11.2016 09:44 -2,3 °C -2,3 °C 93 % 1022,9 hPa 0,0 mm 6,8 km/h (2 Bft) O-NO 57 ° 0 min 0,000 mm 0,0 UV-I 63 W/m² -3,3 °C 12,9 km/h (3 Bft)
28.11.2016 09:45 -2,3 °C -2,3 °C 93 % 1022,9 hPa 0,0 mm 9,3 km/h (2 Bft) O-NO 65 ° 0 min 0,000 mm 0,0 UV-I 54 W/m² -3,3 °C 14,5 km/h (3 Bft)
28.11.2016 09:46 -2,3 °C -2,3 °C 93 % 1022,8 hPa 0,0 mm 10,8 km/h (2 Bft) NO 50 ° 0 min 0,000 mm 0,0 UV-I 53 W/m² -3,3 °C 17,7 km/h (3 Bft)
28.11.2016 09:47 -2,3 °C -2,3 °C 93 % 1022,9 hPa 0,0 mm 9,0 km/h (2 Bft) O 87 ° 0 min 0,000 mm 0,0 UV-I 54 W/m² -3,3 °C 17,7 km/h (3 Bft)
28.11.2016 09:48 -2,3 °C -2,3 °C 93 % 1022,9 hPa 0,0 mm 11,0 km/h (2 Bft) O-NO 73 ° 0 min 0,000 mm 0,0 UV-I 58 W/m² -3,3 °C 14,5 km/h (3 Bft)
28.11.2016 09:49 -2,4 °C -2,3 °C 93 % 1022,9 hPa 0,0 mm 4,2 km/h (1 Bft) O-NO 68 ° 0 min 0,000 mm 0,0 UV-I 60 W/m² -3,4 °C 6,4 km/h (2 Bft)
28.11.2016 09:50 -2,3 °C -2,3 °C 93 % 1022,9 hPa 0,0 mm 7,3 km/h (2 Bft) NO 46 ° 0 min 0,000 mm 0,0 UV-I 56 W/m² -3,3 °C 12,9 km/h (3 Bft)
28.11.2016 09:51 -2,3 °C -2,3 °C 93 % 1022,8 hPa 0,0 mm 6,4 km/h (2 Bft) NO 42 ° 0 min 0,000 mm 0,0 UV-I 56 W/m² -3,3 °C 11,3 km/h (2 Bft)
28.11.2016 09:52 -2,3 °C -2,3 °C 93 % 1022,9 hPa 0,0 mm 10,8 km/h (2 Bft) NO 51 ° 0 min 0,000 mm 0,0 UV-I 63 W/m² -3,3 °C 14,5 km/h (3 Bft)
28.11.2016 09:53 -2,3 °C -2,3 °C 93 % 1022,9 hPa 0,0 mm 5,4 km/h (1 Bft) O-NO 58 ° 0 min 0,000 mm 0,0 UV-I 63 W/m² -3,3 °C 8,0 km/h (2 Bft)
28.11.2016 09:54 -2,3 °C -2,3 °C 93 % 1022,9 hPa 0,0 mm 6,8 km/h (2 Bft) O 88 ° 0 min 0,000 mm 0,0 UV-I 60 W/m² -3,3 °C 9,7 km/h (2 Bft)
28.11.2016 09:55 -2,3 °C -2,3 °C 93 % 1022,9 hPa 0,0 mm 5,8 km/h (2 Bft) O 82 ° 0 min 0,000 mm 0,0 UV-I 58 W/m² -3,3 °C 9,7 km/h (2 Bft)
28.11.2016 09:56 -2,3 °C -2,3 °C 93 % 1023,0 hPa 0,0 mm 8,0 km/h (2 Bft) N-NO 25 ° 0 min 0,000 mm 0,0 UV-I 56 W/m² -3,3 °C 11,3 km/h (2 Bft)
28.11.2016 09:57 -2,3 °C -2,3 °C 93 % 1022,9 hPa 0,0 mm 5,8 km/h (2 Bft) NO 43 ° 0 min 0,000 mm 0,0 UV-I 65 W/m² -3,3 °C 8,0 km/h (2 Bft)
28.11.2016 09:58 -2,3 °C -2,3 °C 93 % 1022,9 hPa 0,0 mm 5,0 km/h (1 Bft) O 80 ° 0 min 0,000 mm 0,0 UV-I 70 W/m² -3,3 °C 8,0 km/h (2 Bft)
28.11.2016 09:59 -2,3 °C -2,3 °C 93 % 1023,0 hPa 0,0 mm 7,2 km/h (2 Bft) O 81 ° 0 min 0,000 mm 0,0 UV-I 69 W/m² -3,3 °C 14,5 km/h (3 Bft)
28.11.2016 10:00 -2,3 °C -2,3 °C 93 % 1023,0 hPa 0,0 mm 5,4 km/h (1 Bft) O 86 ° 0 min 0,000 mm 0,5 UV-I 65 W/m² -3,3 °C 11,3 km/h (2 Bft)
28.11.2016 10:01 -2,3 °C -2,3 °C 93 % 1023,0 hPa 0,0 mm 3,9 km/h (1 Bft) O-NO 71 ° 0 min 0,025 mm 0,0 UV-I 60 W/m² -3,3 °C 4,8 km/h (1 Bft)
28.11.2016 10:02 -2,2 °C -2,2 °C 93 % 1023,0 hPa 0,0 mm 6,8 km/h (2 Bft) NO 54 ° 0 min 0,000 mm 0,0 UV-I 58 W/m² -3,2 °C 11,3 km/h (2 Bft)
28.11.2016 10:03 -2,3 °C -2,2 °C 93 % 1023,0 hPa 0,0 mm 5,8 km/h (2 Bft) O-NO 69 ° 0 min 0,000 mm 0,0 UV-I 56 W/m² -3,3 °C 9,7 km/h (2 Bft)
28.11.2016 10:04 -2,2 °C -2,2 °C 93 % 1023,0 hPa 0,0 mm 8,6 km/h (2 Bft) NO 51 ° 0 min 0,000 mm 0,0 UV-I 65 W/m² -3,2 °C 14,5 km/h (3 Bft)
28.11.2016 10:05 -2,2 °C -2,2 °C 93 % 1023,0 hPa 0,0 mm 5,9 km/h (2 Bft) O 88 ° 0 min 0,000 mm 0,0 UV-I 72 W/m² -3,2 °C 9,7 km/h (2 Bft)
28.11.2016 10:06 -2,2 °C -2,2 °C 93 % 1023,1 hPa 0,0 mm 7,1 km/h (2 Bft) O 94 ° 0 min 0,000 mm 0,0 UV-I 67 W/m² -3,2 °C 9,7 km/h (2 Bft)
28.11.2016 10:07 -2,2 °C -2,2 °C 93 % 1023,1 hPa 0,0 mm 8,4 km/h (2 Bft) O-NO 63 ° 0 min 0,000 mm 0,0 UV-I 58 W/m² -3,2 °C 11,3 km/h (2 Bft)
28.11.2016 10:08 -2,2 °C -2,2 °C 93 % 1023,1 hPa 0,0 mm 7,7 km/h (2 Bft) O 87 ° 0 min 0,000 mm 0,0 UV-I 51 W/m² -3,2 °C 11,3 km/h (2 Bft)
28.11.2016 10:09 -2,3 °C -2,2 °C 93 % 1023,1 hPa 0,0 mm 9,5 km/h (2 Bft) O-NO 65 ° 0 min 0,000 mm 0,0 UV-I 56 W/m² -3,3 °C 14,5 km/h (3 Bft)
28.11.2016 10:10 -2,3 °C -2,2 °C 93 % 1023,1 hPa 0,0 mm 9,7 km/h (2 Bft) O 88 ° 0 min 0,000 mm 0,0 UV-I 69 W/m² -3,3 °C 16,1 km/h (3 Bft)
28.11.2016 10:11 -2,3 °C -2,3 °C 93 % 1023,1 hPa 0,0 mm 5,2 km/h (1 Bft) O-NO 65 ° 0 min 0,000 mm 0,0 UV-I 77 W/m² -3,3 °C 12,9 km/h (3 Bft)
28.11.2016 10:12 -2,3 °C -2,3 °C 93 % 1023,1 hPa 0,0 mm 10,6 km/h (2 Bft) NO 46 ° 0 min 0,000 mm 0,5 UV-I 86 W/m² -3,3 °C 16,1 km/h (3 Bft)
28.11.2016 10:13 -2,3 °C -2,3 °C 93 % 1023,1 hPa 0,0 mm 7,6 km/h (2 Bft) N-NO 17 ° 0 min 0,000 mm 0,5 UV-I 84 W/m² -3,3 °C 11,3 km/h (2 Bft)
28.11.2016 10:14 -2,3 °C -2,3 °C 93 % 1023,2 hPa 0,0 mm 7,6 km/h (2 Bft) O-NO 68 ° 0 min 0,000 mm 0,5 UV-I 79 W/m² -3,3 °C 11,3 km/h (2 Bft)
28.11.2016 10:15 -2,3 °C -2,3 °C 93 % 1023,2 hPa 0,0 mm 4,8 km/h (1 Bft) N-NO 19 ° 0 min 0,000 mm 0,5 UV-I 72 W/m² -3,3 °C 6,4 km/h (2 Bft)
28.11.2016 10:16 -2,3 °C -2,3 °C 93 % 1023,2 hPa 0,0 mm 9,9 km/h (2 Bft) NO 43 ° 0 min 0,000 mm 0,6 UV-I 76 W/m² -3,3 °C 14,5 km/h (3 Bft)
28.11.2016 10:17 -2,3 °C -2,3 °C 93 % 1023,2 hPa 0,0 mm 7,9 km/h (2 Bft) N-NO 26 ° 0 min 0,000 mm 0,6 UV-I 77 W/m² -3,3 °C 14,5 km/h (3 Bft)
28.11.2016 10:18 -2,3 °C -2,3 °C 93 % 1023,2 hPa 0,0 mm 6,6 km/h (2 Bft) NO 40 ° 0 min 0,000 mm 0,6 UV-I 83 W/m² -3,3 °C 9,7 km/h (2 Bft)
28.11.2016 10:19 -2,3 °C -2,3 °C 93 % 1023,3 hPa 0,0 mm 7,9 km/h (2 Bft) NO 51 ° 0 min 0,000 mm 0,5 UV-I 83 W/m² -3,3 °C 9,7 km/h (2 Bft)
28.11.2016 10:20 -2,3 °C -2,3 °C 93 % 1023,3 hPa 0,0 mm 8,8 km/h (2 Bft) NO 53 ° 0 min 0,000 mm 0,5 UV-I 93 W/m² -3,3 °C 12,9 km/h (3 Bft)
28.11.2016 10:21 -2,3 °C -2,3 °C 93 % 1023,3 hPa 0,0 mm 4,3 km/h (1 Bft) N-NO 24 ° 0 min 0,000 mm 0,6 UV-I 109 W/m² -3,3 °C 6,4 km/h (2 Bft)
28.11.2016 10:22 -2,3 °C -2,3 °C 93 % 1023,3 hPa 0,0 mm 8,2 km/h (2 Bft) NO 34 ° 0 min 0,000 mm 0,6 UV-I 107 W/m² -3,3 °C 11,3 km/h (2 Bft)
28.11.2016 10:23 -2,2 °C -2,2 °C 93 % 1023,3 hPa 0,0 mm 7,8 km/h (2 Bft) N-NO 32 ° 0 min 0,000 mm 0,7 UV-I 107 W/m² -3,2 °C 9,7 km/h (2 Bft)
28.11.2016 10:24 -2,3 °C -2,2 °C 93 % 1023,4 hPa 0,0 mm 7,5 km/h (2 Bft) NO 47 ° 0 min 0,000 mm 0,7 UV-I 102 W/m² -3,3 °C 11,3 km/h (2 Bft)
28.11.2016 10:25 -2,3 °C -2,3 °C 93 % 1023,4 hPa 0,0 mm 5,1 km/h (1 Bft) O-NO 76 ° 0 min 0,000 mm 0,7 UV-I 107 W/m² -3,3 °C 8,0 km/h (2 Bft)
28.11.2016 10:26 -2,3 °C -2,3 °C 93 % 1023,3 hPa 0,0 mm 7,4 km/h (2 Bft) O-NO 68 ° 0 min 0,000 mm 0,7 UV-I 111 W/m² -3,3 °C 12,9 km/h (3 Bft)
28.11.2016 10:27 -2,3 °C -2,3 °C 92 % 1023,3 hPa 0,0 mm 8,9 km/h (2 Bft) O-NO 68 ° 0 min 0,000 mm 0,7 UV-I 120 W/m² -3,4 °C 12,9 km/h (3 Bft)
28.11.2016 10:28 -2,3 °C -2,3 °C 92 % 1023,4 hPa 0,0 mm 8,2 km/h (2 Bft) NO 48 ° 0 min 0,000 mm 0,7 UV-I 128 W/m² -3,4 °C 14,5 km/h (3 Bft)
28.11.2016 10:29 -2,3 °C -2,3 °C 92 % 1023,3 hPa 0,0 mm 6,4 km/h (2 Bft) NO 39 ° 0 min 0,000 mm 0,7 UV-I 141 W/m² -3,4 °C 9,7 km/h (2 Bft)
28.11.2016 10:30 -2,3 °C -2,3 °C 92 % 1023,3 hPa 0,0 mm 8,5 km/h (2 Bft) O-NO 69 ° 0 min 0,000 mm 0,7 UV-I 141 W/m² -3,4 °C 14,5 km/h (3 Bft)
28.11.2016 10:31 -2,3 °C -2,3 °C 92 % 1023,5 hPa 0,0 mm 11,8 km/h (2 Bft) O-NO 74 ° 0 min 0,000 mm 0,7 UV-I 148 W/m² -3,4 °C 16,1 km/h (3 Bft)
28.11.2016 10:32 -2,3 °C -2,3 °C 92 % 1023,5 hPa 0,0 mm 8,6 km/h (2 Bft) NO 48 ° 0 min 0,000 mm 0,7 UV-I 160 W/m² -3,4 °C 12,9 km/h (3 Bft)
28.11.2016 10:33 -2,3 °C -2,3 °C 92 % 1023,5 hPa 0,0 mm 4,1 km/h (1 Bft) O-NO 70 ° 0 min 0,000 mm 0,7 UV-I 158 W/m² -3,4 °C 8,0 km/h (2 Bft)
28.11.2016 10:34 -2,3 °C -2,3 °C 92 % 1023,5 hPa 0,0 mm 7,4 km/h (2 Bft) O 79 ° 0 min 0,000 mm 0,7 UV-I 160 W/m² -3,4 °C 12,9 km/h (3 Bft)
28.11.2016 10:35 -2,3 °C -2,3 °C 92 % 1023,5 hPa 0,0 mm 5,8 km/h (2 Bft) O-NO 76 ° 0 min 0,000 mm 0,7 UV-I 158 W/m² -3,4 °C 9,7 km/h (2 Bft)
28.11.2016 10:36 -2,3 °C -2,3 °C 92 % 1023,4 hPa 0,0 mm 7,4 km/h (2 Bft) NO 38 ° 0 min 0,000 mm 0,7 UV-I 151 W/m² -3,4 °C 12,9 km/h (3 Bft)
28.11.2016 10:37 -2,3 °C -2,3 °C 92 % 1023,5 hPa 0,0 mm 6,3 km/h (2 Bft) O-NO 71 ° 0 min 0,000 mm 0,7 UV-I 155 W/m² -3,4 °C 8,0 km/h (2 Bft)
28.11.2016 10:38 -2,3 °C -2,3 °C 93 % 1023,5 hPa 0,0 mm 7,6 km/h (2 Bft) NO 42 ° 0 min 0,000 mm 0,7 UV-I 155 W/m² -3,3 °C 11,3 km/h (2 Bft)
28.11.2016 10:39 -2,2 °C -2,2 °C 93 % 1023,5 hPa 0,0 mm 7,6 km/h (2 Bft) O-NO 65 ° 0 min 0,000 mm 0,7 UV-I 158 W/m² -3,2 °C 12,9 km/h (3 Bft)
28.11.2016 10:40 -2,2 °C -2,2 °C 92 % 1023,5 hPa 0,0 mm 5,6 km/h (1 Bft) O-NO 59 ° 0 min 0,000 mm 0,7 UV-I 156 W/m² -3,3 °C 8,0 km/h (2 Bft)
28.11.2016 10:41 -2,2 °C -2,2 °C 93 % 1023,6 hPa 0,0 mm 5,2 km/h (1 Bft) O-NO 60 ° 0 min 0,000 mm 0,7 UV-I 148 W/m² -3,2 °C 8,0 km/h (2 Bft)
28.11.2016 10:42 -2,2 °C -2,2 °C 92 % 1023,6 hPa 0,0 mm 8,9 km/h (2 Bft) N-NO 30 ° 0 min 0,000 mm 0,7 UV-I 134 W/m² -3,3 °C 16,1 km/h (3 Bft)
28.11.2016 10:43 -2,2 °C -2,2 °C 92 % 1023,6 hPa 0,0 mm 11,0 km/h (2 Bft) N-NO 17 ° 0 min 0,000 mm 0,6 UV-I 121 W/m² -3,3 °C 16,1 km/h (3 Bft)
28.11.2016 10:44 -2,3 °C -2,2 °C 92 % 1023,6 hPa 0,0 mm 7,2 km/h (2 Bft) N-NO 32 ° 0 min 0,000 mm 0,6 UV-I 118 W/m² -3,4 °C 11,3 km/h (2 Bft)
28.11.2016 10:45 -2,3 °C -2,2 °C 92 % 1023,6 hPa 0,0 mm 7,6 km/h (2 Bft) NO 34 ° 0 min 0,000 mm 0,6 UV-I 100 W/m² -3,4 °C 9,7 km/h (2 Bft)
28.11.2016 10:46 -2,3 °C -2,3 °C 92 % 1023,5 hPa 0,0 mm 10,8 km/h (2 Bft) NO 40 ° 0 min 0,000 mm 0,5 UV-I 93 W/m² -3,4 °C 14,5 km/h (3 Bft)
28.11.2016 10:47 -2,3 °C -2,3 °C 92 % 1023,6 hPa 0,0 mm 8,2 km/h (2 Bft) NO 51 ° 0 min 0,000 mm 0,6 UV-I 104 W/m² -3,4 °C 12,9 km/h (3 Bft)
28.11.2016 10:48 -2,3 °C -2,3 °C 92 % 1023,5 hPa 0,0 mm 6,7 km/h (2 Bft) N-NO 19 ° 0 min 0,000 mm 0,7 UV-I 116 W/m² -3,4 °C 16,1 km/h (3 Bft)
28.11.2016 10:49 -2,4 °C -2,3 °C 92 % 1023,6 hPa 0,0 mm 7,1 km/h (2 Bft) NO 46 ° 0 min 0,000 mm 0,7 UV-I 120 W/m² -3,5 °C 11,3 km/h (2 Bft)
28.11.2016 10:50 -2,4 °C -2,4 °C 92 % 1023,6 hPa 0,0 mm 9,3 km/h (2 Bft) N-NO 15 ° 0 min 0,000 mm 0,7 UV-I 118 W/m² -3,5 °C 14,5 km/h (3 Bft)
28.11.2016 10:51 -2,4 °C -2,4 °C 92 % 1023,6 hPa 0,0 mm 3,8 km/h (1 Bft) N-NO 33 ° 0 min 0,000 mm 0,6 UV-I 114 W/m² -3,5 °C 8,0 km/h (2 Bft)
28.11.2016 10:52 -2,3 °C -2,3 °C 92 % 1023,6 hPa 0,0 mm 4,7 km/h (1 Bft) O 79 ° 0 min 0,000 mm 0,6 UV-I 113 W/m² -3,4 °C 8,0 km/h (2 Bft)
28.11.2016 10:53 -2,3 °C -2,3 °C 92 % 1023,6 hPa 0,0 mm 9,0 km/h (2 Bft) O-NO 76 ° 0 min 0,000 mm 0,6 UV-I 104 W/m² -3,4 °C 16,1 km/h (3 Bft)
28.11.2016 10:54 -2,3 °C -2,3 °C 92 % 1023,6 hPa 0,0 mm 13,5 km/h (3 Bft) O-NO 75 ° 0 min 0,000 mm 0,5 UV-I 95 W/m² -3,4 °C 17,7 km/h (3 Bft)
28.11.2016 10:55 -2,3 °C -2,3 °C 92 % 1023,6 hPa 0,0 mm 9,7 km/h (2 Bft) O 90 ° 0 min 0,000 mm 0,5 UV-I 93 W/m² -3,4 °C 14,5 km/h (3 Bft)
28.11.2016 10:56 -2,4 °C -2,3 °C 92 % 1023,7 hPa 0,0 mm 5,9 km/h (2 Bft) N-NO 32 ° 0 min 0,000 mm 0,6 UV-I 114 W/m² -3,5 °C 11,3 km/h (2 Bft)
28.11.2016 10:57 -2,4 °C -2,4 °C 92 % 1023,7 hPa 0,0 mm 5,2 km/h (1 Bft) O-NO 60 ° 0 min 0,000 mm 0,7 UV-I 128 W/m² -3,5 °C 8,0 km/h (2 Bft)
28.11.2016 10:58 -2,4 °C -2,4 °C 92 % 1023,7 hPa 0,0 mm 4,3 km/h (1 Bft) N-NO 28 ° 0 min 0,000 mm 0,7 UV-I 149 W/m² -3,5 °C 6,4 km/h (2 Bft)
28.11.2016 10:59 -2,3 °C -2,3 °C 92 % 1023,7 hPa 0,0 mm 4,2 km/h (1 Bft) N-NO 27 ° 0 min 0,000 mm 0,7 UV-I 151 W/m² -3,4 °C 6,4 km/h (2 Bft)
28.11.2016 11:00 -2,3 °C -2,3 °C 93 % 1023,8 hPa 0,0 mm 4,2 km/h (1 Bft) NO 37 ° 0 min 0,000 mm 0,7 UV-I 144 W/m² -3,3 °C 6,4 km/h (2 Bft)
28.11.2016 11:01 -2,3 °C -2,2 °C 93 % 1023,7 hPa 0,0 mm 6,0 km/h (2 Bft) NO 55 ° 0 min 0,026 mm 0,8 UV-I 149 W/m² -3,3 °C 8,0 km/h (2 Bft)
28.11.2016 11:02 -2,2 °C -2,2 °C 93 % 1023,7 hPa 0,0 mm 7,0 km/h (2 Bft) O 85 ° 0 min 0,000 mm 0,8 UV-I 146 W/m² -3,2 °C 12,9 km/h (3 Bft)
28.11.2016 11:03 -2,2 °C -2,2 °C 93 % 1023,7 hPa 0,0 mm 6,8 km/h (2 Bft) O-NO 71 ° 0 min 0,000 mm 0,7 UV-I 130 W/m² -3,2 °C 12,9 km/h (3 Bft)
28.11.2016 11:04 -2,2 °C -2,2 °C 92 % 1023,7 hPa 0,0 mm 7,4 km/h (2 Bft) NO 54 ° 0 min 0,000 mm 0,7 UV-I 118 W/m² -3,3 °C 12,9 km/h (3 Bft)
28.11.2016 11:05 -2,2 °C -2,2 °C 92 % 1023,7 hPa 0,0 mm 5,6 km/h (1 Bft) N 360 ° 0 min 0,000 mm 0,6 UV-I 111 W/m² -3,3 °C 8,0 km/h (2 Bft)
28.11.2016 11:06 -2,2 °C -2,2 °C 92 % 1023,7 hPa 0,0 mm 7,3 km/h (2 Bft) NO 41 ° 0 min 0,000 mm 0,6 UV-I 127 W/m² -3,3 °C 12,9 km/h (3 Bft)
28.11.2016 11:07 -2,2 °C -2,2 °C 92 % 1023,7 hPa 0,0 mm 8,9 km/h (2 Bft) O-NO 77 ° 0 min 0,000 mm 0,7 UV-I 151 W/m² -3,3 °C 14,5 km/h (3 Bft)
28.11.2016 11:08 -2,2 °C -2,2 °C 92 % 1023,7 hPa 0,0 mm 11,7 km/h (2 Bft) NO 45 ° 0 min 0,000 mm 0,7 UV-I 148 W/m² -3,3 °C 16,1 km/h (3 Bft)
28.11.2016 11:09 -2,2 °C -2,2 °C 92 % 1023,7 hPa 0,0 mm 7,7 km/h (2 Bft) O-NO 59 ° 0 min 0,000 mm 0,7 UV-I 160 W/m² -3,3 °C 11,3 km/h (2 Bft)
28.11.2016 11:10 -2,2 °C -2,2 °C 92 % 1023,8 hPa 0,0 mm 5,4 km/h (1 Bft) NO 37 ° 0 min 0,000 mm 0,7 UV-I 160 W/m² -3,3 °C 9,7 km/h (2 Bft)
28.11.2016 11:11 -2,2 °C -2,2 °C 92 % 1023,7 hPa 0,0 mm 6,7 km/h (2 Bft) NO 55 ° 0 min 0,000 mm 0,7 UV-I 149 W/m² -3,3 °C 11,3 km/h (2 Bft)
28.11.2016 11:12 -2,2 °C -2,2 °C 92 % 1023,7 hPa 0,0 mm 6,6 km/h (2 Bft) N 11 ° 0 min 0,000 mm 0,7 UV-I 149 W/m² -3,3 °C 11,3 km/h (2 Bft)
28.11.2016 11:13 -2,2 °C -2,2 °C 92 % 1023,7 hPa 0,0 mm 9,9 km/h (2 Bft) O-NO 59 ° 0 min 0,000 mm 0,7 UV-I 169 W/m² -3,3 °C 14,5 km/h (3 Bft)
28.11.2016 11:14 -2,2 °C -2,2 °C 92 % 1023,7 hPa 0,0 mm 7,7 km/h (2 Bft) O-NO 73 ° 0 min 0,000 mm 0,7 UV-I 151 W/m² -3,3 °C 12,9 km/h (3 Bft)
28.11.2016 11:15 -2,2 °C -2,2 °C 92 % 1023,7 hPa 0,0 mm 8,0 km/h (2 Bft) N-NO 17 ° 0 min 0,000 mm 0,6 UV-I 141 W/m² -3,3 °C 11,3 km/h (2 Bft)
28.11.2016 11:16 -2,2 °C -2,2 °C 92 % 1023,7 hPa 0,0 mm 7,3 km/h (2 Bft) N 9 ° 0 min 0,000 mm 0,5 UV-I 109 W/m² -3,3 °C 11,3 km/h (2 Bft)
28.11.2016 11:17 -2,2 °C -2,2 °C 92 % 1023,7 hPa 0,0 mm 9,5 km/h (2 Bft) O-NO 70 ° 0 min 0,000 mm 0,0 UV-I 84 W/m² -3,3 °C 12,9 km/h (3 Bft)
28.11.2016 11:18 -2,2 °C -2,2 °C 92 % 1023,7 hPa 0,0 mm 7,9 km/h (2 Bft) NO 56 ° 0 min 0,000 mm 0,0 UV-I 72 W/m² -3,3 °C 14,5 km/h (3 Bft)
28.11.2016 11:19 -2,2 °C -2,2 °C 92 % 1023,7 hPa 0,0 mm 9,7 km/h (2 Bft) O 82 ° 0 min 0,000 mm 0,0 UV-I 70 W/m² -3,3 °C 16,1 km/h (3 Bft)
28.11.2016 11:20 -2,3 °C -2,2 °C 92 % 1023,6 hPa 0,0 mm 6,9 km/h (2 Bft) NO 38 ° 0 min 0,000 mm 0,0 UV-I 77 W/m² -3,4 °C 12,9 km/h (3 Bft)
28.11.2016 11:21 -2,3 °C -2,3 °C 92 % 1023,7 hPa 0,0 mm 8,4 km/h (2 Bft) O 84 ° 0 min 0,000 mm 0,0 UV-I 77 W/m² -3,4 °C 12,9 km/h (3 Bft)
28.11.2016 11:22 -2,3 °C -2,3 °C 93 % 1023,7 hPa 0,0 mm 6,1 km/h (2 Bft) NO 42 ° 0 min 0,000 mm 0,0 UV-I 77 W/m² -3,3 °C 8,0 km/h (2 Bft)
28.11.2016 11:23 -2,3 °C -2,3 °C 92 % 1023,7 hPa 0,0 mm 5,4 km/h (1 Bft) NO 40 ° 0 min 0,000 mm 0,0 UV-I 53 W/m² -3,4 °C 8,0 km/h (2 Bft)
28.11.2016 11:24 -2,3 °C -2,3 °C 92 % 1023,7 hPa 0,0 mm 4,9 km/h (1 Bft) O-NO 63 ° 0 min 0,000 mm 0,0 UV-I 46 W/m² -3,4 °C 8,0 km/h (2 Bft)
28.11.2016 11:25 -2,3 °C -2,3 °C 92 % 1023,8 hPa 0,0 mm 9,7 km/h (2 Bft) O 87 ° 0 min 0,000 mm 0,0 UV-I 42 W/m² -3,4 °C 12,9 km/h (3 Bft)
28.11.2016 11:26 -2,3 °C -2,3 °C 92 % 1023,8 hPa 0,0 mm 7,9 km/h (2 Bft) O-NO 68 ° 0 min 0,000 mm 0,0 UV-I 51 W/m² -3,4 °C 12,9 km/h (3 Bft)
28.11.2016 11:27 -2,3 °C -2,3 °C 92 % 1023,8 hPa 0,0 mm 7,5 km/h (2 Bft) NO 48 ° 0 min 0,000 mm 0,0 UV-I 53 W/m² -3,4 °C 11,3 km/h (2 Bft)
28.11.2016 11:28 -2,3 °C -2,3 °C 92 % 1023,8 hPa 0,0 mm 5,9 km/h (2 Bft) NO 46 ° 0 min 0,000 mm 0,0 UV-I 56 W/m² -3,4 °C 9,7 km/h (2 Bft)
28.11.2016 11:29 -2,3 °C -2,3 °C 92 % 1023,7 hPa 0,0 mm 5,8 km/h (2 Bft) O-NO 65 ° 0 min 0,000 mm 0,0 UV-I 53 W/m² -3,4 °C 8,0 km/h (2 Bft)
28.11.2016 11:30 -2,3 °C -2,3 °C 92 % 1023,8 hPa 0,0 mm 6,2 km/h (2 Bft) NO 42 ° 0 min 0,000 mm 0,0 UV-I 49 W/m² -3,4 °C 9,7 km/h (2 Bft)
28.11.2016 11:31 -2,3 °C -2,3 °C 92 % 1023,8 hPa 0,0 mm 6,2 km/h (2 Bft) NO 45 ° 0 min 0,000 mm 0,0 UV-I 51 W/m² -3,4 °C 8,0 km/h (2 Bft)
28.11.2016 11:32 -2,3 °C -2,3 °C 92 % 1023,8 hPa 0,0 mm 9,1 km/h (2 Bft) NO 38 ° 0 min 0,000 mm 0,0 UV-I 53 W/m² -3,4 °C 14,5 km/h (3 Bft)
28.11.2016 11:33 -2,3 °C -2,3 °C 92 % 1023,8 hPa 0,0 mm 11,0 km/h (2 Bft) O-NO 64 ° 0 min 0,000 mm 0,0 UV-I 56 W/m² -3,4 °C 16,1 km/h (3 Bft)
28.11.2016 11:34 -2,3 °C -2,3 °C 92 % 1023,8 hPa 0,0 mm 8,3 km/h (2 Bft) NO 38 ° 0 min 0,000 mm 0,0 UV-I 56 W/m² -3,4 °C 12,9 km/h (3 Bft)
28.11.2016 11:35 -2,3 °C -2,3 °C 92 % 1023,8 hPa 0,0 mm 7,4 km/h (2 Bft) O 94 ° 0 min 0,000 mm 0,0 UV-I 58 W/m² -3,4 °C 12,9 km/h (3 Bft)
28.11.2016 11:36 -2,3 °C -2,3 °C 92 % 1023,8 hPa 0,0 mm 11,5 km/h (2 Bft) O-NO 66 ° 0 min 0,000 mm 0,0 UV-I 69 W/m² -3,4 °C 16,1 km/h (3 Bft)
28.11.2016 11:37 -2,3 °C -2,3 °C 92 % 1023,8 hPa 0,0 mm 10,3 km/h (2 Bft) O 81 ° 0 min 0,000 mm 0,0 UV-I 62 W/m² -3,4 °C 14,5 km/h (3 Bft)
28.11.2016 11:38 -2,4 °C -2,3 °C 92 % 1023,8 hPa 0,0 mm 5,0 km/h (1 Bft) O-NO 67 ° 0 min 0,000 mm 0,0 UV-I 65 W/m² -3,5 °C 6,4 km/h (2 Bft)
28.11.2016 11:39 -2,3 °C -2,3 °C 92 % 1023,8 hPa 0,0 mm 5,4 km/h (1 Bft) O-NO 75 ° 0 min 0,000 mm 0,0 UV-I 70 W/m² -3,4 °C 9,7 km/h (2 Bft)
28.11.2016 11:40 -2,3 °C -2,3 °C 92 % 1023,7 hPa 0,0 mm 7,5 km/h (2 Bft) NO 39 ° 0 min 0,000 mm 0,0 UV-I 70 W/m² -3,4 °C 12,9 km/h (3 Bft)
28.11.2016 11:41 -2,3 °C -2,3 °C 92 % 1023,8 hPa 0,0 mm 7,8 km/h (2 Bft) NO 53 ° 0 min 0,000 mm 0,0 UV-I 74 W/m² -3,4 °C 12,9 km/h (3 Bft)
28.11.2016 11:42 -2,3 °C -2,3 °C 92 % 1023,8 hPa 0,0 mm 9,8 km/h (2 Bft) O-NO 76 ° 0 min 0,000 mm 0,0 UV-I 74 W/m² -3,4 °C 14,5 km/h (3 Bft)
28.11.2016 11:43 -2,3 °C -2,3 °C 92 % 1023,8 hPa 0,0 mm 7,1 km/h (2 Bft) NO 42 ° 0 min 0,000 mm 0,5 UV-I 81 W/m² -3,4 °C 9,7 km/h (2 Bft)
28.11.2016 11:44 -2,3 °C -2,3 °C 92 % 1023,8 hPa 0,0 mm 8,8 km/h (2 Bft) NO 45 ° 0 min 0,000 mm 0,5 UV-I 84 W/m² -3,4 °C 12,9 km/h (3 Bft)
28.11.2016 11:45 -2,3 °C -2,3 °C 92 % 1023,8 hPa 0,0 mm 7,8 km/h (2 Bft) N-NO 33 ° 0 min 0,000 mm 0,5 UV-I 83 W/m² -3,4 °C 9,7 km/h (2 Bft)
28.11.2016 11:46 -2,3 °C -2,3 °C 92 % 1023,7 hPa 0,0 mm 6,0 km/h (2 Bft) O 86 ° 0 min 0,000 mm 0,5 UV-I 84 W/m² -3,4 °C 8,0 km/h (2 Bft)
28.11.2016 11:47 -2,3 °C -2,3 °C 92 % 1023,8 hPa 0,0 mm 6,1 km/h (2 Bft) O-NO 69 ° 0 min 0,000 mm 0,5 UV-I 83 W/m² -3,4 °C 11,3 km/h (2 Bft)
28.11.2016 11:48 -2,3 °C -2,3 °C 92 % 1023,8 hPa 0,0 mm 7,0 km/h (2 Bft) N-NO 27 ° 0 min 0,000 mm 0,0 UV-I 83 W/m² -3,4 °C 14,5 km/h (3 Bft)
28.11.2016 11:49 -2,3 °C -2,3 °C 92 % 1023,8 hPa 0,0 mm 6,8 km/h (2 Bft) NO 42 ° 0 min 0,000 mm 0,0 UV-I 81 W/m² -3,4 °C 12,9 km/h (3 Bft)
28.11.2016 11:50 -2,3 °C -2,3 °C 92 % 1023,8 hPa 0,0 mm 4,4 km/h (1 Bft) NO 53 ° 0 min 0,000 mm 0,5 UV-I 97 W/m² -3,4 °C 8,0 km/h (2 Bft)
28.11.2016 11:51 -2,3 °C -2,3 °C 92 % 1023,8 hPa 0,0 mm 10,3 km/h (2 Bft) NO 54 ° 0 min 0,000 mm 0,7 UV-I 120 W/m² -3,4 °C 16,1 km/h (3 Bft)
28.11.2016 11:52 -2,3 °C -2,3 °C 92 % 1023,8 hPa 0,0 mm 6,6 km/h (2 Bft) NO 39 ° 0 min 0,000 mm 0,7 UV-I 130 W/m² -3,4 °C 11,3 km/h (2 Bft)
28.11.2016 11:53 -2,2 °C -2,2 °C 92 % 1023,8 hPa 0,0 mm 6,8 km/h (2 Bft) O 83 ° 0 min 0,000 mm 0,6 UV-I 125 W/m² -3,3 °C 14,5 km/h (3 Bft)
28.11.2016 11:54 -2,2 °C -2,2 °C 92 % 1023,8 hPa 0,0 mm 11,7 km/h (2 Bft) O-NO 71 ° 0 min 0,000 mm 0,6 UV-I 114 W/m² -3,3 °C 19,3 km/h (3 Bft)
28.11.2016 11:55 -2,2 °C -2,2 °C 91 % 1023,8 hPa 0,0 mm 6,2 km/h (2 Bft) NO 41 ° 0 min 0,000 mm 0,6 UV-I 104 W/m² -3,5 °C 11,3 km/h (2 Bft)
28.11.2016 11:56 -2,2 °C -2,2 °C 91 % 1023,8 hPa 0,0 mm 9,1 km/h (2 Bft) O-NO 77 ° 0 min 0,000 mm 0,6 UV-I 109 W/m² -3,5 °C 17,7 km/h (3 Bft)
28.11.2016 11:57 -2,2 °C -2,2 °C 91 % 1023,7 hPa 0,0 mm 10,0 km/h (2 Bft) O-NO 67 ° 0 min 0,000 mm 0,6 UV-I 111 W/m² -3,5 °C 14,5 km/h (3 Bft)
28.11.2016 11:58 -2,3 °C -2,2 °C 91 % 1023,8 hPa 0,0 mm 10,5 km/h (2 Bft) N-NO 26 ° 0 min 0,000 mm 0,6 UV-I 109 W/m² -3,6 °C 17,7 km/h (3 Bft)
28.11.2016 11:59 -2,3 °C -2,2 °C 91 % 1023,8 hPa 0,0 mm 10,7 km/h (2 Bft) O 84 ° 0 min 0,000 mm 0,6 UV-I 109 W/m² -3,6 °C 16,1 km/h (3 Bft)
28.11.2016 12:00 -2,3 °C -2,3 °C 91 % 1023,8 hPa 0,0 mm 10,5 km/h (2 Bft) NO 35 ° 0 min 0,000 mm 0,6 UV-I 107 W/m² -3,6 °C 14,5 km/h (3 Bft)
28.11.2016 12:01 -2,3 °C -2,2 °C 91 % 1023,8 hPa 0,0 mm 10,9 km/h (2 Bft) NO 56 ° 0 min 0,025 mm 0,5 UV-I 97 W/m² -3,6 °C 16,1 km/h (3 Bft)
28.11.2016 12:02 -2,2 °C -2,2 °C 91 % 1023,8 hPa 0,0 mm 7,1 km/h (2 Bft) NO 38 ° 0 min 0,000 mm 0,5 UV-I 100 W/m² -3,5 °C 12,9 km/h (3 Bft)
28.11.2016 12:03 -2,2 °C -2,2 °C 91 % 1023,8 hPa 0,0 mm 8,5 km/h (2 Bft) O-NO 71 ° 0 min 0,000 mm 0,5 UV-I 98 W/m² -3,5 °C 16,1 km/h (3 Bft)
28.11.2016 12:04 -2,2 °C -2,2 °C 91 % 1023,8 hPa 0,0 mm 11,9 km/h (2 Bft) O 80 ° 0 min 0,000 mm 0,5 UV-I 88 W/m² -3,5 °C 14,5 km/h (3 Bft)
28.11.2016 12:05 -2,2 °C -2,2 °C 91 % 1023,8 hPa 0,0 mm 6,9 km/h (2 Bft) N-NO 27 ° 0 min 0,000 mm 0,5 UV-I 86 W/m² -3,5 °C 11,3 km/h (2 Bft)
28.11.2016 12:06 -2,2 °C -2,2 °C 91 % 1023,9 hPa 0,0 mm 9,0 km/h (2 Bft) O-NO 71 ° 0 min 0,000 mm 0,5 UV-I 102 W/m² -3,5 °C 16,1 km/h (3 Bft)
28.11.2016 12:07 -2,2 °C -2,2 °C 91 % 1023,8 hPa 0,0 mm 9,7 km/h (2 Bft) O 90 ° 0 min 0,000 mm 0,6 UV-I 104 W/m² -3,5 °C 14,5 km/h (3 Bft)
28.11.2016 12:08 -2,1 °C -2,1 °C 91 % 1023,9 hPa 0,0 mm 7,5 km/h (2 Bft) O 96 ° 0 min 0,000 mm 0,5 UV-I 102 W/m² -3,4 °C 11,3 km/h (2 Bft)
28.11.2016 12:09 -2,1 °C -2,1 °C 91 % 1023,8 hPa 0,0 mm 6,0 km/h (2 Bft) O-NO 63 ° 0 min 0,000 mm 0,5 UV-I 102 W/m² -3,4 °C 8,0 km/h (2 Bft)
28.11.2016 12:10 -2,1 °C -2,1 °C 91 % 1023,8 hPa 0,0 mm 6,7 km/h (2 Bft) O 84 ° 0 min 0,000 mm 0,5 UV-I 100 W/m² -3,4 °C 12,9 km/h (3 Bft)
28.11.2016 12:11 -2,1 °C -2,1 °C 91 % 1023,8 hPa 0,0 mm 9,0 km/h (2 Bft) NO 46 ° 0 min 0,000 mm 0,0 UV-I 90 W/m² -3,4 °C 17,7 km/h (3 Bft)
28.11.2016 12:12 -2,1 °C -2,1 °C 91 % 1023,9 hPa 0,0 mm 6,6 km/h (2 Bft) O 85 ° 0 min 0,000 mm 0,0 UV-I 88 W/m² -3,4 °C 11,3 km/h (2 Bft)
28.11.2016 12:13 -2,1 °C -2,1 °C 91 % 1023,8 hPa 0,0 mm 6,6 km/h (2 Bft) O 85 ° 0 min 0,000 mm 0,0 UV-I 83 W/m² -3,4 °C 12,9 km/h (3 Bft)
28.11.2016 12:14 -2,1 °C -2,0 °C 91 % 1023,9 hPa 0,0 mm 7,4 km/h (2 Bft) O-NO 70 ° 0 min 0,000 mm 0,0 UV-I 79 W/m² -3,4 °C 11,3 km/h (2 Bft)
28.11.2016 12:15 -2,1 °C -2,1 °C 90 % 1023,9 hPa 0,0 mm 5,4 km/h (1 Bft) O-NO 61 ° 0 min 0,000 mm 0,0 UV-I 81 W/m² -3,5 °C 11,3 km/h (2 Bft)
28.11.2016 12:16 -2,1 °C -2,1 °C 90 % 1023,8 hPa 0,0 mm 7,8 km/h (2 Bft) O 83 ° 0 min 0,000 mm 0,0 UV-I 84 W/m² -3,5 °C 12,9 km/h (3 Bft)
28.11.2016 12:17 -2,0 °C -2,0 °C 90 % 1023,8 hPa 0,0 mm 7,9 km/h (2 Bft) O 81 ° 0 min 0,000 mm 0,5 UV-I 93 W/m² -3,4 °C 12,9 km/h (3 Bft)
28.11.2016 12:18 -2,0 °C -2,0 °C 90 % 1023,8 hPa 0,0 mm 5,1 km/h (1 Bft) O-NO 69 ° 0 min 0,000 mm 0,6 UV-I 118 W/m² -3,4 °C 9,7 km/h (2 Bft)
28.11.2016 12:19 -1,9 °C -1,9 °C 90 % 1023,9 hPa 0,0 mm 5,0 km/h (1 Bft) N-NO 33 ° 0 min 0,000 mm 0,6 UV-I 118 W/m² -3,3 °C 8,0 km/h (2 Bft)
28.11.2016 12:20 -1,9 °C -1,9 °C 90 % 1023,9 hPa 0,0 mm 6,3 km/h (2 Bft) NO 51 ° 0 min 0,000 mm 0,6 UV-I 113 W/m² -3,3 °C 11,3 km/h (2 Bft)
28.11.2016 12:21 -1,9 °C -1,9 °C 90 % 1023,9 hPa 0,0 mm 5,0 km/h (1 Bft) NO 35 ° 0 min 0,000 mm 0,6 UV-I 105 W/m² -3,3 °C 8,0 km/h (2 Bft)
28.11.2016 12:22 -1,9 °C -1,9 °C 89 % 1024,0 hPa 0,0 mm 8,9 km/h (2 Bft) N-NO 13 ° 0 min 0,000 mm 0,6 UV-I 98 W/m² -3,5 °C 14,5 km/h (3 Bft)
28.11.2016 12:23 -1,9 °C -1,9 °C 88 % 1024,0 hPa 0,0 mm 6,4 km/h (2 Bft) O-NO 72 ° 0 min 0,000 mm 0,6 UV-I 93 W/m² -3,6 °C 8,0 km/h (2 Bft)
28.11.2016 12:24 -1,9 °C -1,9 °C 88 % 1024,0 hPa 0,0 mm 5,8 km/h (2 Bft) NO 49 ° 0 min 0,000 mm 0,6 UV-I 95 W/m² -3,6 °C 12,9 km/h (3 Bft)
28.11.2016 12:25 -1,9 °C -1,9 °C 88 % 1024,0 hPa 0,0 mm 5,2 km/h (1 Bft) NO 55 ° 0 min 0,000 mm 0,7 UV-I 102 W/m² -3,6 °C 9,7 km/h (2 Bft)
28.11.2016 12:26 -1,9 °C -1,9 °C 89 % 1023,9 hPa 0,0 mm 4,8 km/h (1 Bft) NO 43 ° 0 min 0,000 mm 0,7 UV-I 105 W/m² -3,5 °C 9,7 km/h (2 Bft)
28.11.2016 12:27 -1,9 °C -1,9 °C 88 % 1024,0 hPa 0,0 mm 12,4 km/h (3 Bft) NO 44 ° 0 min 0,000 mm 0,7 UV-I 107 W/m² -3,6 °C 19,3 km/h (3 Bft)
28.11.2016 12:28 -1,9 °C -1,9 °C 87 % 1024,0 hPa 0,0 mm 16,1 km/h (3 Bft) NO 40 ° 0 min 0,000 mm 0,7 UV-I 113 W/m² -3,8 °C 19,3 km/h (3 Bft)
28.11.2016 12:29 -1,9 °C -1,9 °C 86 % 1024,0 hPa 0,0 mm 10,1 km/h (2 Bft) N 5 ° 0 min 0,000 mm 0,8 UV-I 116 W/m² -3,9 °C 17,7 km/h (3 Bft)
28.11.2016 12:30 -1,9 °C -1,9 °C 86 % 1024,0 hPa 0,0 mm 7,9 km/h (2 Bft) NO 34 ° 0 min 0,000 mm 0,8 UV-I 128 W/m² -3,9 °C 14,5 km/h (3 Bft)
28.11.2016 12:31 -1,9 °C -1,9 °C 85 % 1024,0 hPa 0,0 mm 7,8 km/h (2 Bft) NO 44 ° 0 min 0,000 mm 0,8 UV-I 130 W/m² -4,1 °C 11,3 km/h (2 Bft)
28.11.2016 12:32 -1,9 °C -1,9 °C 86 % 1024,0 hPa 0,0 mm 7,6 km/h (2 Bft) O-NO 61 ° 0 min 0,000 mm 0,8 UV-I 132 W/m² -3,9 °C 12,9 km/h (3 Bft)
28.11.2016 12:33 -1,9 °C -1,8 °C 85 % 1024,1 hPa 0,0 mm 8,5 km/h (2 Bft) O-NO 65 ° 0 min 0,000 mm 0,8 UV-I 130 W/m² -4,1 °C 14,5 km/h (3 Bft)
28.11.2016 12:34 -1,8 °C -1,8 °C 85 % 1024,1 hPa 0,0 mm 9,3 km/h (2 Bft) O-NO 66 ° 0 min 0,000 mm 0,8 UV-I 123 W/m² -4,0 °C 14,5 km/h (3 Bft)
28.11.2016 12:35 -1,8 °C -1,8 °C 85 % 1024,1 hPa 0,0 mm 8,8 km/h (2 Bft) O 79 ° 0 min 0,000 mm 0,8 UV-I 120 W/m² -4,0 °C 14,5 km/h (3 Bft)
28.11.2016 12:36 -1,8 °C -1,8 °C 84 % 1024,1 hPa 0,0 mm 9,3 km/h (2 Bft) NO 46 ° 0 min 0,000 mm 0,8 UV-I 120 W/m² -4,1 °C 16,1 km/h (3 Bft)
28.11.2016 12:37 -1,8 °C -1,8 °C 84 % 1024,1 hPa 0,0 mm 6,4 km/h (2 Bft) N 5 ° 0 min 0,000 mm 0,8 UV-I 121 W/m² -4,1 °C 11,3 km/h (2 Bft)
28.11.2016 12:38 -1,8 °C -1,8 °C 84 % 1024,1 hPa 0,0 mm 8,2 km/h (2 Bft) O 97 ° 0 min 0,000 mm 0,8 UV-I 121 W/m² -4,1 °C 12,9 km/h (3 Bft)
28.11.2016 12:39 -1,8 °C -1,8 °C 85 % 1024,1 hPa 0,0 mm 7,1 km/h (2 Bft) NO 50 ° 0 min 0,000 mm 0,8 UV-I 121 W/m² -4,0 °C 9,7 km/h (2 Bft)
28.11.2016 12:40 -1,8 °C -1,8 °C 85 % 1024,0 hPa 0,0 mm 5,4 km/h (1 Bft) O 84 ° 0 min 0,000 mm 0,8 UV-I 118 W/m² -4,0 °C 8,0 km/h (2 Bft)
28.11.2016 12:41 -1,7 °C -1,7 °C 85 % 1024,1 hPa 0,0 mm 7,0 km/h (2 Bft) NO 44 ° 0 min 0,000 mm 0,8 UV-I 113 W/m² -3,9 °C 9,7 km/h (2 Bft)
28.11.2016 12:42 -1,7 °C -1,7 °C 85 % 1024,1 hPa 0,0 mm 10,4 km/h (2 Bft) NO 55 ° 0 min 0,000 mm 0,8 UV-I 116 W/m² -3,9 °C 14,5 km/h (3 Bft)
28.11.2016 12:43 -1,7 °C -1,7 °C 85 % 1024,1 hPa 0,0 mm 6,9 km/h (2 Bft) NO 46 ° 0 min 0,000 mm 0,8 UV-I 121 W/m² -3,9 °C 14,5 km/h (3 Bft)
28.11.2016 12:44 -1,7 °C -1,7 °C 85 % 1024,1 hPa 0,0 mm 8,6 km/h (2 Bft) NO 38 ° 0 min 0,000 mm 0,8 UV-I 127 W/m² -3,9 °C 14,5 km/h (3 Bft)
28.11.2016 12:45 -1,7 °C -1,7 °C 84 % 1024,2 hPa 0,0 mm 7,5 km/h (2 Bft) NO 51 ° 0 min 0,000 mm 0,8 UV-I 125 W/m² -4,0 °C 11,3 km/h (2 Bft)
28.11.2016 12:46 -1,7 °C -1,7 °C 84 % 1024,1 hPa 0,0 mm 9,0 km/h (2 Bft) NO 44 ° 0 min 0,000 mm 0,8 UV-I 121 W/m² -4,0 °C 16,1 km/h (3 Bft)
28.11.2016 12:47 -1,7 °C -1,7 °C 83 % 1024,1 hPa 0,0 mm 8,4 km/h (2 Bft) O 88 ° 0 min 0,000 mm 0,8 UV-I 123 W/m² -4,2 °C 14,5 km/h (3 Bft)
28.11.2016 12:48 -1,7 °C -1,7 °C 83 % 1024,2 hPa 0,0 mm 8,0 km/h (2 Bft) NO 36 ° 0 min 0,000 mm 0,8 UV-I 128 W/m² -4,2 °C 14,5 km/h (3 Bft)
28.11.2016 12:49 -1,7 °C -1,7 °C 83 % 1024,1 hPa 0,0 mm 9,9 km/h (2 Bft) N-NO 26 ° 0 min 0,000 mm 0,7 UV-I 128 W/m² -4,2 °C 14,5 km/h (3 Bft)
28.11.2016 12:50 -1,8 °C -1,7 °C 82 % 1024,1 hPa 0,0 mm 6,8 km/h (2 Bft) O-NO 78 ° 0 min 0,000 mm 0,7 UV-I 123 W/m² -4,5 °C 11,3 km/h (2 Bft)
28.11.2016 12:51 -1,8 °C -1,8 °C 83 % 1024,2 hPa 0,0 mm 10,9 km/h (2 Bft) O-NO 57 ° 0 min 0,000 mm 0,7 UV-I 116 W/m² -4,3 °C 16,1 km/h (3 Bft)
28.11.2016 12:52 -1,7 °C -1,7 °C 83 % 1024,1 hPa 0,0 mm 7,0 km/h (2 Bft) O-NO 57 ° 0 min 0,000 mm 0,7 UV-I 111 W/m² -4,2 °C 12,9 km/h (3 Bft)
28.11.2016 12:53 -1,7 °C -1,7 °C 84 % 1024,1 hPa 0,0 mm 4,9 km/h (1 Bft) N-NO 24 ° 0 min 0,000 mm 0,7 UV-I 105 W/m² -4,0 °C 8,0 km/h (2 Bft)
28.11.2016 12:54 -1,7 °C -1,7 °C 84 % 1024,1 hPa 0,0 mm 7,5 km/h (2 Bft) NO 39 ° 0 min 0,000 mm 0,7 UV-I 111 W/m² -4,0 °C 11,3 km/h (2 Bft)
28.11.2016 12:55 -1,7 °C -1,7 °C 83 % 1024,1 hPa 0,0 mm 6,4 km/h (2 Bft) NO 54 ° 0 min 0,000 mm 0,7 UV-I 113 W/m² -4,2 °C 11,3 km/h (2 Bft)
28.11.2016 12:56 -1,7 °C -1,7 °C 83 % 1024,2 hPa 0,0 mm 6,4 km/h (2 Bft) O 94 ° 0 min 0,000 mm 0,7 UV-I 111 W/m² -4,2 °C 9,7 km/h (2 Bft)
28.11.2016 12:57 -1,7 °C -1,7 °C 83 % 1024,1 hPa 0,0 mm 7,8 km/h (2 Bft) NO 44 ° 0 min 0,000 mm 0,7 UV-I 111 W/m² -4,2 °C 9,7 km/h (2 Bft)
28.11.2016 12:58 -1,7 °C -1,7 °C 83 % 1024,2 hPa 0,0 mm 13,0 km/h (3 Bft) O-NO 67 ° 0 min 0,000 mm 0,8 UV-I 113 W/m² -4,2 °C 17,7 km/h (3 Bft)
28.11.2016 12:59 -1,7 °C -1,7 °C 82 % 1024,1 hPa 0,0 mm 16,2 km/h (3 Bft) NO 52 ° 0 min 0,000 mm 0,8 UV-I 111 W/m² -4,4 °C 17,7 km/h (3 Bft)
28.11.2016 13:00 -1,7 °C -1,7 °C 82 % 1024,2 hPa 0,0 mm 13,8 km/h (3 Bft) NO 44 ° 0 min 0,000 mm 0,7 UV-I 111 W/m² -4,4 °C 19,3 km/h (3 Bft)
28.11.2016 13:01 -1,7 °C -1,7 °C 82 % 1024,2 hPa 0,0 mm 9,3 km/h (2 Bft) N-NO 33 ° 0 min 0,051 mm 0,7 UV-I 113 W/m² -4,4 °C 17,7 km/h (3 Bft)
28.11.2016 13:02 -1,7 °C -1,7 °C 83 % 1024,2 hPa 0,0 mm 12,2 km/h (2 Bft) NO 39 ° 0 min 0,000 mm 0,7 UV-I 114 W/m² -4,2 °C 17,7 km/h (3 Bft)
28.11.2016 13:03 -1,7 °C -1,7 °C 81 % 1024,2 hPa 0,0 mm 9,3 km/h (2 Bft) N 11 ° 0 min 0,000 mm 0,7 UV-I 111 W/m² -4,5 °C 14,5 km/h (3 Bft)
28.11.2016 13:04 -1,7 °C -1,7 °C 82 % 1024,2 hPa 0,0 mm 9,3 km/h (2 Bft) O-NO 76 ° 0 min 0,000 mm 0,7 UV-I 104 W/m² -4,4 °C 12,9 km/h (3 Bft)
28.11.2016 13:05 -1,7 °C -1,7 °C 82 % 1024,3 hPa 0,0 mm 8,3 km/h (2 Bft) O-NO 69 ° 0 min 0,000 mm 0,7 UV-I 95 W/m² -4,4 °C 11,3 km/h (2 Bft)
28.11.2016 13:06 -1,7 °C -1,7 °C 82 % 1024,3 hPa 0,0 mm 9,5 km/h (2 Bft) NO 38 ° 0 min 0,000 mm 0,8 UV-I 93 W/m² -4,4 °C 14,5 km/h (3 Bft)
28.11.2016 13:07 -1,7 °C -1,7 °C 82 % 1024,2 hPa 0,0 mm 8,6 km/h (2 Bft) O-NO 76 ° 0 min 0,000 mm 0,8 UV-I 95 W/m² -4,4 °C 14,5 km/h (3 Bft)
28.11.2016 13:08 -1,7 °C -1,7 °C 81 % 1024,2 hPa 0,0 mm 8,2 km/h (2 Bft) NO 39 ° 0 min 0,000 mm 0,8 UV-I 97 W/m² -4,5 °C 14,5 km/h (3 Bft)
28.11.2016 13:09 -1,7 °C -1,7 °C 81 % 1024,3 hPa 0,0 mm 7,8 km/h (2 Bft) NO 38 ° 0 min 0,000 mm 0,8 UV-I 97 W/m² -4,5 °C 11,3 km/h (2 Bft)
28.11.2016 13:10 -1,7 °C -1,7 °C 81 % 1024,3 hPa 0,0 mm 9,6 km/h (2 Bft) O-NO 67 ° 0 min 0,000 mm 0,8 UV-I 95 W/m² -4,5 °C 14,5 km/h (3 Bft)
28.11.2016 13:11 -1,7 °C -1,7 °C 80 % 1024,3 hPa 0,0 mm 7,2 km/h (2 Bft) O-NO 60 ° 0 min 0,000 mm 0,8 UV-I 95 W/m² -4,7 °C 11,3 km/h (2 Bft)
28.11.2016 13:12 -1,7 °C -1,7 °C 80 % 1024,3 hPa 0,0 mm 5,5 km/h (1 Bft) O-NO 59 ° 0 min 0,000 mm 0,8 UV-I 95 W/m² -4,7 °C 8,0 km/h (2 Bft)
28.11.2016 13:13 -1,7 °C -1,7 °C 81 % 1024,3 hPa 0,0 mm 6,6 km/h (2 Bft) NO 56 ° 0 min 0,000 mm 0,8 UV-I 93 W/m² -4,5 °C 12,9 km/h (3 Bft)
28.11.2016 13:14 -1,7 °C -1,7 °C 78 % 1024,3 hPa 0,0 mm 5,2 km/h (1 Bft) O-NO 65 ° 0 min 0,000 mm 0,8 UV-I 90 W/m² -5,0 °C 8,0 km/h (2 Bft)
28.11.2016 13:15 -1,7 °C -1,7 °C 79 % 1024,3 hPa 0,0 mm 7,8 km/h (2 Bft) NO 51 ° 0 min 0,000 mm 0,8 UV-I 91 W/m² -4,8 °C 16,1 km/h (3 Bft)
28.11.2016 13:16 -1,7 °C -1,7 °C 79 % 1024,3 hPa 0,0 mm 9,5 km/h (2 Bft) O-NO 63 ° 0 min 0,000 mm 0,8 UV-I 93 W/m² -4,8 °C 14,5 km/h (3 Bft)
28.11.2016 13:17 -1,7 °C -1,7 °C 79 % 1024,3 hPa 0,0 mm 8,4 km/h (2 Bft) O-SO 106 ° 0 min 0,000 mm 0,8 UV-I 104 W/m² -4,8 °C 11,3 km/h (2 Bft)
28.11.2016 13:18 -1,7 °C -1,7 °C 79 % 1024,3 hPa 0,0 mm 4,9 km/h (1 Bft) O-NO 61 ° 0 min 0,000 mm 0,9 UV-I 109 W/m² -4,8 °C 11,3 km/h (2 Bft)
28.11.2016 13:19 -1,7 °C -1,7 °C 78 % 1024,3 hPa 0,0 mm 6,1 km/h (2 Bft) NO 50 ° 0 min 0,000 mm 0,9 UV-I 111 W/m² -5,0 °C 8,0 km/h (2 Bft)
28.11.2016 13:20 -1,7 °C -1,7 °C 79 % 1024,3 hPa 0,0 mm 6,5 km/h (2 Bft) O-NO 60 ° 0 min 0,000 mm 0,9 UV-I 113 W/m² -4,8 °C 9,7 km/h (2 Bft)
28.11.2016 13:21 -1,7 °C -1,7 °C 79 % 1024,3 hPa 0,0 mm 5,9 km/h (2 Bft) O-NO 71 ° 0 min 0,000 mm 0,9 UV-I 109 W/m² -4,8 °C 9,7 km/h (2 Bft)
28.11.2016 13:22 -1,7 °C -1,7 °C 79 % 1024,4 hPa 0,0 mm 8,8 km/h (2 Bft) NO 49 ° 0 min 0,000 mm 0,9 UV-I 107 W/m² -4,8 °C 14,5 km/h (3 Bft)
28.11.2016 13:23 -1,7 °C -1,7 °C 78 % 1024,4 hPa 0,0 mm 7,5 km/h (2 Bft) NO 51 ° 0 min 0,000 mm 0,8 UV-I 102 W/m² -5,0 °C 9,7 km/h (2 Bft)
28.11.2016 13:24 -1,7 °C -1,6 °C 77 % 1024,4 hPa 0,0 mm 6,6 km/h (2 Bft) O 80 ° 0 min 0,000 mm 0,8 UV-I 97 W/m² -5,2 °C 11,3 km/h (2 Bft)
28.11.2016 13:25 -1,7 °C -1,6 °C 77 % 1024,4 hPa 0,0 mm 6,4 km/h (2 Bft) O-NO 76 ° 0 min 0,000 mm 0,8 UV-I 93 W/m² -5,2 °C 11,3 km/h (2 Bft)
28.11.2016 13:26 -1,7 °C -1,6 °C 78 % 1024,4 hPa 0,0 mm 9,7 km/h (2 Bft) NO 49 ° 0 min 0,000 mm 0,8 UV-I 95 W/m² -5,0 °C 12,9 km/h (3 Bft)
28.11.2016 13:27 -1,7 °C -1,7 °C 78 % 1024,5 hPa 0,0 mm 6,2 km/h (2 Bft) N-NO 18 ° 0 min 0,000 mm 0,8 UV-I 98 W/m² -5,0 °C 8,0 km/h (2 Bft)
28.11.2016 13:28 -1,7 °C -1,6 °C 79 % 1024,5 hPa 0,0 mm 6,2 km/h (2 Bft) O-NO 58 ° 0 min 0,000 mm 0,8 UV-I 93 W/m² -4,8 °C 11,3 km/h (2 Bft)
28.11.2016 13:29 -1,6 °C -1,6 °C 78 % 1024,5 hPa 0,0 mm 10,0 km/h (2 Bft) N-NO 32 ° 0 min 0,000 mm 0,8 UV-I 88 W/m² -4,9 °C 16,1 km/h (3 Bft)
28.11.2016 13:30 -1,6 °C -1,6 °C 79 % 1024,5 hPa 0,0 mm 4,4 km/h (1 Bft) O-NO 59 ° 0 min 0,000 mm 0,8 UV-I 81 W/m² -4,8 °C 8,0 km/h (2 Bft)
28.11.2016 13:31 -1,7 °C -1,6 °C 78 % 1024,5 hPa 0,0 mm 4,8 km/h (1 Bft) O-NO 71 ° 0 min 0,000 mm 0,8 UV-I 79 W/m² -5,0 °C 8,0 km/h (2 Bft)
28.11.2016 13:32 -1,6 °C -1,6 °C 78 % 1024,5 hPa 0,0 mm 10,4 km/h (2 Bft) O-NO 74 ° 0 min 0,000 mm 0,8 UV-I 79 W/m² -4,9 °C 14,5 km/h (3 Bft)
28.11.2016 13:33 -1,6 °C -1,6 °C 78 % 1024,5 hPa 0,0 mm 7,0 km/h (2 Bft) O 84 ° 0 min 0,000 mm 0,8 UV-I 79 W/m² -4,9 °C 11,3 km/h (2 Bft)
28.11.2016 13:34 -1,7 °C -1,6 °C 79 % 1024,5 hPa 0,0 mm 7,6 km/h (2 Bft) NO 37 ° 0 min 0,000 mm 0,8 UV-I 105 W/m² -4,8 °C 11,3 km/h (2 Bft)
28.11.2016 13:35 -1,6 °C -1,6 °C 79 % 1024,5 hPa 0,0 mm 7,0 km/h (2 Bft) NO 47 ° 0 min 0,000 mm 0,8 UV-I 116 W/m² -4,8 °C 11,3 km/h (2 Bft)
28.11.2016 13:36 -1,6 °C -1,6 °C 79 % 1024,4 hPa 0,0 mm 5,6 km/h (1 Bft) O-NO 61 ° 0 min 0,000 mm 0,8 UV-I 128 W/m² -4,8 °C 8,0 km/h (2 Bft)
28.11.2016 13:37 -1,6 °C -1,6 °C 79 % 1024,5 hPa 0,0 mm 12,1 km/h (2 Bft) O-SO 120 ° 0 min 0,000 mm 0,8 UV-I 137 W/m² -4,8 °C 17,7 km/h (3 Bft)
28.11.2016 13:38 -1,6 °C -1,6 °C 80 % 1024,5 hPa 0,0 mm 7,3 km/h (2 Bft) O-NO 65 ° 0 min 0,000 mm 0,7 UV-I 146 W/m² -4,6 °C 14,5 km/h (3 Bft)
28.11.2016 13:39 -1,6 °C -1,6 °C 80 % 1024,5 hPa 0,0 mm 7,9 km/h (2 Bft) NO 49 ° 0 min 0,000 mm 0,7 UV-I 151 W/m² -4,6 °C 11,3 km/h (2 Bft)
28.11.2016 13:40 -1,6 °C -1,6 °C 80 % 1024,5 hPa 0,0 mm 5,7 km/h (1 Bft) O 80 ° 0 min 0,000 mm 0,7 UV-I 155 W/m² -4,6 °C 9,7 km/h (2 Bft)
28.11.2016 13:41 -1,5 °C -1,5 °C 80 % 1024,5 hPa 0,0 mm 6,1 km/h (2 Bft) O 96 ° 0 min 0,000 mm 0,7 UV-I 155 W/m² -4,5 °C 12,9 km/h (3 Bft)
28.11.2016 13:42 -1,5 °C -1,5 °C 81 % 1024,5 hPa 0,0 mm 5,8 km/h (2 Bft) O-NO 73 ° 0 min 0,000 mm 0,6 UV-I 160 W/m² -4,3 °C 9,7 km/h (2 Bft)
28.11.2016 13:43 -1,5 °C -1,5 °C 80 % 1024,5 hPa 0,0 mm 7,2 km/h (2 Bft) O-NO 77 ° 0 min 0,000 mm 0,6 UV-I 149 W/m² -4,5 °C 11,3 km/h (2 Bft)
28.11.2016 13:44 -1,4 °C -1,4 °C 81 % 1024,5 hPa 0,0 mm 7,4 km/h (2 Bft) O 89 ° 0 min 0,000 mm 0,6 UV-I 142 W/m² -4,2 °C 12,9 km/h (3 Bft)
28.11.2016 13:45 -1,4 °C -1,4 °C 82 % 1024,5 hPa 0,0 mm 6,4 km/h (2 Bft) O-NO 72 ° 0 min 0,000 mm 0,6 UV-I 135 W/m² -4,1 °C 12,9 km/h (3 Bft)
28.11.2016 13:46 -1,4 °C -1,4 °C 82 % 1024,4 hPa 0,0 mm 3,5 km/h (1 Bft) NO 51 ° 0 min 0,000 mm 0,6 UV-I 130 W/m² -4,1 °C 6,4 km/h (2 Bft)
28.11.2016 13:47 -1,4 °C -1,4 °C 82 % 1024,5 hPa 0,0 mm 8,0 km/h (2 Bft) O 88 ° 0 min 0,000 mm 0,6 UV-I 116 W/m² -4,1 °C 17,7 km/h (3 Bft)
28.11.2016 13:48 -1,4 °C -1,4 °C 82 % 1024,4 hPa 0,0 mm 10,3 km/h (2 Bft) O-NO 69 ° 0 min 0,000 mm 0,6 UV-I 109 W/m² -4,1 °C 16,1 km/h (3 Bft)
28.11.2016 13:49 -1,4 °C -1,4 °C 82 % 1024,4 hPa 0,0 mm 5,9 km/h (2 Bft) O-NO 58 ° 0 min 0,000 mm 0,6 UV-I 104 W/m² -4,1 °C 14,5 km/h (3 Bft)
28.11.2016 13:50 -1,5 °C -1,4 °C 82 % 1024,4 hPa 0,0 mm 14,6 km/h (3 Bft) NO 56 ° 0 min 0,000 mm 0,6 UV-I 100 W/m² -4,2 °C 20,9 km/h (4 Bft)
28.11.2016 13:51 -1,5 °C -1,4 °C 83 % 1024,4 hPa 0,0 mm 7,1 km/h (2 Bft) O-NO 61 ° 0 min 0,000 mm 0,6 UV-I 98 W/m² -4,0 °C 12,9 km/h (3 Bft)
28.11.2016 13:52 -1,5 °C -1,5 °C 82 % 1024,4 hPa 0,0 mm 10,1 km/h (2 Bft) O-NO 71 ° 0 min 0,000 mm 0,6 UV-I 95 W/m² -4,2 °C 17,7 km/h (3 Bft)
28.11.2016 13:53 -1,5 °C -1,5 °C 83 % 1024,4 hPa 0,0 mm 10,3 km/h (2 Bft) N-NO 20 ° 0 min 0,000 mm 0,6 UV-I 95 W/m² -4,0 °C 17,7 km/h (3 Bft)
28.11.2016 13:54 -1,6 °C -1,5 °C 83 % 1024,5 hPa 0,0 mm 9,2 km/h (2 Bft) N 10 ° 0 min 0,000 mm 0,6 UV-I 91 W/m² -4,1 °C 14,5 km/h (3 Bft)
28.11.2016 13:55 -1,6 °C -1,6 °C 83 % 1024,4 hPa 0,0 mm 9,9 km/h (2 Bft) O-NO 61 ° 0 min 0,000 mm 0,6 UV-I 93 W/m² -4,1 °C 19,3 km/h (3 Bft)
28.11.2016 13:56 -1,6 °C -1,6 °C 83 % 1024,4 hPa 0,0 mm 12,8 km/h (3 Bft) O 81 ° 0 min 0,000 mm 0,6 UV-I 98 W/m² -4,1 °C 17,7 km/h (3 Bft)
28.11.2016 13:57 -1,6 °C -1,6 °C 83 % 1024,4 hPa 0,0 mm 7,6 km/h (2 Bft) O-NO 78 ° 0 min 0,000 mm 0,6 UV-I 104 W/m² -4,1 °C 9,7 km/h (2 Bft)
28.11.2016 13:58 -1,6 °C -1,6 °C 84 % 1024,4 hPa 0,0 mm 8,6 km/h (2 Bft) O 83 ° 0 min 0,000 mm 0,6 UV-I 109 W/m² -3,9 °C 11,3 km/h (2 Bft)
28.11.2016 13:59 -1,6 °C -1,6 °C 83 % 1024,4 hPa 0,0 mm 10,8 km/h (2 Bft) O-NO 78 ° 0 min 0,000 mm 0,6 UV-I 111 W/m² -4,1 °C 16,1 km/h (3 Bft)
28.11.2016 14:00 -1,6 °C -1,6 °C 83 % 1024,4 hPa 0,0 mm 11,7 km/h (2 Bft) NO 44 ° 0 min 0,000 mm 0,6 UV-I 107 W/m² -4,1 °C 16,1 km/h (3 Bft)
28.11.2016 14:01 -1,6 °C -1,6 °C 83 % 1024,4 hPa 0,0 mm 8,5 km/h (2 Bft) O-NO 67 ° 0 min 0,051 mm 0,6 UV-I 104 W/m² -4,1 °C 14,5 km/h (3 Bft)
28.11.2016 14:02 -1,6 °C -1,6 °C 83 % 1024,4 hPa 0,0 mm 5,3 km/h (1 Bft) O 93 ° 0 min 0,000 mm 0,6 UV-I 105 W/m² -4,1 °C 9,7 km/h (2 Bft)
28.11.2016 14:03 -1,6 °C -1,6 °C 83 % 1024,4 hPa 0,0 mm 6,0 km/h (2 Bft) N-NO 12 ° 0 min 0,000 mm 0,6 UV-I 111 W/m² -4,1 °C 9,7 km/h (2 Bft)
28.11.2016 14:04 -1,6 °C -1,6 °C 83 % 1024,5 hPa 0,0 mm 4,9 km/h (1 Bft) NO 44 ° 0 min 0,000 mm 0,6 UV-I 109 W/m² -4,1 °C 8,0 km/h (2 Bft)
28.11.2016 14:05 -1,6 °C -1,6 °C 82 % 1024,5 hPa 0,0 mm 4,5 km/h (1 Bft) NO 41 ° 0 min 0,000 mm 0,6 UV-I 102 W/m² -4,3 °C 8,0 km/h (2 Bft)
28.11.2016 14:06 -1,6 °C -1,6 °C 83 % 1024,5 hPa 0,0 mm 4,8 km/h (1 Bft) O-NO 78 ° 0 min 0,000 mm 0,6 UV-I 93 W/m² -4,1 °C 6,4 km/h (2 Bft)
28.11.2016 14:07 -1,6 °C -1,6 °C 83 % 1024,5 hPa 0,0 mm 4,3 km/h (1 Bft) N-NO 24 ° 0 min 0,000 mm 0,6 UV-I 88 W/m² -4,1 °C 6,4 km/h (2 Bft)
28.11.2016 14:08 -1,6 °C -1,6 °C 83 % 1024,5 hPa 0,0 mm 6,0 km/h (2 Bft) N-NO 28 ° 0 min 0,000 mm 0,6 UV-I 83 W/m² -4,1 °C 9,7 km/h (2 Bft)
28.11.2016 14:09 -1,6 °C -1,5 °C 83 % 1024,5 hPa 0,0 mm 8,3 km/h (2 Bft) NO 43 ° 0 min 0,000 mm 0,6 UV-I 67 W/m² -4,1 °C 14,5 km/h (3 Bft)
28.11.2016 14:10 -1,5 °C -1,5 °C 82 % 1024,5 hPa 0,0 mm 6,5 km/h (2 Bft) O 96 ° 0 min 0,000 mm 0,6 UV-I 62 W/m² -4,2 °C 11,3 km/h (2 Bft)
28.11.2016 14:11 -1,6 °C -1,5 °C 82 % 1024,6 hPa 0,0 mm 6,8 km/h (2 Bft) NO 42 ° 0 min 0,000 mm 0,6 UV-I 60 W/m² -4,3 °C 14,5 km/h (3 Bft)
28.11.2016 14:12 -1,6 °C -1,6 °C 82 % 1024,6 hPa 0,0 mm 8,0 km/h (2 Bft) N 5 ° 0 min 0,000 mm 0,6 UV-I 60 W/m² -4,3 °C 14,5 km/h (3 Bft)
28.11.2016 14:13 -1,6 °C -1,6 °C 81 % 1024,6 hPa 0,0 mm 7,1 km/h (2 Bft) NO 49 ° 0 min 0,000 mm 0,6 UV-I 60 W/m² -4,4 °C 9,7 km/h (2 Bft)
28.11.2016 14:14 -1,6 °C -1,6 °C 81 % 1024,6 hPa 0,0 mm 7,2 km/h (2 Bft) NO 36 ° 0 min 0,000 mm 0,6 UV-I 58 W/m² -4,4 °C 9,7 km/h (2 Bft)
28.11.2016 14:15 -1,7 °C -1,6 °C 81 % 1024,7 hPa 0,0 mm 5,0 km/h (1 Bft) O-NO 65 ° 0 min 0,000 mm 0,0 UV-I 54 W/m² -4,5 °C 6,4 km/h (2 Bft)
28.11.2016 14:16 -1,7 °C -1,7 °C 81 % 1024,6 hPa 0,0 mm 4,7 km/h (1 Bft) O-NO 67 ° 0 min 0,000 mm 0,0 UV-I 53 W/m² -4,5 °C 9,7 km/h (2 Bft)
28.11.2016 14:17 -1,7 °C -1,7 °C 82 % 1024,6 hPa 0,0 mm 8,4 km/h (2 Bft) O 91 ° 0 min 0,000 mm 0,0 UV-I 53 W/m² -4,4 °C 12,9 km/h (3 Bft)
28.11.2016 14:18 -1,7 °C -1,7 °C 82 % 1024,6 hPa 0,0 mm 7,8 km/h (2 Bft) O-NO 75 ° 0 min 0,000 mm 0,0 UV-I 54 W/m² -4,4 °C 16,1 km/h (3 Bft)
28.11.2016 14:19 -1,8 °C -1,7 °C 81 % 1024,6 hPa 0,0 mm 6,1 km/h (2 Bft) NO 53 ° 0 min 0,000 mm 0,0 UV-I 54 W/m² -4,6 °C 8,0 km/h (2 Bft)
28.11.2016 14:20 -1,8 °C -1,8 °C 81 % 1024,6 hPa 0,0 mm 9,5 km/h (2 Bft) NO 44 ° 0 min 0,000 mm 0,0 UV-I 53 W/m² -4,6 °C 19,3 km/h (3 Bft)
28.11.2016 14:21 -1,8 °C -1,8 °C 81 % 1024,7 hPa 0,0 mm 8,6 km/h (2 Bft) NO 41 ° 0 min 0,000 mm 0,0 UV-I 54 W/m² -4,6 °C 14,5 km/h (3 Bft)
28.11.2016 14:22 -1,8 °C -1,8 °C 81 % 1024,7 hPa 0,0 mm 8,6 km/h (2 Bft) O-NO 77 ° 0 min 0,000 mm 0,6 UV-I 56 W/m² -4,6 °C 14,5 km/h (3 Bft)
28.11.2016 14:23 -1,9 °C -1,8 °C 81 % 1024,8 hPa 0,0 mm 8,2 km/h (2 Bft) O-NO 60 ° 0 min 0,000 mm 0,6 UV-I 62 W/m² -4,7 °C 12,9 km/h (3 Bft)
28.11.2016 14:24 -1,9 °C -1,9 °C 81 % 1024,7 hPa 0,0 mm 7,0 km/h (2 Bft) O 101 ° 0 min 0,000 mm 0,6 UV-I 65 W/m² -4,7 °C 12,9 km/h (3 Bft)
28.11.2016 14:25 -1,9 °C -1,9 °C 81 % 1024,7 hPa 0,0 mm 8,9 km/h (2 Bft) O-NO 76 ° 0 min 0,000 mm 0,6 UV-I 69 W/m² -4,7 °C 11,3 km/h (2 Bft)
28.11.2016 14:26 -1,9 °C -1,9 °C 81 % 1024,7 hPa 0,0 mm 4,8 km/h (1 Bft) NO 55 ° 0 min 0,000 mm 0,6 UV-I 70 W/m² -4,7 °C 8,0 km/h (2 Bft)
28.11.2016 14:27 -1,9 °C -1,9 °C 81 % 1024,8 hPa 0,0 mm 8,6 km/h (2 Bft) O-NO 61 ° 0 min 0,000 mm 0,6 UV-I 67 W/m² -4,7 °C 11,3 km/h (2 Bft)
28.11.2016 14:28 -1,9 °C -1,9 °C 82 % 1024,8 hPa 0,0 mm 5,6 km/h (1 Bft) O-NO 66 ° 0 min 0,000 mm 0,6 UV-I 63 W/m² -4,6 °C 9,7 km/h (2 Bft)
28.11.2016 14:29 -1,9 °C -1,9 °C 82 % 1024,8 hPa 0,0 mm 6,8 km/h (2 Bft) NO 55 ° 0 min 0,000 mm 0,6 UV-I 58 W/m² -4,6 °C 11,3 km/h (2 Bft)
28.11.2016 14:30 -1,9 °C -1,9 °C 81 % 1024,8 hPa 0,0 mm 7,2 km/h (2 Bft) O-NO 76 ° 0 min 0,000 mm 0,6 UV-I 56 W/m² -4,7 °C 11,3 km/h (2 Bft)
28.11.2016 14:31 -1,9 °C -1,9 °C 81 % 1024,8 hPa 0,0 mm 7,7 km/h (2 Bft) O-NO 62 ° 0 min 0,000 mm 0,0 UV-I 54 W/m² -4,7 °C 12,9 km/h (3 Bft)
28.11.2016 14:32 -1,9 °C -1,9 °C 81 % 1024,8 hPa 0,0 mm 5,9 km/h (2 Bft) O-NO 71 ° 0 min 0,000 mm 0,0 UV-I 51 W/m² -4,7 °C 8,0 km/h (2 Bft)
28.11.2016 14:33 -1,9 °C -1,9 °C 81 % 1024,9 hPa 0,0 mm 5,2 km/h (1 Bft) O-NO 61 ° 0 min 0,000 mm 0,0 UV-I 47 W/m² -4,7 °C 8,0 km/h (2 Bft)
28.11.2016 14:34 -2,0 °C -1,9 °C 81 % 1024,8 hPa 0,0 mm 6,4 km/h (2 Bft) O-NO 68 ° 0 min 0,000 mm 0,0 UV-I 46 W/m² -4,8 °C 8,0 km/h (2 Bft)
28.11.2016 14:35 -2,0 °C -1,9 °C 82 % 1024,9 hPa 0,0 mm 5,7 km/h (1 Bft) O 87 ° 0 min 0,000 mm 0,0 UV-I 44 W/m² -4,7 °C 8,0 km/h (2 Bft)
28.11.2016 14:36 -2,0 °C -2,0 °C 82 % 1024,8 hPa 0,0 mm 2,2 km/h (1 Bft) O-NO 76 ° 0 min 0,000 mm 0,0 UV-I 44 W/m² -4,7 °C 3,2 km/h (1 Bft)
28.11.2016 14:37 -2,1 °C -2,0 °C 82 % 1024,9 hPa 0,0 mm 6,8 km/h (2 Bft) NO 53 ° 0 min 0,000 mm 0,0 UV-I 42 W/m² -4,7 °C 11,3 km/h (2 Bft)
28.11.2016 14:38 -2,1 °C -2,0 °C 82 % 1024,9 hPa 0,0 mm 6,2 km/h (2 Bft) O 88 ° 0 min 0,000 mm 0,0 UV-I 42 W/m² -4,7 °C 8,0 km/h (2 Bft)
28.11.2016 14:39 -2,1 °C -2,0 °C 82 % 1024,8 hPa 0,0 mm 4,4 km/h (1 Bft) O-NO 69 ° 0 min 0,000 mm 0,0 UV-I 44 W/m² -4,7 °C 6,4 km/h (2 Bft)
28.11.2016 14:40 -2,1 °C -2,1 °C 82 % 1024,8 hPa 0,0 mm 5,8 km/h (2 Bft) O-NO 69 ° 0 min 0,000 mm 0,0 UV-I 46 W/m² -4,7 °C 8,0 km/h (2 Bft)
28.11.2016 14:41 -2,1 °C -2,1 °C 82 % 1024,9 hPa 0,0 mm 3,4 km/h (1 Bft) O-NO 67 ° 0 min 0,000 mm 0,0 UV-I 49 W/m² -4,7 °C 4,8 km/h (1 Bft)
28.11.2016 14:42 -2,1 °C -2,1 °C 83 % 1024,9 hPa 0,0 mm 3,8 km/h (1 Bft) O-NO 67 ° 0 min 0,000 mm 0,0 UV-I 53 W/m² -4,6 °C 4,8 km/h (1 Bft)
28.11.2016 14:43 -2,1 °C -2,1 °C 83 % 1025,0 hPa 0,0 mm 3,1 km/h (1 Bft) O-NO 64 ° 0 min 0,000 mm 0,5 UV-I 56 W/m² -4,6 °C 6,4 km/h (2 Bft)
28.11.2016 14:44 -2,1 °C -2,1 °C 83 % 1025,0 hPa 0,0 mm 3,2 km/h (1 Bft) O-NO 64 ° 0 min 0,000 mm 0,5 UV-I 60 W/m² -4,6 °C 4,8 km/h (1 Bft)
28.11.2016 14:45 -2,1 °C -2,1 °C 83 % 1024,9 hPa 0,0 mm 4,2 km/h (1 Bft) O 82 ° 0 min 0,000 mm 0,5 UV-I 62 W/m² -4,6 °C 6,4 km/h (2 Bft)
28.11.2016 14:46 -2,1 °C -2,1 °C 84 % 1024,9 hPa 0,0 mm 3,5 km/h (1 Bft) O 81 ° 0 min 0,000 mm 0,5 UV-I 62 W/m² -4,4 °C 4,8 km/h (1 Bft)
28.11.2016 14:47 -2,1 °C -2,1 °C 84 % 1024,9 hPa 0,0 mm 1,4 km/h (1 Bft) O 81 ° 0 min 0,000 mm 0,5 UV-I 63 W/m² -4,4 °C 3,2 km/h (1 Bft)
28.11.2016 14:48 -2,1 °C -2,1 °C 84 % 1024,9 hPa 0,0 mm 1,9 km/h (1 Bft) O 86 ° 0 min 0,000 mm 0,5 UV-I 67 W/m² -4,4 °C 4,8 km/h (1 Bft)
28.11.2016 14:49 -2,1 °C -2,1 °C 84 % 1024,9 hPa 0,0 mm 2,7 km/h (1 Bft) O-NO 67 ° 0 min 0,000 mm 0,5 UV-I 67 W/m² -4,4 °C 4,8 km/h (1 Bft)
28.11.2016 14:50 -2,1 °C -2,1 °C 84 % 1024,9 hPa 0,0 mm 2,8 km/h (1 Bft) O-NO 76 ° 0 min 0,000 mm 0,5 UV-I 69 W/m² -4,4 °C 6,4 km/h (2 Bft)
28.11.2016 14:51 -2,1 °C -2,1 °C 84 % 1024,9 hPa 0,0 mm 5,5 km/h (1 Bft) NO 55 ° 0 min 0,000 mm 0,5 UV-I 70 W/m² -4,4 °C 11,3 km/h (2 Bft)
28.11.2016 14:52 -2,1 °C -2,1 °C 83 % 1024,9 hPa 0,0 mm 3,0 km/h (1 Bft) O-NO 61 ° 0 min 0,000 mm 0,0 UV-I 69 W/m² -4,6 °C 4,8 km/h (1 Bft)
28.11.2016 14:53 -2,1 °C -2,1 °C 84 % 1025,0 hPa 0,0 mm 4,3 km/h (1 Bft) NO 54 ° 0 min 0,000 mm 0,0 UV-I 63 W/m² -4,4 °C 8,0 km/h (2 Bft)
28.11.2016 14:54 -2,1 °C -2,1 °C 84 % 1025,0 hPa 0,0 mm 7,7 km/h (2 Bft) O 85 ° 0 min 0,000 mm 0,0 UV-I 62 W/m² -4,4 °C 12,9 km/h (3 Bft)
28.11.2016 14:55 -2,1 °C -2,1 °C 84 % 1025,0 hPa 0,0 mm 3,9 km/h (1 Bft) O-NO 75 ° 0 min 0,000 mm 0,0 UV-I 60 W/m² -4,4 °C 4,8 km/h (1 Bft)
28.11.2016 14:56 -2,0 °C -2,0 °C 84 % 1025,0 hPa 0,0 mm 4,2 km/h (1 Bft) O-NO 61 ° 0 min 0,000 mm 0,0 UV-I 53 W/m² -4,3 °C 6,4 km/h (2 Bft)
28.11.2016 14:57 -2,1 °C -2,0 °C 84 % 1025,0 hPa 0,0 mm 6,3 km/h (2 Bft) O 84 ° 0 min 0,000 mm 0,0 UV-I 53 W/m² -4,4 °C 9,7 km/h (2 Bft)
28.11.2016 14:58 -2,0 °C -2,0 °C 84 % 1025,0 hPa 0,0 mm 5,8 km/h (2 Bft) O 79 ° 0 min 0,000 mm 0,0 UV-I 53 W/m² -4,3 °C 9,7 km/h (2 Bft)
28.11.2016 14:59 -2,0 °C -2,0 °C 83 % 1025,0 hPa 0,0 mm 5,4 km/h (1 Bft) O-NO 70 ° 0 min 0,000 mm 0,0 UV-I 53 W/m² -4,5 °C 8,0 km/h (2 Bft)
28.11.2016 15:00 -1,9 °C -1,9 °C 83 % 1025,0 hPa 0,0 mm 2,9 km/h (1 Bft) NO 49 ° 0 min 0,000 mm 0,0 UV-I 53 W/m² -4,4 °C 4,8 km/h (1 Bft)
28.11.2016 15:01 -1,9 °C -1,9 °C 83 % 1025,1 hPa 0,0 mm 1,9 km/h (1 Bft) NO 49 ° 0 min 0,025 mm 0,0 UV-I 60 W/m² -4,4 °C 3,2 km/h (1 Bft)
28.11.2016 15:02 -1,9 °C -1,9 °C 84 % 1025,1 hPa 0,0 mm 4,6 km/h (1 Bft) NO 55 ° 0 min 0,000 mm 0,0 UV-I 72 W/m² -4,2 °C 8,0 km/h (2 Bft)
28.11.2016 15:03 -1,9 °C -1,9 °C 83 % 1025,1 hPa 0,0 mm 4,8 km/h (1 Bft) SO 129 ° 0 min 0,000 mm 0,0 UV-I 76 W/m² -4,4 °C 6,4 km/h (2 Bft)
28.11.2016 15:04 -1,9 °C -1,9 °C 83 % 1025,2 hPa 0,0 mm 4,0 km/h (1 Bft) O-NO 76 ° 0 min 0,000 mm 0,0 UV-I 74 W/m² -4,4 °C 4,8 km/h (1 Bft)
28.11.2016 15:05 -1,9 °C -1,9 °C 83 % 1025,2 hPa 0,0 mm 6,6 km/h (2 Bft) O 84 ° 0 min 0,000 mm 0,0 UV-I 72 W/m² -4,4 °C 9,7 km/h (2 Bft)
28.11.2016 15:06 -1,9 °C -1,9 °C 82 % 1025,2 hPa 0,0 mm 4,4 km/h (1 Bft) O-NO 59 ° 0 min 0,000 mm 0,0 UV-I 72 W/m² -4,6 °C 4,8 km/h (1 Bft)
28.11.2016 15:07 -1,9 °C -1,9 °C 82 % 1025,2 hPa 0,0 mm 6,7 km/h (2 Bft) O-NO 66 ° 0 min 0,000 mm 0,0 UV-I 69 W/m² -4,6 °C 8,0 km/h (2 Bft)
28.11.2016 15:08 -1,8 °C -1,8 °C 82 % 1025,2 hPa 0,0 mm 5,7 km/h (1 Bft) O-NO 63 ° 0 min 0,000 mm 0,0 UV-I 58 W/m² -4,5 °C 9,7 km/h (2 Bft)
28.11.2016 15:09 -1,8 °C -1,8 °C 83 % 1025,2 hPa 0,0 mm 3,5 km/h (1 Bft) O-NO 63 ° 0 min 0,000 mm 0,0 UV-I 56 W/m² -4,3 °C 4,8 km/h (1 Bft)
28.11.2016 15:10 -1,8 °C -1,8 °C 83 % 1025,2 hPa 0,0 mm 5,8 km/h (2 Bft) O-NO 71 ° 0 min 0,000 mm 0,0 UV-I 54 W/m² -4,3 °C 9,7 km/h (2 Bft)
28.11.2016 15:11 -1,8 °C -1,8 °C 83 % 1025,2 hPa 0,0 mm 7,4 km/h (2 Bft) O-NO 61 ° 0 min 0,000 mm 0,0 UV-I 53 W/m² -4,3 °C 9,7 km/h (2 Bft)
28.11.2016 15:12 -1,8 °C -1,8 °C 82 % 1025,2 hPa 0,0 mm 4,5 km/h (1 Bft) O 87 ° 0 min 0,000 mm 0,0 UV-I 51 W/m² -4,5 °C 6,4 km/h (2 Bft)
28.11.2016 15:13 -1,8 °C -1,8 °C 82 % 1025,2 hPa 0,0 mm 3,8 km/h (1 Bft) O-NO 70 ° 0 min 0,000 mm 0,0 UV-I 47 W/m² -4,5 °C 6,4 km/h (2 Bft)
28.11.2016 15:14 -1,8 °C -1,8 °C 82 % 1025,2 hPa 0,0 mm 5,1 km/h (1 Bft) NO 53 ° 0 min 0,000 mm 0,0 UV-I 44 W/m² -4,5 °C 6,4 km/h (2 Bft)
28.11.2016 15:15 -1,8 °C -1,8 °C 82 % 1025,2 hPa 0,0 mm 1,5 km/h (1 Bft) O-NO 57 ° 0 min 0,000 mm 0,0 UV-I 42 W/m² -4,5 °C 3,2 km/h (1 Bft)
28.11.2016 15:16 -1,8 °C -1,8 °C 82 % 1025,3 hPa 0,0 mm 3,6 km/h (1 Bft) O-NO 76 ° 0 min 0,000 mm 0,0 UV-I 40 W/m² -4,5 °C 6,4 km/h (2 Bft)
28.11.2016 15:17 -1,8 °C -1,7 °C 82 % 1025,4 hPa 0,0 mm 4,9 km/h (1 Bft) NO 51 ° 0 min 0,000 mm 0,0 UV-I 39 W/m² -4,5 °C 8,0 km/h (2 Bft)
28.11.2016 15:18 -1,8 °C -1,8 °C 82 % 1025,3 hPa 0,0 mm 9,0 km/h (2 Bft) S 178 ° 0 min 0,000 mm 0,0 UV-I 37 W/m² -4,5 °C 14,5 km/h (3 Bft)
28.11.2016 15:19 -1,8 °C -1,7 °C 82 % 1025,3 hPa 0,0 mm 7,7 km/h (2 Bft) O-NO 64 ° 0 min 0,000 mm 0,0 UV-I 35 W/m² -4,5 °C 11,3 km/h (2 Bft)
28.11.2016 15:20 -1,8 °C -1,7 °C 81 % 1025,4 hPa 0,0 mm 7,3 km/h (2 Bft) O-NO 59 ° 0 min 0,000 mm 0,0 UV-I 30 W/m² -4,6 °C 12,9 km/h (3 Bft)
28.11.2016 15:21 -1,7 °C -1,7 °C 80 % 1025,4 hPa 0,0 mm 7,0 km/h (2 Bft) O-NO 76 ° 0 min 0,000 mm 0,0 UV-I 30 W/m² -4,7 °C 12,9 km/h (3 Bft)
28.11.2016 15:22 -1,8 °C -1,7 °C 80 % 1025,4 hPa 0,0 mm 7,6 km/h (2 Bft) O-NO 62 ° 0 min 0,000 mm 0,0 UV-I 30 W/m² -4,8 °C 12,9 km/h (3 Bft)
28.11.2016 15:23 -1,8 °C -1,8 °C 80 % 1025,5 hPa 0,0 mm 9,7 km/h (2 Bft) O-NO 71 ° 0 min 0,000 mm 0,0 UV-I 32 W/m² -4,8 °C 12,9 km/h (3 Bft)
28.11.2016 15:24 -1,8 °C -1,8 °C 80 % 1025,5 hPa 0,0 mm 6,1 km/h (2 Bft) O 96 ° 0 min 0,000 mm 0,0 UV-I 33 W/m² -4,8 °C 11,3 km/h (2 Bft)
28.11.2016 15:25 -1,8 °C -1,8 °C 79 % 1025,5 hPa 0,0 mm 4,6 km/h (1 Bft) N-NO 28 ° 0 min 0,000 mm 0,0 UV-I 33 W/m² -4,9 °C 9,7 km/h (2 Bft)
28.11.2016 15:26 -1,8 °C -1,8 °C 80 % 1025,5 hPa 0,0 mm 6,2 km/h (2 Bft) O-NO 73 ° 0 min 0,000 mm 0,0 UV-I 32 W/m² -4,8 °C 11,3 km/h (2 Bft)
28.11.2016 15:27 -1,8 °C -1,8 °C 80 % 1025,5 hPa 0,0 mm 9,2 km/h (2 Bft) O-NO 76 ° 0 min 0,000 mm 0,0 UV-I 30 W/m² -4,8 °C 14,5 km/h (3 Bft)
28.11.2016 15:28 -1,8 °C -1,8 °C 80 % 1025,5 hPa 0,0 mm 8,4 km/h (2 Bft) O-NO 59 ° 0 min 0,000 mm 0,0 UV-I 30 W/m² -4,8 °C 14,5 km/h (3 Bft)
28.11.2016 15:29 -1,8 °C -1,8 °C 80 % 1025,5 hPa 0,0 mm 9,9 km/h (2 Bft) NO 49 ° 0 min 0,000 mm 0,0 UV-I 30 W/m² -4,8 °C 14,5 km/h (3 Bft)
28.11.2016 15:30 -1,8 °C -1,8 °C 80 % 1025,6 hPa 0,0 mm 5,3 km/h (1 Bft) O-NO 76 ° 0 min 0,000 mm 0,0 UV-I 30 W/m² -4,8 °C 8,0 km/h (2 Bft)
28.11.2016 15:31 -1,8 °C -1,8 °C 80 % 1025,6 hPa 0,0 mm 4,1 km/h (1 Bft) NO 55 ° 0 min 0,000 mm 0,0 UV-I 28 W/m² -4,8 °C 8,0 km/h (2 Bft)
28.11.2016 15:32 -1,8 °C -1,8 °C 80 % 1025,6 hPa 0,0 mm 5,6 km/h (1 Bft) NO 48 ° 0 min 0,000 mm 0,0 UV-I 26 W/m² -4,8 °C 6,4 km/h (2 Bft)
28.11.2016 15:33 -1,8 °C -1,8 °C 80 % 1025,6 hPa 0,0 mm 4,9 km/h (1 Bft) NO 39 ° 0 min 0,000 mm 0,0 UV-I 25 W/m² -4,8 °C 6,4 km/h (2 Bft)
28.11.2016 15:34 -1,8 °C -1,8 °C 80 % 1025,6 hPa 0,0 mm 4,4 km/h (1 Bft) NO 52 ° 0 min 0,000 mm 0,0 UV-I 25 W/m² -4,8 °C 6,4 km/h (2 Bft)
28.11.2016 15:35 -1,8 °C -1,8 °C 80 % 1025,6 hPa 0,0 mm 4,0 km/h (1 Bft) NO 51 ° 0 min 0,000 mm 0,0 UV-I 25 W/m² -4,8 °C 6,4 km/h (2 Bft)
28.11.2016 15:36 -1,8 °C -1,8 °C 80 % 1025,6 hPa 0,0 mm 3,8 km/h (1 Bft) NO 51 ° 0 min 0,000 mm 0,0 UV-I 23 W/m² -4,8 °C 6,4 km/h (2 Bft)
28.11.2016 15:37 -1,8 °C -1,8 °C 81 % 1025,7 hPa 0,0 mm 3,6 km/h (1 Bft) O-NO 76 ° 0 min 0,000 mm 0,0 UV-I 25 W/m² -4,6 °C 4,8 km/h (1 Bft)
28.11.2016 15:38 -1,8 °C -1,8 °C 81 % 1025,7 hPa 0,0 mm 3,1 km/h (1 Bft) O-NO 71 ° 0 min 0,000 mm 0,0 UV-I 25 W/m² -4,6 °C 4,8 km/h (1 Bft)
28.11.2016 15:39 -1,8 °C -1,8 °C 81 % 1025,7 hPa 0,0 mm 5,4 km/h (1 Bft) O-NO 66 ° 0 min 0,000 mm 0,0 UV-I 23 W/m² -4,6 °C 8,0 km/h (2 Bft)
28.11.2016 15:40 -1,8 °C -1,8 °C 81 % 1025,7 hPa 0,0 mm 6,4 km/h (2 Bft) O-NO 76 ° 0 min 0,000 mm 0,0 UV-I 21 W/m² -4,6 °C 8,0 km/h (2 Bft)
28.11.2016 15:41 -1,8 °C -1,8 °C 80 % 1025,7 hPa 0,0 mm 5,8 km/h (2 Bft) NO 55 ° 0 min 0,000 mm 0,0 UV-I 21 W/m² -4,8 °C 8,0 km/h (2 Bft)
28.11.2016 15:42 -1,9 °C -1,8 °C 80 % 1025,7 hPa 0,0 mm 6,9 km/h (2 Bft) O 85 ° 0 min 0,000 mm 0,0 UV-I 23 W/m² -4,9 °C 11,3 km/h (2 Bft)
28.11.2016 15:43 -1,9 °C -1,8 °C 80 % 1025,7 hPa 0,0 mm 5,9 km/h (2 Bft) NO 43 ° 0 min 0,000 mm 0,0 UV-I 23 W/m² -4,9 °C 12,9 km/h (3 Bft)
28.11.2016 15:44 -1,9 °C -1,9 °C 80 % 1025,7 hPa 0,0 mm 5,0 km/h (1 Bft) O-NO 64 ° 0 min 0,000 mm 0,0 UV-I 21 W/m² -4,9 °C 6,4 km/h (2 Bft)
28.11.2016 15:45 -1,9 °C -1,9 °C 80 % 1025,7 hPa 0,0 mm 8,3 km/h (2 Bft) O-NO 63 ° 0 min 0,000 mm 0,0 UV-I 19 W/m² -4,9 °C 14,5 km/h (3 Bft)
28.11.2016 15:46 -1,9 °C -1,9 °C 80 % 1025,7 hPa 0,0 mm 5,7 km/h (1 Bft) O 84 ° 0 min 0,000 mm 0,0 UV-I 18 W/m² -4,9 °C 11,3 km/h (2 Bft)
28.11.2016 15:47 -1,9 °C -1,9 °C 80 % 1025,7 hPa 0,0 mm 3,2 km/h (1 Bft) O-NO 76 ° 0 min 0,000 mm 0,0 UV-I 18 W/m² -4,9 °C 8,0 km/h (2 Bft)
28.11.2016 15:48 -1,9 °C -1,9 °C 80 % 1025,7 hPa 0,0 mm 3,8 km/h (1 Bft) O 90 ° 0 min 0,000 mm 0,0 UV-I 16 W/m² -4,9 °C 6,4 km/h (2 Bft)
28.11.2016 15:49 -1,9 °C -1,9 °C 80 % 1025,7 hPa 0,0 mm 7,3 km/h (2 Bft) O 80 ° 0 min 0,000 mm 0,0 UV-I 14 W/m² -4,9 °C 11,3 km/h (2 Bft)
28.11.2016 15:50 -1,9 °C -1,9 °C 80 % 1025,7 hPa 0,0 mm 9,4 km/h (2 Bft) O 90 ° 0 min 0,000 mm 0,0 UV-I 14 W/m² -4,9 °C 12,9 km/h (3 Bft)
28.11.2016 15:51 -2,0 °C -1,9 °C 80 % 1025,7 hPa 0,0 mm 7,0 km/h (2 Bft) NO 51 ° 0 min 0,000 mm 0,0 UV-I 14 W/m² -5,0 °C 11,3 km/h (2 Bft)
28.11.2016 15:52 -2,0 °C -2,0 °C 80 % 1025,7 hPa 0,0 mm 5,4 km/h (1 Bft) O-NO 67 ° 0 min 0,000 mm 0,0 UV-I 14 W/m² -5,0 °C 9,7 km/h (2 Bft)
28.11.2016 15:53 -2,1 °C -2,0 °C 80 % 1025,7 hPa 0,0 mm 5,2 km/h (1 Bft) O-NO 60 ° 0 min 0,000 mm 0,0 UV-I 14 W/m² -5,1 °C 11,3 km/h (2 Bft)
28.11.2016 15:54 -2,1 °C -2,0 °C 80 % 1025,8 hPa 0,0 mm 5,8 km/h (2 Bft) O-NO 69 ° 0 min 0,000 mm 0,0 UV-I 16 W/m² -5,1 °C 9,7 km/h (2 Bft)
28.11.2016 15:55 -2,1 °C -2,1 °C 80 % 1025,8 hPa 0,0 mm 5,6 km/h (1 Bft) O-NO 57 ° 0 min 0,000 mm 0,0 UV-I 14 W/m² -5,1 °C 8,0 km/h (2 Bft)
28.11.2016 15:56 -2,1 °C -2,1 °C 80 % 1025,7 hPa 0,0 mm 4,4 km/h (1 Bft) O-NO 63 ° 0 min 0,000 mm 0,0 UV-I 12 W/m² -5,1 °C 6,4 km/h (2 Bft)
28.11.2016 15:57 -2,1 °C -2,1 °C 80 % 1025,7 hPa 0,0 mm 2,1 km/h (1 Bft) O 98 ° 0 min 0,000 mm 0,0 UV-I 12 W/m² -5,1 °C 3,2 km/h (1 Bft)
28.11.2016 15:58 -2,1 °C -2,1 °C 80 % 1025,7 hPa 0,0 mm 3,6 km/h (1 Bft) NO 53 ° 0 min 0,000 mm 0,0 UV-I 12 W/m² -5,1 °C 8,0 km/h (2 Bft)
28.11.2016 15:59 -2,1 °C -2,1 °C 80 % 1025,7 hPa 0,0 mm 5,2 km/h (1 Bft) O-NO 66 ° 0 min 0,000 mm 0,0 UV-I 12 W/m² -5,1 °C 6,4 km/h (2 Bft)
28.11.2016 16:00 -2,1 °C -2,1 °C 81 % 1025,8 hPa 0,0 mm 3,8 km/h (1 Bft) O 82 ° 0 min 0,000 mm 0,0 UV-I 12 W/m² -4,9 °C 4,8 km/h (1 Bft)
28.11.2016 16:01 -2,1 °C -2,1 °C 81 % 1025,8 hPa 0,0 mm 2,0 km/h (1 Bft) O-NO 63 ° 0 min 0,026 mm 0,0 UV-I 12 W/m² -4,9 °C 3,2 km/h (1 Bft)
28.11.2016 16:02 -2,1 °C -2,1 °C 81 % 1025,8 hPa 0,0 mm 4,9 km/h (1 Bft) O-NO 57 ° 0 min 0,000 mm 0,0 UV-I 11 W/m² -4,9 °C 8,0 km/h (2 Bft)
28.11.2016 16:03 -2,2 °C -2,1 °C 80 % 1025,8 hPa 0,0 mm 2,7 km/h (1 Bft) O-NO 57 ° 0 min 0,000 mm 0,0 UV-I 11 W/m² -5,2 °C 4,8 km/h (1 Bft)
28.11.2016 16:04 -2,2 °C -2,2 °C 80 % 1025,8 hPa 0,0 mm 4,2 km/h (1 Bft) O-NO 71 ° 0 min 0,000 mm 0,0 UV-I 11 W/m² -5,2 °C 6,4 km/h (2 Bft)
28.11.2016 16:05 -2,2 °C -2,2 °C 81 % 1025,8 hPa 0,0 mm 7,1 km/h (2 Bft) O-NO 62 ° 0 min 0,000 mm 0,0 UV-I 11 W/m² -5,0 °C 11,3 km/h (2 Bft)
28.11.2016 16:06 -2,2 °C -2,2 °C 81 % 1025,8 hPa 0,0 mm 2,4 km/h (1 Bft) O-NO 76 ° 0 min 0,000 mm 0,0 UV-I 11 W/m² -5,0 °C 6,4 km/h (2 Bft)
28.11.2016 16:07 -2,2 °C -2,2 °C 81 % 1025,8 hPa 0,0 mm 1,7 km/h (1 Bft) O-NO 69 ° 0 min 0,000 mm 0,0 UV-I 11 W/m² -5,0 °C 3,2 km/h (1 Bft)
28.11.2016 16:08 -2,2 °C -2,2 °C 81 % 1025,9 hPa 0,0 mm 2,5 km/h (1 Bft) O-NO 69 ° 0 min 0,000 mm 0,0 UV-I 9 W/m² -5,0 °C 4,8 km/h (1 Bft)
28.11.2016 16:09 -2,3 °C -2,2 °C 81 % 1025,9 hPa 0,0 mm 3,2 km/h (1 Bft) O-NO 76 ° 0 min 0,000 mm 0,0 UV-I 9 W/m² -5,1 °C 4,8 km/h (1 Bft)
28.11.2016 16:10 -2,3 °C -2,3 °C 81 % 1025,9 hPa 0,0 mm 2,3 km/h (1 Bft) O-NO 76 ° 0 min 0,000 mm 0,0 UV-I 9 W/m² -5,1 °C 6,4 km/h (2 Bft)
28.11.2016 16:11 -2,3 °C -2,3 °C 81 % 1025,8 hPa 0,0 mm 5,7 km/h (1 Bft) O-NO 59 ° 0 min 0,000 mm 0,0 UV-I 9 W/m² -5,1 °C 12,9 km/h (3 Bft)
28.11.2016 16:12 -2,3 °C -2,3 °C 81 % 1025,9 hPa 0,0 mm 4,1 km/h (1 Bft) O-NO 64 ° 0 min 0,000 mm 0,0 UV-I 7 W/m² -5,1 °C 6,4 km/h (2 Bft)
28.11.2016 16:13 -2,3 °C -2,3 °C 81 % 1025,9 hPa 0,0 mm 5,0 km/h (1 Bft) O 79 ° 0 min 0,000 mm 0,0 UV-I 7 W/m² -5,1 °C 8,0 km/h (2 Bft)
28.11.2016 16:14 -2,4 °C -2,3 °C 81 % 1025,9 hPa 0,0 mm 1,9 km/h (1 Bft) O-NO 60 ° 0 min 0,000 mm 0,0 UV-I 7 W/m² -5,2 °C 4,8 km/h (1 Bft)
28.11.2016 16:15 -2,4 °C -2,3 °C 81 % 1025,9 hPa 0,0 mm 5,4 km/h (1 Bft) O-NO 67 ° 0 min 0,000 mm 0,0 UV-I 7 W/m² -5,2 °C 6,4 km/h (2 Bft)
28.11.2016 16:16 -2,4 °C -2,4 °C 81 % 1025,9 hPa 0,0 mm 3,9 km/h (1 Bft) O-NO 77 ° 0 min 0,000 mm 0,0 UV-I 7 W/m² -5,2 °C 4,8 km/h (1 Bft)
28.11.2016 16:17 -2,4 °C -2,4 °C 81 % 1025,9 hPa 0,0 mm 3,2 km/h (1 Bft) O-NO 61 ° 0 min 0,000 mm 0,0 UV-I 7 W/m² -5,2 °C 6,4 km/h (2 Bft)
28.11.2016 16:18 -2,4 °C -2,4 °C 81 % 1026,0 hPa 0,0 mm 3,4 km/h (1 Bft) O-NO 71 ° 0 min 0,000 mm 0,0 UV-I 7 W/m² -5,2 °C 8,0 km/h (2 Bft)
28.11.2016 16:19 -2,4 °C -2,4 °C 81 % 1025,9 hPa 0,0 mm 1,8 km/h (1 Bft) O-NO 71 ° 0 min 0,000 mm 0,0 UV-I 5 W/m² -5,2 °C 3,2 km/h (1 Bft)
28.11.2016 16:20 -2,5 °C -2,4 °C 82 % 1026,0 hPa 0,0 mm 3,9 km/h (1 Bft) O-NO 73 ° 0 min 0,000 mm 0,0 UV-I 5 W/m² -5,1 °C 6,4 km/h (2 Bft)
28.11.2016 16:21 -2,5 °C -2,4 °C 82 % 1026,0 hPa 0,0 mm 1,3 km/h (1 Bft) O-NO 65 ° 0 min 0,000 mm 0,0 UV-I 5 W/m² -5,1 °C 3,2 km/h (1 Bft)
28.11.2016 16:22 -2,5 °C -2,4 °C 82 % 1026,0 hPa 0,0 mm 1,3 km/h (1 Bft) O-NO 65 ° 0 min 0,000 mm 0,0 UV-I 5 W/m² -5,1 °C 3,2 km/h (1 Bft)
28.11.2016 16:23 -2,5 °C -2,5 °C 82 % 1026,0 hPa 0,0 mm 3,0 km/h (1 Bft) O-NO 63 ° 0 min 0,000 mm 0,0 UV-I 5 W/m² -5,1 °C 4,8 km/h (1 Bft)
28.11.2016 16:24 -2,5 °C -2,5 °C 82 % 1026,0 hPa 0,0 mm 5,5 km/h (1 Bft) O-NO 64 ° 0 min 0,000 mm 0,0 UV-I 5 W/m² -5,1 °C 12,9 km/h (3 Bft)
28.11.2016 16:25 -2,5 °C -2,5 °C 82 % 1026,0 hPa 0,0 mm 6,8 km/h (2 Bft) O-NO 69 ° 0 min 0,000 mm 0,0 UV-I 0 W/m² -5,1 °C 9,7 km/h (2 Bft)
28.11.2016 16:26 -2,5 °C -2,5 °C 82 % 1026,0 hPa 0,0 mm 5,0 km/h (1 Bft) O-NO 59 ° 0 min 0,000 mm 0,0 UV-I 0 W/m² -5,1 °C 8,0 km/h (2 Bft)
28.11.2016 16:27 -2,6 °C -2,5 °C 82 % 1026,0 hPa 0,0 mm 3,6 km/h (1 Bft) O 80 ° 0 min 0,000 mm 0,0 UV-I 0 W/m² -5,2 °C 6,4 km/h (2 Bft)
28.11.2016 16:28 -2,6 °C -2,6 °C 83 % 1026,0 hPa 0,0 mm 3,6 km/h (1 Bft) O-NO 60 ° 0 min 0,000 mm 0,0 UV-I 0 W/m² -5,1 °C 6,4 km/h (2 Bft)
28.11.2016 16:29 -2,6 °C -2,6 °C 83 % 1026,0 hPa 0,0 mm 4,5 km/h (1 Bft) NO 55 ° 0 min 0,000 mm 0,0 UV-I 0 W/m² -5,1 °C 6,4 km/h (2 Bft)
28.11.2016 16:30 -2,6 °C -2,6 °C 83 % 1026,0 hPa 0,0 mm 2,2 km/h (1 Bft) NO 55 ° 0 min 0,000 mm 0,0 UV-I 0 W/m² -5,1 °C 3,2 km/h (1 Bft)
28.11.2016 16:31 -2,6 °C -2,6 °C 83 % 1026,0 hPa 0,0 mm 4,5 km/h (1 Bft) O-NO 76 ° 0 min 0,000 mm 0,0 UV-I 0 W/m² -5,1 °C 8,0 km/h (2 Bft)
28.11.2016 16:32 -2,6 °C -2,6 °C 83 % 1026,0 hPa 0,0 mm 4,5 km/h (1 Bft) O-NO 61 ° 0 min 0,000 mm 0,0 UV-I 0 W/m² -5,1 °C 8,0 km/h (2 Bft)
28.11.2016 16:33 -2,6 °C -2,6 °C 83 % 1026,1 hPa 0,0 mm 6,1 km/h (2 Bft) O-NO 63 ° 0 min 0,000 mm 0,0 UV-I 0 W/m² -5,1 °C 9,7 km/h (2 Bft)
28.11.2016 16:34 -2,6 °C -2,6 °C 83 % 1026,1 hPa 0,0 mm 4,3 km/h (1 Bft) O 90 ° 0 min 0,000 mm 0,0 UV-I 0 W/m² -5,1 °C 8,0 km/h (2 Bft)
28.11.2016 16:35 -2,6 °C -2,6 °C 83 % 1026,1 hPa 0,0 mm 4,1 km/h (1 Bft) O-NO 67 ° 0 min 0,000 mm 0,0 UV-I 0 W/m² -5,1 °C 8,0 km/h (2 Bft)
28.11.2016 16:36 -2,7 °C -2,6 °C 83 % 1026,1 hPa 0,0 mm 5,9 km/h (2 Bft) NO 56 ° 0 min 0,000 mm 0,0 UV-I 0 W/m² -5,2 °C 9,7 km/h (2 Bft)
28.11.2016 16:37 -2,7 °C -2,6 °C 83 % 1026,1 hPa 0,0 mm 5,5 km/h (1 Bft) O-NO 67 ° 0 min 0,000 mm 0,0 UV-I 0 W/m² -5,2 °C 6,4 km/h (2 Bft)
28.11.2016 16:38 -2,7 °C -2,7 °C 83 % 1026,1 hPa 0,0 mm 6,7 km/h (2 Bft) O 83 ° 0 min 0,000 mm 0,0 UV-I 0 W/m² -5,2 °C 9,7 km/h (2 Bft)
28.11.2016 16:39 -2,7 °C -2,7 °C 82 % 1026,2 hPa 0,0 mm 4,8 km/h (1 Bft) O-NO 61 ° 0 min 0,000 mm 0,0 UV-I 0 W/m² -5,3 °C 6,4 km/h (2 Bft)
28.11.2016 16:40 -2,7 °C -2,7 °C 83 % 1026,2 hPa 0,0 mm 2,9 km/h (1 Bft) O-NO 61 ° 0 min 0,000 mm 0,0 UV-I 0 W/m² -5,2 °C 4,8 km/h (1 Bft)
28.11.2016 16:41 -2,7 °C -2,7 °C 83 % 1026,2 hPa 0,0 mm 4,4 km/h (1 Bft) O-NO 64 ° 0 min 0,000 mm 0,0 UV-I 0 W/m² -5,2 °C 6,4 km/h (2 Bft)
28.11.2016 16:42 -2,7 °C -2,7 °C 83 % 1026,1 hPa 0,0 mm 5,6 km/h (1 Bft) O 90 ° 0 min 0,000 mm 0,0 UV-I 0 W/m² -5,2 °C 9,7 km/h (2 Bft)
28.11.2016 16:43 -2,7 °C -2,7 °C 83 % 1026,2 hPa 0,0 mm 3,8 km/h (1 Bft) NO 56 ° 0 min 0,000 mm 0,0 UV-I 0 W/m² -5,2 °C 6,4 km/h (2 Bft)
28.11.2016 16:44 -2,8 °C -2,7 °C 83 % 1026,2 hPa 0,0 mm 4,4 km/h (1 Bft) O-NO 61 ° 0 min 0,000 mm 0,0 UV-I 0 W/m² -5,3 °C 6,4 km/h (2 Bft)
28.11.2016 16:45 -2,8 °C -2,8 °C 83 % 1026,2 hPa 0,0 mm 0,6 km/h (0 Bft) O-NO 61 ° 0 min 0,000 mm 0,0 UV-I 0 W/m² -5,3 °C 3,2 km/h (1 Bft)
28.11.2016 16:46 -2,8 °C -2,8 °C 83 % 1026,2 hPa 0,0 mm 2,5 km/h (1 Bft) NO 56 ° 0 min 0,000 mm 0,0 UV-I 0 W/m² -5,3 °C 4,8 km/h (1 Bft)
28.11.2016 16:47 -2,8 °C -2,8 °C 83 % 1026,2 hPa 0,0 mm 3,8 km/h (1 Bft) O 87 ° 0 min 0,000 mm 0,0 UV-I 0 W/m² -5,3 °C 6,4 km/h (2 Bft)
28.11.2016 16:48 -2,8 °C -2,8 °C 83 % 1026,2 hPa 0,0 mm 2,5 km/h (1 Bft) O 87 ° 0 min 0,000 mm 0,0 UV-I 0 W/m² -5,3 °C 4,8 km/h (1 Bft)
28.11.2016 16:49 -2,8 °C -2,8 °C 83 % 1026,2 hPa 0,0 mm 1,9 km/h (1 Bft) O 87 ° 0 min 0,000 mm 0,0 UV-I 0 W/m² -5,3 °C 4,8 km/h (1 Bft)
28.11.2016 16:50 -2,8 °C -2,8 °C 83 % 1026,2 hPa 0,0 mm 1,1 km/h (1 Bft) O-NO 59 ° 0 min 0,000 mm 0,0 UV-I 0 W/m² -5,3 °C 1,6 km/h (1 Bft)
28.11.2016 16:51 -2,8 °C -2,8 °C 83 % 1026,2 hPa 0,0 mm 2,3 km/h (1 Bft) O-NO 59 ° 0 min 0,000 mm 0,0 UV-I 0 W/m² -5,3 °C 4,8 km/h (1 Bft)
28.11.2016 16:52 -2,8 °C -2,8 °C 83 % 1026,3 hPa 0,0 mm 1,2 km/h (1 Bft) O-NO 65 ° 0 min 0,000 mm 0,0 UV-I 0 W/m² -5,3 °C 3,2 km/h (1 Bft)
28.11.2016 16:53 -2,8 °C -2,8 °C 83 % 1026,3 hPa 0,0 mm 4,2 km/h (1 Bft) O-NO 64 ° 0 min 0,000 mm 0,0 UV-I 0 W/m² -5,3 °C 6,4 km/h (2 Bft)
28.11.2016 16:54 -2,8 °C -2,8 °C 83 % 1026,3 hPa 0,0 mm 3,4 km/h (1 Bft) O-NO 71 ° 0 min 0,000 mm 0,0 UV-I 0 W/m² -5,3 °C 4,8 km/h (1 Bft)
28.11.2016 16:55 -2,8 °C -2,8 °C 83 % 1026,3 hPa 0,0 mm 3,0 km/h (1 Bft) O-NO 73 ° 0 min 0,000 mm 0,0 UV-I 0 W/m² -5,3 °C 6,4 km/h (2 Bft)
28.11.2016 16:56 -2,9 °C -2,8 °C 83 % 1026,3 hPa 0,0 mm 2,7 km/h (1 Bft) O-NO 58 ° 0 min 0,000 mm 0,0 UV-I 0 W/m² -5,4 °C 3,2 km/h (1 Bft)
28.11.2016 16:57 -2,9 °C -2,8 °C 83 % 1026,3 hPa 0,0 mm 2,4 km/h (1 Bft) O-NO 59 ° 0 min 0,000 mm 0,0 UV-I 0 W/m² -5,4 °C 3,2 km/h (1 Bft)
28.11.2016 16:58 -2,9 °C -2,8 °C 83 % 1026,3 hPa 0,0 mm 2,4 km/h (1 Bft) O-NO 77 ° 0 min 0,000 mm 0,0 UV-I 0 W/m² -5,4 °C 4,8 km/h (1 Bft)
28.11.2016 16:59 -2,9 °C -2,9 °C 83 % 1026,3 hPa 0,0 mm 2,6 km/h (1 Bft) O-NO 76 ° 0 min 0,000 mm 0,0 UV-I 0 W/m² -5,4 °C 4,8 km/h (1 Bft)
28.11.2016 17:00 -2,9 °C -2,9 °C 83 % 1026,3 hPa 0,0 mm 3,2 km/h (1 Bft) O-NO 78 ° 0 min 0,000 mm 0,0 UV-I 0 W/m² -5,4 °C 4,8 km/h (1 Bft)
28.11.2016 17:01 -2,9 °C -2,9 °C 83 % 1026,3 hPa 0,0 mm 2,7 km/h (1 Bft) O-NO 68 ° 0 min 0,000 mm 0,0 UV-I 0 W/m² -5,4 °C 6,4 km/h (2 Bft)
28.11.2016 17:02 -2,9 °C -2,9 °C 83 % 1026,3 hPa 0,0 mm 3,7 km/h (1 Bft) O-SO 105 ° 0 min 0,000 mm 0,0 UV-I 0 W/m² -5,4 °C 4,8 km/h (1 Bft)
28.11.2016 17:03 -2,9 °C -2,9 °C 84 % 1026,3 hPa 0,0 mm 2,4 km/h (1 Bft) O-NO 62 ° 0 min 0,000 mm 0,0 UV-I 0 W/m² -5,2 °C 4,8 km/h (1 Bft)
28.11.2016 17:04 -2,9 °C -2,9 °C 84 % 1026,4 hPa 0,0 mm 1,5 km/h (1 Bft) O-NO 62 ° 0 min 0,000 mm 0,0 UV-I 0 W/m² -5,2 °C 3,2 km/h (1 Bft)
28.11.2016 17:05 -2,9 °C -2,9 °C 84 % 1026,4 hPa 0,0 mm 1,5 km/h (1 Bft) O-NO 63 ° 0 min 0,000 mm 0,0 UV-I 0 W/m² -5,2 °C 4,8 km/h (1 Bft)
28.11.2016 17:06 -2,9 °C -2,9 °C 84 % 1026,4 hPa 0,0 mm 3,2 km/h (1 Bft) O-NO 66 ° 0 min 0,000 mm 0,0 UV-I 0 W/m² -5,2 °C 4,8 km/h (1 Bft)
28.11.2016 17:07 -2,9 °C -2,9 °C 84 % 1026,4 hPa 0,0 mm 5,2 km/h (1 Bft) O-NO 59 ° 0 min 0,000 mm 0,0 UV-I 0 W/m² -5,2 °C 8,0 km/h (2 Bft)
28.11.2016 17:08 -2,9 °C -2,9 °C 84 % 1026,4 hPa 0,0 mm 1,5 km/h (1 Bft) O-NO 59 ° 0 min 0,000 mm 0,0 UV-I 0 W/m² -5,2 °C 3,2 km/h (1 Bft)
28.11.2016 17:09 -3,0 °C -2,9 °C 84 % 1026,5 hPa 0,0 mm 2,5 km/h (1 Bft) O-NO 59 ° 0 min 0,000 mm 0,0 UV-I 0 W/m² -5,3 °C 3,2 km/h (1 Bft)
28.11.2016 17:10 -3,0 °C -2,9 °C 84 % 1026,5 hPa 0,0 mm 4,2 km/h (1 Bft) O-NO 63 ° 0 min 0,000 mm 0,0 UV-I 0 W/m² -5,3 °C 8,0 km/h (2 Bft)
28.11.2016 17:11 -3,0 °C -2,9 °C 84 % 1026,5 hPa 0,0 mm 5,9 km/h (2 Bft) N-NO 29 ° 0 min 0,000 mm 0,0 UV-I 0 W/m² -5,3 °C 9,7 km/h (2 Bft)
28.11.2016 17:12 -3,0 °C -3,0 °C 84 % 1026,5 hPa 0,0 mm 6,4 km/h (2 Bft) O-NO 71 ° 0 min 0,000 mm 0,0 UV-I 0 W/m² -5,3 °C 12,9 km/h (3 Bft)
28.11.2016 17:13 -3,0 °C -3,0 °C 84 % 1026,5 hPa 0,0 mm 3,2 km/h (1 Bft) O-NO 57 ° 0 min 0,000 mm 0,0 UV-I 0 W/m² -5,3 °C 6,4 km/h (2 Bft)
28.11.2016 17:14 -3,0 °C -3,0 °C 84 % 1026,6 hPa 0,0 mm 4,3 km/h (1 Bft) O 84 ° 0 min 0,000 mm 0,0 UV-I 0 W/m² -5,3 °C 6,4 km/h (2 Bft)
28.11.2016 17:15 -3,1 °C -3,0 °C 84 % 1026,6 hPa 0,0 mm 2,2 km/h (1 Bft) O 95 ° 0 min 0,000 mm 0,0 UV-I 0 W/m² -5,4 °C 4,8 km/h (1 Bft)
28.11.2016 17:16 -3,0 °C -3,0 °C 84 % 1026,7 hPa 0,0 mm 4,4 km/h (1 Bft) O-NO 59 ° 0 min 0,000 mm 0,0 UV-I 0 W/m² -5,3 °C 8,0 km/h (2 Bft)
28.11.2016 17:17 -3,0 °C -3,0 °C 85 % 1026,6 hPa 0,0 mm 2,3 km/h (1 Bft) O-NO 65 ° 0 min 0,000 mm 0,0 UV-I 0 W/m² -5,2 °C 4,8 km/h (1 Bft)
28.11.2016 17:18 -3,0 °C -3,0 °C 85 % 1026,6 hPa 0,0 mm 3,8 km/h (1 Bft) O-NO 65 ° 0 min 0,000 mm 0,0 UV-I 0 W/m² -5,2 °C 6,4 km/h (2 Bft)
28.11.2016 17:19 -3,1 °C -3,0 °C 85 % 1026,6 hPa 0,0 mm 4,2 km/h (1 Bft) O-NO 60 ° 0 min 0,000 mm 0,0 UV-I 0 W/m² -5,3 °C 6,4 km/h (2 Bft)
28.11.2016 17:20 -3,0 °C -3,0 °C 85 % 1026,7 hPa 0,0 mm 3,2 km/h (1 Bft) O-NO 77 ° 0 min 0,000 mm 0,0 UV-I 0 W/m² -5,2 °C 4,8 km/h (1 Bft)
28.11.2016 17:21 -3,1 °C -3,0 °C 85 % 1026,6 hPa 0,0 mm 5,1 km/h (1 Bft) O-NO 64 ° 0 min 0,000 mm 0,0 UV-I 0 W/m² -5,3 °C 8,0 km/h (2 Bft)
28.11.2016 17:22 -3,0 °C -3,0 °C 85 % 1026,7 hPa 0,0 mm 3,2 km/h (1 Bft) O-NO 64 ° 0 min 0,000 mm 0,0 UV-I 0 W/m² -5,2 °C 4,8 km/h (1 Bft)
28.11.2016 17:23 -3,0 °C -3,0 °C 85 % 1026,7 hPa 0,0 mm 3,0 km/h (1 Bft) O-NO 68 ° 0 min 0,000 mm 0,0 UV-I 0 W/m² -5,2 °C 4,8 km/h (1 Bft)
28.11.2016 17:24 -3,0 °C -2,9 °C 85 % 1026,7 hPa 0,0 mm 4,5 km/h (1 Bft) NO 55 ° 0 min 0,000 mm 0,0 UV-I 0 W/m² -5,2 °C 8,0 km/h (2 Bft)
28.11.2016 17:25 -3,0 °C -3,0 °C 85 % 1026,7 hPa 0,0 mm 4,6 km/h (1 Bft) O-NO 68 ° 0 min 0,000 mm 0,0 UV-I 0 W/m² -5,2 °C 6,4 km/h (2 Bft)
28.11.2016 17:26 -3,0 °C -3,0 °C 85 % 1026,7 hPa 0,0 mm 1,3 km/h (1 Bft) O-NO 68 ° 0 min 0,000 mm 0,0 UV-I 0 W/m² -5,2 °C 3,2 km/h (1 Bft)
28.11.2016 17:27 -3,0 °C -3,0 °C 86 % 1026,7 hPa 0,0 mm 3,0 km/h (1 Bft) O 88 ° 0 min 0,000 mm 0,0 UV-I 0 W/m² -5,0 °C 4,8 km/h (1 Bft)
28.11.2016 17:28 -3,0 °C -2,9 °C 86 % 1026,8 hPa 0,0 mm 3,4 km/h (1 Bft) O 96 ° 0 min 0,000 mm 0,0 UV-I 0 W/m² -5,0 °C 6,4 km/h (2 Bft)
28.11.2016 17:29 -3,0 °C -3,0 °C 86 % 1026,8 hPa 0,0 mm 4,8 km/h (1 Bft) O-NO 61 ° 0 min 0,000 mm 0,0 UV-I 0 W/m² -5,0 °C 6,4 km/h (2 Bft)
28.11.2016 17:30 -3,0 °C -3,0 °C 86 % 1026,8 hPa 0,0 mm 6,2 km/h (2 Bft) O-NO 63 ° 0 min 0,000 mm 0,0 UV-I 0 W/m² -5,0 °C 11,3 km/h (2 Bft)
28.11.2016 17:31 -3,0 °C -2,9 °C 86 % 1026,8 hPa 0,0 mm 4,1 km/h (1 Bft) O-SO 105 ° 0 min 0,000 mm 0,0 UV-I 0 W/m² -5,0 °C 8,0 km/h (2 Bft)
28.11.2016 17:32 -2,9 °C -2,9 °C 86 % 1026,8 hPa 0,0 mm 3,4 km/h (1 Bft) S-SO 147 ° 0 min 0,000 mm 0,0 UV-I 0 W/m² -4,9 °C 4,8 km/h (1 Bft)
28.11.2016 17:33 -2,9 °C -2,9 °C 85 % 1026,8 hPa 0,0 mm 4,5 km/h (1 Bft) O-NO 74 ° 0 min 0,000 mm 0,0 UV-I 0 W/m² -5,1 °C 8,0 km/h (2 Bft)
28.11.2016 17:34 -2,9 °C -2,9 °C 85 % 1026,8 hPa 0,0 mm 4,4 km/h (1 Bft) O 86 ° 0 min 0,000 mm 0,0 UV-I 0 W/m² -5,1 °C 6,4 km/h (2 Bft)
28.11.2016 17:35 -3,0 °C -2,9 °C 86 % 1026,8 hPa 0,0 mm 2,3 km/h (1 Bft) O-NO 71 ° 0 min 0,000 mm 0,0 UV-I 0 W/m² -5,0 °C 4,8 km/h (1 Bft)
28.11.2016 17:36 -2,9 °C -2,9 °C 86 % 1026,8 hPa 0,0 mm 2,7 km/h (1 Bft) O 97 ° 0 min 0,000 mm 0,0 UV-I 0 W/m² -4,9 °C 6,4 km/h (2 Bft)
28.11.2016 17:37 -3,0 °C -2,9 °C 86 % 1026,8 hPa 0,0 mm 5,2 km/h (1 Bft) O-NO 70 ° 0 min 0,000 mm 0,0 UV-I 0 W/m² -5,0 °C 11,3 km/h (2 Bft)
28.11.2016 17:38 -3,0 °C -2,9 °C 86 % 1026,9 hPa 0,0 mm 5,0 km/h (1 Bft) O-NO 70 ° 0 min 0,000 mm 0,0 UV-I 0 W/m² -5,0 °C 8,0 km/h (2 Bft)
28.11.2016 17:39 -3,0 °C -3,0 °C 86 % 1026,9 hPa 0,0 mm 3,1 km/h (1 Bft) O-NO 70 ° 0 min 0,000 mm 0,0 UV-I 0 W/m² -5,0 °C 4,8 km/h (1 Bft)
28.11.2016 17:40 -3,1 °C -3,0 °C 86 % 1026,9 hPa 0,0 mm 4,2 km/h (1 Bft) O-NO 67 ° 0 min 0,000 mm 0,0 UV-I 0 W/m² -5,1 °C 6,4 km/h (2 Bft)
28.11.2016 17:41 -3,0 °C -3,0 °C 86 % 1026,9 hPa 0,0 mm 6,6 km/h (2 Bft) O-NO 75 ° 0 min 0,000 mm 0,0 UV-I 0 W/m² -5,0 °C 9,7 km/h (2 Bft)
28.11.2016 17:42 -3,0 °C -3,0 °C 86 % 1026,8 hPa 0,0 mm 4,1 km/h (1 Bft) O-NO 67 ° 0 min 0,000 mm 0,0 UV-I 0 W/m² -5,0 °C 6,4 km/h (2 Bft)
28.11.2016 17:43 -3,0 °C -3,0 °C 86 % 1026,9 hPa 0,0 mm 3,2 km/h (1 Bft) O-NO 71 ° 0 min 0,000 mm 0,0 UV-I 0 W/m² -5,0 °C 4,8 km/h (1 Bft)
28.11.2016 17:44 -3,1 °C -3,0 °C 86 % 1026,9 hPa 0,0 mm 4,4 km/h (1 Bft) O 86 ° 0 min 0,000 mm 0,0 UV-I 0 W/m² -5,1 °C 6,4 km/h (2 Bft)
28.11.2016 17:45 -3,1 °C -3,0 °C 86 % 1026,9 hPa 0,0 mm 2,3 km/h (1 Bft) O 86 ° 0 min 0,000 mm 0,0 UV-I 0 W/m² -5,1 °C 4,8 km/h (1 Bft)
28.11.2016 17:46 -3,1 °C -3,1 °C 86 % 1026,9 hPa 0,0 mm 6,0 km/h (2 Bft) NO 54 ° 0 min 0,000 mm 0,0 UV-I 0 W/m² -5,1 °C 8,0 km/h (2 Bft)
28.11.2016 17:47 -3,1 °C -3,1 °C 86 % 1026,9 hPa 0,0 mm 4,2 km/h (1 Bft) O-NO 76 ° 0 min 0,000 mm 0,0 UV-I 0 W/m² -5,1 °C 6,4 km/h (2 Bft)
28.11.2016 17:48 -3,1 °C -3,1 °C 86 % 1026,9 hPa 0,0 mm 6,4 km/h (2 Bft) O-NO 75 ° 0 min 0,000 mm 0,0 UV-I 0 W/m² -5,1 °C 9,7 km/h (2 Bft)
28.11.2016 17:49 -3,1 °C -3,1 °C 86 % 1026,9 hPa 0,0 mm 2,4 km/h (1 Bft) O-NO 74 ° 0 min 0,000 mm 0,0 UV-I 0 W/m² -5,1 °C 3,2 km/h (1 Bft)
28.11.2016 17:50 -3,1 °C -3,1 °C 86 % 1027,0 hPa 0,0 mm 5,0 km/h (1 Bft) O 98 ° 0 min 0,000 mm 0,0 UV-I 0 W/m² -5,1 °C 8,0 km/h (2 Bft)
28.11.2016 17:51 -3,1 °C -3,1 °C 86 % 1027,0 hPa 0,0 mm 6,4 km/h (2 Bft) SO 124 ° 0 min 0,000 mm 0,0 UV-I 0 W/m² -5,1 °C 9,7 km/h (2 Bft)
28.11.2016 17:52 -3,2 °C -3,1 °C 86 % 1027,0 hPa 0,0 mm 4,0 km/h (1 Bft) O-SO 103 ° 0 min 0,000 mm 0,0 UV-I 0 W/m² -5,2 °C 6,4 km/h (2 Bft)
28.11.2016 17:53 -3,2 °C -3,2 °C 86 % 1027,0 hPa 0,0 mm 6,4 km/h (2 Bft) O-SO 103 ° 0 min 0,000 mm 0,0 UV-I 0 W/m² -5,2 °C 14,5 km/h (3 Bft)
28.11.2016 17:54 -3,2 °C -3,2 °C 86 % 1027,0 hPa 0,0 mm 3,4 km/h (1 Bft) O-SO 113 ° 0 min 0,000 mm 0,0 UV-I 0 W/m² -5,2 °C 4,8 km/h (1 Bft)
28.11.2016 17:55 -3,3 °C -3,2 °C 86 % 1027,0 hPa 0,0 mm 2,6 km/h (1 Bft) O 80 ° 0 min 0,000 mm 0,0 UV-I 0 W/m² -5,3 °C 4,8 km/h (1 Bft)
28.11.2016 17:56 -3,2 °C -3,2 °C 87 % 1026,9 hPa 0,0 mm 1,8 km/h (1 Bft) NO 56 ° 0 min 0,000 mm 0,0 UV-I 0 W/m² -5,0 °C 3,2 km/h (1 Bft)
28.11.2016 17:57 -3,3 °C -3,2 °C 86 % 1027,0 hPa 0,0 mm 2,1 km/h (1 Bft) O-NO 57 ° 0 min 0,000 mm 0,0 UV-I 0 W/m² -5,3 °C 4,8 km/h (1 Bft)
28.11.2016 17:58 -3,3 °C -3,2 °C 86 % 1027,0 hPa 0,0 mm 1,5 km/h (1 Bft) NO 56 ° 0 min 0,000 mm 0,0 UV-I 0 W/m² -5,3 °C 3,2 km/h (1 Bft)
28.11.2016 17:59 -3,3 °C -3,3 °C 86 % 1027,0 hPa 0,0 mm 3,1 km/h (1 Bft) O-NO 67 ° 0 min 0,000 mm 0,0 UV-I 0 W/m² -5,3 °C 4,8 km/h (1 Bft)
28.11.2016 18:00 -3,3 °C -3,3 °C 86 % 1027,0 hPa 0,0 mm 5,1 km/h (1 Bft) O-NO 63 ° 0 min 0,000 mm 0,0 UV-I 0 W/m² -5,3 °C 6,4 km/h (2 Bft)
28.11.2016 18:01 -3,3 °C -3,3 °C 86 % 1027,0 hPa 0,0 mm 2,0 km/h (1 Bft) O-NO 65 ° 0 min 0,000 mm 0,0 UV-I 0 W/m² -5,3 °C 4,8 km/h (1 Bft)
28.11.2016 18:02 -3,3 °C -3,3 °C 86 % 1027,1 hPa 0,0 mm 1,9 km/h (1 Bft) O-NO 67 ° 0 min 0,000 mm 0,0 UV-I 0 W/m² -5,3 °C 3,2 km/h (1 Bft)
28.11.2016 18:03 -3,3 °C -3,3 °C 86 % 1027,1 hPa 0,0 mm 5,6 km/h (1 Bft) O 84 ° 0 min 0,000 mm 0,0 UV-I 0 W/m² -5,3 °C 11,3 km/h (2 Bft)
28.11.2016 18:04 -3,3 °C -3,3 °C 87 % 1027,1 hPa 0,0 mm 6,8 km/h (2 Bft) NO 55 ° 0 min 0,000 mm 0,0 UV-I 0 W/m² -5,1 °C 9,7 km/h (2 Bft)
28.11.2016 18:05 -3,3 °C -3,3 °C 87 % 1027,1 hPa 0,0 mm 4,0 km/h (1 Bft) NO 55 ° 0 min 0,000 mm 0,0 UV-I 0 W/m² -5,1 °C 6,4 km/h (2 Bft)
28.11.2016 18:06 -3,4 °C -3,3 °C 87 % 1027,2 hPa 0,0 mm 4,4 km/h (1 Bft) O-SO 121 ° 0 min 0,000 mm 0,0 UV-I 0 W/m² -5,2 °C 8,0 km/h (2 Bft)
28.11.2016 18:07 -3,4 °C -3,4 °C 87 % 1027,2 hPa 0,0 mm 5,6 km/h (1 Bft) O-NO 75 ° 0 min 0,000 mm 0,0 UV-I 0 W/m² -5,2 °C 9,7 km/h (2 Bft)
28.11.2016 18:08 -3,4 °C -3,4 °C 87 % 1027,1 hPa 0,0 mm 3,4 km/h (1 Bft) O-NO 61 ° 0 min 0,000 mm 0,0 UV-I 0 W/m² -5,2 °C 6,4 km/h (2 Bft)
28.11.2016 18:09 -3,4 °C -3,4 °C 87 % 1027,2 hPa 0,0 mm 2,1 km/h (1 Bft) O-NO 61 ° 0 min 0,000 mm 0,0 UV-I 0 W/m² -5,2 °C 3,2 km/h (1 Bft)
28.11.2016 18:10 -3,4 °C -3,4 °C 87 % 1027,2 hPa 0,0 mm 1,5 km/h (1 Bft) O-NO 61 ° 0 min 0,000 mm 0,0 UV-I 0 W/m² -5,2 °C 3,2 km/h (1 Bft)
28.11.2016 18:11 -3,4 °C -3,4 °C 87 % 1027,2 hPa 0,0 mm 3,0 km/h (1 Bft) O 80 ° 0 min 0,000 mm 0,0 UV-I 0 W/m² -5,2 °C 9,7 km/h (2 Bft)
28.11.2016 18:12 -3,5 °C -3,4 °C 87 % 1027,1 hPa 0,0 mm 4,0 km/h (1 Bft) O-NO 68 ° 0 min 0,000 mm 0,0 UV-I 0 W/m² -5,3 °C 8,0 km/h (2 Bft)
28.11.2016 18:13 -3,5 °C -3,5 °C 87 % 1027,2 hPa 0,0 mm 3,2 km/h (1 Bft) O-NO 59 ° 0 min 0,000 mm 0,0 UV-I 0 W/m² -5,3 °C 6,4 km/h (2 Bft)
28.11.2016 18:14 -3,5 °C -3,5 °C 87 % 1027,2 hPa 0,0 mm 4,9 km/h (1 Bft) O-NO 71 ° 0 min 0,000 mm 0,0 UV-I 0 W/m² -5,3 °C 8,0 km/h (2 Bft)
28.11.2016 18:15 -3,5 °C -3,5 °C 87 % 1027,2 hPa 0,0 mm 5,9 km/h (2 Bft) NO 47 ° 0 min 0,000 mm 0,0 UV-I 0 W/m² -5,3 °C 8,0 km/h (2 Bft)
28.11.2016 18:16 -3,6 °C -3,5 °C 87 % 1027,2 hPa 0,0 mm 3,8 km/h (1 Bft) NO 45 ° 0 min 0,000 mm 0,0 UV-I 0 W/m² -5,4 °C 6,4 km/h (2 Bft)
28.11.2016 18:17 -3,6 °C -3,6 °C 87 % 1027,2 hPa 0,0 mm 1,5 km/h (1 Bft) O-NO 72 ° 0 min 0,000 mm 0,0 UV-I 0 W/m² -5,4 °C 3,2 km/h (1 Bft)
28.11.2016 18:18 -3,6 °C -3,6 °C 87 % 1027,2 hPa 0,0 mm 2,7 km/h (1 Bft) O-NO 72 ° 0 min 0,000 mm 0,0 UV-I 0 W/m² -5,4 °C 4,8 km/h (1 Bft)
28.11.2016 18:19 -3,6 °C -3,6 °C 87 % 1027,2 hPa 0,0 mm 3,5 km/h (1 Bft) O 86 ° 0 min 0,000 mm 0,0 UV-I 0 W/m² -5,4 °C 4,8 km/h (1 Bft)
28.11.2016 18:20 -3,6 °C -3,6 °C 87 % 1027,2 hPa 0,0 mm 3,3 km/h (1 Bft) O 86 ° 0 min 0,000 mm 0,0 UV-I 0 W/m² -5,4 °C 4,8 km/h (1 Bft)
28.11.2016 18:21 -3,6 °C -3,6 °C 87 % 1027,2 hPa 0,0 mm 2,0 km/h (1 Bft) O-SO 108 ° 0 min 0,000 mm 0,0 UV-I 0 W/m² -5,4 °C 3,2 km/h (1 Bft)
28.11.2016 18:22 -3,6 °C -3,6 °C 87 % 1027,2 hPa 0,0 mm 1,4 km/h (1 Bft) O-SO 108 ° 0 min 0,000 mm 0,0 UV-I 0 W/m² -5,4 °C 3,2 km/h (1 Bft)
28.11.2016 18:23 -3,6 °C -3,6 °C 87 % 1027,2 hPa 0,0 mm 0,3 km/h (0 Bft) O-SO 108 ° 0 min 0,000 mm 0,0 UV-I 0 W/m² -5,4 °C 1,6 km/h (1 Bft)
28.11.2016 18:24 -3,6 °C -3,6 °C 87 % 1027,2 hPa 0,0 mm 1,5 km/h (1 Bft) O-SO 107 ° 0 min 0,000 mm 0,0 UV-I 0 W/m² -5,4 °C 3,2 km/h (1 Bft)
28.11.2016 18:25 -3,7 °C -3,6 °C 87 % 1027,3 hPa 0,0 mm 4,8 km/h (1 Bft) O-NO 77 ° 0 min 0,000 mm 0,0 UV-I 0 W/m² -5,5 °C 9,7 km/h (2 Bft)
28.11.2016 18:26 -3,7 °C -3,7 °C 87 % 1027,3 hPa 0,0 mm 3,0 km/h (1 Bft) O 94 ° 0 min 0,000 mm 0,0 UV-I 0 W/m² -5,5 °C 4,8 km/h (1 Bft)
28.11.2016 18:27 -3,7 °C -3,7 °C 87 % 1027,3 hPa 0,0 mm 2,0 km/h (1 Bft) O-NO 62 ° 0 min 0,000 mm 0,0 UV-I 0 W/m² -5,5 °C 4,8 km/h (1 Bft)
28.11.2016 18:28 -3,7 °C -3,7 °C 87 % 1027,3 hPa 0,0 mm 4,2 km/h (1 Bft) O 81 ° 0 min 0,000 mm 0,0 UV-I 0 W/m² -5,5 °C 9,7 km/h (2 Bft)
28.11.2016 18:29 -3,7 °C -3,7 °C 87 % 1027,3 hPa 0,0 mm 4,6 km/h (1 Bft) NO 48 ° 0 min 0,000 mm 0,0 UV-I 0 W/m² -5,5 °C 9,7 km/h (2 Bft)
28.11.2016 18:30 -3,8 °C -3,7 °C 87 % 1027,3 hPa 0,0 mm 1,4 km/h (1 Bft) O 87 ° 0 min 0,000 mm 0,0 UV-I 0 W/m² -5,6 °C 6,4 km/h (2 Bft)
28.11.2016 18:31 -3,8 °C -3,7 °C 87 % 1027,3 hPa 0,0 mm 1,8 km/h (1 Bft) O 87 ° 0 min 0,000 mm 0,0 UV-I 0 W/m² -5,6 °C 3,2 km/h (1 Bft)
28.11.2016 18:32 -3,8 °C -3,7 °C 87 % 1027,3 hPa 0,0 mm 1,3 km/h (1 Bft) O 87 ° 0 min 0,000 mm 0,0 UV-I 0 W/m² -5,6 °C 4,8 km/h (1 Bft)
28.11.2016 18:33 -3,8 °C -3,8 °C 87 % 1027,3 hPa 0,0 mm 2,3 km/h (1 Bft) O-NO 71 ° 0 min 0,000 mm 0,0 UV-I 0 W/m² -5,6 °C 4,8 km/h (1 Bft)
28.11.2016 18:34 -3,8 °C -3,8 °C 87 % 1027,3 hPa 0,0 mm 5,3 km/h (1 Bft) O-NO 72 ° 0 min 0,000 mm 0,0 UV-I 0 W/m² -5,6 °C 8,0 km/h (2 Bft)
28.11.2016 18:35 -3,8 °C -3,8 °C 87 % 1027,4 hPa 0,0 mm 4,4 km/h (1 Bft) O-SO 105 ° 0 min 0,000 mm 0,0 UV-I 0 W/m² -5,6 °C 6,4 km/h (2 Bft)
28.11.2016 18:36 -3,8 °C -3,8 °C 87 % 1027,3 hPa 0,0 mm 2,7 km/h (1 Bft) O 80 ° 0 min 0,000 mm 0,0 UV-I 0 W/m² -5,6 °C 6,4 km/h (2 Bft)
28.11.2016 18:37 -3,8 °C -3,8 °C 87 % 1027,4 hPa 0,0 mm 4,6 km/h (1 Bft) O-SO 105 ° 0 min 0,000 mm 0,0 UV-I 0 W/m² -5,6 °C 6,4 km/h (2 Bft)
28.11.2016 18:38 -3,9 °C -3,8 °C 87 % 1027,4 hPa 0,0 mm 4,6 km/h (1 Bft) O 81 ° 0 min 0,000 mm 0,0 UV-I 0 W/m² -5,7 °C 8,0 km/h (2 Bft)
28.11.2016 18:39 -3,9 °C -3,8 °C 87 % 1027,4 hPa 0,0 mm 3,0 km/h (1 Bft) O-NO 78 ° 0 min 0,000 mm 0,0 UV-I 0 W/m² -5,7 °C 6,4 km/h (2 Bft)
28.11.2016 18:40 -3,9 °C -3,9 °C 87 % 1027,4 hPa 0,0 mm 4,4 km/h (1 Bft) O-SO 109 ° 0 min 0,000 mm 0,0 UV-I 0 W/m² -5,7 °C 6,4 km/h (2 Bft)
28.11.2016 18:41 -3,9 °C -3,9 °C 88 % 1027,4 hPa 0,0 mm 3,8 km/h (1 Bft) NO 45 ° 0 min 0,000 mm 0,0 UV-I 0 W/m² -5,6 °C 8,0 km/h (2 Bft)
28.11.2016 18:42 -3,9 °C -3,9 °C 88 % 1027,4 hPa 0,0 mm 1,5 km/h (1 Bft) O 94 ° 0 min 0,000 mm 0,0 UV-I 0 W/m² -5,6 °C 3,2 km/h (1 Bft)
28.11.2016 18:43 -3,9 °C -3,9 °C 88 % 1027,4 hPa 0,0 mm 3,4 km/h (1 Bft) NO 43 ° 0 min 0,000 mm 0,0 UV-I 0 W/m² -5,6 °C 8,0 km/h (2 Bft)
28.11.2016 18:44 -3,9 °C -3,9 °C 88 % 1027,5 hPa 0,0 mm 3,3 km/h (1 Bft) O-NO 58 ° 0 min 0,000 mm 0,0 UV-I 0 W/m² -5,6 °C 6,4 km/h (2 Bft)
28.11.2016 18:45 -3,9 °C -3,9 °C 88 % 1027,5 hPa 0,0 mm 3,0 km/h (1 Bft) NO 55 ° 0 min 0,000 mm 0,0 UV-I 0 W/m² -5,6 °C 4,8 km/h (1 Bft)
28.11.2016 18:46 -3,9 °C -3,9 °C 88 % 1027,5 hPa 0,0 mm 2,1 km/h (1 Bft) O-NO 65 ° 0 min 0,000 mm 0,0 UV-I 0 W/m² -5,6 °C 6,4 km/h (2 Bft)
28.11.2016 18:47 -3,9 °C -3,9 °C 88 % 1027,5 hPa 0,0 mm 4,9 km/h (1 Bft) O-NO 78 ° 0 min 0,000 mm 0,0 UV-I 0 W/m² -5,6 °C 6,4 km/h (2 Bft)
28.11.2016 18:48 -4,0 °C -3,9 °C 87 % 1027,5 hPa 0,0 mm 3,1 km/h (1 Bft) O-NO 65 ° 0 min 0,000 mm 0,0 UV-I 0 W/m² -5,8 °C 4,8 km/h (1 Bft)
28.11.2016 18:49 -4,0 °C -4,0 °C 87 % 1027,4 hPa 0,0 mm 1,4 km/h (1 Bft) O-NO 66 ° 0 min 0,000 mm 0,0 UV-I 0 W/m² -5,8 °C 3,2 km/h (1 Bft)
28.11.2016 18:50 -4,0 °C -4,0 °C 87 % 1027,5 hPa 0,0 mm 2,0 km/h (1 Bft) O-NO 64 ° 0 min 0,000 mm 0,0 UV-I 0 W/m² -5,8 °C 4,8 km/h (1 Bft)
28.11.2016 18:51 -4,1 °C -4,0 °C 88 % 1027,5 hPa 0,0 mm 3,7 km/h (1 Bft) O-NO 71 ° 0 min 0,000 mm 0,0 UV-I 0 W/m² -5,8 °C 6,4 km/h (2 Bft)
28.11.2016 18:52 -4,1 °C -4,1 °C 88 % 1027,5 hPa 0,0 mm 3,8 km/h (1 Bft) O-NO 66 ° 0 min 0,000 mm 0,0 UV-I 0 W/m² -5,8 °C 6,4 km/h (2 Bft)
28.11.2016 18:53 -4,1 °C -4,1 °C 88 % 1027,5 hPa 0,0 mm 1,6 km/h (1 Bft) O-NO 71 ° 0 min 0,000 mm 0,0 UV-I 0 W/m² -5,8 °C 3,2 km/h (1 Bft)
28.11.2016 18:54 -4,1 °C -4,1 °C 88 % 1027,5 hPa 0,0 mm 2,3 km/h (1 Bft) S 178 ° 0 min 0,000 mm 0,0 UV-I 0 W/m² -5,8 °C 4,8 km/h (1 Bft)
28.11.2016 18:55 -4,1 °C -4,1 °C 88 % 1027,5 hPa 0,0 mm 2,9 km/h (1 Bft) O 82 ° 0 min 0,000 mm 0,0 UV-I 0 W/m² -5,8 °C 6,4 km/h (2 Bft)
28.11.2016 18:56 -4,1 °C -4,1 °C 88 % 1027,5 hPa 0,0 mm 6,8 km/h (2 Bft) O-NO 78 ° 0 min 0,000 mm 0,0 UV-I 0 W/m² -5,8 °C 9,7 km/h (2 Bft)
28.11.2016 18:57 -4,1 °C -4,1 °C 88 % 1027,5 hPa 0,0 mm 4,2 km/h (1 Bft) O-NO 67 ° 0 min 0,000 mm 0,0 UV-I 0 W/m² -5,8 °C 8,0 km/h (2 Bft)
28.11.2016 18:58 -4,1 °C -4,1 °C 88 % 1027,5 hPa 0,0 mm 7,1 km/h (2 Bft) NO 46 ° 0 min 0,000 mm 0,0 UV-I 0 W/m² -5,8 °C 11,3 km/h (2 Bft)
28.11.2016 18:59 -4,1 °C -4,1 °C 88 % 1027,5 hPa 0,0 mm 6,0 km/h (2 Bft) O-NO 58 ° 0 min 0,000 mm 0,0 UV-I 0 W/m² -5,8 °C 8,0 km/h (2 Bft)
28.11.2016 19:00 -4,1 °C -4,1 °C 88 % 1027,4 hPa 0,0 mm 3,1 km/h (1 Bft) O-NO 61 ° 0 min 0,000 mm 0,0 UV-I 0 W/m² -5,8 °C 4,8 km/h (1 Bft)
28.11.2016 19:01 -4,2 °C -4,1 °C 88 % 1027,5 hPa 0,0 mm 3,9 km/h (1 Bft) O-NO 71 ° 0 min 0,000 mm 0,0 UV-I 0 W/m² -5,9 °C 8,0 km/h (2 Bft)
28.11.2016 19:02 -4,2 °C -4,2 °C 88 % 1027,5 hPa 0,0 mm 1,9 km/h (1 Bft) O-NO 71 ° 0 min 0,000 mm 0,0 UV-I 0 W/m² -5,9 °C 4,8 km/h (1 Bft)
28.11.2016 19:03 -4,2 °C -4,2 °C 88 % 1027,5 hPa 0,0 mm 4,0 km/h (1 Bft) NO 38 ° 0 min 0,000 mm 0,0 UV-I 0 W/m² -5,9 °C 6,4 km/h (2 Bft)
28.11.2016 19:04 -4,2 °C -4,2 °C 88 % 1027,5 hPa 0,0 mm 3,6 km/h (1 Bft) NO 45 ° 0 min 0,000 mm 0,0 UV-I 0 W/m² -5,9 °C 4,8 km/h (1 Bft)
28.11.2016 19:05 -4,2 °C -4,2 °C 88 % 1027,5 hPa 0,0 mm 3,0 km/h (1 Bft) O-NO 74 ° 0 min 0,000 mm 0,0 UV-I 0 W/m² -5,9 °C 4,8 km/h (1 Bft)
28.11.2016 19:06 -4,2 °C -4,2 °C 88 % 1027,5 hPa 0,0 mm 6,4 km/h (2 Bft) O-NO 59 ° 0 min 0,000 mm 0,0 UV-I 0 W/m² -5,9 °C 12,9 km/h (3 Bft)
28.11.2016 19:07 -4,2 °C -4,2 °C 88 % 1027,5 hPa 0,0 mm 2,3 km/h (1 Bft) NO 55 ° 0 min 0,000 mm 0,0 UV-I 0 W/m² -5,9 °C 3,2 km/h (1 Bft)
28.11.2016 19:08 -4,2 °C -4,2 °C 88 % 1027,5 hPa 0,0 mm 2,9 km/h (1 Bft) O 79 ° 0 min 0,000 mm 0,0 UV-I 0 W/m² -5,9 °C 4,8 km/h (1 Bft)
28.11.2016 19:09 -4,3 °C -4,2 °C 88 % 1027,5 hPa 0,0 mm 3,3 km/h (1 Bft) O-NO 74 ° 0 min 0,000 mm 0,0 UV-I 0 W/m² -6,0 °C 6,4 km/h (2 Bft)
28.11.2016 19:10 -4,3 °C -4,3 °C 88 % 1027,6 hPa 0,0 mm 2,0 km/h (1 Bft) NO 49 ° 0 min 0,000 mm 0,0 UV-I 0 W/m² -6,0 °C 3,2 km/h (1 Bft)
28.11.2016 19:11 -4,3 °C -4,3 °C 88 % 1027,6 hPa 0,0 mm 4,5 km/h (1 Bft) O-NO 65 ° 0 min 0,000 mm 0,0 UV-I 0 W/m² -6,0 °C 8,0 km/h (2 Bft)
28.11.2016 19:12 -4,3 °C -4,3 °C 88 % 1027,6 hPa 0,0 mm 3,5 km/h (1 Bft) O-NO 66 ° 0 min 0,000 mm 0,0 UV-I 0 W/m² -6,0 °C 8,0 km/h (2 Bft)
28.11.2016 19:13 -4,3 °C -4,3 °C 88 % 1027,7 hPa 0,0 mm 3,2 km/h (1 Bft) O 79 ° 0 min 0,000 mm 0,0 UV-I 0 W/m² -6,0 °C 4,8 km/h (1 Bft)
28.11.2016 19:14 -4,3 °C -4,3 °C 88 % 1027,7 hPa 0,0 mm 4,3 km/h (1 Bft) O-NO 76 ° 0 min 0,000 mm 0,0 UV-I 0 W/m² -6,0 °C 6,4 km/h (2 Bft)
28.11.2016 19:15 -4,3 °C -4,3 °C 88 % 1027,7 hPa 0,0 mm 4,2 km/h (1 Bft) O-NO 71 ° 0 min 0,000 mm 0,0 UV-I 0 W/m² -6,0 °C 6,4 km/h (2 Bft)
28.11.2016 19:16 -4,3 °C -4,3 °C 88 % 1027,7 hPa 0,0 mm 2,1 km/h (1 Bft) O-NO 71 ° 0 min 0,000 mm 0,0 UV-I 0 W/m² -6,0 °C 4,8 km/h (1 Bft)
28.11.2016 19:17 -4,3 °C -4,3 °C 89 % 1027,7 hPa 0,0 mm 3,7 km/h (1 Bft) O-NO 63 ° 0 min 0,000 mm 0,0 UV-I 0 W/m² -5,8 °C 6,4 km/h (2 Bft)
28.11.2016 19:18 -4,3 °C -4,3 °C 88 % 1027,8 hPa 0,0 mm 3,9 km/h (1 Bft) O 84 ° 0 min 0,000 mm 0,0 UV-I 0 W/m² -6,0 °C 6,4 km/h (2 Bft)
28.11.2016 19:19 -4,3 °C -4,3 °C 88 % 1027,7 hPa 0,0 mm 0,3 km/h (0 Bft) O 84 ° 0 min 0,000 mm 0,0 UV-I 0 W/m² -6,0 °C 1,6 km/h (1 Bft)
28.11.2016 19:20 -4,3 °C -4,3 °C 89 % 1027,7 hPa 0,0 mm 4,6 km/h (1 Bft) NO 52 ° 0 min 0,000 mm 0,0 UV-I 0 W/m² -5,8 °C 6,4 km/h (2 Bft)
28.11.2016 19:21 -4,3 °C -4,3 °C 89 % 1027,7 hPa 0,0 mm 3,1 km/h (1 Bft) O-NO 75 ° 0 min 0,000 mm 0,0 UV-I 0 W/m² -5,8 °C 6,4 km/h (2 Bft)
28.11.2016 19:22 -4,3 °C -4,3 °C 89 % 1027,7 hPa 0,0 mm 1,6 km/h (1 Bft) O-NO 75 ° 0 min 0,000 mm 0,0 UV-I 0 W/m² -5,8 °C 3,2 km/h (1 Bft)
28.11.2016 19:23 -4,3 °C -4,3 °C 89 % 1027,8 hPa 0,0 mm 3,6 km/h (1 Bft) O-NO 65 ° 0 min 0,000 mm 0,0 UV-I 0 W/m² -5,8 °C 9,7 km/h (2 Bft)
28.11.2016 19:24 -4,3 °C -4,3 °C 89 % 1027,7 hPa 0,0 mm 6,6 km/h (2 Bft) O 81 ° 0 min 0,000 mm 0,0 UV-I 0 W/m² -5,8 °C 12,9 km/h (3 Bft)
28.11.2016 19:25 -4,3 °C -4,3 °C 89 % 1027,8 hPa 0,0 mm 4,6 km/h (1 Bft) O 80 ° 0 min 0,000 mm 0,0 UV-I 0 W/m² -5,8 °C 9,7 km/h (2 Bft)
28.11.2016 19:26 -4,4 °C -4,3 °C 89 % 1027,8 hPa 0,0 mm 2,1 km/h (1 Bft) O 85 ° 0 min 0,000 mm 0,0 UV-I 0 W/m² -5,9 °C 4,8 km/h (1 Bft)
28.11.2016 19:27 -4,4 °C -4,3 °C 89 % 1027,8 hPa 0,0 mm 4,0 km/h (1 Bft) NO 53 ° 0 min 0,000 mm 0,0 UV-I 0 W/m² -5,9 °C 6,4 km/h (2 Bft)
28.11.2016 19:28 -4,3 °C -4,3 °C 89 % 1027,8 hPa 0,0 mm 7,7 km/h (2 Bft) O-NO 74 ° 0 min 0,000 mm 0,0 UV-I 0 W/m² -5,8 °C 12,9 km/h (3 Bft)
28.11.2016 19:29 -4,4 °C -4,3 °C 89 % 1027,8 hPa 0,0 mm 4,6 km/h (1 Bft) O-NO 67 ° 0 min 0,000 mm 0,0 UV-I 0 W/m² -5,9 °C 6,4 km/h (2 Bft)
28.11.2016 19:30 -4,4 °C -4,4 °C 89 % 1027,8 hPa 0,0 mm 2,7 km/h (1 Bft) O-NO 57 ° 0 min 0,000 mm 0,0 UV-I 0 W/m² -5,9 °C 6,4 km/h (2 Bft)
28.11.2016 19:31 -4,4 °C -4,4 °C 89 % 1027,8 hPa 0,0 mm 2,7 km/h (1 Bft) O 90 ° 0 min 0,000 mm 0,0 UV-I 0 W/m² -5,9 °C 6,4 km/h (2 Bft)
28.11.2016 19:32 -4,4 °C -4,4 °C 89 % 1027,8 hPa 0,0 mm 3,6 km/h (1 Bft) O-NO 62 ° 0 min 0,000 mm 0,0 UV-I 0 W/m² -5,9 °C 4,8 km/h (1 Bft)
28.11.2016 19:33 -4,4 °C -4,4 °C 89 % 1027,9 hPa 0,0 mm 2,9 km/h (1 Bft) O-NO 62 ° 0 min 0,000 mm 0,0 UV-I 0 W/m² -5,9 °C 4,8 km/h (1 Bft)
28.11.2016 19:34 -4,4 °C -4,4 °C 89 % 1027,9 hPa 0,0 mm 5,9 km/h (2 Bft) O-NO 65 ° 0 min 0,000 mm 0,0 UV-I 0 W/m² -5,9 °C 6,4 km/h (2 Bft)
28.11.2016 19:35 -4,4 °C -4,4 °C 89 % 1027,9 hPa 0,0 mm 3,7 km/h (1 Bft) O-NO 69 ° 0 min 0,000 mm 0,0 UV-I 0 W/m² -5,9 °C 6,4 km/h (2 Bft)
28.11.2016 19:36 -4,4 °C -4,4 °C 89 % 1027,9 hPa 0,0 mm 3,2 km/h (1 Bft) O-NO 69 ° 0 min 0,000 mm 0,0 UV-I 0 W/m² -5,9 °C 4,8 km/h (1 Bft)
28.11.2016 19:37 -4,4 °C -4,4 °C 89 % 1027,9 hPa 0,0 mm 1,9 km/h (1 Bft) O-NO 69 ° 0 min 0,000 mm 0,0 UV-I 0 W/m² -5,9 °C 4,8 km/h (1 Bft)
28.11.2016 19:38 -4,4 °C -4,4 °C 89 % 1027,9 hPa 0,0 mm 1,9 km/h (1 Bft) O-NO 69 ° 0 min 0,000 mm 0,0 UV-I 0 W/m² -5,9 °C 3,2 km/h (1 Bft)
28.11.2016 19:39 -4,4 °C -4,4 °C 89 % 1027,9 hPa 0,0 mm 1,3 km/h (1 Bft) O-NO 69 ° 0 min 0,000 mm 0,0 UV-I 0 W/m² -5,9 °C 3,2 km/h (1 Bft)
28.11.2016 19:40 -4,5 °C -4,4 °C 89 % 1027,9 hPa 0,0 mm 2,3 km/h (1 Bft) O-NO 77 ° 0 min 0,000 mm 0,0 UV-I 0 W/m² -6,0 °C 4,8 km/h (1 Bft)
28.11.2016 19:41 -4,5 °C -4,4 °C 89 % 1027,9 hPa 0,0 mm 3,4 km/h (1 Bft) O 90 ° 0 min 0,000 mm 0,0 UV-I 0 W/m² -6,0 °C 6,4 km/h (2 Bft)
28.11.2016 19:42 -4,5 °C -4,4 °C 89 % 1027,9 hPa 0,0 mm 2,5 km/h (1 Bft) O-NO 59 ° 0 min 0,000 mm 0,0 UV-I 0 W/m² -6,0 °C 4,8 km/h (1 Bft)
28.11.2016 19:43 -4,5 °C -4,5 °C 89 % 1027,9 hPa 0,0 mm 1,1 km/h (1 Bft) O-NO 59 ° 0 min 0,000 mm 0,0 UV-I 0 W/m² -6,0 °C 3,2 km/h (1 Bft)
28.11.2016 19:44 -4,5 °C -4,5 °C 89 % 1027,9 hPa 0,0 mm 1,0 km/h (0 Bft) O-NO 59 ° 0 min 0,000 mm 0,0 UV-I 0 W/m² -6,0 °C 3,2 km/h (1 Bft)
28.11.2016 19:45 -4,5 °C -4,5 °C 89 % 1027,9 hPa 0,0 mm 1,0 km/h (0 Bft) O-NO 59 ° 0 min 0,000 mm 0,0 UV-I 0 W/m² -6,0 °C 3,2 km/h (1 Bft)
28.11.2016 19:46 -4,6 °C -4,5 °C 89 % 1027,9 hPa 0,0 mm 0,5 km/h (0 Bft) O-NO 59 ° 0 min 0,000 mm 0,0 UV-I 0 W/m² -6,1 °C 3,2 km/h (1 Bft)
28.11.2016 19:47 -4,6 °C -4,6 °C 89 % 1027,9 hPa 0,0 mm 1,0 km/h (0 Bft) O-NO 59 ° 0 min 0,000 mm 0,0 UV-I 0 W/m² -6,1 °C 3,2 km/h (1 Bft)
28.11.2016 19:48 -4,6 °C -4,6 °C 89 % 1027,9 hPa 0,0 mm 0,8 km/h (0 Bft) O-NO 59 ° 0 min 0,000 mm 0,0 UV-I 0 W/m² -6,1 °C 1,6 km/h (1 Bft)
28.11.2016 19:49 -4,6 °C -4,6 °C 89 % 1027,9 hPa 0,0 mm 1,5 km/h (1 Bft) O-NO 59 ° 0 min 0,000 mm 0,0 UV-I 0 W/m² -6,1 °C 1,6 km/h (1 Bft)
28.11.2016 19:50 -4,6 °C -4,6 °C 89 % 1028,0 hPa 0,0 mm 0,2 km/h (0 Bft) O-NO 59 ° 0 min 0,000 mm 0,0 UV-I 0 W/m² -6,1 °C 1,6 km/h (1 Bft)
28.11.2016 19:51 -4,6 °C -4,6 °C 89 % 1027,9 hPa 0,0 mm 1,7 km/h (1 Bft) O-NO 59 ° 0 min 0,000 mm 0,0 UV-I 0 W/m² -6,1 °C 3,2 km/h (1 Bft)
28.11.2016 19:52 -4,7 °C -4,6 °C 89 % 1027,9 hPa 0,0 mm 0,8 km/h (0 Bft) O-NO 59 ° 0 min 0,000 mm 0,0 UV-I 0 W/m² -6,2 °C 3,2 km/h (1 Bft)
28.11.2016 19:53 -4,7 °C -4,6 °C 89 % 1027,9 hPa 0,0 mm 1,7 km/h (1 Bft) O-NO 59 ° 0 min 0,000 mm 0,0 UV-I 0 W/m² -6,2 °C 4,8 km/h (1 Bft)
28.11.2016 19:54 -4,7 °C -4,6 °C 89 % 1027,9 hPa 0,0 mm 0,8 km/h (0 Bft) O-NO 59 ° 0 min 0,000 mm 0,0 UV-I 0 W/m² -6,2 °C 3,2 km/h (1 Bft)
28.11.2016 19:55 -4,7 °C -4,7 °C 89 % 1027,9 hPa 0,0 mm 0,9 km/h (0 Bft) O-NO 59 ° 0 min 0,000 mm 0,0 UV-I 0 W/m² -6,2 °C 1,6 km/h (1 Bft)
28.11.2016 19:56 -4,7 °C -4,7 °C 89 % 1027,9 hPa 0,0 mm 1,3 km/h (1 Bft) O-NO 59 ° 0 min 0,000 mm 0,0 UV-I 0 W/m² -6,2 °C 3,2 km/h (1 Bft)
28.11.2016 19:57 -4,7 °C -4,7 °C 89 % 1027,9 hPa 0,0 mm 3,6 km/h (1 Bft) O-NO 59 ° 0 min 0,000 mm 0,0 UV-I 0 W/m² -6,2 °C 4,8 km/h (1 Bft)
28.11.2016 19:58 -4,7 °C -4,7 °C 89 % 1028,0 hPa 0,0 mm 1,5 km/h (1 Bft) O-NO 59 ° 0 min 0,000 mm 0,0 UV-I 0 W/m² -6,2 °C 3,2 km/h (1 Bft)
28.11.2016 19:59 -4,7 °C -4,7 °C 89 % 1027,9 hPa 0,0 mm 1,3 km/h (1 Bft) O-NO 59 ° 0 min 0,000 mm 0,0 UV-I 0 W/m² -6,2 °C 3,2 km/h (1 Bft)
28.11.2016 20:00 -4,7 °C -4,7 °C 89 % 1028,0 hPa 0,0 mm 0,7 km/h (0 Bft) O-NO 59 ° 0 min 0,000 mm 0,0 UV-I 0 W/m² -6,2 °C 1,6 km/h (1 Bft)
28.11.2016 20:01 -4,8 °C -4,7 °C 89 % 1027,9 hPa 0,0 mm 5,6 km/h (1 Bft) O-NO 58 ° 0 min 0,000 mm 0,0 UV-I 0 W/m² -6,3 °C 11,3 km/h (2 Bft)
28.11.2016 20:02 -4,8 °C -4,7 °C 89 % 1027,9 hPa 0,0 mm 2,9 km/h (1 Bft) O-NO 61 ° 0 min 0,000 mm 0,0 UV-I 0 W/m² -6,3 °C 4,8 km/h (1 Bft)
28.11.2016 20:03 -4,8 °C -4,8 °C 89 % 1028,0 hPa 0,0 mm 4,1 km/h (1 Bft) O-NO 57 ° 0 min 0,000 mm 0,0 UV-I 0 W/m² -6,3 °C 4,8 km/h (1 Bft)
28.11.2016 20:04 -4,8 °C -4,8 °C 89 % 1027,9 hPa 0,0 mm 2,9 km/h (1 Bft) O-NO 59 ° 0 min 0,000 mm 0,0 UV-I 0 W/m² -6,3 °C 4,8 km/h (1 Bft)
28.11.2016 20:05 -4,8 °C -4,8 °C 88 % 1028,1 hPa 0,0 mm 1,9 km/h (1 Bft) O-NO 59 ° 0 min 0,000 mm 0,0 UV-I 0 W/m² -6,5 °C 3,2 km/h (1 Bft)
28.11.2016 20:06 -4,8 °C -4,8 °C 89 % 1028,0 hPa 0,0 mm 3,3 km/h (1 Bft) NO 53 ° 0 min 0,000 mm 0,0 UV-I 0 W/m² -6,3 °C 4,8 km/h (1 Bft)
28.11.2016 20:07 -4,8 °C -4,8 °C 89 % 1028,0 hPa 0,0 mm 3,5 km/h (1 Bft) O-NO 58 ° 0 min 0,000 mm 0,0 UV-I 0 W/m² -6,3 °C 6,4 km/h (2 Bft)
28.11.2016 20:08 -4,9 °C -4,8 °C 89 % 1028,0 hPa 0,0 mm 2,1 km/h (1 Bft) O-NO 58 ° 0 min 0,000 mm 0,0 UV-I 0 W/m² -6,4 °C 3,2 km/h (1 Bft)
28.11.2016 20:09 -4,9 °C -4,8 °C 89 % 1028,0 hPa 0,0 mm 4,2 km/h (1 Bft) NO 46 ° 0 min 0,000 mm 0,0 UV-I 0 W/m² -6,4 °C 6,4 km/h (2 Bft)
28.11.2016 20:10 -4,9 °C -4,9 °C 89 % 1028,0 hPa 0,0 mm 1,7 km/h (1 Bft) NO 46 ° 0 min 0,000 mm 0,0 UV-I 0 W/m² -6,4 °C 3,2 km/h (1 Bft)
28.11.2016 20:11 -4,9 °C -4,9 °C 89 % 1028,0 hPa 0,0 mm 0,2 km/h (0 Bft) NO 46 ° 0 min 0,000 mm 0,0 UV-I 0 W/m² -6,4 °C 1,6 km/h (1 Bft)
28.11.2016 20:12 -4,9 °C -4,9 °C 89 % 1028,1 hPa 0,0 mm 3,0 km/h (1 Bft) NO 43 ° 0 min 0,000 mm 0,0 UV-I 0 W/m² -6,4 °C 4,8 km/h (1 Bft)
28.11.2016 20:13 -4,9 °C -4,9 °C 89 % 1028,1 hPa 0,0 mm 3,1 km/h (1 Bft) O-NO 64 ° 0 min 0,000 mm 0,0 UV-I 0 W/m² -6,4 °C 6,4 km/h (2 Bft)
28.11.2016 20:14 -4,9 °C -4,9 °C 89 % 1028,1 hPa 0,0 mm 1,2 km/h (1 Bft) O-NO 64 ° 0 min 0,000 mm 0,0 UV-I 0 W/m² -6,4 °C 1,6 km/h (1 Bft)
28.11.2016 20:15 -4,9 °C -4,9 °C 89 % 1028,2 hPa 0,0 mm 3,8 km/h (1 Bft) O 86 ° 0 min 0,000 mm 0,0 UV-I 0 W/m² -6,4 °C 6,4 km/h (2 Bft)
28.11.2016 20:16 -4,9 °C -4,9 °C 89 % 1028,2 hPa 0,0 mm 2,4 km/h (1 Bft) O-NO 74 ° 0 min 0,000 mm 0,0 UV-I 0 W/m² -6,4 °C 3,2 km/h (1 Bft)
28.11.2016 20:17 -5,0 °C -4,9 °C 89 % 1028,2 hPa 0,0 mm 2,7 km/h (1 Bft) O-NO 74 ° 0 min 0,000 mm 0,0 UV-I 0 W/m² -6,5 °C 4,8 km/h (1 Bft)
28.11.2016 20:18 -4,9 °C -4,9 °C 89 % 1028,2 hPa 0,0 mm 0,8 km/h (0 Bft) O-NO 74 ° 0 min 0,000 mm 0,0 UV-I 0 W/m² -6,4 °C 3,2 km/h (1 Bft)
28.11.2016 20:19 -5,0 °C -4,9 °C 89 % 1028,2 hPa 0,0 mm 2,9 km/h (1 Bft) O 80 ° 0 min 0,000 mm 0,0 UV-I 0 W/m² -6,5 °C 4,8 km/h (1 Bft)
28.11.2016 20:20 -5,0 °C -5,0 °C 89 % 1028,2 hPa 0,0 mm 2,7 km/h (1 Bft) O 80 ° 0 min 0,000 mm 0,0 UV-I 0 W/m² -6,5 °C 4,8 km/h (1 Bft)
28.11.2016 20:21 -5,1 °C -5,0 °C 89 % 1028,2 hPa 0,0 mm 3,0 km/h (1 Bft) O 80 ° 0 min 0,000 mm 0,0 UV-I 0 W/m² -6,6 °C 4,8 km/h (1 Bft)
28.11.2016 20:22 -5,1 °C -5,1 °C 89 % 1028,2 hPa 0,0 mm 0,3 km/h (0 Bft) O 80 ° 0 min 0,000 mm 0,0 UV-I 0 W/m² -6,6 °C 3,2 km/h (1 Bft)
28.11.2016 20:23 -5,1 °C -5,0 °C 89 % 1028,2 hPa 0,0 mm 1,6 km/h (1 Bft) O 80 ° 0 min 0,000 mm 0,0 UV-I 0 W/m² -6,6 °C 3,2 km/h (1 Bft)
28.11.2016 20:24 -5,1 °C -5,1 °C 89 % 1028,2 hPa 0,0 mm 0,2 km/h (0 Bft) O 80 ° 0 min 0,000 mm 0,0 UV-I 0 W/m² -6,6 °C 1,6 km/h (1 Bft)
28.11.2016 20:25 -5,1 °C -5,1 °C 89 % 1028,2 hPa 0,0 mm 0,8 km/h (0 Bft) O-NO 67 ° 0 min 0,000 mm 0,0 UV-I 0 W/m² -6,6 °C 3,2 km/h (1 Bft)
28.11.2016 20:26 -5,1 °C -5,1 °C 89 % 1028,2 hPa 0,0 mm 0,7 km/h (0 Bft) O-NO 66 ° 0 min 0,000 mm 0,0 UV-I 0 W/m² -6,6 °C 1,6 km/h (1 Bft)
28.11.2016 20:27 -5,1 °C -5,1 °C 89 % 1028,2 hPa 0,0 mm 1,8 km/h (1 Bft) O-NO 76 ° 0 min 0,000 mm 0,0 UV-I 0 W/m² -6,6 °C 4,8 km/h (1 Bft)
28.11.2016 20:28 -5,1 °C -5,1 °C 89 % 1028,2 hPa 0,0 mm 0,3 km/h (0 Bft) O-NO 76 ° 0 min 0,000 mm 0,0 UV-I 0 W/m² -6,6 °C 1,6 km/h (1 Bft)
28.11.2016 20:29 -5,1 °C -5,1 °C 90 % 1028,2 hPa 0,0 mm 0,9 km/h (0 Bft) O-NO 76 ° 0 min 0,000 mm 0,0 UV-I 0 W/m² -6,5 °C 3,2 km/h (1 Bft)
28.11.2016 20:30 -5,1 °C -5,1 °C 90 % 1028,2 hPa 0,0 mm 0,7 km/h (0 Bft) O 84 ° 0 min 0,000 mm 0,0 UV-I 0 W/m² -6,5 °C 3,2 km/h (1 Bft)
28.11.2016 20:31 -5,1 °C -5,1 °C 90 % 1028,3 hPa 0,0 mm 2,4 km/h (1 Bft) NO 51 ° 0 min 0,000 mm 0,0 UV-I 0 W/m² -6,5 °C 3,2 km/h (1 Bft)
28.11.2016 20:32 -5,2 °C -5,1 °C 89 % 1028,2 hPa 0,0 mm 2,6 km/h (1 Bft) NO 51 ° 0 min 0,000 mm 0,0 UV-I 0 W/m² -6,7 °C 4,8 km/h (1 Bft)
28.11.2016 20:33 -5,2 °C -5,1 °C 89 % 1028,3 hPa 0,0 mm 0,8 km/h (0 Bft) NO 51 ° 0 min 0,000 mm 0,0 UV-I 0 W/m² -6,7 °C 1,6 km/h (1 Bft)
28.11.2016 20:34 -5,2 °C -5,2 °C 90 % 1028,3 hPa 0,0 mm 0,3 km/h (0 Bft) NO 51 ° 0 min 0,000 mm 0,0 UV-I 0 W/m² -6,6 °C 1,6 km/h (1 Bft)
28.11.2016 20:35 -5,2 °C -5,2 °C 90 % 1028,3 hPa 0,0 mm 0,3 km/h (0 Bft) NO 51 ° 0 min 0,000 mm 0,0 UV-I 0 W/m² -6,6 °C 1,6 km/h (1 Bft)
28.11.2016 20:36 -5,2 °C -5,2 °C 90 % 1028,3 hPa 0,0 mm 2,5 km/h (1 Bft) SO 127 ° 0 min 0,000 mm 0,0 UV-I 0 W/m² -6,6 °C 4,8 km/h (1 Bft)
28.11.2016 20:37 -5,2 °C -5,2 °C 90 % 1028,3 hPa 0,0 mm 0,9 km/h (0 Bft) SO 127 ° 0 min 0,000 mm 0,0 UV-I 0 W/m² -6,6 °C 3,2 km/h (1 Bft)
28.11.2016 20:38 -5,2 °C -5,2 °C 90 % 1028,3 hPa 0,0 mm 0,0 km/h (0 Bft) SO 127 ° 0 min 0,000 mm 0,0 UV-I 0 W/m² -6,6 °C 0,0 km/h (0 Bft)
28.11.2016 20:39 -5,2 °C -5,2 °C 90 % 1028,3 hPa 0,0 mm 0,1 km/h (0 Bft) SO 127 ° 0 min 0,000 mm 0,0 UV-I 0 W/m² -6,6 °C 1,6 km/h (1 Bft)
28.11.2016 20:40 -5,2 °C -5,2 °C 90 % 1028,3 hPa 0,0 mm 3,6 km/h (1 Bft) O-SO 119 ° 0 min 0,000 mm 0,0 UV-I 0 W/m² -6,6 °C 4,8 km/h (1 Bft)
28.11.2016 20:41 -5,2 °C -5,2 °C 90 % 1028,3 hPa 0,0 mm 2,3 km/h (1 Bft) O 90 ° 0 min 0,000 mm 0,0 UV-I 0 W/m² -6,6 °C 3,2 km/h (1 Bft)
28.11.2016 20:42 -5,2 °C -5,2 °C 90 % 1028,4 hPa 0,0 mm 2,4 km/h (1 Bft) O 90 ° 0 min 0,000 mm 0,0 UV-I 0 W/m² -6,6 °C 3,2 km/h (1 Bft)
28.11.2016 20:43 -5,2 °C -5,2 °C 90 % 1028,4 hPa 0,0 mm 0,4 km/h (0 Bft) O 90 ° 0 min 0,000 mm 0,0 UV-I 0 W/m² -6,6 °C 1,6 km/h (1 Bft)
28.11.2016 20:44 -5,2 °C -5,2 °C 90 % 1028,4 hPa 0,0 mm 0,2 km/h (0 Bft) O 90 ° 0 min 0,000 mm 0,0 UV-I 0 W/m² -6,6 °C 1,6 km/h (1 Bft)
28.11.2016 20:45 -5,2 °C -5,2 °C 90 % 1028,4 hPa 0,0 mm 0,8 km/h (0 Bft) O 90 ° 0 min 0,000 mm 0,0 UV-I 0 W/m² -6,6 °C 3,2 km/h (1 Bft)
28.11.2016 20:46 -5,2 °C -5,2 °C 90 % 1028,4 hPa 0,0 mm 1,3 km/h (1 Bft) O 90 ° 0 min 0,000 mm 0,0 UV-I 0 W/m² -6,6 °C 3,2 km/h (1 Bft)
28.11.2016 20:47 -5,3 °C -5,2 °C 90 % 1028,4 hPa 0,0 mm 1,7 km/h (1 Bft) O-SO 113 ° 0 min 0,000 mm 0,0 UV-I 0 W/m² -6,7 °C 3,2 km/h (1 Bft)
28.11.2016 20:48 -5,3 °C -5,2 °C 90 % 1028,5 hPa 0,0 mm 3,4 km/h (1 Bft) NO 44 ° 0 min 0,000 mm 0,0 UV-I 0 W/m² -6,7 °C 6,4 km/h (2 Bft)
28.11.2016 20:49 -5,3 °C -5,3 °C 90 % 1028,5 hPa 0,0 mm 1,3 km/h (1 Bft) NO 44 ° 0 min 0,000 mm 0,0 UV-I 0 W/m² -6,7 °C 3,2 km/h (1 Bft)
28.11.2016 20:50 -5,3 °C -5,3 °C 90 % 1028,5 hPa 0,0 mm 0,4 km/h (0 Bft) NO 44 ° 0 min 0,000 mm 0,0 UV-I 0 W/m² -6,7 °C 1,6 km/h (1 Bft)
28.11.2016 20:51 -5,3 °C -5,3 °C 90 % 1028,5 hPa 0,0 mm 0,4 km/h (0 Bft) NO 44 ° 0 min 0,000 mm 0,0 UV-I 0 W/m² -6,7 °C 1,6 km/h (1 Bft)
28.11.2016 20:52 -5,3 °C -5,3 °C 90 % 1028,5 hPa 0,0 mm 0,0 km/h (0 Bft) NO 44 ° 0 min 0,000 mm 0,0 UV-I 0 W/m² -6,7 °C 0,0 km/h (0 Bft)
28.11.2016 20:53 -5,3 °C -5,3 °C 90 % 1028,5 hPa 0,0 mm 0,7 km/h (0 Bft) NO 44 ° 0 min 0,000 mm 0,0 UV-I 0 W/m² -6,7 °C 1,6 km/h (1 Bft)
28.11.2016 20:54 -5,3 °C -5,3 °C 90 % 1028,5 hPa 0,0 mm 1,0 km/h (0 Bft) NO 44 ° 0 min 0,000 mm 0,0 UV-I 0 W/m² -6,7 °C 1,6 km/h (1 Bft)
28.11.2016 20:55 -5,3 °C -5,3 °C 90 % 1028,5 hPa 0,0 mm 1,7 km/h (1 Bft) O 84 ° 0 min 0,000 mm 0,0 UV-I 0 W/m² -6,7 °C 3,2 km/h (1 Bft)
28.11.2016 20:56 -5,3 °C -5,3 °C 90 % 1028,6 hPa 0,0 mm 2,3 km/h (1 Bft) O 84 ° 0 min 0,000 mm 0,0 UV-I 0 W/m² -6,7 °C 3,2 km/h (1 Bft)
28.11.2016 20:57 -5,3 °C -5,3 °C 90 % 1028,5 hPa 0,0 mm 1,9 km/h (1 Bft) O 84 ° 0 min 0,000 mm 0,0 UV-I 0 W/m² -6,7 °C 3,2 km/h (1 Bft)
28.11.2016 20:58 -5,3 °C -5,3 °C 90 % 1028,5 hPa 0,0 mm 2,5 km/h (1 Bft) O 99 ° 0 min 0,000 mm 0,0 UV-I 0 W/m² -6,7 °C 3,2 km/h (1 Bft)
28.11.2016 20:59 -5,3 °C -5,3 °C 90 % 1028,5 hPa 0,0 mm 1,3 km/h (1 Bft) O 99 ° 0 min 0,000 mm 0,0 UV-I 0 W/m² -6,7 °C 3,2 km/h (1 Bft)
28.11.2016 21:00 -5,3 °C -5,3 °C 90 % 1028,5 hPa 0,0 mm 1,3 km/h (1 Bft) O 99 ° 0 min 0,000 mm 0,0 UV-I 0 W/m² -6,7 °C 3,2 km/h (1 Bft)
28.11.2016 21:01 -5,3 °C -5,3 °C 90 % 1028,6 hPa 0,0 mm 0,7 km/h (0 Bft) O 99 ° 0 min 0,000 mm 0,0 UV-I 0 W/m² -6,7 °C 1,6 km/h (1 Bft)
28.11.2016 21:02 -5,3 °C -5,3 °C 90 % 1028,6 hPa 0,0 mm 1,2 km/h (1 Bft) O 89 ° 0 min 0,000 mm 0,0 UV-I 0 W/m² -6,7 °C 3,2 km/h (1 Bft)
28.11.2016 21:03 -5,3 °C -5,3 °C 90 % 1028,5 hPa 0,0 mm 0,9 km/h (0 Bft) O 89 ° 0 min 0,000 mm 0,0 UV-I 0 W/m² -6,7 °C 1,6 km/h (1 Bft)
28.11.2016 21:04 -5,4 °C -5,3 °C 90 % 1028,6 hPa 0,0 mm 0,6 km/h (0 Bft) O 89 ° 0 min 0,000 mm 0,0 UV-I 0 W/m² -6,8 °C 3,2 km/h (1 Bft)
28.11.2016 21:05 -5,3 °C -5,3 °C 90 % 1028,7 hPa 0,0 mm 2,7 km/h (1 Bft) O 80 ° 0 min 0,000 mm 0,0 UV-I 0 W/m² -6,7 °C 4,8 km/h (1 Bft)
28.11.2016 21:06 -5,4 °C -5,3 °C 90 % 1028,6 hPa 0,0 mm 0,3 km/h (0 Bft) O 80 ° 0 min 0,000 mm 0,0 UV-I 0 W/m² -6,8 °C 1,6 km/h (1 Bft)
28.11.2016 21:07 -5,4 °C -5,4 °C 90 % 1028,7 hPa 0,0 mm 0,0 km/h (0 Bft) O 80 ° 0 min 0,000 mm 0,0 UV-I 0 W/m² -6,8 °C 0,0 km/h (0 Bft)
28.11.2016 21:08 -5,4 °C -5,4 °C 90 % 1028,6 hPa 0,0 mm 0,0 km/h (0 Bft) O 80 ° 0 min 0,000 mm 0,0 UV-I 0 W/m² -6,8 °C 0,0 km/h (0 Bft)
28.11.2016 21:09 -5,4 °C -5,4 °C 90 % 1028,7 hPa 0,0 mm 0,0 km/h (0 Bft) O 80 ° 0 min 0,000 mm 0,0 UV-I 0 W/m² -6,8 °C 0,0 km/h (0 Bft)
28.11.2016 21:10 -5,4 °C -5,4 °C 90 % 1028,7 hPa 0,0 mm 0,2 km/h (0 Bft) O 80 ° 0 min 0,000 mm 0,0 UV-I 0 W/m² -6,8 °C 1,6 km/h (1 Bft)
28.11.2016 21:11 -5,4 °C -5,4 °C 90 % 1028,6 hPa 0,0 mm 0,7 km/h (0 Bft) O 80 ° 0 min 0,000 mm 0,0 UV-I 0 W/m² -6,8 °C 1,6 km/h (1 Bft)
28.11.2016 21:12 -5,4 °C -5,4 °C 90 % 1028,8 hPa 0,0 mm 1,4 km/h (1 Bft) O 80 ° 0 min 0,000 mm 0,0 UV-I 0 W/m² -6,8 °C 1,6 km/h (1 Bft)
28.11.2016 21:13 -5,4 °C -5,4 °C 90 % 1028,8 hPa 0,0 mm 1,0 km/h (0 Bft) O 80 ° 0 min 0,000 mm 0,0 UV-I 0 W/m² -6,8 °C 1,6 km/h (1 Bft)
28.11.2016 21:14 -5,4 °C -5,4 °C 90 % 1028,8 hPa 0,0 mm 0,2 km/h (0 Bft) O 80 ° 0 min 0,000 mm 0,0 UV-I 0 W/m² -6,8 °C 1,6 km/h (1 Bft)
28.11.2016 21:15 -5,4 °C -5,4 °C 90 % 1028,8 hPa 0,0 mm 0,1 km/h (0 Bft) O 80 ° 0 min 0,000 mm 0,0 UV-I 0 W/m² -6,8 °C 1,6 km/h (1 Bft)
28.11.2016 21:16 -5,4 °C -5,4 °C 91 % 1028,8 hPa 0,0 mm 1,2 km/h (1 Bft) O 80 ° 0 min 0,000 mm 0,0 UV-I 0 W/m² -6,6 °C 1,6 km/h (1 Bft)
28.11.2016 21:17 -5,4 °C -5,4 °C 90 % 1028,8 hPa 0,0 mm 0,0 km/h (0 Bft) O 80 ° 0 min 0,000 mm 0,0 UV-I 0 W/m² -6,8 °C 0,0 km/h (0 Bft)
28.11.2016 21:18 -5,4 °C -5,4 °C 90 % 1028,8 hPa 0,0 mm 0,1 km/h (0 Bft) O 80 ° 0 min 0,000 mm 0,0 UV-I 0 W/m² -6,8 °C 1,6 km/h (1 Bft)
28.11.2016 21:19 -5,5 °C -5,4 °C 90 % 1028,8 hPa 0,0 mm 0,6 km/h (0 Bft) O 80 ° 0 min 0,000 mm 0,0 UV-I 0 W/m² -6,9 °C 1,6 km/h (1 Bft)
28.11.2016 21:20 -5,4 °C -5,4 °C 90 % 1028,8 hPa 0,0 mm 2,3 km/h (1 Bft) O 80 ° 0 min 0,000 mm 0,0 UV-I 0 W/m² -6,8 °C 3,2 km/h (1 Bft)
28.11.2016 21:21 -5,5 °C -5,4 °C 90 % 1028,8 hPa 0,0 mm 0,6 km/h (0 Bft) O 99 ° 0 min 0,000 mm 0,0 UV-I 0 W/m² -6,9 °C 3,2 km/h (1 Bft)
28.11.2016 21:22 -5,5 °C -5,5 °C 90 % 1028,8 hPa 0,0 mm 4,4 km/h (1 Bft) O-SO 109 ° 0 min 0,000 mm 0,0 UV-I 0 W/m² -6,9 °C 6,4 km/h (2 Bft)
28.11.2016 21:23 -5,5 °C -5,5 °C 90 % 1028,8 hPa 0,0 mm 3,4 km/h (1 Bft) O-NO 76 ° 0 min 0,000 mm 0,0 UV-I 0 W/m² -6,9 °C 4,8 km/h (1 Bft)
28.11.2016 21:24 -5,6 °C -5,5 °C 90 % 1028,8 hPa 0,0 mm 0,5 km/h (0 Bft) O-NO 76 ° 0 min 0,000 mm 0,0 UV-I 0 W/m² -7,0 °C 3,2 km/h (1 Bft)
28.11.2016 21:25 -5,6 °C -5,6 °C 90 % 1028,8 hPa 0,0 mm 0,6 km/h (0 Bft) O-NO 76 ° 0 min 0,000 mm 0,0 UV-I 0 W/m² -7,0 °C 1,6 km/h (1 Bft)
28.11.2016 21:26 -5,6 °C -5,6 °C 90 % 1028,8 hPa 0,0 mm 2,7 km/h (1 Bft) O-SO 112 ° 0 min 0,000 mm 0,0 UV-I 0 W/m² -7,0 °C 4,8 km/h (1 Bft)
28.11.2016 21:27 -5,6 °C -5,6 °C 90 % 1028,8 hPa 0,0 mm 0,9 km/h (0 Bft) O-SO 112 ° 0 min 0,000 mm 0,0 UV-I 0 W/m² -7,0 °C 3,2 km/h (1 Bft)
28.11.2016 21:28 -5,6 °C -5,6 °C 90 % 1028,8 hPa 0,0 mm 1,3 km/h (1 Bft) O-SO 112 ° 0 min 0,000 mm 0,0 UV-I 0 W/m² -7,0 °C 3,2 km/h (1 Bft)
28.11.2016 21:29 -5,6 °C -5,6 °C 90 % 1028,8 hPa 0,0 mm 0,3 km/h (0 Bft) O-SO 112 ° 0 min 0,000 mm 0,0 UV-I 0 W/m² -7,0 °C 1,6 km/h (1 Bft)
28.11.2016 21:30 -5,6 °C -5,6 °C 90 % 1028,8 hPa 0,0 mm 1,0 km/h (0 Bft) O-SO 112 ° 0 min 0,000 mm 0,0 UV-I 0 W/m² -7,0 °C 3,2 km/h (1 Bft)
28.11.2016 21:31 -5,6 °C -5,6 °C 90 % 1028,8 hPa 0,0 mm 2,5 km/h (1 Bft) O-SO 112 ° 0 min 0,000 mm 0,0 UV-I 0 W/m² -7,0 °C 3,2 km/h (1 Bft)
28.11.2016 21:32 -5,6 °C -5,6 °C 90 % 1028,8 hPa 0,0 mm 0,9 km/h (0 Bft) O-SO 112 ° 0 min 0,000 mm 0,0 UV-I 0 W/m² -7,0 °C 3,2 km/h (1 Bft)
28.11.2016 21:33 -5,6 °C -5,6 °C 91 % 1028,8 hPa 0,0 mm 1,0 km/h (0 Bft) O-SO 112 ° 0 min 0,000 mm 0,0 UV-I 0 W/m² -6,8 °C 1,6 km/h (1 Bft)
28.11.2016 21:34 -5,6 °C -5,6 °C 91 % 1028,9 hPa 0,0 mm 1,6 km/h (1 Bft) O-NO 63 ° 0 min 0,000 mm 0,0 UV-I 0 W/m² -6,8 °C 3,2 km/h (1 Bft)
28.11.2016 21:35 -5,7 °C -5,6 °C 91 % 1028,8 hPa 0,0 mm 1,1 km/h (1 Bft) O-NO 63 ° 0 min 0,000 mm 0,0 UV-I 0 W/m² -6,9 °C 1,6 km/h (1 Bft)
28.11.2016 21:36 -5,7 °C -5,6 °C 91 % 1028,8 hPa 0,0 mm 1,8 km/h (1 Bft) O 91 ° 0 min 0,000 mm 0,0 UV-I 0 W/m² -6,9 °C 3,2 km/h (1 Bft)
28.11.2016 21:37 -5,7 °C -5,7 °C 91 % 1028,8 hPa 0,0 mm 1,2 km/h (1 Bft) O 91 ° 0 min 0,000 mm 0,0 UV-I 0 W/m² -6,9 °C 3,2 km/h (1 Bft)
28.11.2016 21:38 -5,7 °C -5,7 °C 91 % 1028,8 hPa 0,0 mm 2,2 km/h (1 Bft) O 91 ° 0 min 0,000 mm 0,0 UV-I 0 W/m² -6,9 °C 3,2 km/h (1 Bft)
28.11.2016 21:39 -5,7 °C -5,7 °C 91 % 1028,8 hPa 0,0 mm 1,6 km/h (1 Bft) O 91 ° 0 min 0,000 mm 0,0 UV-I 0 W/m² -6,9 °C 3,2 km/h (1 Bft)
28.11.2016 21:40 -5,7 °C -5,7 °C 91 % 1028,9 hPa 0,0 mm 0,5 km/h (0 Bft) O 91 ° 0 min 0,000 mm 0,0 UV-I 0 W/m² -6,9 °C 1,6 km/h (1 Bft)
28.11.2016 21:41 -5,7 °C -5,7 °C 91 % 1028,9 hPa 0,0 mm 0,8 km/h (0 Bft) O 91 ° 0 min 0,000 mm 0,0 UV-I 0 W/m² -6,9 °C 3,2 km/h (1 Bft)
28.11.2016 21:42 -5,7 °C -5,7 °C 91 % 1028,8 hPa 0,0 mm 1,6 km/h (1 Bft) O 91 ° 0 min 0,000 mm 0,0 UV-I 0 W/m² -6,9 °C 3,2 km/h (1 Bft)
28.11.2016 21:43 -5,7 °C -5,7 °C 91 % 1028,9 hPa 0,0 mm 1,5 km/h (1 Bft) O 91 ° 0 min 0,000 mm 0,0 UV-I 0 W/m² -6,9 °C 1,6 km/h (1 Bft)
28.11.2016 21:44 -5,7 °C -5,7 °C 91 % 1028,9 hPa 0,0 mm 0,9 km/h (0 Bft) O 91 ° 0 min 0,000 mm 0,0 UV-I 0 W/m² -6,9 °C 1,6 km/h (1 Bft)
28.11.2016 21:45 -5,7 °C -5,7 °C 91 % 1028,9 hPa 0,0 mm 0,1 km/h (0 Bft) O 91 ° 0 min 0,000 mm 0,0 UV-I 0 W/m² -6,9 °C 1,6 km/h (1 Bft)
28.11.2016 21:46 -5,7 °C -5,7 °C 91 % 1028,9 hPa 0,0 mm 2,5 km/h (1 Bft) O 91 ° 0 min 0,000 mm 0,0 UV-I 0 W/m² -6,9 °C 4,8 km/h (1 Bft)
28.11.2016 21:47 -5,7 °C -5,7 °C 91 % 1028,8 hPa 0,0 mm 2,5 km/h (1 Bft) O 88 ° 0 min 0,000 mm 0,0 UV-I 0 W/m² -6,9 °C 4,8 km/h (1 Bft)
28.11.2016 21:48 -5,7 °C -5,7 °C 91 % 1028,9 hPa 0,0 mm 1,0 km/h (0 Bft) O 88 ° 0 min 0,000 mm 0,0 UV-I 0 W/m² -6,9 °C 3,2 km/h (1 Bft)
28.11.2016 21:49 -5,8 °C -5,7 °C 91 % 1028,9 hPa 0,0 mm 1,3 km/h (1 Bft) O 88 ° 0 min 0,000 mm 0,0 UV-I 0 W/m² -7,0 °C 1,6 km/h (1 Bft)
28.11.2016 21:50 -5,8 °C -5,7 °C 91 % 1028,9 hPa 0,0 mm 1,3 km/h (1 Bft) O 88 ° 0 min 0,000 mm 0,0 UV-I 0 W/m² -7,0 °C 3,2 km/h (1 Bft)
28.11.2016 21:51 -5,8 °C -5,8 °C 91 % 1028,8 hPa 0,0 mm 0,1 km/h (0 Bft) O 88 ° 0 min 0,000 mm 0,0 UV-I 0 W/m² -7,0 °C 1,6 km/h (1 Bft)
28.11.2016 21:52 -5,8 °C -5,7 °C 91 % 1028,8 hPa 0,0 mm 2,7 km/h (1 Bft) O-NO 72 ° 0 min 0,000 mm 0,0 UV-I 0 W/m² -7,0 °C 4,8 km/h (1 Bft)
28.11.2016 21:53 -5,8 °C -5,8 °C 91 % 1028,8 hPa 0,0 mm 0,3 km/h (0 Bft) O-NO 72 ° 0 min 0,000 mm 0,0 UV-I 0 W/m² -7,0 °C 1,6 km/h (1 Bft)
28.11.2016 21:54 -5,8 °C -5,8 °C 91 % 1028,8 hPa 0,0 mm 0,0 km/h (0 Bft) O-NO 72 ° 0 min 0,000 mm 0,0 UV-I 0 W/m² -7,0 °C 0,0 km/h (0 Bft)
28.11.2016 21:55 -5,8 °C -5,8 °C 91 % 1028,8 hPa 0,0 mm 0,3 km/h (0 Bft) O-NO 72 ° 0 min 0,000 mm 0,0 UV-I 0 W/m² -7,0 °C 1,6 km/h (1 Bft)
28.11.2016 21:56 -5,8 °C -5,8 °C 91 % 1028,9 hPa 0,0 mm 0,3 km/h (0 Bft) O-NO 72 ° 0 min 0,000 mm 0,0 UV-I 0 W/m² -7,0 °C 1,6 km/h (1 Bft)
28.11.2016 21:57 -5,8 °C -5,7 °C 91 % 1028,9 hPa 0,0 mm 0,6 km/h (0 Bft) O-NO 72 ° 0 min 0,000 mm 0,0 UV-I 0 W/m² -7,0 °C 1,6 km/h (1 Bft)
28.11.2016 21:58 -5,8 °C -5,8 °C 91 % 1028,9 hPa 0,0 mm 0,9 km/h (0 Bft) O-NO 71 ° 0 min 0,000 mm 0,0 UV-I 0 W/m² -7,0 °C 3,2 km/h (1 Bft)
28.11.2016 21:59 -5,8 °C -5,8 °C 91 % 1028,9 hPa 0,0 mm 0,3 km/h (0 Bft) O-NO 71 ° 0 min 0,000 mm 0,0 UV-I 0 W/m² -7,0 °C 1,6 km/h (1 Bft)
28.11.2016 22:00 -5,8 °C -5,8 °C 91 % 1028,9 hPa 0,0 mm 0,7 km/h (0 Bft) O-NO 71 ° 0 min 0,000 mm 0,0 UV-I 0 W/m² -7,0 °C 1,6 km/h (1 Bft)
28.11.2016 22:01 -5,8 °C -5,8 °C 91 % 1028,9 hPa 0,0 mm 1,1 km/h (1 Bft) O-NO 71 ° 0 min 0,000 mm 0,0 UV-I 0 W/m² -7,0 °C 1,6 km/h (1 Bft)
28.11.2016 22:02 -5,8 °C -5,8 °C 91 % 1028,9 hPa 0,0 mm 0,2 km/h (0 Bft) O-NO 71 ° 0 min 0,000 mm 0,0 UV-I 0 W/m² -7,0 °C 1,6 km/h (1 Bft)
28.11.2016 22:03 -5,8 °C -5,8 °C 91 % 1029,0 hPa 0,0 mm 0,2 km/h (0 Bft) O-NO 71 ° 0 min 0,000 mm 0,0 UV-I 0 W/m² -7,0 °C 1,6 km/h (1 Bft)
28.11.2016 22:04 -5,8 °C -5,8 °C 91 % 1028,9 hPa 0,0 mm 0,1 km/h (0 Bft) O-NO 71 ° 0 min 0,000 mm 0,0 UV-I 0 W/m² -7,0 °C 1,6 km/h (1 Bft)
28.11.2016 22:05 -5,8 °C -5,8 °C 91 % 1029,0 hPa 0,0 mm 2,5 km/h (1 Bft) O-SO 122 ° 0 min 0,000 mm 0,0 UV-I 0 W/m² -7,0 °C 4,8 km/h (1 Bft)
28.11.2016 22:06 -5,8 °C -5,8 °C 91 % 1029,0 hPa 0,0 mm 0,3 km/h (0 Bft) O-SO 122 ° 0 min 0,000 mm 0,0 UV-I 0 W/m² -7,0 °C 1,6 km/h (1 Bft)
28.11.2016 22:07 -5,8 °C -5,8 °C 91 % 1029,0 hPa 0,0 mm 0,3 km/h (0 Bft) O-SO 122 ° 0 min 0,000 mm 0,0 UV-I 0 W/m² -7,0 °C 1,6 km/h (1 Bft)
28.11.2016 22:08 -5,8 °C -5,8 °C 91 % 1028,9 hPa 0,0 mm 0,9 km/h (0 Bft) O-SO 122 ° 0 min 0,000 mm 0,0 UV-I 0 W/m² -7,0 °C 1,6 km/h (1 Bft)
28.11.2016 22:09 -5,8 °C -5,8 °C 91 % 1029,0 hPa 0,0 mm 0,2 km/h (0 Bft) O-SO 122 ° 0 min 0,000 mm 0,0 UV-I 0 W/m² -7,0 °C 1,6 km/h (1 Bft)
28.11.2016 22:10 -5,8 °C -5,8 °C 91 % 1029,0 hPa 0,0 mm 0,1 km/h (0 Bft) O-SO 122 ° 0 min 0,000 mm 0,0 UV-I 0 W/m² -7,0 °C 1,6 km/h (1 Bft)
28.11.2016 22:11 -5,9 °C -5,8 °C 91 % 1029,0 hPa 0,0 mm 0,7 km/h (0 Bft) O-SO 122 ° 0 min 0,000 mm 0,0 UV-I 0 W/m² -7,1 °C 1,6 km/h (1 Bft)
28.11.2016 22:12 -5,9 °C -5,8 °C 91 % 1029,0 hPa 0,0 mm 0,0 km/h (0 Bft) O-SO 122 ° 0 min 0,000 mm 0,0 UV-I 0 W/m² -7,1 °C 0,0 km/h (0 Bft)
28.11.2016 22:13 -5,9 °C -5,9 °C 91 % 1029,0 hPa 0,0 mm 0,0 km/h (0 Bft) O-SO 122 ° 0 min 0,000 mm 0,0 UV-I 0 W/m² -7,1 °C 0,0 km/h (0 Bft)
28.11.2016 22:14 -5,9 °C -5,9 °C 91 % 1029,0 hPa 0,0 mm 1,0 km/h (0 Bft) O-SO 122 ° 0 min 0,000 mm 0,0 UV-I 0 W/m² -7,1 °C 3,2 km/h (1 Bft)
28.11.2016 22:15 -5,9 °C -5,9 °C 91 % 1029,0 hPa 0,0 mm 1,3 km/h (1 Bft) O-SO 122 ° 0 min 0,000 mm 0,0 UV-I 0 W/m² -7,1 °C 3,2 km/h (1 Bft)
28.11.2016 22:16 -5,9 °C -5,9 °C 91 % 1029,0 hPa 0,0 mm 0,7 km/h (0 Bft) O-SO 122 ° 0 min 0,000 mm 0,0 UV-I 0 W/m² -7,1 °C 1,6 km/h (1 Bft)
28.11.2016 22:17 -5,9 °C -5,9 °C 91 % 1029,0 hPa 0,0 mm 4,6 km/h (1 Bft) NO 49 ° 0 min 0,000 mm 0,0 UV-I 0 W/m² -7,1 °C 6,4 km/h (2 Bft)
28.11.2016 22:18 -5,9 °C -5,9 °C 91 % 1029,0 hPa 0,0 mm 3,6 km/h (1 Bft) O-SO 118 ° 0 min 0,000 mm 0,0 UV-I 0 W/m² -7,1 °C 4,8 km/h (1 Bft)
28.11.2016 22:19 -5,9 °C -5,9 °C 92 % 1029,0 hPa 0,0 mm 1,6 km/h (1 Bft) S-SO 162 ° 0 min 0,000 mm 0,0 UV-I 0 W/m² -7,0 °C 3,2 km/h (1 Bft)
28.11.2016 22:20 -5,9 °C -5,9 °C 92 % 1028,9 hPa 0,0 mm 2,4 km/h (1 Bft) O 80 ° 0 min 0,000 mm 0,0 UV-I 0 W/m² -7,0 °C 4,8 km/h (1 Bft)
28.11.2016 22:21 -5,9 °C -5,9 °C 92 % 1028,9 hPa 0,0 mm 0,3 km/h (0 Bft) O 81 ° 0 min 0,000 mm 0,0 UV-I 0 W/m² -7,0 °C 1,6 km/h (1 Bft)
28.11.2016 22:22 -5,9 °C -5,9 °C 92 % 1028,9 hPa 0,0 mm 1,0 km/h (0 Bft) O 98 ° 0 min 0,000 mm 0,0 UV-I 0 W/m² -7,0 °C 4,8 km/h (1 Bft)
28.11.2016 22:23 -5,9 °C -5,9 °C 92 % 1029,0 hPa 0,0 mm 3,3 km/h (1 Bft) O 101 ° 0 min 0,000 mm 0,0 UV-I 0 W/m² -7,0 °C 4,8 km/h (1 Bft)
28.11.2016 22:24 -5,9 °C -5,9 °C 92 % 1029,0 hPa 0,0 mm 2,7 km/h (1 Bft) S 183 ° 0 min 0,000 mm 0,0 UV-I 0 W/m² -7,0 °C 4,8 km/h (1 Bft)
28.11.2016 22:25 -5,9 °C -5,9 °C 92 % 1028,9 hPa 0,0 mm 2,3 km/h (1 Bft) S 180 ° 0 min 0,000 mm 0,0 UV-I 0 W/m² -7,0 °C 3,2 km/h (1 Bft)
28.11.2016 22:26 -5,9 °C -5,9 °C 92 % 1029,0 hPa 0,0 mm 1,3 km/h (1 Bft) S 180 ° 0 min 0,000 mm 0,0 UV-I 0 W/m² -7,0 °C 1,6 km/h (1 Bft)
28.11.2016 22:27 -5,9 °C -5,9 °C 92 % 1028,9 hPa 0,0 mm 1,2 km/h (1 Bft) S-SO 157 ° 0 min 0,000 mm 0,0 UV-I 0 W/m² -7,0 °C 3,2 km/h (1 Bft)
28.11.2016 22:28 -5,9 °C -5,9 °C 92 % 1029,0 hPa 0,0 mm 1,4 km/h (1 Bft) S-SO 157 ° 0 min 0,000 mm 0,0 UV-I 0 W/m² -7,0 °C 3,2 km/h (1 Bft)
28.11.2016 22:29 -5,9 °C -5,9 °C 92 % 1029,0 hPa 0,0 mm 0,3 km/h (0 Bft) S-SO 157 ° 0 min 0,000 mm 0,0 UV-I 0 W/m² -7,0 °C 1,6 km/h (1 Bft)
28.11.2016 22:30 -5,9 °C -5,9 °C 92 % 1028,9 hPa 0,0 mm 1,0 km/h (0 Bft) S-SO 157 ° 0 min 0,000 mm 0,0 UV-I 0 W/m² -7,0 °C 1,6 km/h (1 Bft)
28.11.2016 22:31 -5,9 °C -5,9 °C 92 % 1029,0 hPa 0,0 mm 1,4 km/h (1 Bft) S-SO 157 ° 0 min 0,000 mm 0,0 UV-I 0 W/m² -7,0 °C 3,2 km/h (1 Bft)
28.11.2016 22:32 -5,9 °C -5,9 °C 92 % 1029,0 hPa 0,0 mm 0,7 km/h (0 Bft) S-SO 157 ° 0 min 0,000 mm 0,0 UV-I 0 W/m² -7,0 °C 1,6 km/h (1 Bft)
28.11.2016 22:33 -5,9 °C -5,9 °C 92 % 1029,0 hPa 0,0 mm 0,6 km/h (0 Bft) S-SO 157 ° 0 min 0,000 mm 0,0 UV-I 0 W/m² -7,0 °C 1,6 km/h (1 Bft)
28.11.2016 22:34 -5,9 °C -5,9 °C 92 % 1029,0 hPa 0,0 mm 0,1 km/h (0 Bft) S-SO 157 ° 0 min 0,000 mm 0,0 UV-I 0 W/m² -7,0 °C 1,6 km/h (1 Bft)
28.11.2016 22:35 -6,0 °C -5,9 °C 92 % 1029,0 hPa 0,0 mm 1,0 km/h (0 Bft) S-SO 157 ° 0 min 0,000 mm 0,0 UV-I 0 W/m² -7,1 °C 1,6 km/h (1 Bft)
28.11.2016 22:36 -5,9 °C -5,9 °C 92 % 1029,0 hPa 0,0 mm 2,3 km/h (1 Bft) SO 130 ° 0 min 0,000 mm 0,0 UV-I 0 W/m² -7,0 °C 3,2 km/h (1 Bft)
28.11.2016 22:37 -6,0 °C -5,9 °C 92 % 1029,1 hPa 0,0 mm 1,2 km/h (1 Bft) SO 130 ° 0 min 0,000 mm 0,0 UV-I 0 W/m² -7,1 °C 3,2 km/h (1 Bft)
28.11.2016 22:38 -6,0 °C -5,9 °C 92 % 1029,1 hPa 0,0 mm 3,4 km/h (1 Bft) O-SO 103 ° 0 min 0,000 mm 0,0 UV-I 0 W/m² -7,1 °C 6,4 km/h (2 Bft)
28.11.2016 22:39 -6,0 °C -6,0 °C 92 % 1029,0 hPa 0,0 mm 2,9 km/h (1 Bft) O 99 ° 0 min 0,000 mm 0,0 UV-I 0 W/m² -7,1 °C 4,8 km/h (1 Bft)
28.11.2016 22:40 -6,0 °C -5,9 °C 92 % 1029,1 hPa 0,0 mm 1,1 km/h (1 Bft) O 99 ° 0 min 0,000 mm 0,0 UV-I 0 W/m² -7,1 °C 1,6 km/h (1 Bft)
28.11.2016 22:41 -6,0 °C -6,0 °C 92 % 1029,0 hPa 0,0 mm 0,0 km/h (0 Bft) O 100 ° 0 min 0,000 mm 0,0 UV-I 0 W/m² -7,1 °C 0,0 km/h (0 Bft)
28.11.2016 22:42 -6,0 °C -6,0 °C 92 % 1029,0 hPa 0,0 mm 0,2 km/h (0 Bft) O 100 ° 0 min 0,000 mm 0,0 UV-I 0 W/m² -7,1 °C 1,6 km/h (1 Bft)
28.11.2016 22:43 -6,0 °C -6,0 °C 92 % 1029,1 hPa 0,0 mm 2,2 km/h (1 Bft) O-NO 72 ° 0 min 0,000 mm 0,0 UV-I 0 W/m² -7,1 °C 4,8 km/h (1 Bft)
28.11.2016 22:44 -6,0 °C -6,0 °C 92 % 1029,1 hPa 0,0 mm 3,6 km/h (1 Bft) NO 44 ° 0 min 0,000 mm 0,0 UV-I 0 W/m² -7,1 °C 4,8 km/h (1 Bft)
28.11.2016 22:45 -6,0 °C -6,0 °C 92 % 1029,1 hPa 0,0 mm 1,1 km/h (1 Bft) NO 44 ° 0 min 0,000 mm 0,0 UV-I 0 W/m² -7,1 °C 3,2 km/h (1 Bft)
28.11.2016 22:46 -6,0 °C -6,0 °C 92 % 1029,1 hPa 0,0 mm 0,7 km/h (0 Bft) NO 44 ° 0 min 0,000 mm 0,0 UV-I 0 W/m² -7,1 °C 1,6 km/h (1 Bft)
28.11.2016 22:47 -6,0 °C -6,0 °C 92 % 1029,1 hPa 0,0 mm 3,4 km/h (1 Bft) O-NO 63 ° 0 min 0,000 mm 0,0 UV-I 0 W/m² -7,1 °C 6,4 km/h (2 Bft)
28.11.2016 22:48 -6,0 °C -6,0 °C 92 % 1029,1 hPa 0,0 mm 2,7 km/h (1 Bft) O-NO 63 ° 0 min 0,000 mm 0,0 UV-I 0 W/m² -7,1 °C 4,8 km/h (1 Bft)
28.11.2016 22:49 -6,0 °C -6,0 °C 92 % 1029,1 hPa 0,0 mm 1,5 km/h (1 Bft) O-NO 63 ° 0 min 0,000 mm 0,0 UV-I 0 W/m² -7,1 °C 3,2 km/h (1 Bft)
28.11.2016 22:50 -6,1 °C -6,0 °C 92 % 1029,1 hPa 0,0 mm 2,1 km/h (1 Bft) O-NO 63 ° 0 min 0,000 mm 0,0 UV-I 0 W/m² -7,2 °C 3,2 km/h (1 Bft)
28.11.2016 22:51 -6,1 °C -6,0 °C 92 % 1029,2 hPa 0,0 mm 1,1 km/h (1 Bft) O-NO 63 ° 0 min 0,000 mm 0,0 UV-I 0 W/m² -7,2 °C 3,2 km/h (1 Bft)
28.11.2016 22:52 -6,1 °C -6,0 °C 92 % 1029,2 hPa 0,0 mm 0,6 km/h (0 Bft) O-NO 63 ° 0 min 0,000 mm 0,0 UV-I 0 W/m² -7,2 °C 1,6 km/h (1 Bft)
28.11.2016 22:53 -6,1 °C -6,0 °C 92 % 1029,2 hPa 0,0 mm 0,8 km/h (0 Bft) O-NO 63 ° 0 min 0,000 mm 0,0 UV-I 0 W/m² -7,2 °C 1,6 km/h (1 Bft)
28.11.2016 22:54 -6,0 °C -6,0 °C 92 % 1029,3 hPa 0,0 mm 0,4 km/h (0 Bft) O-NO 63 ° 0 min 0,000 mm 0,0 UV-I 0 W/m² -7,1 °C 3,2 km/h (1 Bft)
28.11.2016 22:55 -6,1 °C -6,0 °C 91 % 1029,3 hPa 0,0 mm 1,0 km/h (0 Bft) O-NO 65 ° 0 min 0,000 mm 0,0 UV-I 0 W/m² -7,3 °C 4,8 km/h (1 Bft)
28.11.2016 22:56 -6,1 °C -6,0 °C 91 % 1029,2 hPa 0,0 mm 0,9 km/h (0 Bft) O-NO 65 ° 0 min 0,000 mm 0,0 UV-I 0 W/m² -7,3 °C 4,8 km/h (1 Bft)
28.11.2016 22:57 -6,1 °C -6,1 °C 91 % 1029,2 hPa 0,0 mm 0,7 km/h (0 Bft) O-NO 65 ° 0 min 0,000 mm 0,0 UV-I 0 W/m² -7,3 °C 3,2 km/h (1 Bft)
28.11.2016 22:58 -6,1 °C -6,1 °C 91 % 1029,3 hPa 0,0 mm 1,5 km/h (1 Bft) O-NO 65 ° 0 min 0,000 mm 0,0 UV-I 0 W/m² -7,3 °C 1,6 km/h (1 Bft)
28.11.2016 22:59 -6,1 °C -6,1 °C 91 % 1029,3 hPa 0,0 mm 4,8 km/h (1 Bft) O-SO 113 ° 0 min 0,000 mm 0,0 UV-I 0 W/m² -7,3 °C 6,4 km/h (2 Bft)
28.11.2016 23:00 -6,1 °C -6,1 °C 91 % 1029,3 hPa 0,0 mm 2,6 km/h (1 Bft) SO 137 ° 0 min 0,000 mm 0,0 UV-I 0 W/m² -7,3 °C 4,8 km/h (1 Bft)
28.11.2016 23:01 -6,1 °C -6,1 °C 91 % 1029,3 hPa 0,0 mm 2,8 km/h (1 Bft) O-NO 66 ° 0 min 0,000 mm 0,0 UV-I 0 W/m² -7,3 °C 4,8 km/h (1 Bft)
28.11.2016 23:02 -6,1 °C -6,1 °C 91 % 1029,3 hPa 0,0 mm 2,5 km/h (1 Bft) O 88 ° 0 min 0,000 mm 0,0 UV-I 0 W/m² -7,3 °C 4,8 km/h (1 Bft)
28.11.2016 23:03 -6,1 °C -6,1 °C 91 % 1029,3 hPa 0,0 mm 2,1 km/h (1 Bft) O 88 ° 0 min 0,000 mm 0,0 UV-I 0 W/m² -7,3 °C 4,8 km/h (1 Bft)
28.11.2016 23:04 -6,1 °C -6,1 °C 91 % 1029,3 hPa 0,0 mm 3,4 km/h (1 Bft) O 79 ° 0 min 0,000 mm 0,0 UV-I 0 W/m² -7,3 °C 6,4 km/h (2 Bft)
28.11.2016 23:05 -6,1 °C -6,1 °C 92 % 1029,4 hPa 0,0 mm 5,5 km/h (1 Bft) O-NO 67 ° 0 min 0,000 mm 0,0 UV-I 0 W/m² -7,2 °C 8,0 km/h (2 Bft)
28.11.2016 23:06 -6,1 °C -6,1 °C 92 % 1029,3 hPa 0,0 mm 1,7 km/h (1 Bft) O-NO 69 ° 0 min 0,000 mm 0,0 UV-I 0 W/m² -7,2 °C 3,2 km/h (1 Bft)
28.11.2016 23:07 -6,1 °C -6,1 °C 92 % 1029,3 hPa 0,0 mm 4,6 km/h (1 Bft) O-NO 69 ° 0 min 0,000 mm 0,0 UV-I 0 W/m² -7,2 °C 9,7 km/h (2 Bft)
28.11.2016 23:08 -6,1 °C -6,1 °C 92 % 1029,4 hPa 0,0 mm 3,5 km/h (1 Bft) O-SO 118 ° 0 min 0,000 mm 0,0 UV-I 0 W/m² -7,2 °C 6,4 km/h (2 Bft)
28.11.2016 23:09 -6,1 °C -6,1 °C 92 % 1029,3 hPa 0,0 mm 2,0 km/h (1 Bft) O-SO 118 ° 0 min 0,000 mm 0,0 UV-I 0 W/m² -7,2 °C 4,8 km/h (1 Bft)
28.11.2016 23:10 -6,1 °C -6,1 °C 92 % 1029,3 hPa 0,0 mm 4,4 km/h (1 Bft) O-NO 74 ° 0 min 0,000 mm 0,0 UV-I 0 W/m² -7,2 °C 9,7 km/h (2 Bft)
28.11.2016 23:11 -6,1 °C -6,1 °C 92 % 1029,4 hPa 0,0 mm 1,6 km/h (1 Bft) O-NO 74 ° 0 min 0,000 mm 0,0 UV-I 0 W/m² -7,2 °C 4,8 km/h (1 Bft)
28.11.2016 23:12 -6,1 °C -6,1 °C 92 % 1029,3 hPa 0,0 mm 2,5 km/h (1 Bft) O-NO 66 ° 0 min 0,000 mm 0,0 UV-I 0 W/m² -7,2 °C 4,8 km/h (1 Bft)
28.11.2016 23:13 -6,1 °C -6,1 °C 92 % 1029,4 hPa 0,0 mm 2,1 km/h (1 Bft) O 86 ° 0 min 0,000 mm 0,0 UV-I 0 W/m² -7,2 °C 6,4 km/h (2 Bft)
28.11.2016 23:14 -6,1 °C -6,1 °C 92 % 1029,3 hPa 0,0 mm 5,6 km/h (1 Bft) O 98 ° 0 min 0,000 mm 0,0 UV-I 0 W/m² -7,2 °C 8,0 km/h (2 Bft)
28.11.2016 23:15 -6,1 °C -6,1 °C 92 % 1029,3 hPa 0,0 mm 2,2 km/h (1 Bft) O-NO 78 ° 0 min 0,000 mm 0,0 UV-I 0 W/m² -7,2 °C 3,2 km/h (1 Bft)
28.11.2016 23:16 -6,1 °C -6,1 °C 92 % 1029,4 hPa 0,0 mm 1,2 km/h (1 Bft) O-NO 78 ° 0 min 0,000 mm 0,0 UV-I 0 W/m² -7,2 °C 3,2 km/h (1 Bft)
28.11.2016 23:17 -6,1 °C -6,1 °C 92 % 1029,4 hPa 0,0 mm 2,8 km/h (1 Bft) O-NO 59 ° 0 min 0,000 mm 0,0 UV-I 0 W/m² -7,2 °C 6,4 km/h (2 Bft)
28.11.2016 23:18 -6,1 °C -6,1 °C 92 % 1029,4 hPa 0,0 mm 2,2 km/h (1 Bft) O 97 ° 0 min 0,000 mm 0,0 UV-I 0 W/m² -7,2 °C 4,8 km/h (1 Bft)
28.11.2016 23:19 -6,1 °C -6,1 °C 92 % 1029,4 hPa 0,0 mm 2,4 km/h (1 Bft) O-SO 108 ° 0 min 0,000 mm 0,0 UV-I 0 W/m² -7,2 °C 4,8 km/h (1 Bft)
28.11.2016 23:20 -6,1 °C -6,1 °C 92 % 1029,4 hPa 0,0 mm 1,1 km/h (1 Bft) O-SO 108 ° 0 min 0,000 mm 0,0 UV-I 0 W/m² -7,2 °C 3,2 km/h (1 Bft)
28.11.2016 23:21 -6,1 °C -6,1 °C 92 % 1029,4 hPa 0,0 mm 2,3 km/h (1 Bft) O-SO 108 ° 0 min 0,000 mm 0,0 UV-I 0 W/m² -7,2 °C 3,2 km/h (1 Bft)
28.11.2016 23:22 -6,1 °C -6,1 °C 92 % 1029,5 hPa 0,0 mm 7,0 km/h (2 Bft) O-NO 59 ° 0 min 0,000 mm 0,0 UV-I 0 W/m² -7,2 °C 11,3 km/h (2 Bft)
28.11.2016 23:23 -6,1 °C -6,1 °C 92 % 1029,5 hPa 0,0 mm 4,2 km/h (1 Bft) O-NO 69 ° 0 min 0,000 mm 0,0 UV-I 0 W/m² -7,2 °C 6,4 km/h (2 Bft)
28.11.2016 23:24 -6,1 °C -6,1 °C 92 % 1029,4 hPa 0,0 mm 5,6 km/h (1 Bft) O-NO 59 ° 0 min 0,000 mm 0,0 UV-I 0 W/m² -7,2 °C 11,3 km/h (2 Bft)
28.11.2016 23:25 -6,1 °C -6,1 °C 92 % 1029,5 hPa 0,0 mm 2,7 km/h (1 Bft) O 80 ° 0 min 0,000 mm 0,0 UV-I 0 W/m² -7,2 °C 8,0 km/h (2 Bft)
28.11.2016 23:26 -6,1 °C -6,1 °C 92 % 1029,5 hPa 0,0 mm 4,8 km/h (1 Bft) O-NO 72 ° 0 min 0,000 mm 0,0 UV-I 0 W/m² -7,2 °C 9,7 km/h (2 Bft)
28.11.2016 23:27 -6,1 °C -6,1 °C 92 % 1029,5 hPa 0,0 mm 4,6 km/h (1 Bft) O-NO 68 ° 0 min 0,000 mm 0,0 UV-I 0 W/m² -7,2 °C 6,4 km/h (2 Bft)
28.11.2016 23:28 -6,1 °C -6,1 °C 92 % 1029,5 hPa 0,0 mm 1,7 km/h (1 Bft) O 90 ° 0 min 0,000 mm 0,0 UV-I 0 W/m² -7,2 °C 3,2 km/h (1 Bft)
28.11.2016 23:29 -6,1 °C -6,1 °C 92 % 1029,5 hPa 0,0 mm 0,5 km/h (0 Bft) O 90 ° 0 min 0,000 mm 0,0 UV-I 0 W/m² -7,2 °C 3,2 km/h (1 Bft)
28.11.2016 23:30 -6,1 °C -6,1 °C 92 % 1029,5 hPa 0,0 mm 2,4 km/h (1 Bft) NO 42 ° 0 min 0,000 mm 0,0 UV-I 0 W/m² -7,2 °C 6,4 km/h (2 Bft)
28.11.2016 23:31 -6,1 °C -6,1 °C 92 % 1029,5 hPa 0,0 mm 2,3 km/h (1 Bft) O 97 ° 0 min 0,000 mm 0,0 UV-I 0 W/m² -7,2 °C 4,8 km/h (1 Bft)
28.11.2016 23:32 -6,1 °C -6,1 °C 92 % 1029,5 hPa 0,0 mm 2,1 km/h (1 Bft) O 96 ° 0 min 0,000 mm 0,0 UV-I 0 W/m² -7,2 °C 3,2 km/h (1 Bft)
28.11.2016 23:33 -6,1 °C -6,1 °C 92 % 1029,5 hPa 0,0 mm 3,8 km/h (1 Bft) O-NO 74 ° 0 min 0,000 mm 0,0 UV-I 0 W/m² -7,2 °C 4,8 km/h (1 Bft)
28.11.2016 23:34 -6,1 °C -6,1 °C 92 % 1029,5 hPa 0,0 mm 3,2 km/h (1 Bft) O-NO 74 ° 0 min 0,000 mm 0,0 UV-I 0 W/m² -7,2 °C 4,8 km/h (1 Bft)
28.11.2016 23:35 -6,1 °C -6,1 °C 91 % 1029,5 hPa 0,0 mm 1,8 km/h (1 Bft) O 88 ° 0 min 0,000 mm 0,0 UV-I 0 W/m² -7,3 °C 3,2 km/h (1 Bft)
28.11.2016 23:36 -6,1 °C -6,1 °C 91 % 1029,4 hPa 0,0 mm 2,8 km/h (1 Bft) O-NO 76 ° 0 min 0,000 mm 0,0 UV-I 0 W/m² -7,3 °C 4,8 km/h (1 Bft)
28.11.2016 23:37 -6,1 °C -6,1 °C 92 % 1029,5 hPa 0,0 mm 1,3 km/h (1 Bft) O-NO 76 ° 0 min 0,000 mm 0,0 UV-I 0 W/m² -7,2 °C 3,2 km/h (1 Bft)
28.11.2016 23:38 -6,1 °C -6,1 °C 92 % 1029,5 hPa 0,0 mm 2,3 km/h (1 Bft) O-NO 76 ° 0 min 0,000 mm 0,0 UV-I 0 W/m² -7,2 °C 4,8 km/h (1 Bft)
28.11.2016 23:39 -6,1 °C -6,1 °C 91 % 1029,5 hPa 0,0 mm 1,6 km/h (1 Bft) NO 44 ° 0 min 0,000 mm 0,0 UV-I 0 W/m² -7,3 °C 3,2 km/h (1 Bft)
28.11.2016 23:40 -6,1 °C -6,1 °C 91 % 1029,5 hPa 0,0 mm 1,1 km/h (1 Bft) NO 45 ° 0 min 0,000 mm 0,0 UV-I 0 W/m² -7,3 °C 4,8 km/h (1 Bft)
28.11.2016 23:41 -6,1 °C -6,1 °C 91 % 1029,5 hPa 0,0 mm 2,8 km/h (1 Bft) O-NO 68 ° 0 min 0,000 mm 0,0 UV-I 0 W/m² -7,3 °C 4,8 km/h (1 Bft)
28.11.2016 23:42 -6,2 °C -6,1 °C 91 % 1029,5 hPa 0,0 mm 1,2 km/h (1 Bft) O-NO 68 ° 0 min 0,000 mm 0,0 UV-I 0 W/m² -7,4 °C 3,2 km/h (1 Bft)
28.11.2016 23:43 -6,2 °C -6,1 °C 91 % 1029,5 hPa 0,0 mm 0,5 km/h (0 Bft) O-NO 68 ° 0 min 0,000 mm 0,0 UV-I 0 W/m² -7,4 °C 3,2 km/h (1 Bft)
28.11.2016 23:44 -6,2 °C -6,1 °C 91 % 1029,5 hPa 0,0 mm 2,8 km/h (1 Bft) O-NO 68 ° 0 min 0,000 mm 0,0 UV-I 0 W/m² -7,4 °C 4,8 km/h (1 Bft)
28.11.2016 23:45 -6,2 °C -6,2 °C 91 % 1029,5 hPa 0,0 mm 2,2 km/h (1 Bft) O-NO 68 ° 0 min 0,000 mm 0,0 UV-I 0 W/m² -7,4 °C 3,2 km/h (1 Bft)
28.11.2016 23:46 -6,2 °C -6,2 °C 91 % 1029,5 hPa 0,0 mm 4,5 km/h (1 Bft) O-SO 123 ° 0 min 0,000 mm 0,0 UV-I 0 W/m² -7,4 °C 6,4 km/h (2 Bft)
28.11.2016 23:47 -6,2 °C -6,2 °C 91 % 1029,5 hPa 0,0 mm 2,5 km/h (1 Bft) SO 124 ° 0 min 0,000 mm 0,0 UV-I 0 W/m² -7,4 °C 4,8 km/h (1 Bft)
28.11.2016 23:48 -6,2 °C -6,2 °C 91 % 1029,5 hPa 0,0 mm 0,7 km/h (0 Bft) SO 124 ° 0 min 0,000 mm 0,0 UV-I 0 W/m² -7,4 °C 1,6 km/h (1 Bft)
28.11.2016 23:49 -6,2 °C -6,2 °C 91 % 1029,5 hPa 0,0 mm 1,1 km/h (1 Bft) SO 124 ° 0 min 0,000 mm 0,0 UV-I 0 W/m² -7,4 °C 3,2 km/h (1 Bft)
28.11.2016 23:50 -6,2 °C -6,2 °C 91 % 1029,5 hPa 0,0 mm 0,4 km/h (0 Bft) SO 124 ° 0 min 0,000 mm 0,0 UV-I 0 W/m² -7,4 °C 1,6 km/h (1 Bft)
28.11.2016 23:51 -6,2 °C -6,2 °C 91 % 1029,5 hPa 0,0 mm 0,6 km/h (0 Bft) O-NO 76 ° 0 min 0,000 mm 0,0 UV-I 0 W/m² -7,4 °C 4,8 km/h (1 Bft)
28.11.2016 23:52 -6,2 °C -6,2 °C 91 % 1029,5 hPa 0,0 mm 1,3 km/h (1 Bft) O-NO 76 ° 0 min 0,000 mm 0,0 UV-I 0 W/m² -7,4 °C 3,2 km/h (1 Bft)
28.11.2016 23:53 -6,2 °C -6,2 °C 91 % 1029,5 hPa 0,0 mm 0,0 km/h (0 Bft) O-NO 76 ° 0 min 0,000 mm 0,0 UV-I 0 W/m² -7,4 °C 0,0 km/h (0 Bft)
28.11.2016 23:54 -6,2 °C -6,2 °C 91 % 1029,5 hPa 0,0 mm 0,4 km/h (0 Bft) O-NO 76 ° 0 min 0,000 mm 0,0 UV-I 0 W/m² -7,4 °C 1,6 km/h (1 Bft)
28.11.2016 23:55 -6,3 °C -6,2 °C 91 % 1029,5 hPa 0,0 mm 1,2 km/h (1 Bft) O-NO 76 ° 0 min 0,000 mm 0,0 UV-I 0 W/m² -7,5 °C 1,6 km/h (1 Bft)
28.11.2016 23:56 -6,3 °C -6,3 °C 91 % 1029,5 hPa 0,0 mm 1,9 km/h (1 Bft) O-NO 76 ° 0 min 0,000 mm 0,0 UV-I 0 W/m² -7,5 °C 3,2 km/h (1 Bft)
28.11.2016 23:57 -6,3 °C -6,3 °C 91 % 1029,5 hPa 0,0 mm 1,3 km/h (1 Bft) O-NO 76 ° 0 min 0,000 mm 0,0 UV-I 0 W/m² -7,5 °C 3,2 km/h (1 Bft)
28.11.2016 23:58 -6,3 °C -6,3 °C 91 % 1029,4 hPa 0,0 mm 2,7 km/h (1 Bft) O-NO 76 ° 0 min 0,000 mm 0,0 UV-I 0 W/m² -7,5 °C 3,2 km/h (1 Bft)
28.11.2016 23:59 -6,3 °C -6,3 °C 91 % 1029,5 hPa 0,0 mm 1,1 km/h (1 Bft) O-NO 76 ° 0 min 0,000 mm 0,0 UV-I 0 W/m² -7,5 °C 3,2 km/h (1 Bft)
_ Min-Zeit 23:59 23:59 13:25 00:01 - 23:53 - - - - - - 23:59 23:53
Minimum _ -6,3 °C -6,3 °C 77 % 1018,3 hPa - 0,0 km/h (0 Bft) - - - - - - -7,5 °C 0,0 km/h (0 Bft)
_ Max-Zeit 01:05 01:10 01:17 23:59 23:59 01:55 - - 23:59 14:01 13:22 11:13 01:05 13:50
Maximum _ 0,9 °C 0,9 °C 95 % 1029,5 hPa 0,0 mm 17,3 km/h
NO (3 Bft)
- - 0 min 0,051 mm 0,9 UV-I 169 W/m² 0,2 °C 20,9 km/h
O-NO (4 Bft)
Durchschnitt _ -2,4 °C -2,3 °C 90 % 1023,9 hPa #0,0 mm 5,4 km/h (1 Bft) O-NO - #0 min. #0,229 mm 0,7 UV-I 24 W/m² -3,8 °C 8,9 km/h (2 Bft)